<?xml version='1.0' encoding='UTF-8'?><gpx version="1.1" creator="JPX - https://github.com/jenetics/jpx" xmlns="http://www.topografix.com/GPX/1/1"><trk><trkseg><trkpt lat="45.46721268249594" lon="9.16046759279358"><ele>130.0</ele><time>2026-04-18T06:37:24Z</time></trkpt><trkpt lat="45.467217441842756" lon="9.160340858481849"><ele>130.0</ele><time>2026-04-18T06:37:29Z</time></trkpt><trkpt lat="45.467197612123236" lon="9.160239654802746"><ele>130.0</ele><time>2026-04-18T06:37:31Z</time></trkpt><trkpt lat="45.46713698434953" lon="9.160200379719385"><ele>130.0</ele><time>2026-04-18T06:37:33Z</time></trkpt><trkpt lat="45.46707519126818" lon="9.160144231730216"><ele>130.0</ele><time>2026-04-18T06:37:37Z</time></trkpt><trkpt lat="45.46707601551963" lon="9.160052357512502"><ele>130.0</ele><time>2026-04-18T06:37:39Z</time></trkpt><trkpt lat="45.4670100042452" lon="9.159953426552313"><ele>130.0</ele><time>2026-04-18T06:37:43Z</time></trkpt><trkpt lat="45.46703311086733" lon="9.15971722326419"><ele>130.0</ele><time>2026-04-18T06:37:45Z</time></trkpt><trkpt lat="45.46711222867109" lon="9.15965236194837"><ele>130.0</ele><time>2026-04-18T06:37:47Z</time></trkpt><trkpt lat="45.46717619169232" lon="9.159739225225318"><ele>130.0</ele><time>2026-04-18T06:37:52Z</time></trkpt><trkpt lat="45.46732558544245" lon="9.159783903293567"><ele>130.0</ele><time>2026-04-18T06:37:59Z</time></trkpt><trkpt lat="45.4672673398951" lon="9.15970747480232"><ele>130.0</ele><time>2026-04-18T06:38:08Z</time></trkpt><trkpt lat="45.46722493470007" lon="9.15962794508587"><ele>130.0</ele><time>2026-04-18T06:38:12Z</time></trkpt><trkpt lat="45.467157955258365" lon="9.159612678750952"><ele>130.0</ele><time>2026-04-18T06:38:14Z</time></trkpt><trkpt lat="45.46709457638377" lon="9.1595723914612"><ele>130.0</ele><time>2026-04-18T06:38:16Z</time></trkpt><trkpt lat="45.467013384807615" lon="9.15956422025795"><ele>130.0</ele><time>2026-04-18T06:38:18Z</time></trkpt><trkpt lat="45.466920687155294" lon="9.159567976648969"><ele>130.00000000000003</ele><time>2026-04-18T06:38:20Z</time></trkpt><trkpt lat="45.466836472654045" lon="9.159557255450688"><ele>130.0</ele><time>2026-04-18T06:38:22Z</time></trkpt><trkpt lat="45.4667663701344" lon="9.159541517356063"><ele>130.0</ele><time>2026-04-18T06:38:23.999Z</time></trkpt><trkpt lat="45.4666993182197" lon="9.159507041634704"><ele>130.0</ele><time>2026-04-18T06:38:26.999Z</time></trkpt><trkpt lat="45.46663835144227" lon="9.159478755893671"><ele>130.0</ele><time>2026-04-18T06:38:30.999Z</time></trkpt><trkpt lat="45.46658293980575" lon="9.159426204394514"><ele>130.00000000000003</ele><time>2026-04-18T06:38:34.999Z</time></trkpt><trkpt lat="45.46651191380969" lon="9.159367846872934"><ele>130.0</ele><time>2026-04-18T06:38:36.999Z</time></trkpt><trkpt lat="45.46644775213664" lon="9.159295601134673"><ele>130.0</ele><time>2026-04-18T06:38:38.999Z</time></trkpt><trkpt lat="45.4663498481158" lon="9.159271496028667"><ele>130.0</ele><time>2026-04-18T06:38:41.999Z</time></trkpt><trkpt lat="45.46626797265074" lon="9.159174583766406"><ele>130.0</ele><time>2026-04-18T06:38:43.999Z</time></trkpt><trkpt lat="45.466181924108916" lon="9.159119189308727"><ele>130.0</ele><time>2026-04-18T06:38:45.999Z</time></trkpt><trkpt lat="45.46609888978481" lon="9.159059167815208"><ele>130.0</ele><time>2026-04-18T06:38:47.999Z</time></trkpt><trkpt lat="45.466018819929516" lon="9.158976036678931"><ele>130.2</ele><time>2026-04-18T06:38:49.999Z</time></trkpt><trkpt lat="45.46592814218485" lon="9.158928596779141"><ele>130.4</ele><time>2026-04-18T06:38:51.999Z</time></trkpt><trkpt lat="45.46580886649954" lon="9.158962546440236"><ele>130.6</ele><time>2026-04-18T06:38:53.999Z</time></trkpt><trkpt lat="45.465734692489015" lon="9.158951731126507"><ele>130.8</ele><time>2026-04-18T06:38:54.999Z</time></trkpt><trkpt lat="45.465668882797786" lon="9.158941445856946"><ele>131.0</ele><time>2026-04-18T06:38:55.999Z</time></trkpt><trkpt lat="45.465566949911235" lon="9.158901007733604"><ele>131.0</ele><time>2026-04-18T06:38:57.999Z</time></trkpt><trkpt lat="45.4654594046035" lon="9.158914551178489"><ele>131.0</ele><time>2026-04-18T06:38:59.999Z</time></trkpt><trkpt lat="45.465370747476264" lon="9.158886041286245"><ele>131.0</ele><time>2026-04-18T06:39:01.999Z</time></trkpt><trkpt lat="45.465249543720276" lon="9.158860837121155"><ele>131.0</ele><time>2026-04-18T06:39:03.999Z</time></trkpt><trkpt lat="45.46514226698454" lon="9.158838895558661"><ele>131.0</ele><time>2026-04-18T06:39:05.999Z</time></trkpt><trkpt lat="45.465079231657406" lon="9.15884921136955"><ele>130.0</ele><time>2026-04-18T06:39:06.999Z</time></trkpt><trkpt lat="45.46497446155435" lon="9.158782247160012"><ele>129.0</ele><time>2026-04-18T06:39:08.999Z</time></trkpt><trkpt lat="45.46485089539929" lon="9.158744580330149"><ele>128.0</ele><time>2026-04-18T06:39:10.999Z</time></trkpt><trkpt lat="45.46478482381759" lon="9.158729152680117"><ele>127.0</ele><time>2026-04-18T06:39:11.999Z</time></trkpt><trkpt lat="45.46472238278211" lon="9.158715839830885"><ele>126.0</ele><time>2026-04-18T06:39:13Z</time></trkpt><trkpt lat="45.464612302330906" lon="9.158674503457235"><ele>126.0</ele><time>2026-04-18T06:39:15Z</time></trkpt><trkpt lat="45.46448997139769" lon="9.158632159484409"><ele>126.0</ele><time>2026-04-18T06:39:17Z</time></trkpt><trkpt lat="45.464425738595914" lon="9.158603452147679"><ele>126.0</ele><time>2026-04-18T06:39:18Z</time></trkpt><trkpt lat="45.46435813295163" lon="9.158610649235497"><ele>126.0</ele><time>2026-04-18T06:39:19Z</time></trkpt><trkpt lat="45.46425082769214" lon="9.158516259626953"><ele>126.0</ele><time>2026-04-18T06:39:21Z</time></trkpt><trkpt lat="45.46418913002627" lon="9.15847005959411"><ele>126.0</ele><time>2026-04-18T06:39:22Z</time></trkpt><trkpt lat="45.46412524495502" lon="9.158438856799723"><ele>126.0</ele><time>2026-04-18T06:39:23Z</time></trkpt><trkpt lat="45.464016095131235" lon="9.15838107998419"><ele>126.0</ele><time>2026-04-18T06:39:25Z</time></trkpt><trkpt lat="45.46390563037209" lon="9.158323887868159"><ele>126.0</ele><time>2026-04-18T06:39:27Z</time></trkpt><trkpt lat="45.46385553911934" lon="9.158266706140205"><ele>126.0</ele><time>2026-04-18T06:39:28Z</time></trkpt><trkpt lat="45.463802183310804" lon="9.158217360152412"><ele>126.0</ele><time>2026-04-18T06:39:29Z</time></trkpt><trkpt lat="45.46369153893935" lon="9.158129895547459"><ele>125.4</ele><time>2026-04-18T06:39:31Z</time></trkpt><trkpt lat="45.46362786336625" lon="9.157998360557272"><ele>124.8</ele><time>2026-04-18T06:39:33Z</time></trkpt><trkpt lat="45.463603499159596" lon="9.157819949656764"><ele>124.20000000000002</ele><time>2026-04-18T06:39:35Z</time></trkpt><trkpt lat="45.46358894302951" lon="9.157717901040467"><ele>123.60000000000001</ele><time>2026-04-18T06:39:38Z</time></trkpt><trkpt lat="45.463594063758265" lon="9.157567942855268"><ele>123.0</ele><time>2026-04-18T06:39:40Z</time></trkpt><trkpt lat="45.4635470765643" lon="9.157439739410773"><ele>123.0</ele><time>2026-04-18T06:39:42Z</time></trkpt><trkpt lat="45.463471519341226" lon="9.157406496168269"><ele>123.00000000000001</ele><time>2026-04-18T06:39:44Z</time></trkpt><trkpt lat="45.4633880157993" lon="9.157513858271573"><ele>123.00000000000001</ele><time>2026-04-18T06:39:46Z</time></trkpt><trkpt lat="45.46330756172995" lon="9.157591872005309"><ele>123.0</ele><time>2026-04-18T06:39:48Z</time></trkpt><trkpt lat="45.463201966560526" lon="9.157650961607255"><ele>123.0</ele><time>2026-04-18T06:39:50Z</time></trkpt><trkpt lat="45.46310379452174" lon="9.157715057619374"><ele>123.0</ele><time>2026-04-18T06:39:52Z</time></trkpt><trkpt lat="45.46301057884103" lon="9.157794488311232"><ele>123.0</ele><time>2026-04-18T06:39:54Z</time></trkpt><trkpt lat="45.46290368045601" lon="9.157839775872324"><ele>123.0</ele><time>2026-04-18T06:39:56Z</time></trkpt><trkpt lat="45.462785805457145" lon="9.15789510539137"><ele>123.0</ele><time>2026-04-18T06:39:58Z</time></trkpt><trkpt lat="45.462673108830366" lon="9.157965127445145"><ele>122.80000000000001</ele><time>2026-04-18T06:40:00Z</time></trkpt><trkpt lat="45.46255039686212" lon="9.158025418133066"><ele>122.60000000000001</ele><time>2026-04-18T06:40:02Z</time></trkpt><trkpt lat="45.462485522003476" lon="9.158056359158923"><ele>122.39999999999999</ele><time>2026-04-18T06:40:03Z</time></trkpt><trkpt lat="45.46238651138053" lon="9.158115091998473"><ele>122.19999999999999</ele><time>2026-04-18T06:40:05Z</time></trkpt><trkpt lat="45.462296731336835" lon="9.158171763185049"><ele>122.0</ele><time>2026-04-18T06:40:07Z</time></trkpt><trkpt lat="45.462211226965145" lon="9.158229054531256"><ele>122.0</ele><time>2026-04-18T06:40:09Z</time></trkpt><trkpt lat="45.462122000537654" lon="9.158301293706458"><ele>121.99999999999999</ele><time>2026-04-18T06:40:11Z</time></trkpt><trkpt lat="45.462018197882514" lon="9.158362520015624"><ele>121.99999999999999</ele><time>2026-04-18T06:40:13Z</time></trkpt><trkpt lat="45.461955399329675" lon="9.158412347961935"><ele>122.0</ele><time>2026-04-18T06:40:15Z</time></trkpt><trkpt lat="45.46187607377501" lon="9.158454084003079"><ele>122.0</ele><time>2026-04-18T06:40:17Z</time></trkpt><trkpt lat="45.46181156008868" lon="9.158352347382724"><ele>122.0</ele><time>2026-04-18T06:40:17.999Z</time></trkpt><trkpt lat="45.46175128668655" lon="9.158242231726756"><ele>121.99999999999999</ele><time>2026-04-18T06:40:19.999Z</time></trkpt><trkpt lat="45.46170105649878" lon="9.158093403393163"><ele>121.99999999999999</ele><time>2026-04-18T06:40:21.999Z</time></trkpt><trkpt lat="45.461670657221944" lon="9.158012615050396"><ele>122.0</ele><time>2026-04-18T06:40:22.999Z</time></trkpt><trkpt lat="45.461609947433" lon="9.157866595926901"><ele>122.0</ele><time>2026-04-18T06:40:24.999Z</time></trkpt><trkpt lat="45.46155345125072" lon="9.157723361407733"><ele>122.33333333333333</ele><time>2026-04-18T06:40:26.999Z</time></trkpt><trkpt lat="45.46152505255386" lon="9.157641369411461"><ele>122.66666666666666</ele><time>2026-04-18T06:40:27.999Z</time></trkpt><trkpt lat="45.46148678126995" lon="9.1575666266687"><ele>123.0</ele><time>2026-04-18T06:40:28.999Z</time></trkpt><trkpt lat="45.461392850128405" lon="9.157456004331179"><ele>123.33333333333334</ele><time>2026-04-18T06:40:30.999Z</time></trkpt><trkpt lat="45.461329312138396" lon="9.157423860770523"><ele>123.66666666666667</ele><time>2026-04-18T06:40:31.999Z</time></trkpt><trkpt lat="45.4612201182903" lon="9.15734802047476"><ele>124.0</ele><time>2026-04-18T06:40:33.999Z</time></trkpt><trkpt lat="45.46111452272398" lon="9.157253558610261"><ele>124.33333333333334</ele><time>2026-04-18T06:40:35.999Z</time></trkpt><trkpt lat="45.46101332352209" lon="9.157188717930781"><ele>124.66666666666667</ele><time>2026-04-18T06:40:37.999Z</time></trkpt><trkpt lat="45.4609061030486" lon="9.157117607883723"><ele>125.0</ele><time>2026-04-18T06:40:39.999Z</time></trkpt><trkpt lat="45.46083923844616" lon="9.157096684748828"><ele>125.33333333333334</ele><time>2026-04-18T06:40:40.999Z</time></trkpt><trkpt lat="45.46076932864819" lon="9.157080658897728"><ele>125.66666666666667</ele><time>2026-04-18T06:40:41.999Z</time></trkpt><trkpt lat="45.460706429715145" lon="9.1570524867337"><ele>126.0</ele><time>2026-04-18T06:40:42.999Z</time></trkpt><trkpt lat="45.460580358400826" lon="9.157022180084446"><ele>126.0</ele><time>2026-04-18T06:40:44.999Z</time></trkpt><trkpt lat="45.46051400027996" lon="9.15700493714732"><ele>126.0</ele><time>2026-04-18T06:40:45.999Z</time></trkpt><trkpt lat="45.46044222139993" lon="9.157011082407443"><ele>126.0</ele><time>2026-04-18T06:40:46.999Z</time></trkpt><trkpt lat="45.46037768104182" lon="9.15698771539701"><ele>126.0</ele><time>2026-04-18T06:40:47.999Z</time></trkpt><trkpt lat="45.460317632405946" lon="9.156951943333588"><ele>126.0</ele><time>2026-04-18T06:40:48.999Z</time></trkpt><trkpt lat="45.4602494743257" lon="9.156942078717387"><ele>126.0</ele><time>2026-04-18T06:40:49.999Z</time></trkpt><trkpt lat="45.46017795763958" lon="9.156963358088248"><ele>126.0</ele><time>2026-04-18T06:40:50.999Z</time></trkpt><trkpt lat="45.46010255770803" lon="9.156986884351486"><ele>126.6</ele><time>2026-04-18T06:40:51.999Z</time></trkpt><trkpt lat="45.460031067352624" lon="9.157012964387235"><ele>127.19999999999999</ele><time>2026-04-18T06:40:52.999Z</time></trkpt><trkpt lat="45.45991469352294" lon="9.156968017026221"><ele>127.80000000000001</ele><time>2026-04-18T06:40:54.999Z</time></trkpt><trkpt lat="45.45984847667414" lon="9.156942441902425"><ele>128.4</ele><time>2026-04-18T06:40:55.999Z</time></trkpt><trkpt lat="45.45977778360971" lon="9.156915137927987"><ele>129.0</ele><time>2026-04-18T06:40:56.999Z</time></trkpt><trkpt lat="45.459664760223866" lon="9.156861473922184"><ele>129.0</ele><time>2026-04-18T06:40:58.999Z</time></trkpt><trkpt lat="45.4596070372832" lon="9.156807399496856"><ele>129.0</ele><time>2026-04-18T06:40:59.999Z</time></trkpt><trkpt lat="45.45954342691535" lon="9.156771316200732"><ele>129.0</ele><time>2026-04-18T06:41:00.999Z</time></trkpt><trkpt lat="45.45947567332638" lon="9.156742967696632"><ele>129.0</ele><time>2026-04-18T06:41:01.999Z</time></trkpt><trkpt lat="45.45935255014238" lon="9.15670821174539"><ele>129.0</ele><time>2026-04-18T06:41:03.999Z</time></trkpt><trkpt lat="45.459288820529785" lon="9.156684875652777"><ele>129.0</ele><time>2026-04-18T06:41:04.999Z</time></trkpt><trkpt lat="45.45917041469244" lon="9.156642592139084"><ele>129.0</ele><time>2026-04-18T06:41:06.999Z</time></trkpt><trkpt lat="45.45908490177203" lon="9.156571001926674"><ele>129.0</ele><time>2026-04-18T06:41:08.999Z</time></trkpt><trkpt lat="45.45895879272828" lon="9.156540313402774"><ele>129.0</ele><time>2026-04-18T06:41:10.999Z</time></trkpt><trkpt lat="45.458897402293566" lon="9.156505690133752"><ele>129.0</ele><time>2026-04-18T06:41:11.999Z</time></trkpt><trkpt lat="45.45882857089377" lon="9.156500348419144"><ele>129.0</ele><time>2026-04-18T06:41:12.999Z</time></trkpt><trkpt lat="45.458717598110056" lon="9.156499723619625"><ele>129.0</ele><time>2026-04-18T06:41:14.999Z</time></trkpt><trkpt lat="45.45860997831987" lon="9.15645756005579"><ele>129.0</ele><time>2026-04-18T06:41:16.999Z</time></trkpt><trkpt lat="45.45850468818069" lon="9.156382540672345"><ele>129.0</ele><time>2026-04-18T06:41:19Z</time></trkpt><trkpt lat="45.45841062325084" lon="9.156373528031853"><ele>129.0</ele><time>2026-04-18T06:41:21Z</time></trkpt><trkpt lat="45.458329466994726" lon="9.156334930854769"><ele>129.0</ele><time>2026-04-18T06:41:23Z</time></trkpt><trkpt lat="45.458236945279204" lon="9.15633635430346"><ele>129.0</ele><time>2026-04-18T06:41:25Z</time></trkpt><trkpt lat="45.45815358743357" lon="9.156228534076337"><ele>129.0</ele><time>2026-04-18T06:41:27Z</time></trkpt><trkpt lat="45.458136691689006" lon="9.156101169217433"><ele>129.0</ele><time>2026-04-18T06:41:28Z</time></trkpt><trkpt lat="45.45819232214988" lon="9.155930231772288"><ele>129.0</ele><time>2026-04-18T06:41:29Z</time></trkpt><trkpt lat="45.458157014179136" lon="9.155853096624423"><ele>129.0</ele><time>2026-04-18T06:41:30Z</time></trkpt><trkpt lat="45.458144122538" lon="9.155695385593228"><ele>128.33333333333334</ele><time>2026-04-18T06:41:32Z</time></trkpt><trkpt lat="45.45815647946222" lon="9.155603494186849"><ele>127.66666666666666</ele><time>2026-04-18T06:41:33Z</time></trkpt><trkpt lat="45.45817685984629" lon="9.155517005633078"><ele>127.0</ele><time>2026-04-18T06:41:34Z</time></trkpt><trkpt lat="45.45816728930363" lon="9.155313505598313"><ele>126.33333333333333</ele><time>2026-04-18T06:41:36Z</time></trkpt><trkpt lat="45.45818640286896" lon="9.155215065378327"><ele>125.66666666666666</ele><time>2026-04-18T06:41:37Z</time></trkpt><trkpt lat="45.45820227756319" lon="9.155102129112612"><ele>125.0</ele><time>2026-04-18T06:41:39Z</time></trkpt><trkpt lat="45.45817385440504" lon="9.154997332300232"><ele>125.0</ele><time>2026-04-18T06:41:43Z</time></trkpt><trkpt lat="45.458128837591026" lon="9.154892035121025"><ele>125.0</ele><time>2026-04-18T06:41:46Z</time></trkpt><trkpt lat="45.45803590949435" lon="9.154873616122721"><ele>125.0</ele><time>2026-04-18T06:41:49Z</time></trkpt><trkpt lat="45.457764937983065" lon="9.15483601646696"><ele>125.83333333333333</ele><time>2026-04-18T06:41:51Z</time></trkpt><trkpt lat="45.45765444955382" lon="9.154827345019509"><ele>126.66666666666666</ele><time>2026-04-18T06:41:53Z</time></trkpt><trkpt lat="45.457585492811994" lon="9.154821983676246"><ele>127.5</ele><time>2026-04-18T06:41:54Z</time></trkpt><trkpt lat="45.45750884635434" lon="9.154809282390655"><ele>128.33333333333334</ele><time>2026-04-18T06:41:55Z</time></trkpt><trkpt lat="45.45739134463683" lon="9.154824647678264"><ele>129.16666666666669</ele><time>2026-04-18T06:41:57Z</time></trkpt><trkpt lat="45.4573208600889" lon="9.154831761874211"><ele>130.0</ele><time>2026-04-18T06:41:58Z</time></trkpt><trkpt lat="45.457248816966384" lon="9.154837372486092"><ele>130.0</ele><time>2026-04-18T06:41:59Z</time></trkpt><trkpt lat="45.457182157065915" lon="9.154832957044338"><ele>130.0</ele><time>2026-04-18T06:42:00Z</time></trkpt><trkpt lat="45.45706044736659" lon="9.15482455045609"><ele>130.0</ele><time>2026-04-18T06:42:02Z</time></trkpt><trkpt lat="45.45699669684224" lon="9.1548131968966"><ele>130.0</ele><time>2026-04-18T06:42:03Z</time></trkpt><trkpt lat="45.45692994542025" lon="9.154804676335614"><ele>130.0</ele><time>2026-04-18T06:42:04Z</time></trkpt><trkpt lat="45.45686175654253" lon="9.154805813773821"><ele>130.0</ele><time>2026-04-18T06:42:05Z</time></trkpt><trkpt lat="45.456761636688796" lon="9.15473686903819"><ele>129.83333333333334</ele><time>2026-04-18T06:42:07Z</time></trkpt><trkpt lat="45.45668824280689" lon="9.154738367763214"><ele>129.66666666666669</ele><time>2026-04-18T06:42:08Z</time></trkpt><trkpt lat="45.456623555469" lon="9.15472199751163"><ele>129.5</ele><time>2026-04-18T06:42:09Z</time></trkpt><trkpt lat="45.456481821298645" lon="9.154733814773294"><ele>129.33333333333334</ele><time>2026-04-18T06:42:11Z</time></trkpt><trkpt lat="45.45641360057478" lon="9.154757054810924"><ele>129.16666666666666</ele><time>2026-04-18T06:42:12Z</time></trkpt><trkpt lat="45.45634331753144" lon="9.154787149056913"><ele>129.0</ele><time>2026-04-18T06:42:13Z</time></trkpt><trkpt lat="45.45627474434997" lon="9.154797675585545"><ele>128.57142857142856</ele><time>2026-04-18T06:42:14Z</time></trkpt><trkpt lat="45.45622207524769" lon="9.154734545070566"><ele>128.14285714285714</ele><time>2026-04-18T06:42:15Z</time></trkpt><trkpt lat="45.45615115280117" lon="9.154733813040796"><ele>127.71428571428571</ele><time>2026-04-18T06:42:16Z</time></trkpt><trkpt lat="45.45608378458816" lon="9.154699991467712"><ele>127.28571428571428</ele><time>2026-04-18T06:42:17Z</time></trkpt><trkpt lat="45.45600936304196" lon="9.154693729606318"><ele>126.85714285714286</ele><time>2026-04-18T06:42:17.999Z</time></trkpt><trkpt lat="45.45593899843882" lon="9.154690140622915"><ele>126.42857142857143</ele><time>2026-04-18T06:42:18.999Z</time></trkpt><trkpt lat="45.45587981053104" lon="9.154659371039786"><ele>126.0</ele><time>2026-04-18T06:42:19.999Z</time></trkpt><trkpt lat="45.45577061012208" lon="9.154625632447743"><ele>126.0</ele><time>2026-04-18T06:42:21.999Z</time></trkpt><trkpt lat="45.455745369213275" lon="9.154525800266681"><ele>126.0</ele><time>2026-04-18T06:42:22.999Z</time></trkpt><trkpt lat="45.45571710915611" lon="9.154429962768676"><ele>126.0</ele><time>2026-04-18T06:42:23.999Z</time></trkpt><trkpt lat="45.45565913703705" lon="9.154269401466168"><ele>126.0</ele><time>2026-04-18T06:42:25.999Z</time></trkpt><trkpt lat="45.455637296407716" lon="9.154169824732266"><ele>126.0</ele><time>2026-04-18T06:42:26.999Z</time></trkpt><trkpt lat="45.45561630835817" lon="9.154065793122703"><ele>126.0</ele><time>2026-04-18T06:42:27.999Z</time></trkpt><trkpt lat="45.45559300071524" lon="9.153945053331183"><ele>126.0</ele><time>2026-04-18T06:42:28.999Z</time></trkpt><trkpt lat="45.45557522081578" lon="9.153821490781581"><ele>126.0</ele><time>2026-04-18T06:42:29.999Z</time></trkpt><trkpt lat="45.45555435045891" lon="9.153715894244769"><ele>126.0</ele><time>2026-04-18T06:42:30.999Z</time></trkpt><trkpt lat="45.45553071094713" lon="9.15362549911751"><ele>126.0</ele><time>2026-04-18T06:42:31.999Z</time></trkpt><trkpt lat="45.4555137705222" lon="9.153535500362556"><ele>126.0</ele><time>2026-04-18T06:42:32.999Z</time></trkpt><trkpt lat="45.45548887627121" lon="9.153436506947767"><ele>126.0</ele><time>2026-04-18T06:42:33.999Z</time></trkpt><trkpt lat="45.45545202010262" lon="9.153341201696438"><ele>126.0</ele><time>2026-04-18T06:42:34.999Z</time></trkpt><trkpt lat="45.45542807312828" lon="9.153245341126675"><ele>125.8</ele><time>2026-04-18T06:42:35.999Z</time></trkpt><trkpt lat="45.45537710139904" lon="9.15307757959998"><ele>125.6</ele><time>2026-04-18T06:42:37.999Z</time></trkpt><trkpt lat="45.4553596240626" lon="9.15298276662434"><ele>125.4</ele><time>2026-04-18T06:42:38.999Z</time></trkpt><trkpt lat="45.455343967079365" lon="9.15288118090108"><ele>125.2</ele><time>2026-04-18T06:42:39.999Z</time></trkpt><trkpt lat="45.455308778493105" lon="9.152727700639957"><ele>125.0</ele><time>2026-04-18T06:42:41.999Z</time></trkpt><trkpt lat="45.45526950664733" lon="9.152597896191423"><ele>124.99999999999999</ele><time>2026-04-18T06:42:43.999Z</time></trkpt><trkpt lat="45.455202790468505" lon="9.152461975240302"><ele>125.0</ele><time>2026-04-18T06:42:45.999Z</time></trkpt><trkpt lat="45.45511146720515" lon="9.152442372386602"><ele>125.0</ele><time>2026-04-18T06:42:47.999Z</time></trkpt><trkpt lat="45.455040482759145" lon="9.1524104764291"><ele>125.0</ele><time>2026-04-18T06:42:49.999Z</time></trkpt><trkpt lat="45.45498398368057" lon="9.152477566054673"><ele>124.99999999999999</ele><time>2026-04-18T06:42:51.999Z</time></trkpt><trkpt lat="45.45492525954293" lon="9.152564347942128"><ele>125.0</ele><time>2026-04-18T06:42:53.999Z</time></trkpt><trkpt lat="45.454855975072924" lon="9.152649362929527"><ele>125.0</ele><time>2026-04-18T06:42:55.999Z</time></trkpt><trkpt lat="45.454765246636924" lon="9.1527340351418"><ele>125.0</ele><time>2026-04-18T06:42:57.999Z</time></trkpt><trkpt lat="45.454663196314264" lon="9.152791350764712"><ele>125.0</ele><time>2026-04-18T06:42:59.999Z</time></trkpt><trkpt lat="45.45456477537593" lon="9.152840733326332"><ele>125.0</ele><time>2026-04-18T06:43:01.999Z</time></trkpt><trkpt lat="45.45443513432579" lon="9.152888844923034"><ele>125.49999999999999</ele><time>2026-04-18T06:43:03.999Z</time></trkpt><trkpt lat="45.45436817592185" lon="9.152932751371846"><ele>126.0</ele><time>2026-04-18T06:43:04.999Z</time></trkpt><trkpt lat="45.454306435914624" lon="9.152963709058291"><ele>126.5</ele><time>2026-04-18T06:43:05.999Z</time></trkpt><trkpt lat="45.45423649962633" lon="9.152992516879207"><ele>127.0</ele><time>2026-04-18T06:43:06.999Z</time></trkpt><trkpt lat="45.45415733883276" lon="9.153020074385948"><ele>127.49999999999999</ele><time>2026-04-18T06:43:07.999Z</time></trkpt><trkpt lat="45.45409027936176" lon="9.153046056966554"><ele>128.0</ele><time>2026-04-18T06:43:08.999Z</time></trkpt><trkpt lat="45.45399597892307" lon="9.153116501569068"><ele>128.0</ele><time>2026-04-18T06:43:10.999Z</time></trkpt><trkpt lat="45.453937105933036" lon="9.153170640001495"><ele>128.0</ele><time>2026-04-18T06:43:11.999Z</time></trkpt><trkpt lat="45.45388124873115" lon="9.153290618888542"><ele>128.0</ele><time>2026-04-18T06:43:13.999Z</time></trkpt><trkpt lat="45.45380580134176" lon="9.15340695939611"><ele>128.0</ele><time>2026-04-18T06:43:15.999Z</time></trkpt><trkpt lat="45.453746247890656" lon="9.153440410386171"><ele>128.0</ele><time>2026-04-18T06:43:16.999Z</time></trkpt><trkpt lat="45.45363204499636" lon="9.153480187889253"><ele>126.4</ele><time>2026-04-18T06:43:18.999Z</time></trkpt><trkpt lat="45.45355160179622" lon="9.153525065999817"><ele>124.80000000000001</ele><time>2026-04-18T06:43:20.999Z</time></trkpt><trkpt lat="45.45344305800802" lon="9.153602284974301"><ele>123.2</ele><time>2026-04-18T06:43:22.999Z</time></trkpt><trkpt lat="45.45338001226387" lon="9.153623510056807"><ele>121.6</ele><time>2026-04-18T06:43:23.999Z</time></trkpt><trkpt lat="45.453262564787025" lon="9.153672532900934"><ele>120.0</ele><time>2026-04-18T06:43:26Z</time></trkpt><trkpt lat="45.45320203599111" lon="9.153697293070369"><ele>120.0</ele><time>2026-04-18T06:43:27Z</time></trkpt><trkpt lat="45.45308567522562" lon="9.153753166768269"><ele>120.0</ele><time>2026-04-18T06:43:29Z</time></trkpt><trkpt lat="45.45303506401865" lon="9.153813984142822"><ele>120.0</ele><time>2026-04-18T06:43:30Z</time></trkpt><trkpt lat="45.45291802134392" lon="9.153882601207387"><ele>120.0</ele><time>2026-04-18T06:43:32Z</time></trkpt><trkpt lat="45.452859199305536" lon="9.153952564943062"><ele>120.0</ele><time>2026-04-18T06:43:35Z</time></trkpt><trkpt lat="45.45279146837966" lon="9.153920483511495"><ele>119.85714285714286</ele><time>2026-04-18T06:43:38Z</time></trkpt><trkpt lat="45.45273683372204" lon="9.153969692419587"><ele>119.71428571428571</ele><time>2026-04-18T06:43:41Z</time></trkpt><trkpt lat="45.45267443637649" lon="9.154022847311934"><ele>119.57142857142857</ele><time>2026-04-18T06:43:44Z</time></trkpt><trkpt lat="45.452604864572656" lon="9.154050657753913"><ele>119.42857142857143</ele><time>2026-04-18T06:43:48Z</time></trkpt><trkpt lat="45.452541611896216" lon="9.154066594985123"><ele>119.28571428571428</ele><time>2026-04-18T06:43:50Z</time></trkpt><trkpt lat="45.452472115452416" lon="9.154102685825768"><ele>119.14285714285714</ele><time>2026-04-18T06:43:52Z</time></trkpt><trkpt lat="45.452411589570126" lon="9.154145339017848"><ele>119.0</ele><time>2026-04-18T06:43:54Z</time></trkpt><trkpt lat="45.4523383200344" lon="9.154216534099787"><ele>119.0</ele><time>2026-04-18T06:43:56Z</time></trkpt><trkpt lat="45.45225178237609" lon="9.154269260213386"><ele>119.0</ele><time>2026-04-18T06:43:58Z</time></trkpt><trkpt lat="45.45216497616285" lon="9.154306748880142"><ele>119.0</ele><time>2026-04-18T06:44:00Z</time></trkpt><trkpt lat="45.45205811957085" lon="9.154346918689548"><ele>119.0</ele><time>2026-04-18T06:44:02Z</time></trkpt><trkpt lat="45.451958492707824" lon="9.154394412332344"><ele>119.0</ele><time>2026-04-18T06:44:04Z</time></trkpt><trkpt lat="45.451870559112805" lon="9.154412994932988"><ele>119.66666666666666</ele><time>2026-04-18T06:44:06Z</time></trkpt><trkpt lat="45.451806235177855" lon="9.154433692484625"><ele>120.33333333333333</ele><time>2026-04-18T06:44:08Z</time></trkpt><trkpt lat="45.45172395378041" lon="9.154507340908411"><ele>121.0</ele><time>2026-04-18T06:44:10Z</time></trkpt><trkpt lat="45.4516354686793" lon="9.154532215195914"><ele>121.66666666666666</ele><time>2026-04-18T06:44:12Z</time></trkpt><trkpt lat="45.451549895353125" lon="9.154579468610404"><ele>122.33333333333333</ele><time>2026-04-18T06:44:14Z</time></trkpt><trkpt lat="45.45145321179698" lon="9.154616074974854"><ele>123.0</ele><time>2026-04-18T06:44:16Z</time></trkpt><trkpt lat="45.45135516621662" lon="9.154705439279416"><ele>122.80000000000001</ele><time>2026-04-18T06:44:18Z</time></trkpt><trkpt lat="45.45126620792843" lon="9.154759619221089"><ele>122.60000000000001</ele><time>2026-04-18T06:44:20Z</time></trkpt><trkpt lat="45.451193281849825" lon="9.154807505468682"><ele>122.39999999999999</ele><time>2026-04-18T06:44:21Z</time></trkpt><trkpt lat="45.451094138944256" lon="9.154913199700156"><ele>122.19999999999999</ele><time>2026-04-18T06:44:23Z</time></trkpt><trkpt lat="45.451041024550804" lon="9.15497118248948"><ele>122.0</ele><time>2026-04-18T06:44:24Z</time></trkpt><trkpt lat="45.45095081059818" lon="9.15496831549104"><ele>121.99999999999999</ele><time>2026-04-18T06:44:25Z</time></trkpt><trkpt lat="45.45087688131856" lon="9.154957290973396"><ele>122.0</ele><time>2026-04-18T06:44:26Z</time></trkpt><trkpt lat="45.45081074857287" lon="9.154996197330822"><ele>122.0</ele><time>2026-04-18T06:44:27Z</time></trkpt><trkpt lat="45.45073863303693" lon="9.155026997420391"><ele>122.0</ele><time>2026-04-18T06:44:28Z</time></trkpt><trkpt lat="45.45067039557203" lon="9.155060165074959"><ele>121.99999999999999</ele><time>2026-04-18T06:44:29Z</time></trkpt><trkpt lat="45.45059714613431" lon="9.155102687579127"><ele>122.0</ele><time>2026-04-18T06:44:30Z</time></trkpt><trkpt lat="45.45052039335748" lon="9.155124954411885"><ele>121.39999999999999</ele><time>2026-04-18T06:44:31Z</time></trkpt><trkpt lat="45.45040538849791" lon="9.15515240916335"><ele>120.79999999999998</ele><time>2026-04-18T06:44:32.999Z</time></trkpt><trkpt lat="45.45033673355581" lon="9.155182512195998"><ele>120.2</ele><time>2026-04-18T06:44:33.999Z</time></trkpt><trkpt lat="45.450250512449365" lon="9.155232295176022"><ele>119.6</ele><time>2026-04-18T06:44:34.999Z</time></trkpt><trkpt lat="45.45018610736437" lon="9.155318690316514"><ele>119.0</ele><time>2026-04-18T06:44:36.999Z</time></trkpt><trkpt lat="45.45011689471107" lon="9.155390162727732"><ele>119.0</ele><time>2026-04-18T06:44:38.999Z</time></trkpt><trkpt lat="45.450118074031096" lon="9.155480522531073"><ele>119.0</ele><time>2026-04-18T06:44:46.999Z</time></trkpt><trkpt lat="45.45005591890368" lon="9.155542320092723"><ele>119.0</ele><time>2026-04-18T06:44:49.999Z</time></trkpt><trkpt lat="45.450016971782304" lon="9.155623644205527"><ele>119.0</ele><time>2026-04-18T06:44:51.999Z</time></trkpt><trkpt lat="45.44997621602506" lon="9.155709558395337"><ele>119.0</ele><time>2026-04-18T06:44:53.999Z</time></trkpt><trkpt lat="45.4499351590162" lon="9.155803260224657"><ele>119.0</ele><time>2026-04-18T06:44:55.999Z</time></trkpt><trkpt lat="45.4499028903751" lon="9.155892380812137"><ele>119.0</ele><time>2026-04-18T06:44:57.999Z</time></trkpt><trkpt lat="45.449861721782085" lon="9.155986737581141"><ele>119.0</ele><time>2026-04-18T06:44:59.999Z</time></trkpt><trkpt lat="45.44980470351139" lon="9.156101069138208"><ele>119.0</ele><time>2026-04-18T06:45:01.999Z</time></trkpt><trkpt lat="45.449730475136164" lon="9.156213558993374"><ele>119.0</ele><time>2026-04-18T06:45:03.999Z</time></trkpt><trkpt lat="45.44965764027177" lon="9.156303778323512"><ele>119.0</ele><time>2026-04-18T06:45:05.999Z</time></trkpt><trkpt lat="45.44959701273752" lon="9.1564109550416"><ele>119.0</ele><time>2026-04-18T06:45:07.999Z</time></trkpt><trkpt lat="45.449534571964165" lon="9.156511738748048"><ele>118.6</ele><time>2026-04-18T06:45:09.999Z</time></trkpt><trkpt lat="45.44947211635043" lon="9.156617957102622"><ele>118.2</ele><time>2026-04-18T06:45:11.999Z</time></trkpt><trkpt lat="45.449416427324586" lon="9.156726406580988"><ele>117.79999999999998</ele><time>2026-04-18T06:45:13.999Z</time></trkpt><trkpt lat="45.44935487460273" lon="9.156825777876612"><ele>117.39999999999999</ele><time>2026-04-18T06:45:15.999Z</time></trkpt><trkpt lat="45.44929178849407" lon="9.156921303799209"><ele>117.0</ele><time>2026-04-18T06:45:17.999Z</time></trkpt><trkpt lat="45.44922366903994" lon="9.157008597260349"><ele>117.0</ele><time>2026-04-18T06:45:19.999Z</time></trkpt><trkpt lat="45.44914363393995" lon="9.157075784086304"><ele>116.99999999999999</ele><time>2026-04-18T06:45:21.999Z</time></trkpt><trkpt lat="45.4490657309757" lon="9.1571528767602"><ele>116.99999999999999</ele><time>2026-04-18T06:45:23.999Z</time></trkpt><trkpt lat="45.44899676646518" lon="9.157233484910698"><ele>117.0</ele><time>2026-04-18T06:45:25.999Z</time></trkpt><trkpt lat="45.448913222847686" lon="9.15730234263065"><ele>117.0</ele><time>2026-04-18T06:45:27.999Z</time></trkpt><trkpt lat="45.448821701711424" lon="9.157363376432512"><ele>117.19999999999999</ele><time>2026-04-18T06:45:29.999Z</time></trkpt><trkpt lat="45.44871695826602" lon="9.157398995487744"><ele>117.39999999999999</ele><time>2026-04-18T06:45:32Z</time></trkpt><trkpt lat="45.44861636095122" lon="9.1574494533715"><ele>117.60000000000001</ele><time>2026-04-18T06:45:34Z</time></trkpt><trkpt lat="45.44851411422427" lon="9.157503016100616"><ele>117.80000000000001</ele><time>2026-04-18T06:45:36Z</time></trkpt><trkpt lat="45.44843181917081" lon="9.157569188609509"><ele>118.0</ele><time>2026-04-18T06:45:38Z</time></trkpt><trkpt lat="45.44831908274468" lon="9.157598516035787"><ele>118.0</ele><time>2026-04-18T06:45:40Z</time></trkpt><trkpt lat="45.448201986148426" lon="9.157633658896916"><ele>118.0</ele><time>2026-04-18T06:45:42Z</time></trkpt><trkpt lat="45.44808748797994" lon="9.157667001476742"><ele>118.0</ele><time>2026-04-18T06:45:44Z</time></trkpt><trkpt lat="45.447982014221516" lon="9.157723507312033"><ele>118.0</ele><time>2026-04-18T06:45:46Z</time></trkpt><trkpt lat="45.447876450451815" lon="9.157782170044785"><ele>117.4</ele><time>2026-04-18T06:45:48Z</time></trkpt><trkpt lat="45.447750722314225" lon="9.157840559417684"><ele>116.80000000000001</ele><time>2026-04-18T06:45:50Z</time></trkpt><trkpt lat="45.447683983961234" lon="9.157871828753601"><ele>116.2</ele><time>2026-04-18T06:45:51Z</time></trkpt><trkpt lat="45.44762204904496" lon="9.157902106045672"><ele>115.6</ele><time>2026-04-18T06:45:52Z</time></trkpt><trkpt lat="45.44751816196129" lon="9.15797587393212"><ele>115.0</ele><time>2026-04-18T06:45:54Z</time></trkpt><trkpt lat="45.44744388360057" lon="9.158010017326578"><ele>115.0</ele><time>2026-04-18T06:45:56Z</time></trkpt><trkpt lat="45.44737275546237" lon="9.158056617146805"><ele>115.0</ele><time>2026-04-18T06:45:59Z</time></trkpt><trkpt lat="45.44731749529706" lon="9.158106830556102"><ele>115.0</ele><time>2026-04-18T06:46:02Z</time></trkpt><trkpt lat="45.44721523456324" lon="9.15818502773958"><ele>115.0</ele><time>2026-04-18T06:46:04Z</time></trkpt><trkpt lat="45.44712041010282" lon="9.158266099518588"><ele>115.0</ele><time>2026-04-18T06:46:06Z</time></trkpt><trkpt lat="45.447023512981836" lon="9.158353497370488"><ele>115.2</ele><time>2026-04-18T06:46:08Z</time></trkpt><trkpt lat="45.44697707980475" lon="9.158414423574603"><ele>115.4</ele><time>2026-04-18T06:46:09Z</time></trkpt><trkpt lat="45.446889204306736" lon="9.158521487580652"><ele>115.6</ele><time>2026-04-18T06:46:11Z</time></trkpt><trkpt lat="45.446843668681254" lon="9.1585892229094"><ele>115.8</ele><time>2026-04-18T06:46:12Z</time></trkpt><trkpt lat="45.44674510250266" lon="9.15868974635807"><ele>116.0</ele><time>2026-04-18T06:46:14Z</time></trkpt><trkpt lat="45.446655936237256" lon="9.158817675144313"><ele>115.99999999999999</ele><time>2026-04-18T06:46:16Z</time></trkpt><trkpt lat="45.44656135545121" lon="9.158943590530455"><ele>116.0</ele><time>2026-04-18T06:46:18Z</time></trkpt><trkpt lat="45.446513620307506" lon="9.159009869104796"><ele>116.0</ele><time>2026-04-18T06:46:19Z</time></trkpt><trkpt lat="45.44646274615389" lon="9.159072972406554"><ele>116.0</ele><time>2026-04-18T06:46:20Z</time></trkpt><trkpt lat="45.44641459963631" lon="9.159135438109052"><ele>115.99999999999999</ele><time>2026-04-18T06:46:21Z</time></trkpt><trkpt lat="45.446381060988756" lon="9.159218888024103"><ele>116.0</ele><time>2026-04-18T06:46:22Z</time></trkpt><trkpt lat="45.44632029215652" lon="9.159337431583404"><ele>115.99999999999999</ele><time>2026-04-18T06:46:24Z</time></trkpt><trkpt lat="45.446243118945276" lon="9.159374996631612"><ele>116.0</ele><time>2026-04-18T06:46:26Z</time></trkpt><trkpt lat="45.44617865603927" lon="9.15932055851548"><ele>116.0</ele><time>2026-04-18T06:46:27Z</time></trkpt><trkpt lat="45.44611325200121" lon="9.15919147349787"><ele>116.0</ele><time>2026-04-18T06:46:29Z</time></trkpt><trkpt lat="45.44608824487935" lon="9.159101947158485"><ele>115.99999999999999</ele><time>2026-04-18T06:46:30Z</time></trkpt><trkpt lat="45.44603036255093" lon="9.159017523419967"><ele>116.0</ele><time>2026-04-18T06:46:32Z</time></trkpt><trkpt lat="45.44598145530032" lon="9.158918511468139"><ele>115.8</ele><time>2026-04-18T06:46:33Z</time></trkpt><trkpt lat="45.44595172739114" lon="9.158814059508668"><ele>115.6</ele><time>2026-04-18T06:46:34Z</time></trkpt><trkpt lat="45.44590582735126" lon="9.158659039444158"><ele>115.4</ele><time>2026-04-18T06:46:36Z</time></trkpt><trkpt lat="45.44584986725548" lon="9.158509219995418"><ele>115.2</ele><time>2026-04-18T06:46:38Z</time></trkpt><trkpt lat="45.445801735853806" lon="9.158378668982461"><ele>115.0</ele><time>2026-04-18T06:46:40Z</time></trkpt><trkpt lat="45.44576696269867" lon="9.158296497149266"><ele>115.0</ele><time>2026-04-18T06:46:42Z</time></trkpt><trkpt lat="45.44570987098762" lon="9.158254900995477"><ele>115.0</ele><time>2026-04-18T06:46:44Z</time></trkpt><trkpt lat="45.4456243556903" lon="9.15831809872469"><ele>115.0</ele><time>2026-04-18T06:46:46Z</time></trkpt><trkpt lat="45.44552261272693" lon="9.158373222937126"><ele>115.0</ele><time>2026-04-18T06:46:48Z</time></trkpt><trkpt lat="45.44541539310731" lon="9.158436370326864"><ele>115.0</ele><time>2026-04-18T06:46:50Z</time></trkpt><trkpt lat="45.445306324546" lon="9.158498714726504"><ele>114.75</ele><time>2026-04-18T06:46:52Z</time></trkpt><trkpt lat="45.44519669802985" lon="9.158561445911632"><ele>114.5</ele><time>2026-04-18T06:46:53.999Z</time></trkpt><trkpt lat="45.44508860056254" lon="9.158619674006173"><ele>114.25</ele><time>2026-04-18T06:46:55.999Z</time></trkpt><trkpt lat="45.44499051546435" lon="9.158703526486315"><ele>114.0</ele><time>2026-04-18T06:46:57.999Z</time></trkpt><trkpt lat="45.44487657707638" lon="9.158775851719296"><ele>114.0</ele><time>2026-04-18T06:46:59.999Z</time></trkpt><trkpt lat="45.44478616574405" lon="9.158854152288377"><ele>114.0</ele><time>2026-04-18T06:47:01.999Z</time></trkpt><trkpt lat="45.44466156415712" lon="9.158915169743286"><ele>114.0</ele><time>2026-04-18T06:47:03.999Z</time></trkpt><trkpt lat="45.444593622530405" lon="9.158937888636645"><ele>114.0</ele><time>2026-04-18T06:47:04.999Z</time></trkpt><trkpt lat="45.444496368046565" lon="9.159011987254624"><ele>114.0</ele><time>2026-04-18T06:47:06.999Z</time></trkpt><trkpt lat="45.44439503186823" lon="9.159077982199385"><ele>114.0</ele><time>2026-04-18T06:47:08.999Z</time></trkpt><trkpt lat="45.444305389639894" lon="9.159155190051752"><ele>114.0</ele><time>2026-04-18T06:47:10.999Z</time></trkpt><trkpt lat="45.44420024259109" lon="9.15921587768849"><ele>114.0</ele><time>2026-04-18T06:47:12.999Z</time></trkpt><trkpt lat="45.44411742151469" lon="9.15928046177861"><ele>114.0</ele><time>2026-04-18T06:47:14.999Z</time></trkpt><trkpt lat="45.44401420317591" lon="9.159347520177102"><ele>114.0</ele><time>2026-04-18T06:47:16.999Z</time></trkpt><trkpt lat="45.44394629649163" lon="9.15937117907389"><ele>114.0</ele><time>2026-04-18T06:47:17.999Z</time></trkpt><trkpt lat="45.44388284501833" lon="9.159386734801316"><ele>114.0</ele><time>2026-04-18T06:47:18.999Z</time></trkpt><trkpt lat="45.44380941219974" lon="9.159367136420705"><ele>114.0</ele><time>2026-04-18T06:47:19.999Z</time></trkpt><trkpt lat="45.44370209105099" lon="9.159306143143278"><ele>114.0</ele><time>2026-04-18T06:47:21.999Z</time></trkpt><trkpt lat="45.44365447228623" lon="9.159242342495132"><ele>114.0</ele><time>2026-04-18T06:47:22.999Z</time></trkpt><trkpt lat="45.44359712113171" lon="9.159191326514614"><ele>114.0</ele><time>2026-04-18T06:47:23.999Z</time></trkpt><trkpt lat="45.443474282649554" lon="9.159182438890117"><ele>113.33333333333333</ele><time>2026-04-18T06:47:25.999Z</time></trkpt><trkpt lat="45.44340127120661" lon="9.159238440075136"><ele>112.66666666666666</ele><time>2026-04-18T06:47:26.999Z</time></trkpt><trkpt lat="45.44329983874161" lon="9.159322569798622"><ele>112.0</ele><time>2026-04-18T06:47:28.999Z</time></trkpt><trkpt lat="45.44324266463037" lon="9.159370370656251"><ele>111.33333333333333</ele><time>2026-04-18T06:47:29.999Z</time></trkpt><trkpt lat="45.44318892854151" lon="9.159423576763785"><ele>110.66666666666666</ele><time>2026-04-18T06:47:30.999Z</time></trkpt><trkpt lat="45.44313279262637" lon="9.159472940565719"><ele>110.0</ele><time>2026-04-18T06:47:31.999Z</time></trkpt><trkpt lat="45.443080027199784" lon="9.159528422621092"><ele>109.99999999999999</ele><time>2026-04-18T06:47:32.999Z</time></trkpt><trkpt lat="45.44303446270251" lon="9.159591300042175"><ele>110.0</ele><time>2026-04-18T06:47:33.999Z</time></trkpt><trkpt lat="45.44298392922739" lon="9.159649834810907"><ele>110.0</ele><time>2026-04-18T06:47:34.999Z</time></trkpt><trkpt lat="45.44293842114592" lon="9.159711923041792"><ele>110.0</ele><time>2026-04-18T06:47:35.999Z</time></trkpt><trkpt lat="45.442892137773136" lon="9.159772835460933"><ele>110.0</ele><time>2026-04-18T06:47:36.999Z</time></trkpt><trkpt lat="45.442842625554924" lon="9.159833412049602"><ele>109.99999999999999</ele><time>2026-04-18T06:47:37.999Z</time></trkpt><trkpt lat="45.44275697362634" lon="9.159943651527975"><ele>110.0</ele><time>2026-04-18T06:47:39.999Z</time></trkpt><trkpt lat="45.44267671683433" lon="9.160066515096123"><ele>109.8</ele><time>2026-04-18T06:47:41.999Z</time></trkpt><trkpt lat="45.44262830523753" lon="9.160130974747888"><ele>109.6</ele><time>2026-04-18T06:47:42.999Z</time></trkpt><trkpt lat="45.4425450633441" lon="9.16024946717333"><ele>109.4</ele><time>2026-04-18T06:47:44.999Z</time></trkpt><trkpt lat="45.442464275796176" lon="9.1603819876446"><ele>109.2</ele><time>2026-04-18T06:47:46.999Z</time></trkpt><trkpt lat="45.44238411013242" lon="9.160510851890457"><ele>109.0</ele><time>2026-04-18T06:47:48.999Z</time></trkpt><trkpt lat="45.44231095446153" lon="9.160655923147607"><ele>109.4</ele><time>2026-04-18T06:47:50.999Z</time></trkpt><trkpt lat="45.442233463699615" lon="9.160782330772125"><ele>109.80000000000001</ele><time>2026-04-18T06:47:52.999Z</time></trkpt><trkpt lat="45.44216798358347" lon="9.160916731319716"><ele>110.19999999999999</ele><time>2026-04-18T06:47:54.999Z</time></trkpt><trkpt lat="45.44212385867616" lon="9.160984960930106"><ele>110.6</ele><time>2026-04-18T06:47:55.999Z</time></trkpt><trkpt lat="45.44202753937505" lon="9.161098761040817"><ele>111.0</ele><time>2026-04-18T06:47:57.999Z</time></trkpt><trkpt lat="45.44197885431778" lon="9.16115622159455"><ele>111.16666666666667</ele><time>2026-04-18T06:47:58.999Z</time></trkpt><trkpt lat="45.44192744333806" lon="9.161210322136032"><ele>111.33333333333334</ele><time>2026-04-18T06:47:59.999Z</time></trkpt><trkpt lat="45.44187968220819" lon="9.161271579134059"><ele>111.5</ele><time>2026-04-18T06:48:00.999Z</time></trkpt><trkpt lat="45.441831497801054" lon="9.161334545013828"><ele>111.66666666666667</ele><time>2026-04-18T06:48:01.999Z</time></trkpt><trkpt lat="45.44174606792689" lon="9.161454633561355"><ele>111.83333333333334</ele><time>2026-04-18T06:48:03.999Z</time></trkpt><trkpt lat="45.44167503251117" lon="9.161577286791005"><ele>112.0</ele><time>2026-04-18T06:48:05.999Z</time></trkpt><trkpt lat="45.44159003556142" lon="9.161693345438577"><ele>112.0</ele><time>2026-04-18T06:48:07.999Z</time></trkpt><trkpt lat="45.44151126841427" lon="9.161829454466092"><ele>111.99999999999999</ele><time>2026-04-18T06:48:09.999Z</time></trkpt><trkpt lat="45.4414032976552" lon="9.161943069678959"><ele>111.99999999999999</ele><time>2026-04-18T06:48:11.999Z</time></trkpt><trkpt lat="45.44131686313103" lon="9.16205670023707"><ele>112.0</ele><time>2026-04-18T06:48:13.999Z</time></trkpt><trkpt lat="45.44126488903925" lon="9.162111822216632"><ele>112.0</ele><time>2026-04-18T06:48:14.999Z</time></trkpt><trkpt lat="45.44116813875439" lon="9.162217269411517"><ele>112.0</ele><time>2026-04-18T06:48:16.999Z</time></trkpt><trkpt lat="45.44106411883848" lon="9.162316857263018"><ele>111.99999999999999</ele><time>2026-04-18T06:48:18.999Z</time></trkpt><trkpt lat="45.44101596359092" lon="9.16237959920375"><ele>111.99999999999999</ele><time>2026-04-18T06:48:19.999Z</time></trkpt><trkpt lat="45.440968851181815" lon="9.162439388176317"><ele>112.0</ele><time>2026-04-18T06:48:20.999Z</time></trkpt><trkpt lat="45.44087781034121" lon="9.162556380267219"><ele>112.0</ele><time>2026-04-18T06:48:22.998Z</time></trkpt><trkpt lat="45.44079415874126" lon="9.162668365475723"><ele>112.0</ele><time>2026-04-18T06:48:24.998Z</time></trkpt><trkpt lat="45.44069904182104" lon="9.162782562244601"><ele>111.99999999999999</ele><time>2026-04-18T06:48:26.998Z</time></trkpt><trkpt lat="45.440597492885885" lon="9.162887363525993"><ele>111.99999999999999</ele><time>2026-04-18T06:48:28.998Z</time></trkpt><trkpt lat="45.44051268028365" lon="9.162982332426441"><ele>112.0</ele><time>2026-04-18T06:48:30.998Z</time></trkpt><trkpt lat="45.440450608843776" lon="9.163029546617226"><ele>112.0</ele><time>2026-04-18T06:48:31.998Z</time></trkpt><trkpt lat="45.44039279850982" lon="9.163091154523801"><ele>112.00000000000001</ele><time>2026-04-18T06:48:32.998Z</time></trkpt><trkpt lat="45.44032650895384" lon="9.163216441406897"><ele>112.0</ele><time>2026-04-18T06:48:34.998Z</time></trkpt><trkpt lat="45.44027419200628" lon="9.16328173594175"><ele>112.0</ele><time>2026-04-18T06:48:35.998Z</time></trkpt><trkpt lat="45.44019043779889" lon="9.163393257503262"><ele>112.0</ele><time>2026-04-18T06:48:37.998Z</time></trkpt><trkpt lat="45.44013870519401" lon="9.163445085079"><ele>112.00000000000001</ele><time>2026-04-18T06:48:38.998Z</time></trkpt><trkpt lat="45.44008334517217" lon="9.163495036531973"><ele>112.0</ele><time>2026-04-18T06:48:39.998Z</time></trkpt><trkpt lat="45.440002407905844" lon="9.163621497530256"><ele>112.0</ele><time>2026-04-18T06:48:41.998Z</time></trkpt><trkpt lat="45.43989593114209" lon="9.16372332648977"><ele>112.0</ele><time>2026-04-18T06:48:43.998Z</time></trkpt><trkpt lat="45.43980983502994" lon="9.16382546441377"><ele>112.0</ele><time>2026-04-18T06:48:45.998Z</time></trkpt><trkpt lat="45.43971977798035" lon="9.163941788626207"><ele>112.0</ele><time>2026-04-18T06:48:47.998Z</time></trkpt><trkpt lat="45.43963339099869" lon="9.164064486415715"><ele>111.75</ele><time>2026-04-18T06:48:49.998Z</time></trkpt><trkpt lat="45.43955289037938" lon="9.164185929021079"><ele>111.5</ele><time>2026-04-18T06:48:51.998Z</time></trkpt><trkpt lat="45.43948975889097" lon="9.164331647542877"><ele>111.25</ele><time>2026-04-18T06:48:53.998Z</time></trkpt><trkpt lat="45.43939283684678" lon="9.16444736519252"><ele>111.0</ele><time>2026-04-18T06:48:55.998Z</time></trkpt><trkpt lat="45.43929612844866" lon="9.164560476339481"><ele>111.0</ele><time>2026-04-18T06:48:57.998Z</time></trkpt><trkpt lat="45.43922461097235" lon="9.164681103006709"><ele>111.0</ele><time>2026-04-18T06:48:59.998Z</time></trkpt><trkpt lat="45.43912874402997" lon="9.164766643038964"><ele>111.0</ele><time>2026-04-18T06:49:01.998Z</time></trkpt><trkpt lat="45.43902964420563" lon="9.164847627004171"><ele>111.0</ele><time>2026-04-18T06:49:03.998Z</time></trkpt><trkpt lat="45.438968704467776" lon="9.164870948880894"><ele>111.0</ele><time>2026-04-18T06:49:04.998Z</time></trkpt><trkpt lat="45.43885656478256" lon="9.164896548590125"><ele>111.19999999999999</ele><time>2026-04-18T06:49:06.998Z</time></trkpt><trkpt lat="45.43875804962824" lon="9.164901190481743"><ele>111.39999999999999</ele><time>2026-04-18T06:49:08.998Z</time></trkpt><trkpt lat="45.43864532387273" lon="9.164902749158164"><ele>111.6</ele><time>2026-04-18T06:49:10.998Z</time></trkpt><trkpt lat="45.438545997595675" lon="9.164900722048912"><ele>111.8</ele><time>2026-04-18T06:49:12.998Z</time></trkpt><trkpt lat="45.43843446991775" lon="9.164902267873412"><ele>112.0</ele><time>2026-04-18T06:49:14.998Z</time></trkpt><trkpt lat="45.43834252154934" lon="9.164898057318398"><ele>112.0</ele><time>2026-04-18T06:49:16.998Z</time></trkpt><trkpt lat="45.438255263626175" lon="9.164893001336427"><ele>111.99999999999999</ele><time>2026-04-18T06:49:18.998Z</time></trkpt><trkpt lat="45.43816034330262" lon="9.164887778021795"><ele>111.99999999999999</ele><time>2026-04-18T06:49:20.998Z</time></trkpt><trkpt lat="45.438055001556755" lon="9.164885098175615"><ele>112.0</ele><time>2026-04-18T06:49:22.998Z</time></trkpt><trkpt lat="45.437960766820744" lon="9.164884345789657"><ele>112.0</ele><time>2026-04-18T06:49:24.998Z</time></trkpt><trkpt lat="45.437870052641" lon="9.16488548711941"><ele>112.00000000000001</ele><time>2026-04-18T06:49:27.998Z</time></trkpt><trkpt lat="45.43779556447173" lon="9.164886424288449"><ele>112.0</ele><time>2026-04-18T06:49:30.998Z</time></trkpt><trkpt lat="45.43771415021866" lon="9.164884965714977"><ele>112.0</ele><time>2026-04-18T06:49:33.998Z</time></trkpt><trkpt lat="45.43766161648541" lon="9.164831359016192"><ele>112.0</ele><time>2026-04-18T06:49:49.998Z</time></trkpt><trkpt lat="45.43757163872974" lon="9.164865493329478"><ele>112.00000000000001</ele><time>2026-04-18T06:49:52.997Z</time></trkpt><trkpt lat="45.43749407773438" lon="9.16489776146307"><ele>112.0</ele><time>2026-04-18T06:49:55.997Z</time></trkpt><trkpt lat="45.43744073526868" lon="9.165000651482531"><ele>111.83333333333334</ele><time>2026-04-18T06:49:58.997Z</time></trkpt><trkpt lat="45.437421275818295" lon="9.165130217670313"><ele>111.66666666666667</ele><time>2026-04-18T06:50:00.997Z</time></trkpt><trkpt lat="45.437405670628245" lon="9.16529199132918"><ele>111.5</ele><time>2026-04-18T06:50:02.997Z</time></trkpt><trkpt lat="45.43740270015182" lon="9.165386110617012"><ele>111.33333333333334</ele><time>2026-04-18T06:50:03.997Z</time></trkpt><trkpt lat="45.43739944536265" lon="9.165482173316795"><ele>111.16666666666667</ele><time>2026-04-18T06:50:05.997Z</time></trkpt><trkpt lat="45.43738941423571" lon="9.165579459459545"><ele>111.0</ele><time>2026-04-18T06:50:07.997Z</time></trkpt><trkpt lat="45.437381765393134" lon="9.16567347890676"><ele>111.5</ele><time>2026-04-18T06:50:09.997Z</time></trkpt><trkpt lat="45.43737096200499" lon="9.165795299118336"><ele>112.0</ele><time>2026-04-18T06:50:12.997Z</time></trkpt><trkpt lat="45.43736828445743" lon="9.165930452443346"><ele>112.5</ele><time>2026-04-18T06:50:15.997Z</time></trkpt><trkpt lat="45.437375700401" lon="9.166020680514944"><ele>113.0</ele><time>2026-04-18T06:50:17.997Z</time></trkpt><trkpt lat="45.43737575667288" lon="9.166112125602819"><ele>113.5</ele><time>2026-04-18T06:50:19.997Z</time></trkpt><trkpt lat="45.4373468151732" lon="9.166212231552079"><ele>114.0</ele><time>2026-04-18T06:50:22.997Z</time></trkpt><trkpt lat="45.43731933441984" lon="9.166295825791849"><ele>114.0</ele><time>2026-04-18T06:50:25.997Z</time></trkpt><trkpt lat="45.43731813714817" lon="9.166391565167926"><ele>114.0</ele><time>2026-04-18T06:50:30.997Z</time></trkpt><trkpt lat="45.437284695100956" lon="9.166511154330061"><ele>114.0</ele><time>2026-04-18T06:53:29.995Z</time></trkpt><trkpt lat="45.43721276436736" lon="9.166549449149503"><ele>114.0</ele><time>2026-04-18T06:53:40.995Z</time></trkpt><trkpt lat="45.437212039175485" lon="9.166654880776127"><ele>114.0</ele><time>2026-04-18T07:03:21.988Z</time></trkpt><trkpt lat="45.43714395337847" lon="9.1666660531708"><ele>114.0</ele><time>2026-04-18T07:04:08.988Z</time></trkpt><trkpt lat="45.43716920010418" lon="9.16679502931741"><ele>114.16666666666667</ele><time>2026-04-18T07:04:55.987Z</time></trkpt><trkpt lat="45.43717252436893" lon="9.166890493467873"><ele>114.33333333333334</ele><time>2026-04-18T07:04:57.987Z</time></trkpt><trkpt lat="45.43717370779759" lon="9.166996854923008"><ele>114.5</ele><time>2026-04-18T07:04:59.987Z</time></trkpt><trkpt lat="45.43718023986709" lon="9.16708926264277"><ele>114.66666666666667</ele><time>2026-04-18T07:05:01.987Z</time></trkpt><trkpt lat="45.43720316980154" lon="9.167213954884183"><ele>114.83333333333334</ele><time>2026-04-18T07:05:03.987Z</time></trkpt><trkpt lat="45.43720621846192" lon="9.167332150649154"><ele>115.0</ele><time>2026-04-18T07:05:05.987Z</time></trkpt><trkpt lat="45.437214013440645" lon="9.167455128109651"><ele>115.33333333333334</ele><time>2026-04-18T07:05:07.987Z</time></trkpt><trkpt lat="45.43722197469957" lon="9.167572296098166"><ele>115.66666666666667</ele><time>2026-04-18T07:05:09.987Z</time></trkpt><trkpt lat="45.437234120377475" lon="9.167686814677802"><ele>116.0</ele><time>2026-04-18T07:05:11.987Z</time></trkpt><trkpt lat="45.43724794314971" lon="9.167808843339373"><ele>116.33333333333334</ele><time>2026-04-18T07:05:13.987Z</time></trkpt><trkpt lat="45.43726373373935" lon="9.167935300040742"><ele>116.66666666666667</ele><time>2026-04-18T07:05:15.987Z</time></trkpt><trkpt lat="45.43726382674294" lon="9.168072544487739"><ele>117.0</ele><time>2026-04-18T07:05:17.987Z</time></trkpt><trkpt lat="45.437277062506396" lon="9.168202308898824"><ele>116.33333333333333</ele><time>2026-04-18T07:05:19.987Z</time></trkpt><trkpt lat="45.43728651889432" lon="9.168331602313875"><ele>115.66666666666666</ele><time>2026-04-18T07:05:21.987Z</time></trkpt><trkpt lat="45.437284914193405" lon="9.168461671659335"><ele>115.0</ele><time>2026-04-18T07:05:23.987Z</time></trkpt><trkpt lat="45.43728901998307" lon="9.168584825081572"><ele>114.33333333333333</ele><time>2026-04-18T07:05:25.987Z</time></trkpt><trkpt lat="45.43729563334483" lon="9.16871002676208"><ele>113.66666666666666</ele><time>2026-04-18T07:05:27.987Z</time></trkpt><trkpt lat="45.43730972566146" lon="9.168833064257683"><ele>113.0</ele><time>2026-04-18T07:05:29.987Z</time></trkpt><trkpt lat="45.43731084718451" lon="9.168941762833018"><ele>112.71428571428572</ele><time>2026-04-18T07:05:31.987Z</time></trkpt><trkpt lat="45.43730911982034" lon="9.16904994416"><ele>112.42857142857142</ele><time>2026-04-18T07:05:33.987Z</time></trkpt><trkpt lat="45.43731744415037" lon="9.169165971460918"><ele>112.14285714285714</ele><time>2026-04-18T07:05:35.987Z</time></trkpt><trkpt lat="45.43733903457942" lon="9.169286581550963"><ele>111.85714285714286</ele><time>2026-04-18T07:05:37.987Z</time></trkpt><trkpt lat="45.43734754341685" lon="9.169392530263963"><ele>111.57142857142858</ele><time>2026-04-18T07:05:39.987Z</time></trkpt><trkpt lat="45.43733697498631" lon="9.169481037622528"><ele>111.28571428571428</ele><time>2026-04-18T07:05:48Z</time></trkpt><trkpt lat="45.43733309639287" lon="9.169572364496942"><ele>111.0</ele><time>2026-04-18T07:05:52Z</time></trkpt><trkpt lat="45.437339629806104" lon="9.169693995667151"><ele>111.0</ele><time>2026-04-18T07:05:55Z</time></trkpt><trkpt lat="45.4373351365453" lon="9.169791581991396"><ele>111.0</ele><time>2026-04-18T07:05:57Z</time></trkpt><trkpt lat="45.437349026500456" lon="9.169921224944162"><ele>111.0</ele><time>2026-04-18T07:06:00Z</time></trkpt><trkpt lat="45.43734424724973" lon="9.170012933911092"><ele>111.0</ele><time>2026-04-18T07:06:02Z</time></trkpt><trkpt lat="45.43734585314512" lon="9.1701229525387"><ele>111.0</ele><time>2026-04-18T07:06:04Z</time></trkpt><trkpt lat="45.43731936052374" lon="9.170212613286065"><ele>111.0</ele><time>2026-04-18T07:06:08Z</time></trkpt><trkpt lat="45.43728217208912" lon="9.170327730586498"><ele>111.19999999999999</ele><time>2026-04-18T07:06:11Z</time></trkpt><trkpt lat="45.437287151207435" lon="9.170452581632519"><ele>111.39999999999999</ele><time>2026-04-18T07:06:14Z</time></trkpt><trkpt lat="45.43733984148666" lon="9.170541752912207"><ele>111.6</ele><time>2026-04-18T07:06:16Z</time></trkpt><trkpt lat="45.43734724438981" lon="9.170665165647721"><ele>111.8</ele><time>2026-04-18T07:06:24Z</time></trkpt><trkpt lat="45.437343105081126" lon="9.17082005862486"><ele>112.0</ele><time>2026-04-18T07:06:28Z</time></trkpt><trkpt lat="45.43734981559859" lon="9.170957528187126"><ele>112.66666666666667</ele><time>2026-04-18T07:06:31.001Z</time></trkpt><trkpt lat="45.43734392659862" lon="9.17107260923852"><ele>113.33333333333334</ele><time>2026-04-18T07:06:36.001Z</time></trkpt><trkpt lat="45.437262984337806" lon="9.171098961524196"><ele>114.0</ele><time>2026-04-18T07:06:37.001Z</time></trkpt><trkpt lat="45.43718284756997" lon="9.171123174208898"><ele>114.66666666666666</ele><time>2026-04-18T07:06:39.001Z</time></trkpt><trkpt lat="45.4371574799321" lon="9.171225591567488"><ele>115.33333333333333</ele><time>2026-04-18T07:06:42.001Z</time></trkpt><trkpt lat="45.43714108543859" lon="9.171342691552642"><ele>116.0</ele><time>2026-04-18T07:06:44.001Z</time></trkpt><trkpt lat="45.43710550456157" lon="9.171432719090088"><ele>115.99999999999999</ele><time>2026-04-18T07:06:46.001Z</time></trkpt><trkpt lat="45.43710266008197" lon="9.171565777896454"><ele>116.0</ele><time>2026-04-18T07:06:49.001Z</time></trkpt><trkpt lat="45.43709675264439" lon="9.171685475796306"><ele>116.0</ele><time>2026-04-18T07:06:53.001Z</time></trkpt><trkpt lat="45.4371169395197" lon="9.17178911531062"><ele>116.0</ele><time>2026-04-18T07:06:55.001Z</time></trkpt><trkpt lat="45.437161863534854" lon="9.171864657255187"><ele>115.99999999999999</ele><time>2026-04-18T07:06:57.001Z</time></trkpt><trkpt lat="45.437198102552614" lon="9.171952413862293"><ele>116.0</ele><time>2026-04-18T07:06:59.001Z</time></trkpt><trkpt lat="45.43722567632575" lon="9.172057586121321"><ele>115.99999999999999</ele><time>2026-04-18T07:07:02.001Z</time></trkpt><trkpt lat="45.43723226285691" lon="9.172176792993051"><ele>116.0</ele><time>2026-04-18T07:07:05.001Z</time></trkpt><trkpt lat="45.43724682606539" lon="9.172282071788418"><ele>116.0</ele><time>2026-04-18T07:07:07.001Z</time></trkpt><trkpt lat="45.43725035128555" lon="9.172415350364798"><ele>116.0</ele><time>2026-04-18T07:07:09.001Z</time></trkpt><trkpt lat="45.43724554668602" lon="9.172554479846363"><ele>115.99999999999999</ele><time>2026-04-18T07:07:11.001Z</time></trkpt><trkpt lat="45.437264945388925" lon="9.172675314758703"><ele>116.0</ele><time>2026-04-18T07:07:13.001Z</time></trkpt><trkpt lat="45.43726865924525" lon="9.172786850954557"><ele>116.33333333333333</ele><time>2026-04-18T07:07:15.001Z</time></trkpt><trkpt lat="45.43726104861087" lon="9.172914213435234"><ele>116.66666666666666</ele><time>2026-04-18T07:07:18.001Z</time></trkpt><trkpt lat="45.43725724625707" lon="9.173027588464809"><ele>117.0</ele><time>2026-04-18T07:07:21.001Z</time></trkpt><trkpt lat="45.43725937661153" lon="9.173126406066702"><ele>117.33333333333334</ele><time>2026-04-18T07:07:23.001Z</time></trkpt><trkpt lat="45.437247049166345" lon="9.173243209311408"><ele>117.66666666666667</ele><time>2026-04-18T07:07:26.001Z</time></trkpt><trkpt lat="45.43724259178867" lon="9.173369702815995"><ele>118.0</ele><time>2026-04-18T07:07:29Z</time></trkpt><trkpt lat="45.437241825162026" lon="9.173497363490572"><ele>117.85714285714286</ele><time>2026-04-18T07:07:32Z</time></trkpt><trkpt lat="45.43724183849696" lon="9.17359490595001"><ele>117.71428571428572</ele><time>2026-04-18T07:07:34Z</time></trkpt><trkpt lat="45.437231491080745" lon="9.173686112045983"><ele>117.57142857142858</ele><time>2026-04-18T07:07:36Z</time></trkpt><trkpt lat="45.43722885341294" lon="9.173781724240575"><ele>117.42857142857143</ele><time>2026-04-18T07:07:38Z</time></trkpt><trkpt lat="45.43722314669365" lon="9.173877007595516"><ele>117.2857142857143</ele><time>2026-04-18T07:07:40Z</time></trkpt><trkpt lat="45.43722629062232" lon="9.173970317967205"><ele>117.14285714285715</ele><time>2026-04-18T07:07:42Z</time></trkpt><trkpt lat="45.43722077514818" lon="9.17408391206491"><ele>117.0</ele><time>2026-04-18T07:07:45Z</time></trkpt><trkpt lat="45.43721313749723" lon="9.174219694051787"><ele>117.0</ele><time>2026-04-18T07:07:48Z</time></trkpt><trkpt lat="45.43721567178415" lon="9.174324900209962"><ele>117.0</ele><time>2026-04-18T07:07:51Z</time></trkpt><trkpt lat="45.437123990040206" lon="9.17432565843343"><ele>117.0</ele><time>2026-04-18T07:07:56Z</time></trkpt><trkpt lat="45.43702089155933" lon="9.174307467702068"><ele>117.0</ele><time>2026-04-18T07:07:58Z</time></trkpt><trkpt lat="45.43695465648757" lon="9.174288364816281"><ele>117.0</ele><time>2026-04-18T07:08:00Z</time></trkpt><trkpt lat="45.43688483746767" lon="9.17426491489826"><ele>117.0</ele><time>2026-04-18T07:08:02Z</time></trkpt><trkpt lat="45.43680303873647" lon="9.174260003758341"><ele>116.5</ele><time>2026-04-18T07:08:04Z</time></trkpt><trkpt lat="45.43672324245482" lon="9.174239636562366"><ele>116.0</ele><time>2026-04-18T07:08:06Z</time></trkpt><trkpt lat="45.43662803329101" lon="9.174229653534343"><ele>115.5</ele><time>2026-04-18T07:08:08Z</time></trkpt><trkpt lat="45.43656319082047" lon="9.174252576951991"><ele>115.0</ele><time>2026-04-18T07:08:10Z</time></trkpt><trkpt lat="45.43649520022512" lon="9.174253700307558"><ele>114.5</ele><time>2026-04-18T07:08:12Z</time></trkpt><trkpt lat="45.43641693206256" lon="9.174234790046185"><ele>114.0</ele><time>2026-04-18T07:08:14Z</time></trkpt><trkpt lat="45.436346687056826" lon="9.174221829582999"><ele>114.16666666666667</ele><time>2026-04-18T07:08:16Z</time></trkpt><trkpt lat="45.43625455972757" lon="9.174210982984446"><ele>114.33333333333334</ele><time>2026-04-18T07:08:18Z</time></trkpt><trkpt lat="45.43617732571637" lon="9.17417794072177"><ele>114.5</ele><time>2026-04-18T07:08:20Z</time></trkpt><trkpt lat="45.436103244967065" lon="9.174171866638243"><ele>114.66666666666667</ele><time>2026-04-18T07:08:22Z</time></trkpt><trkpt lat="45.436016644094714" lon="9.174140161979635"><ele>114.83333333333334</ele><time>2026-04-18T07:08:24Z</time></trkpt><trkpt lat="45.43594748426809" lon="9.174125100380094"><ele>115.0</ele><time>2026-04-18T07:08:26Z</time></trkpt><trkpt lat="45.43586061744535" lon="9.174098368921406"><ele>115.0</ele><time>2026-04-18T07:08:28Z</time></trkpt><trkpt lat="45.43575687645631" lon="9.17407718220464"><ele>115.0</ele><time>2026-04-18T07:08:30Z</time></trkpt><trkpt lat="45.435656377651995" lon="9.174053203008958"><ele>115.0</ele><time>2026-04-18T07:08:32Z</time></trkpt><trkpt lat="45.43556704071702" lon="9.174027844740008"><ele>115.0</ele><time>2026-04-18T07:08:34Z</time></trkpt><trkpt lat="45.43548584363277" lon="9.174008042760557"><ele>115.0</ele><time>2026-04-18T07:08:36Z</time></trkpt><trkpt lat="45.43540088368927" lon="9.173990386805757"><ele>115.66666666666667</ele><time>2026-04-18T07:08:38.001Z</time></trkpt><trkpt lat="45.43532271389202" lon="9.173973261200828"><ele>116.33333333333334</ele><time>2026-04-18T07:08:40.001Z</time></trkpt><trkpt lat="45.435238759852" lon="9.173951137126135"><ele>117.0</ele><time>2026-04-18T07:08:42.001Z</time></trkpt><trkpt lat="45.43516115913793" lon="9.1739324900832"><ele>117.66666666666666</ele><time>2026-04-18T07:08:44.001Z</time></trkpt><trkpt lat="45.435084014326335" lon="9.173910586492003"><ele>118.33333333333333</ele><time>2026-04-18T07:08:46.001Z</time></trkpt><trkpt lat="45.43497311145849" lon="9.173893182147495"><ele>119.0</ele><time>2026-04-18T07:08:48.001Z</time></trkpt><trkpt lat="45.4348892377176" lon="9.173863811259398"><ele>118.99999999999999</ele><time>2026-04-18T07:08:50.002Z</time></trkpt><trkpt lat="45.43478505842939" lon="9.173850380299994"><ele>119.0</ele><time>2026-04-18T07:08:52.002Z</time></trkpt><trkpt lat="45.43471306958628" lon="9.17382611985664"><ele>119.0</ele><time>2026-04-18T07:08:54.002Z</time></trkpt><trkpt lat="45.434625540188996" lon="9.173803971521538"><ele>119.0</ele><time>2026-04-18T07:08:56.001Z</time></trkpt><trkpt lat="45.43454774698269" lon="9.173785521759308"><ele>118.99999999999999</ele><time>2026-04-18T07:08:58.001Z</time></trkpt><trkpt lat="45.43445758387883" lon="9.17376511384912"><ele>119.0</ele><time>2026-04-18T07:09:00.001Z</time></trkpt><trkpt lat="45.43436837039954" lon="9.173736678138352"><ele>119.0</ele><time>2026-04-18T07:09:02.001Z</time></trkpt><trkpt lat="45.43428451451318" lon="9.173711941925651"><ele>119.0</ele><time>2026-04-18T07:09:04.001Z</time></trkpt><trkpt lat="45.43417858197333" lon="9.17369193938299"><ele>119.0</ele><time>2026-04-18T07:09:06.001Z</time></trkpt><trkpt lat="45.43409553597261" lon="9.17366561282309"><ele>119.0</ele><time>2026-04-18T07:09:08.001Z</time></trkpt><trkpt lat="45.43399875719953" lon="9.173649781682386"><ele>119.0</ele><time>2026-04-18T07:09:10.001Z</time></trkpt><trkpt lat="45.43391287521511" lon="9.173626160345865"><ele>119.0</ele><time>2026-04-18T07:09:12.001Z</time></trkpt><trkpt lat="45.43382309955612" lon="9.173606241356694"><ele>119.0</ele><time>2026-04-18T07:09:14.001Z</time></trkpt><trkpt lat="45.43372966219902" lon="9.173580785153698"><ele>119.0</ele><time>2026-04-18T07:09:16.001Z</time></trkpt><trkpt lat="45.433639359210794" lon="9.173552960316643"><ele>119.0</ele><time>2026-04-18T07:09:18Z</time></trkpt><trkpt lat="45.43352543149912" lon="9.173522890123431"><ele>119.0</ele><time>2026-04-18T07:09:20Z</time></trkpt><trkpt lat="45.433433827310644" lon="9.173479574060487"><ele>118.2</ele><time>2026-04-18T07:09:22Z</time></trkpt><trkpt lat="45.43334034489207" lon="9.173426771158676"><ele>117.4</ele><time>2026-04-18T07:09:24Z</time></trkpt><trkpt lat="45.43324579576676" lon="9.17336751172957"><ele>116.6</ele><time>2026-04-18T07:09:26Z</time></trkpt><trkpt lat="45.43315990416748" lon="9.173318332435871"><ele>115.8</ele><time>2026-04-18T07:09:28Z</time></trkpt><trkpt lat="45.43306706676944" lon="9.173265143048063"><ele>115.0</ele><time>2026-04-18T07:09:30Z</time></trkpt><trkpt lat="45.4329740295203" lon="9.173210654356456"><ele>114.6</ele><time>2026-04-18T07:09:32Z</time></trkpt><trkpt lat="45.43287824619422" lon="9.173161899111923"><ele>114.2</ele><time>2026-04-18T07:09:34Z</time></trkpt><trkpt lat="45.43280340771516" lon="9.173111009664355"><ele>113.80000000000001</ele><time>2026-04-18T07:09:36Z</time></trkpt><trkpt lat="45.4327074800108" lon="9.173069158512858"><ele>113.4</ele><time>2026-04-18T07:09:38Z</time></trkpt><trkpt lat="45.43262636612536" lon="9.173044786645844"><ele>113.0</ele><time>2026-04-18T07:09:40Z</time></trkpt><trkpt lat="45.43251724000797" lon="9.173001897307511"><ele>113.0</ele><time>2026-04-18T07:09:42Z</time></trkpt><trkpt lat="45.432424574590335" lon="9.172941542821777"><ele>113.00000000000001</ele><time>2026-04-18T07:09:44Z</time></trkpt><trkpt lat="45.43233684101132" lon="9.172882884606544"><ele>113.00000000000001</ele><time>2026-04-18T07:09:46Z</time></trkpt><trkpt lat="45.43224843275319" lon="9.172827331381642"><ele>113.0</ele><time>2026-04-18T07:09:48Z</time></trkpt><trkpt lat="45.43217276087341" lon="9.172784313803968"><ele>113.0</ele><time>2026-04-18T07:09:50Z</time></trkpt><trkpt lat="45.432098769727254" lon="9.172742215559813"><ele>112.60000000000001</ele><time>2026-04-18T07:09:52Z</time></trkpt><trkpt lat="45.432027796752706" lon="9.172703047504898"><ele>112.20000000000002</ele><time>2026-04-18T07:09:54Z</time></trkpt><trkpt lat="45.431939196536256" lon="9.172661045836888"><ele>111.8</ele><time>2026-04-18T07:09:56Z</time></trkpt><trkpt lat="45.431839547829966" lon="9.17264983193243"><ele>111.4</ele><time>2026-04-18T07:09:58Z</time></trkpt><trkpt lat="45.43174479206632" lon="9.172595997669958"><ele>111.0</ele><time>2026-04-18T07:10:00Z</time></trkpt><trkpt lat="45.43163650532377" lon="9.17253343806662"><ele>111.0</ele><time>2026-04-18T07:10:02Z</time></trkpt><trkpt lat="45.43153112528296" lon="9.172472557492734"><ele>111.0</ele><time>2026-04-18T07:10:04Z</time></trkpt><trkpt lat="45.43144391053476" lon="9.172422171502458"><ele>111.0</ele><time>2026-04-18T07:10:06Z</time></trkpt><trkpt lat="45.431375167162344" lon="9.172332210788143"><ele>111.0</ele><time>2026-04-18T07:10:08Z</time></trkpt><trkpt lat="45.43126107847421" lon="9.172276457831392"><ele>111.0</ele><time>2026-04-18T07:10:10Z</time></trkpt><trkpt lat="45.431151849407435" lon="9.17222372771644"><ele>110.4</ele><time>2026-04-18T07:10:12Z</time></trkpt><trkpt lat="45.43105587323338" lon="9.172169728431472"><ele>109.8</ele><time>2026-04-18T07:10:14Z</time></trkpt><trkpt lat="45.43095741576459" lon="9.17211391266463"><ele>109.20000000000002</ele><time>2026-04-18T07:10:16Z</time></trkpt><trkpt lat="45.430874873362676" lon="9.172065186652128"><ele>108.60000000000001</ele><time>2026-04-18T07:10:18Z</time></trkpt><trkpt lat="45.4308145674906" lon="9.172034490297001"><ele>108.0</ele><time>2026-04-18T07:10:19Z</time></trkpt><trkpt lat="45.43071586892335" lon="9.171972895226935"><ele>108.0</ele><time>2026-04-18T07:10:21Z</time></trkpt><trkpt lat="45.430620807570016" lon="9.17191980766573"><ele>108.00000000000001</ele><time>2026-04-18T07:10:23Z</time></trkpt><trkpt lat="45.43051808273898" lon="9.171860943183104"><ele>108.00000000000001</ele><time>2026-04-18T07:10:25Z</time></trkpt><trkpt lat="45.43042066932584" lon="9.171807962646714"><ele>108.0</ele><time>2026-04-18T07:10:26.999Z</time></trkpt><trkpt lat="45.430313451283396" lon="9.171752474803732"><ele>108.0</ele><time>2026-04-18T07:10:28.999Z</time></trkpt><trkpt lat="45.43021341151663" lon="9.171698808787799"><ele>108.2</ele><time>2026-04-18T07:10:30.999Z</time></trkpt><trkpt lat="45.43012040793932" lon="9.171643122332277"><ele>108.4</ele><time>2026-04-18T07:10:32.999Z</time></trkpt><trkpt lat="45.430042983998185" lon="9.171596498315173"><ele>108.60000000000001</ele><time>2026-04-18T07:10:34.999Z</time></trkpt><trkpt lat="45.429932489437725" lon="9.171533329739725"><ele>108.80000000000001</ele><time>2026-04-18T07:10:36.999Z</time></trkpt><trkpt lat="45.42983537291968" lon="9.171478771207926"><ele>109.0</ele><time>2026-04-18T07:10:38.999Z</time></trkpt><trkpt lat="45.42974269772773" lon="9.17143352192752"><ele>109.0</ele><time>2026-04-18T07:10:40.999Z</time></trkpt><trkpt lat="45.42964828216626" lon="9.171377051961304"><ele>109.0</ele><time>2026-04-18T07:10:43Z</time></trkpt><trkpt lat="45.42954837375077" lon="9.171316552344074"><ele>109.0</ele><time>2026-04-18T07:10:45Z</time></trkpt><trkpt lat="45.429456235905455" lon="9.171272151596225"><ele>109.0</ele><time>2026-04-18T07:10:47Z</time></trkpt><trkpt lat="45.429356467264746" lon="9.17120785276823"><ele>109.0</ele><time>2026-04-18T07:10:49Z</time></trkpt><trkpt lat="45.42926094931569" lon="9.171151332827817"><ele>109.4</ele><time>2026-04-18T07:10:51Z</time></trkpt><trkpt lat="45.42916387048372" lon="9.17110332385946"><ele>109.80000000000001</ele><time>2026-04-18T07:10:53Z</time></trkpt><trkpt lat="45.42906772456566" lon="9.171047696400585"><ele>110.19999999999999</ele><time>2026-04-18T07:10:55Z</time></trkpt><trkpt lat="45.42897319735605" lon="9.170994200069874"><ele>110.6</ele><time>2026-04-18T07:10:57.001Z</time></trkpt><trkpt lat="45.42887986507261" lon="9.170944124989342"><ele>111.0</ele><time>2026-04-18T07:10:59.001Z</time></trkpt><trkpt lat="45.428781336682256" lon="9.17089285682739"><ele>111.0</ele><time>2026-04-18T07:11:01.001Z</time></trkpt><trkpt lat="45.42868715565017" lon="9.1708449453019"><ele>111.0</ele><time>2026-04-18T07:11:03.001Z</time></trkpt><trkpt lat="45.428595620366" lon="9.170783371990506"><ele>111.0</ele><time>2026-04-18T07:11:05.001Z</time></trkpt><trkpt lat="45.4284931850018" lon="9.170725135197609"><ele>111.0</ele><time>2026-04-18T07:11:07.001Z</time></trkpt><trkpt lat="45.4284066038358" lon="9.170676026433313"><ele>111.0</ele><time>2026-04-18T07:11:09.001Z</time></trkpt><trkpt lat="45.428310387424766" lon="9.170620193714095"><ele>111.0</ele><time>2026-04-18T07:11:11Z</time></trkpt><trkpt lat="45.42821754675137" lon="9.17056355523766"><ele>111.0</ele><time>2026-04-18T07:11:13Z</time></trkpt><trkpt lat="45.42812309914329" lon="9.170507707066752"><ele>111.0</ele><time>2026-04-18T07:11:15Z</time></trkpt><trkpt lat="45.42803010405963" lon="9.17045306555654"><ele>111.0</ele><time>2026-04-18T07:11:17Z</time></trkpt><trkpt lat="45.42793366162668" lon="9.17039838801086"><ele>111.0</ele><time>2026-04-18T07:11:19Z</time></trkpt><trkpt lat="45.427850218808345" lon="9.17034338235665"><ele>111.19999999999999</ele><time>2026-04-18T07:11:21Z</time></trkpt><trkpt lat="45.427760450264906" lon="9.170292221197892"><ele>111.39999999999999</ele><time>2026-04-18T07:11:23Z</time></trkpt><trkpt lat="45.42767122138278" lon="9.170240543915712"><ele>111.6</ele><time>2026-04-18T07:11:25Z</time></trkpt><trkpt lat="45.42757939439365" lon="9.17018473283157"><ele>111.8</ele><time>2026-04-18T07:11:27Z</time></trkpt><trkpt lat="45.427484365683476" lon="9.170131616435405"><ele>112.0</ele><time>2026-04-18T07:11:29Z</time></trkpt><trkpt lat="45.42739391573887" lon="9.17007829216121"><ele>112.00000000000001</ele><time>2026-04-18T07:11:31Z</time></trkpt><trkpt lat="45.42731109113833" lon="9.17002691065826"><ele>112.0</ele><time>2026-04-18T07:11:33Z</time></trkpt><trkpt lat="45.427230385774195" lon="9.169980267760668"><ele>112.0</ele><time>2026-04-18T07:11:35Z</time></trkpt><trkpt lat="45.42713786526811" lon="9.169926479055658"><ele>112.0</ele><time>2026-04-18T07:11:37Z</time></trkpt><trkpt lat="45.42705479310803" lon="9.169878836944996"><ele>112.00000000000001</ele><time>2026-04-18T07:11:39Z</time></trkpt><trkpt lat="45.426984852391186" lon="9.169833697378209"><ele>112.0</ele><time>2026-04-18T07:11:41Z</time></trkpt><trkpt lat="45.42692484668064" lon="9.169783116345974"><ele>112.19999999999999</ele><time>2026-04-18T07:11:43Z</time></trkpt><trkpt lat="45.426847993901184" lon="9.16973379106195"><ele>112.39999999999999</ele><time>2026-04-18T07:11:45Z</time></trkpt><trkpt lat="45.42678668044552" lon="9.169693728508644"><ele>112.60000000000001</ele><time>2026-04-18T07:11:47Z</time></trkpt><trkpt lat="45.42670355226586" lon="9.169651563249353"><ele>112.80000000000001</ele><time>2026-04-18T07:11:49Z</time></trkpt><trkpt lat="45.426616807695765" lon="9.169581344093755"><ele>113.0</ele><time>2026-04-18T07:11:51Z</time></trkpt><trkpt lat="45.42651081717662" lon="9.169517214920068"><ele>113.0</ele><time>2026-04-18T07:11:53Z</time></trkpt><trkpt lat="45.42641978008789" lon="9.169456533017046"><ele>113.00000000000001</ele><time>2026-04-18T07:11:55Z</time></trkpt><trkpt lat="45.42631748544637" lon="9.169403328821467"><ele>113.00000000000001</ele><time>2026-04-18T07:11:57Z</time></trkpt><trkpt lat="45.42621016084649" lon="9.169350930393183"><ele>113.0</ele><time>2026-04-18T07:11:59Z</time></trkpt><trkpt lat="45.42610966824912" lon="9.169295983513623"><ele>113.0</ele><time>2026-04-18T07:12:01Z</time></trkpt><trkpt lat="45.426005179373504" lon="9.169221318992582"><ele>112.60000000000001</ele><time>2026-04-18T07:12:03Z</time></trkpt><trkpt lat="45.42594310563356" lon="9.169191623572747"><ele>112.20000000000002</ele><time>2026-04-18T07:12:04Z</time></trkpt><trkpt lat="45.42583266642798" lon="9.16913811665499"><ele>111.8</ele><time>2026-04-18T07:12:06Z</time></trkpt><trkpt lat="45.4257274361607" lon="9.16907835391846"><ele>111.4</ele><time>2026-04-18T07:12:08Z</time></trkpt><trkpt lat="45.42562348764257" lon="9.16902682960205"><ele>111.0</ele><time>2026-04-18T07:12:10Z</time></trkpt><trkpt lat="45.4255648791745" lon="9.168991852147284"><ele>110.6</ele><time>2026-04-18T07:12:11Z</time></trkpt><trkpt lat="45.425470470741416" lon="9.168917262595448"><ele>110.19999999999999</ele><time>2026-04-18T07:12:13Z</time></trkpt><trkpt lat="45.42538122576155" lon="9.168853811548301"><ele>109.80000000000001</ele><time>2026-04-18T07:12:15Z</time></trkpt><trkpt lat="45.42530100257069" lon="9.168791108462246"><ele>109.4</ele><time>2026-04-18T07:12:17Z</time></trkpt><trkpt lat="45.42522641336844" lon="9.168737758983543"><ele>109.0</ele><time>2026-04-18T07:12:19Z</time></trkpt><trkpt lat="45.42512586429308" lon="9.168687379785311"><ele>109.0</ele><time>2026-04-18T07:12:21Z</time></trkpt><trkpt lat="45.42502726824455" lon="9.168633884711442"><ele>109.0</ele><time>2026-04-18T07:12:23Z</time></trkpt><trkpt lat="45.42488771406958" lon="9.168581358625742"><ele>109.0</ele><time>2026-04-18T07:12:26Z</time></trkpt><trkpt lat="45.42479675871469" lon="9.168543144021047"><ele>109.0</ele><time>2026-04-18T07:12:28Z</time></trkpt><trkpt lat="45.42471026243165" lon="9.168493674240162"><ele>109.0</ele><time>2026-04-18T07:12:30Z</time></trkpt><trkpt lat="45.42463614848935" lon="9.168447516376155"><ele>109.00000000000001</ele><time>2026-04-18T07:12:32Z</time></trkpt><trkpt lat="45.42454362021885" lon="9.168409118506217"><ele>109.0</ele><time>2026-04-18T07:12:34Z</time></trkpt><trkpt lat="45.42446133682792" lon="9.16837046330842"><ele>109.0</ele><time>2026-04-18T07:12:36Z</time></trkpt><trkpt lat="45.42437739034388" lon="9.168326054797378"><ele>109.0</ele><time>2026-04-18T07:12:38Z</time></trkpt><trkpt lat="45.424305675218555" lon="9.168272677281506"><ele>109.00000000000001</ele><time>2026-04-18T07:12:39.999Z</time></trkpt><trkpt lat="45.42421983293612" lon="9.16821376791047"><ele>109.0</ele><time>2026-04-18T07:12:41.999Z</time></trkpt><trkpt lat="45.424137418896585" lon="9.168173522731271"><ele>108.80000000000001</ele><time>2026-04-18T07:12:43.999Z</time></trkpt><trkpt lat="45.42404945427311" lon="9.168122853729407"><ele>108.60000000000001</ele><time>2026-04-18T07:12:45.999Z</time></trkpt><trkpt lat="45.423960967396404" lon="9.168072711800507"><ele>108.4</ele><time>2026-04-18T07:12:47.999Z</time></trkpt><trkpt lat="45.42387495718944" lon="9.168026547200716"><ele>108.2</ele><time>2026-04-18T07:12:50Z</time></trkpt><trkpt lat="45.42378944527323" lon="9.167978201255679"><ele>108.0</ele><time>2026-04-18T07:12:52.001Z</time></trkpt><trkpt lat="45.42370091409701" lon="9.16792664884815"><ele>108.0</ele><time>2026-04-18T07:12:54Z</time></trkpt><trkpt lat="45.423620356150046" lon="9.16786827592867"><ele>108.00000000000001</ele><time>2026-04-18T07:12:56.001Z</time></trkpt><trkpt lat="45.4235329428381" lon="9.167819215551116"><ele>108.00000000000001</ele><time>2026-04-18T07:12:58Z</time></trkpt><trkpt lat="45.42343357649846" lon="9.167763255765987"><ele>108.0</ele><time>2026-04-18T07:13:00Z</time></trkpt><trkpt lat="45.42334273493064" lon="9.167714478723816"><ele>108.0</ele><time>2026-04-18T07:13:02.001Z</time></trkpt><trkpt lat="45.4232511043579" lon="9.16766856878118"><ele>108.0</ele><time>2026-04-18T07:13:04.001Z</time></trkpt><trkpt lat="45.42315769709576" lon="9.16761306110297"><ele>108.00000000000001</ele><time>2026-04-18T07:13:06.001Z</time></trkpt><trkpt lat="45.42307496636403" lon="9.167563382250036"><ele>108.00000000000001</ele><time>2026-04-18T07:13:08.001Z</time></trkpt><trkpt lat="45.422978511478576" lon="9.167513740334975"><ele>108.0</ele><time>2026-04-18T07:13:10.001Z</time></trkpt><trkpt lat="45.42289737715208" lon="9.167463383578719"><ele>108.0</ele><time>2026-04-18T07:13:12.001Z</time></trkpt><trkpt lat="45.42282696083454" lon="9.167425810183147"><ele>107.80000000000001</ele><time>2026-04-18T07:13:14.001Z</time></trkpt><trkpt lat="45.422757331275776" lon="9.167379074208121"><ele>107.60000000000001</ele><time>2026-04-18T07:13:16.001Z</time></trkpt><trkpt lat="45.42267097197396" lon="9.167330124117457"><ele>107.39999999999999</ele><time>2026-04-18T07:13:18.001Z</time></trkpt><trkpt lat="45.42259078274229" lon="9.167276264038906"><ele>107.19999999999999</ele><time>2026-04-18T07:13:20.001Z</time></trkpt><trkpt lat="45.42249742137942" lon="9.167223330359137"><ele>107.0</ele><time>2026-04-18T07:13:22.001Z</time></trkpt><trkpt lat="45.422400011517524" lon="9.167171055507948"><ele>107.16666666666666</ele><time>2026-04-18T07:13:24.001Z</time></trkpt><trkpt lat="45.42230875530864" lon="9.167113449304082"><ele>107.33333333333333</ele><time>2026-04-18T07:13:26.001Z</time></trkpt><trkpt lat="45.42221887623068" lon="9.167063398176795"><ele>107.5</ele><time>2026-04-18T07:13:28.001Z</time></trkpt><trkpt lat="45.42214274457578" lon="9.167014587666674"><ele>107.66666666666666</ele><time>2026-04-18T07:13:30.001Z</time></trkpt><trkpt lat="45.42205995856033" lon="9.166975083963171"><ele>107.83333333333333</ele><time>2026-04-18T07:13:32Z</time></trkpt><trkpt lat="45.42198278963269" lon="9.166934561877751"><ele>108.0</ele><time>2026-04-18T07:13:34Z</time></trkpt><trkpt lat="45.42190213066822" lon="9.16688949012544"><ele>108.0</ele><time>2026-04-18T07:13:36Z</time></trkpt><trkpt lat="45.42181079301388" lon="9.166835861260932"><ele>108.00000000000001</ele><time>2026-04-18T07:13:38Z</time></trkpt><trkpt lat="45.42172594068866" lon="9.166787560913582"><ele>108.00000000000001</ele><time>2026-04-18T07:13:40Z</time></trkpt><trkpt lat="45.421629536097065" lon="9.166734988678812"><ele>108.0</ele><time>2026-04-18T07:13:42Z</time></trkpt><trkpt lat="45.42153526179834" lon="9.166684742187584"><ele>108.0</ele><time>2026-04-18T07:13:44Z</time></trkpt><trkpt lat="45.4214367588054" lon="9.166626650921103"><ele>108.0</ele><time>2026-04-18T07:13:46Z</time></trkpt><trkpt lat="45.421342242480314" lon="9.166572596692781"><ele>108.00000000000001</ele><time>2026-04-18T07:13:48Z</time></trkpt><trkpt lat="45.421252491844385" lon="9.166514208279708"><ele>108.00000000000001</ele><time>2026-04-18T07:13:50Z</time></trkpt><trkpt lat="45.42115629600721" lon="9.1664719832506"><ele>108.0</ele><time>2026-04-18T07:13:52Z</time></trkpt><trkpt lat="45.42105871131251" lon="9.166416306964107"><ele>108.0</ele><time>2026-04-18T07:13:54Z</time></trkpt><trkpt lat="45.42097780539253" lon="9.166378136072032"><ele>107.60000000000001</ele><time>2026-04-18T07:13:56Z</time></trkpt><trkpt lat="45.420880754285356" lon="9.166307515340565"><ele>107.20000000000002</ele><time>2026-04-18T07:13:58Z</time></trkpt><trkpt lat="45.420782887709784" lon="9.16625701541608"><ele>106.8</ele><time>2026-04-18T07:14:00Z</time></trkpt><trkpt lat="45.420680560698045" lon="9.166201186622883"><ele>106.4</ele><time>2026-04-18T07:14:02Z</time></trkpt><trkpt lat="45.420583153287836" lon="9.166144248164724"><ele>106.0</ele><time>2026-04-18T07:14:04Z</time></trkpt><trkpt lat="45.4204851321883" lon="9.16608322348209"><ele>106.0</ele><time>2026-04-18T07:14:06Z</time></trkpt><trkpt lat="45.4203922352485" lon="9.166037234970496"><ele>106.0</ele><time>2026-04-18T07:14:08Z</time></trkpt><trkpt lat="45.42030200587747" lon="9.165981279110683"><ele>106.0</ele><time>2026-04-18T07:14:10Z</time></trkpt><trkpt lat="45.42020825391348" lon="9.16592689510632"><ele>106.0</ele><time>2026-04-18T07:14:12Z</time></trkpt><trkpt lat="45.420130758326216" lon="9.165885994341032"><ele>106.0</ele><time>2026-04-18T07:14:14Z</time></trkpt><trkpt lat="45.42003575878466" lon="9.165819721384404"><ele>106.0</ele><time>2026-04-18T07:14:16Z</time></trkpt><trkpt lat="45.41994930170324" lon="9.165762599052318"><ele>106.0</ele><time>2026-04-18T07:14:18Z</time></trkpt><trkpt lat="45.41985483426905" lon="9.165710492500335"><ele>106.0</ele><time>2026-04-18T07:14:20Z</time></trkpt><trkpt lat="45.41976030823196" lon="9.165655516596257"><ele>106.0</ele><time>2026-04-18T07:14:22Z</time></trkpt><trkpt lat="45.41966395883504" lon="9.165599636623424"><ele>106.0</ele><time>2026-04-18T07:14:24Z</time></trkpt><trkpt lat="45.41956275883873" lon="9.165544568331548"><ele>105.8</ele><time>2026-04-18T07:14:26Z</time></trkpt><trkpt lat="45.419461413261125" lon="9.165489837383628"><ele>105.6</ele><time>2026-04-18T07:14:28Z</time></trkpt><trkpt lat="45.419362207372195" lon="9.165433886210646"><ele>105.4</ele><time>2026-04-18T07:14:30Z</time></trkpt><trkpt lat="45.419273200323275" lon="9.165377845189226"><ele>105.2</ele><time>2026-04-18T07:14:32Z</time></trkpt><trkpt lat="45.41917722610353" lon="9.165325831183054"><ele>105.0</ele><time>2026-04-18T07:14:34Z</time></trkpt><trkpt lat="45.41908407920559" lon="9.165273458589441"><ele>105.0</ele><time>2026-04-18T07:14:36Z</time></trkpt><trkpt lat="45.418994422919035" lon="9.165227918698696"><ele>105.0</ele><time>2026-04-18T07:14:38Z</time></trkpt><trkpt lat="45.41890705531664" lon="9.16517483501362"><ele>105.0</ele><time>2026-04-18T07:14:40Z</time></trkpt><trkpt lat="45.41881492695295" lon="9.165118558768528"><ele>105.0</ele><time>2026-04-18T07:14:42Z</time></trkpt><trkpt lat="45.41872124900414" lon="9.16506538801811"><ele>105.0</ele><time>2026-04-18T07:14:44Z</time></trkpt><trkpt lat="45.418633468465345" lon="9.165012236404714"><ele>105.6</ele><time>2026-04-18T07:14:46Z</time></trkpt><trkpt lat="45.41853943107694" lon="9.164964792758848"><ele>106.2</ele><time>2026-04-18T07:14:48Z</time></trkpt><trkpt lat="45.41844298693642" lon="9.164903145164764"><ele>106.80000000000001</ele><time>2026-04-18T07:14:50Z</time></trkpt><trkpt lat="45.41834447232134" lon="9.164845102138836"><ele>107.4</ele><time>2026-04-18T07:14:52Z</time></trkpt><trkpt lat="45.41825106542861" lon="9.164794321460263"><ele>108.0</ele><time>2026-04-18T07:14:54Z</time></trkpt><trkpt lat="45.41815153117238" lon="9.16472714944092"><ele>108.0</ele><time>2026-04-18T07:14:56Z</time></trkpt><trkpt lat="45.41804591188565" lon="9.164679513037536"><ele>108.00000000000001</ele><time>2026-04-18T07:14:58Z</time></trkpt><trkpt lat="45.41795025348693" lon="9.164611745758256"><ele>108.00000000000001</ele><time>2026-04-18T07:15:00.001Z</time></trkpt><trkpt lat="45.41785517101418" lon="9.164553972852449"><ele>108.0</ele><time>2026-04-18T07:15:02Z</time></trkpt><trkpt lat="45.41774562859256" lon="9.164502368770998"><ele>108.0</ele><time>2026-04-18T07:15:04.001Z</time></trkpt><trkpt lat="45.417651764807346" lon="9.16443211915264"><ele>107.60000000000001</ele><time>2026-04-18T07:15:06Z</time></trkpt><trkpt lat="45.41754270061301" lon="9.164383913508983"><ele>107.20000000000002</ele><time>2026-04-18T07:15:08.001Z</time></trkpt><trkpt lat="45.41745833231809" lon="9.164332695334382"><ele>106.8</ele><time>2026-04-18T07:15:10.001Z</time></trkpt><trkpt lat="45.41734766074678" lon="9.164284681601366"><ele>106.4</ele><time>2026-04-18T07:15:12.001Z</time></trkpt><trkpt lat="45.417258338038245" lon="9.16422979324645"><ele>106.0</ele><time>2026-04-18T07:15:14.001Z</time></trkpt><trkpt lat="45.417167185253994" lon="9.164176863865736"><ele>105.6</ele><time>2026-04-18T07:15:16.001Z</time></trkpt><trkpt lat="45.41706624435125" lon="9.16411357412864"><ele>105.19999999999999</ele><time>2026-04-18T07:15:18.001Z</time></trkpt><trkpt lat="45.41697067220867" lon="9.164061800031178"><ele>104.80000000000001</ele><time>2026-04-18T07:15:20.001Z</time></trkpt><trkpt lat="45.41686979447275" lon="9.163998960535277"><ele>104.4</ele><time>2026-04-18T07:15:22.001Z</time></trkpt><trkpt lat="45.41677313404412" lon="9.163932151547366"><ele>104.0</ele><time>2026-04-18T07:15:24.001Z</time></trkpt><trkpt lat="45.41668165688982" lon="9.163882985698228"><ele>104.0</ele><time>2026-04-18T07:15:26.001Z</time></trkpt><trkpt lat="45.416597514464" lon="9.163830060404003"><ele>104.0</ele><time>2026-04-18T07:15:28.001Z</time></trkpt><trkpt lat="45.41652399728534" lon="9.163783468241874"><ele>104.0</ele><time>2026-04-18T07:15:30.001Z</time></trkpt><trkpt lat="45.41642180623499" lon="9.163720918228757"><ele>104.0</ele><time>2026-04-18T07:15:32.001Z</time></trkpt><trkpt lat="45.41630553249426" lon="9.163657972030794"><ele>104.0</ele><time>2026-04-18T07:15:34.001Z</time></trkpt><trkpt lat="45.41620324281519" lon="9.163612323173613"><ele>104.4</ele><time>2026-04-18T07:15:36.001Z</time></trkpt><trkpt lat="45.416097088788995" lon="9.163542822179688"><ele>104.80000000000001</ele><time>2026-04-18T07:15:38.001Z</time></trkpt><trkpt lat="45.41599525402569" lon="9.163488862289928"><ele>105.19999999999999</ele><time>2026-04-18T07:15:40.001Z</time></trkpt><trkpt lat="45.41590018452714" lon="9.163438985050089"><ele>105.6</ele><time>2026-04-18T07:15:42.001Z</time></trkpt><trkpt lat="45.41584026663473" lon="9.163397009706513"><ele>106.0</ele><time>2026-04-18T07:15:43.001Z</time></trkpt><trkpt lat="45.41575399161549" lon="9.163354710028994"><ele>106.0</ele><time>2026-04-18T07:15:45.001Z</time></trkpt><trkpt lat="45.415649259805235" lon="9.163285948134991"><ele>106.0</ele><time>2026-04-18T07:15:47Z</time></trkpt><trkpt lat="45.41553387168516" lon="9.163221427242073"><ele>106.0</ele><time>2026-04-18T07:15:49Z</time></trkpt><trkpt lat="45.41543105802365" lon="9.16316075503168"><ele>106.0</ele><time>2026-04-18T07:15:51Z</time></trkpt><trkpt lat="45.41532917041983" lon="9.163101909206903"><ele>106.19999999999999</ele><time>2026-04-18T07:15:53Z</time></trkpt><trkpt lat="45.4152363988703" lon="9.163048319708272"><ele>106.39999999999999</ele><time>2026-04-18T07:15:55Z</time></trkpt><trkpt lat="45.41513572968773" lon="9.16298674858005"><ele>106.6</ele><time>2026-04-18T07:15:57Z</time></trkpt><trkpt lat="45.41503893929611" lon="9.162928732057038"><ele>106.8</ele><time>2026-04-18T07:15:59Z</time></trkpt><trkpt lat="45.414928717801146" lon="9.162862123286429"><ele>107.0</ele><time>2026-04-18T07:16:01Z</time></trkpt><trkpt lat="45.414822328273765" lon="9.162799786051117"><ele>107.0</ele><time>2026-04-18T07:16:03Z</time></trkpt><trkpt lat="45.4147192109229" lon="9.162738175842506"><ele>106.99999999999999</ele><time>2026-04-18T07:16:05Z</time></trkpt><trkpt lat="45.41461440239648" lon="9.16267511201245"><ele>106.99999999999999</ele><time>2026-04-18T07:16:07Z</time></trkpt><trkpt lat="45.41451053851174" lon="9.162622779119651"><ele>107.0</ele><time>2026-04-18T07:16:09Z</time></trkpt><trkpt lat="45.414408159511346" lon="9.162564432606912"><ele>107.0</ele><time>2026-04-18T07:16:11Z</time></trkpt><trkpt lat="45.41430038829948" lon="9.1625124128987"><ele>107.19999999999999</ele><time>2026-04-18T07:16:13Z</time></trkpt><trkpt lat="45.41419848143217" lon="9.162460803372522"><ele>107.39999999999999</ele><time>2026-04-18T07:16:15Z</time></trkpt><trkpt lat="45.41410561976204" lon="9.162399355599089"><ele>107.60000000000001</ele><time>2026-04-18T07:16:17Z</time></trkpt><trkpt lat="45.41401671258547" lon="9.162351359125138"><ele>107.80000000000001</ele><time>2026-04-18T07:16:19Z</time></trkpt><trkpt lat="45.41393193411882" lon="9.162307787979296"><ele>108.0</ele><time>2026-04-18T07:16:21Z</time></trkpt><trkpt lat="45.41385330056077" lon="9.162256102704363"><ele>107.4</ele><time>2026-04-18T07:16:23Z</time></trkpt><trkpt lat="45.413772186765314" lon="9.162197474008078"><ele>106.80000000000001</ele><time>2026-04-18T07:16:25Z</time></trkpt><trkpt lat="45.41367678667286" lon="9.162146642729565"><ele>106.2</ele><time>2026-04-18T07:16:27Z</time></trkpt><trkpt lat="45.41358904804233" lon="9.162095038011557"><ele>105.6</ele><time>2026-04-18T07:16:29Z</time></trkpt><trkpt lat="45.4135034907561" lon="9.162038713147478"><ele>105.0</ele><time>2026-04-18T07:16:31Z</time></trkpt><trkpt lat="45.413408893075385" lon="9.16198029744211"><ele>105.0</ele><time>2026-04-18T07:16:33Z</time></trkpt><trkpt lat="45.413313523563005" lon="9.16191937495086"><ele>105.0</ele><time>2026-04-18T07:16:35Z</time></trkpt><trkpt lat="45.413227482227306" lon="9.161869530777265"><ele>105.0</ele><time>2026-04-18T07:16:37Z</time></trkpt><trkpt lat="45.41313151354264" lon="9.161806908834718"><ele>105.0</ele><time>2026-04-18T07:16:39Z</time></trkpt><trkpt lat="45.41303887020446" lon="9.161753026718804"><ele>105.0</ele><time>2026-04-18T07:16:41Z</time></trkpt><trkpt lat="45.41293928339916" lon="9.16169410712967"><ele>105.2</ele><time>2026-04-18T07:16:43Z</time></trkpt><trkpt lat="45.41284962701343" lon="9.161643814020158"><ele>105.4</ele><time>2026-04-18T07:16:45Z</time></trkpt><trkpt lat="45.412751624412245" lon="9.161579289113593"><ele>105.6</ele><time>2026-04-18T07:16:47Z</time></trkpt><trkpt lat="45.412659650120204" lon="9.161516197860259"><ele>105.8</ele><time>2026-04-18T07:16:49Z</time></trkpt><trkpt lat="45.41255635482328" lon="9.161459123079867"><ele>106.0</ele><time>2026-04-18T07:16:51Z</time></trkpt><trkpt lat="45.412453682151444" lon="9.161407488617067"><ele>106.19999999999999</ele><time>2026-04-18T07:16:53Z</time></trkpt><trkpt lat="45.41236132587871" lon="9.161345953297516"><ele>106.39999999999999</ele><time>2026-04-18T07:16:55Z</time></trkpt><trkpt lat="45.41226487479658" lon="9.161292681539631"><ele>106.6</ele><time>2026-04-18T07:16:57Z</time></trkpt><trkpt lat="45.41216775123873" lon="9.16123763347181"><ele>106.8</ele><time>2026-04-18T07:16:59Z</time></trkpt><trkpt lat="45.41206205044391" lon="9.161186577670643"><ele>107.0</ele><time>2026-04-18T07:17:01.001Z</time></trkpt><trkpt lat="45.41197351112101" lon="9.161121198375954"><ele>106.6</ele><time>2026-04-18T07:17:03.001Z</time></trkpt><trkpt lat="45.41187672164277" lon="9.161058760915868"><ele>106.19999999999999</ele><time>2026-04-18T07:17:05.001Z</time></trkpt><trkpt lat="45.4117710383223" lon="9.16099953721992"><ele>105.8</ele><time>2026-04-18T07:17:07.001Z</time></trkpt><trkpt lat="45.411671949430435" lon="9.160945629594725"><ele>105.4</ele><time>2026-04-18T07:17:09.001Z</time></trkpt><trkpt lat="45.41157775718756" lon="9.160885539901427"><ele>105.0</ele><time>2026-04-18T07:17:11.001Z</time></trkpt><trkpt lat="45.411476431512575" lon="9.160822964687839"><ele>105.0</ele><time>2026-04-18T07:17:13.001Z</time></trkpt><trkpt lat="45.41137764214544" lon="9.160763700812044"><ele>105.0</ele><time>2026-04-18T07:17:15Z</time></trkpt><trkpt lat="45.411271300925165" lon="9.160695639446567"><ele>105.0</ele><time>2026-04-18T07:17:17Z</time></trkpt><trkpt lat="45.41118105145306" lon="9.16064277226477"><ele>105.0</ele><time>2026-04-18T07:17:19Z</time></trkpt><trkpt lat="45.41107495899549" lon="9.160580195153265"><ele>105.0</ele><time>2026-04-18T07:17:21Z</time></trkpt><trkpt lat="45.41098638516921" lon="9.16052063971179"><ele>104.4</ele><time>2026-04-18T07:17:23Z</time></trkpt><trkpt lat="45.41089088559251" lon="9.160461623420828"><ele>103.8</ele><time>2026-04-18T07:17:25Z</time></trkpt><trkpt lat="45.41079348232697" lon="9.160388985866206"><ele>103.19999999999999</ele><time>2026-04-18T07:17:27Z</time></trkpt><trkpt lat="45.41070422558426" lon="9.160335039213724"><ele>102.6</ele><time>2026-04-18T07:17:29Z</time></trkpt><trkpt lat="45.41060257149345" lon="9.160280381817469"><ele>102.0</ele><time>2026-04-18T07:17:31Z</time></trkpt><trkpt lat="45.41051600577586" lon="9.160225445435909"><ele>102.39999999999999</ele><time>2026-04-18T07:17:33Z</time></trkpt><trkpt lat="45.41041855277301" lon="9.16016587309026"><ele>102.8</ele><time>2026-04-18T07:17:35Z</time></trkpt><trkpt lat="45.410321472871644" lon="9.160107498617949"><ele>103.2</ele><time>2026-04-18T07:17:37Z</time></trkpt><trkpt lat="45.41022265267529" lon="9.160039346828581"><ele>103.6</ele><time>2026-04-18T07:17:39Z</time></trkpt><trkpt lat="45.41013016125116" lon="9.15998680649343"><ele>104.0</ele><time>2026-04-18T07:17:41Z</time></trkpt><trkpt lat="45.41002684837144" lon="9.159920466914794"><ele>103.80000000000001</ele><time>2026-04-18T07:17:43Z</time></trkpt><trkpt lat="45.40993141817979" lon="9.159855871560575"><ele>103.60000000000001</ele><time>2026-04-18T07:17:45Z</time></trkpt><trkpt lat="45.40983284997604" lon="9.159800620721535"><ele>103.4</ele><time>2026-04-18T07:17:47Z</time></trkpt><trkpt lat="45.40973398635737" lon="9.159742966321824"><ele>103.2</ele><time>2026-04-18T07:17:49Z</time></trkpt><trkpt lat="45.40963739763686" lon="9.159682815463741"><ele>103.0</ele><time>2026-04-18T07:17:51Z</time></trkpt><trkpt lat="45.40953494356416" lon="9.159623381220358"><ele>103.4</ele><time>2026-04-18T07:17:53Z</time></trkpt><trkpt lat="45.409430098906704" lon="9.15956725684087"><ele>103.80000000000001</ele><time>2026-04-18T07:17:55Z</time></trkpt><trkpt lat="45.409325340371254" lon="9.159500667599355"><ele>104.2</ele><time>2026-04-18T07:17:57Z</time></trkpt><trkpt lat="45.40924492677806" lon="9.159442448984194"><ele>104.6</ele><time>2026-04-18T07:17:59Z</time></trkpt><trkpt lat="45.40914486411849" lon="9.15938789819991"><ele>105.0</ele><time>2026-04-18T07:18:01Z</time></trkpt><trkpt lat="45.40904457710867" lon="9.159329006027614"><ele>105.0</ele><time>2026-04-18T07:18:03Z</time></trkpt><trkpt lat="45.40893276793466" lon="9.15925923704705"><ele>105.0</ele><time>2026-04-18T07:18:05Z</time></trkpt><trkpt lat="45.40883951216339" lon="9.159198398733952"><ele>105.0</ele><time>2026-04-18T07:18:07Z</time></trkpt><trkpt lat="45.4087443496771" lon="9.159134692981997"><ele>105.0</ele><time>2026-04-18T07:18:09Z</time></trkpt><trkpt lat="45.408636779795586" lon="9.15907973181909"><ele>105.0</ele><time>2026-04-18T07:18:11Z</time></trkpt><trkpt lat="45.408537324633535" lon="9.159018368610367"><ele>104.8</ele><time>2026-04-18T07:18:13Z</time></trkpt><trkpt lat="45.4084260386755" lon="9.158953702031608"><ele>104.6</ele><time>2026-04-18T07:18:15Z</time></trkpt><trkpt lat="45.408326502797365" lon="9.158901920772163"><ele>104.4</ele><time>2026-04-18T07:18:17Z</time></trkpt><trkpt lat="45.4082399428276" lon="9.158845714392806"><ele>104.2</ele><time>2026-04-18T07:18:19Z</time></trkpt><trkpt lat="45.40814821182728" lon="9.158783593808558"><ele>104.0</ele><time>2026-04-18T07:18:21Z</time></trkpt><trkpt lat="45.40805831644002" lon="9.158724455117458"><ele>104.2</ele><time>2026-04-18T07:18:23Z</time></trkpt><trkpt lat="45.40796419041099" lon="9.15866053973959"><ele>104.4</ele><time>2026-04-18T07:18:25Z</time></trkpt><trkpt lat="45.40790495763316" lon="9.158612574710313"><ele>104.6</ele><time>2026-04-18T07:18:26Z</time></trkpt><trkpt lat="45.407801050411116" lon="9.158532018924541"><ele>104.8</ele><time>2026-04-18T07:18:28Z</time></trkpt><trkpt lat="45.40771324389762" lon="9.158453664891706"><ele>105.0</ele><time>2026-04-18T07:18:29.999Z</time></trkpt><trkpt lat="45.40761813749631" lon="9.158391274607995"><ele>105.0</ele><time>2026-04-18T07:18:31.999Z</time></trkpt><trkpt lat="45.407534901060124" lon="9.158355700265192"><ele>105.0</ele><time>2026-04-18T07:18:33.999Z</time></trkpt><trkpt lat="45.407439242748715" lon="9.158317696312848"><ele>105.0</ele><time>2026-04-18T07:18:35.999Z</time></trkpt><trkpt lat="45.407336776135566" lon="9.158274576511426"><ele>105.0</ele><time>2026-04-18T07:18:37.999Z</time></trkpt><trkpt lat="45.407239607775274" lon="9.158223252141775"><ele>105.0</ele><time>2026-04-18T07:18:39.999Z</time></trkpt><trkpt lat="45.40714149092001" lon="9.15816612471284"><ele>105.4</ele><time>2026-04-18T07:18:41.999Z</time></trkpt><trkpt lat="45.40704543332721" lon="9.15811621925941"><ele>105.8</ele><time>2026-04-18T07:18:43.999Z</time></trkpt><trkpt lat="45.406954490800516" lon="9.158063315021868"><ele>106.19999999999999</ele><time>2026-04-18T07:18:45.999Z</time></trkpt><trkpt lat="45.40686354476693" lon="9.158010018876329"><ele>106.6</ele><time>2026-04-18T07:18:47.999Z</time></trkpt><trkpt lat="45.40678593440047" lon="9.157957993689502"><ele>107.0</ele><time>2026-04-18T07:18:49.999Z</time></trkpt><trkpt lat="45.4067204839843" lon="9.157925740374957"><ele>107.0</ele><time>2026-04-18T07:18:51.999Z</time></trkpt><trkpt lat="45.40662769370251" lon="9.157870422298656"><ele>106.99999999999999</ele><time>2026-04-18T07:18:53.999Z</time></trkpt><trkpt lat="45.40653286706227" lon="9.157811237115187"><ele>106.99999999999999</ele><time>2026-04-18T07:18:55.999Z</time></trkpt><trkpt lat="45.40642294724506" lon="9.157746894405129"><ele>107.0</ele><time>2026-04-18T07:18:57.999Z</time></trkpt><trkpt lat="45.40631703142256" lon="9.157687172136582"><ele>107.0</ele><time>2026-04-18T07:18:59.999Z</time></trkpt><trkpt lat="45.40621316576598" lon="9.157618682681589"><ele>107.0</ele><time>2026-04-18T07:19:01.999Z</time></trkpt><trkpt lat="45.40615267062528" lon="9.157585056230115"><ele>106.99999999999999</ele><time>2026-04-18T07:19:02.999Z</time></trkpt><trkpt lat="45.40604904963456" lon="9.157519081775945"><ele>106.99999999999999</ele><time>2026-04-18T07:19:04.999Z</time></trkpt><trkpt lat="45.4059458299714" lon="9.157459656182638"><ele>107.0</ele><time>2026-04-18T07:19:07.001Z</time></trkpt><trkpt lat="45.40584030246176" lon="9.157401003333407"><ele>107.0</ele><time>2026-04-18T07:19:09.001Z</time></trkpt><trkpt lat="45.405727175747636" lon="9.157332317301703"><ele>107.0</ele><time>2026-04-18T07:19:11Z</time></trkpt><trkpt lat="45.40561684783857" lon="9.157275028514224"><ele>107.0</ele><time>2026-04-18T07:19:13.001Z</time></trkpt><trkpt lat="45.40551006173322" lon="9.157208230295053"><ele>107.0</ele><time>2026-04-18T07:19:15.001Z</time></trkpt><trkpt lat="45.405401108404035" lon="9.157148483010616"><ele>107.0</ele><time>2026-04-18T07:19:17.001Z</time></trkpt><trkpt lat="45.40529664765728" lon="9.157094673887647"><ele>107.0</ele><time>2026-04-18T07:19:19.001Z</time></trkpt><trkpt lat="45.40519627158583" lon="9.15702705723592"><ele>107.0</ele><time>2026-04-18T07:19:21.001Z</time></trkpt><trkpt lat="45.40508514596832" lon="9.156956627915989"><ele>107.0</ele><time>2026-04-18T07:19:23.001Z</time></trkpt><trkpt lat="45.404980190981" lon="9.156894422998393"><ele>107.0</ele><time>2026-04-18T07:19:25.001Z</time></trkpt><trkpt lat="45.40487128493033" lon="9.156828517990382"><ele>107.0</ele><time>2026-04-18T07:19:27.001Z</time></trkpt><trkpt lat="45.404765688360655" lon="9.15676437925637"><ele>106.99999999999999</ele><time>2026-04-18T07:19:29.001Z</time></trkpt><trkpt lat="45.404669113387335" lon="9.156679850397135"><ele>106.99999999999999</ele><time>2026-04-18T07:19:31.001Z</time></trkpt><trkpt lat="45.40456820192095" lon="9.156616546524004"><ele>107.0</ele><time>2026-04-18T07:19:33.001Z</time></trkpt><trkpt lat="45.404474814475414" lon="9.156557198131027"><ele>107.0</ele><time>2026-04-18T07:19:35.001Z</time></trkpt><trkpt lat="45.40437083434292" lon="9.156498197641291"><ele>106.5</ele><time>2026-04-18T07:19:37.001Z</time></trkpt><trkpt lat="45.40426920049796" lon="9.156437677111688"><ele>106.0</ele><time>2026-04-18T07:19:39.001Z</time></trkpt><trkpt lat="45.40416256086221" lon="9.156371839021107"><ele>105.5</ele><time>2026-04-18T07:19:41.001Z</time></trkpt><trkpt lat="45.40404976167149" lon="9.156306135776445"><ele>105.0</ele><time>2026-04-18T07:19:43.001Z</time></trkpt><trkpt lat="45.40393784365312" lon="9.156246573177105"><ele>105.0</ele><time>2026-04-18T07:19:45.001Z</time></trkpt><trkpt lat="45.40383125602758" lon="9.156184557569185"><ele>105.0</ele><time>2026-04-18T07:19:47.001Z</time></trkpt><trkpt lat="45.40372583712187" lon="9.156121864437347"><ele>105.0</ele><time>2026-04-18T07:19:49.001Z</time></trkpt><trkpt lat="45.40362132899484" lon="9.1560585196868"><ele>105.0</ele><time>2026-04-18T07:19:51.001Z</time></trkpt><trkpt lat="45.403521319913764" lon="9.155998576806722"><ele>105.2</ele><time>2026-04-18T07:19:53.001Z</time></trkpt><trkpt lat="45.403427258036466" lon="9.155945222238639"><ele>105.4</ele><time>2026-04-18T07:19:55.001Z</time></trkpt><trkpt lat="45.40333102252352" lon="9.155883112880568"><ele>105.6</ele><time>2026-04-18T07:19:57.001Z</time></trkpt><trkpt lat="45.403232121846706" lon="9.155825992586486"><ele>105.8</ele><time>2026-04-18T07:19:59.001Z</time></trkpt><trkpt lat="45.40312892895892" lon="9.155759030134329"><ele>106.0</ele><time>2026-04-18T07:20:01.001Z</time></trkpt><trkpt lat="45.40302919447447" lon="9.155693992789965"><ele>105.8</ele><time>2026-04-18T07:20:03.001Z</time></trkpt><trkpt lat="45.40292761079364" lon="9.155630110248513"><ele>105.6</ele><time>2026-04-18T07:20:05.001Z</time></trkpt><trkpt lat="45.40283733580636" lon="9.155577323412613"><ele>105.4</ele><time>2026-04-18T07:20:07.001Z</time></trkpt><trkpt lat="45.402738184927294" lon="9.15551335779571"><ele>105.2</ele><time>2026-04-18T07:20:09.001Z</time></trkpt><trkpt lat="45.40263959336912" lon="9.155452197874405"><ele>105.0</ele><time>2026-04-18T07:20:11.001Z</time></trkpt><trkpt lat="45.40256232362784" lon="9.155404347557617"><ele>105.0</ele><time>2026-04-18T07:20:13.001Z</time></trkpt><trkpt lat="45.40248012471032" lon="9.155353770772619"><ele>105.0</ele><time>2026-04-18T07:20:15.001Z</time></trkpt><trkpt lat="45.40238805768298" lon="9.15529609917977"><ele>105.0</ele><time>2026-04-18T07:20:17Z</time></trkpt><trkpt lat="45.40229479942743" lon="9.155245031185279"><ele>105.0</ele><time>2026-04-18T07:20:19Z</time></trkpt><trkpt lat="45.40220201792953" lon="9.155187085333697"><ele>105.0</ele><time>2026-04-18T07:20:21Z</time></trkpt><trkpt lat="45.40209094337911" lon="9.155121610770514"><ele>105.4</ele><time>2026-04-18T07:20:23Z</time></trkpt><trkpt lat="45.401983873662644" lon="9.155059282193722"><ele>105.8</ele><time>2026-04-18T07:20:25Z</time></trkpt><trkpt lat="45.401881477346066" lon="9.15500289269283"><ele>106.19999999999999</ele><time>2026-04-18T07:20:27Z</time></trkpt><trkpt lat="45.40182272020183" lon="9.154962565985032"><ele>106.6</ele><time>2026-04-18T07:20:28Z</time></trkpt><trkpt lat="45.401722692812484" lon="9.154906961197703"><ele>107.0</ele><time>2026-04-18T07:20:30Z</time></trkpt><trkpt lat="45.40162110072809" lon="9.154841359833174"><ele>107.19999999999999</ele><time>2026-04-18T07:20:32Z</time></trkpt><trkpt lat="45.401560399909584" lon="9.154808335137497"><ele>107.39999999999999</ele><time>2026-04-18T07:20:33Z</time></trkpt><trkpt lat="45.40145303144544" lon="9.154748482397357"><ele>107.60000000000001</ele><time>2026-04-18T07:20:35Z</time></trkpt><trkpt lat="45.40135265918879" lon="9.154695730062334"><ele>107.80000000000001</ele><time>2026-04-18T07:20:37Z</time></trkpt><trkpt lat="45.401248126352485" lon="9.154626267356171"><ele>108.0</ele><time>2026-04-18T07:20:39Z</time></trkpt><trkpt lat="45.40113581603072" lon="9.154560769205492"><ele>107.0</ele><time>2026-04-18T07:20:41Z</time></trkpt><trkpt lat="45.401028301696776" lon="9.154494462043386"><ele>106.0</ele><time>2026-04-18T07:20:43Z</time></trkpt><trkpt lat="45.400916232521816" lon="9.154425283373369"><ele>105.0</ele><time>2026-04-18T07:20:45Z</time></trkpt><trkpt lat="45.4008127128829" lon="9.154361503258222"><ele>104.0</ele><time>2026-04-18T07:20:47Z</time></trkpt><trkpt lat="45.400703062398485" lon="9.15429157276023"><ele>104.0</ele><time>2026-04-18T07:20:49Z</time></trkpt><trkpt lat="45.40060147726447" lon="9.154229632915014"><ele>104.0</ele><time>2026-04-18T07:20:51Z</time></trkpt><trkpt lat="45.400493623512055" lon="9.154177505515353"><ele>104.0</ele><time>2026-04-18T07:20:53Z</time></trkpt><trkpt lat="45.40038901863479" lon="9.154113828583531"><ele>104.0</ele><time>2026-04-18T07:20:55Z</time></trkpt><trkpt lat="45.40028530476748" lon="9.154045405992445"><ele>104.4</ele><time>2026-04-18T07:20:57Z</time></trkpt><trkpt lat="45.4001783302952" lon="9.153984098784198"><ele>104.80000000000001</ele><time>2026-04-18T07:20:59Z</time></trkpt><trkpt lat="45.40007828819623" lon="9.153925477846261"><ele>105.19999999999999</ele><time>2026-04-18T07:21:01Z</time></trkpt><trkpt lat="45.39997719870531" lon="9.153865386402641"><ele>105.6</ele><time>2026-04-18T07:21:03Z</time></trkpt><trkpt lat="45.399871285403634" lon="9.153800462568599"><ele>106.0</ele><time>2026-04-18T07:21:05Z</time></trkpt><trkpt lat="45.399762957093394" lon="9.153744499056574"><ele>106.75</ele><time>2026-04-18T07:21:07Z</time></trkpt><trkpt lat="45.39965043435953" lon="9.153678172734331"><ele>107.5</ele><time>2026-04-18T07:21:09Z</time></trkpt><trkpt lat="45.39954285755394" lon="9.15361794239643"><ele>108.25</ele><time>2026-04-18T07:21:11Z</time></trkpt><trkpt lat="45.399432094831276" lon="9.153554680246012"><ele>109.0</ele><time>2026-04-18T07:21:13.001Z</time></trkpt><trkpt lat="45.3993358387582" lon="9.153497388859877"><ele>109.0</ele><time>2026-04-18T07:21:15.001Z</time></trkpt><trkpt lat="45.399233496013004" lon="9.153431572266712"><ele>109.0</ele><time>2026-04-18T07:21:17.001Z</time></trkpt><trkpt lat="45.399129033189354" lon="9.153369675080821"><ele>109.0</ele><time>2026-04-18T07:21:19.001Z</time></trkpt><trkpt lat="45.39903241264371" lon="9.153311513889907"><ele>109.0</ele><time>2026-04-18T07:21:21.001Z</time></trkpt><trkpt lat="45.398931649616856" lon="9.15325047703587"><ele>109.0</ele><time>2026-04-18T07:21:23.001Z</time></trkpt><trkpt lat="45.398829782121034" lon="9.15318740994243"><ele>108.4</ele><time>2026-04-18T07:21:25.001Z</time></trkpt><trkpt lat="45.39872957149976" lon="9.153125368634237"><ele>107.80000000000001</ele><time>2026-04-18T07:21:27.001Z</time></trkpt><trkpt lat="45.39862564569325" lon="9.153061459702762"><ele>107.19999999999999</ele><time>2026-04-18T07:21:29.001Z</time></trkpt><trkpt lat="45.39852617259696" lon="9.153002202375838"><ele>106.6</ele><time>2026-04-18T07:21:31.001Z</time></trkpt><trkpt lat="45.398426556476956" lon="9.152937847039057"><ele>106.0</ele><time>2026-04-18T07:21:33.001Z</time></trkpt><trkpt lat="45.398327011374576" lon="9.152876158095442"><ele>106.0</ele><time>2026-04-18T07:21:35.001Z</time></trkpt><trkpt lat="45.39823857369574" lon="9.152818522820416"><ele>106.0</ele><time>2026-04-18T07:21:37Z</time></trkpt><trkpt lat="45.39815384086749" lon="9.152764992609272"><ele>106.0</ele><time>2026-04-18T07:21:39Z</time></trkpt><trkpt lat="45.39806469429812" lon="9.152708344052876"><ele>106.0</ele><time>2026-04-18T07:21:41Z</time></trkpt><trkpt lat="45.397965542051715" lon="9.152647966749361"><ele>106.0</ele><time>2026-04-18T07:21:43Z</time></trkpt><trkpt lat="45.3978682833255" lon="9.152588742476201"><ele>106.4</ele><time>2026-04-18T07:21:45Z</time></trkpt><trkpt lat="45.39777123161644" lon="9.152529644264304"><ele>106.8</ele><time>2026-04-18T07:21:47Z</time></trkpt><trkpt lat="45.397673166389126" lon="9.152470525491264"><ele>107.20000000000002</ele><time>2026-04-18T07:21:49Z</time></trkpt><trkpt lat="45.397572039803535" lon="9.152409676377136"><ele>107.60000000000001</ele><time>2026-04-18T07:21:51Z</time></trkpt><trkpt lat="45.39747726924456" lon="9.15235265176402"><ele>108.0</ele><time>2026-04-18T07:21:53Z</time></trkpt><trkpt lat="45.39737495590762" lon="9.152291129223848"><ele>108.0</ele><time>2026-04-18T07:21:55Z</time></trkpt><trkpt lat="45.39727579797394" lon="9.152231510071587"><ele>108.00000000000001</ele><time>2026-04-18T07:21:57Z</time></trkpt><trkpt lat="45.397178938519694" lon="9.152172295361158"><ele>108.00000000000001</ele><time>2026-04-18T07:21:59Z</time></trkpt><trkpt lat="45.39708308870435" lon="9.152113145069196"><ele>108.0</ele><time>2026-04-18T07:22:01Z</time></trkpt><trkpt lat="45.39698661030394" lon="9.152053606867742"><ele>108.0</ele><time>2026-04-18T07:22:03Z</time></trkpt><trkpt lat="45.396890799559934" lon="9.151994480686804"><ele>107.80000000000001</ele><time>2026-04-18T07:22:05Z</time></trkpt><trkpt lat="45.39679969131044" lon="9.151938256483444"><ele>107.60000000000001</ele><time>2026-04-18T07:22:07Z</time></trkpt><trkpt lat="45.39669869183763" lon="9.151879369929324"><ele>107.39999999999999</ele><time>2026-04-18T07:22:09Z</time></trkpt><trkpt lat="45.39660387995722" lon="9.151818910751567"><ele>107.19999999999999</ele><time>2026-04-18T07:22:11Z</time></trkpt><trkpt lat="45.39649997402353" lon="9.151761094801746"><ele>107.0</ele><time>2026-04-18T07:22:13Z</time></trkpt><trkpt lat="45.39640946625703" lon="9.151705263381087"><ele>106.8</ele><time>2026-04-18T07:22:15Z</time></trkpt><trkpt lat="45.39631594640635" lon="9.15164844076818"><ele>106.6</ele><time>2026-04-18T07:22:17Z</time></trkpt><trkpt lat="45.396220846774625" lon="9.15159217983556"><ele>106.39999999999999</ele><time>2026-04-18T07:22:19Z</time></trkpt><trkpt lat="45.39613389848668" lon="9.151540575131339"><ele>106.19999999999999</ele><time>2026-04-18T07:22:21Z</time></trkpt><trkpt lat="45.39604858699529" lon="9.151489777230676"><ele>106.0</ele><time>2026-04-18T07:22:23Z</time></trkpt><trkpt lat="45.39595600233434" lon="9.151434218902773"><ele>106.00000000000001</ele><time>2026-04-18T07:22:25Z</time></trkpt><trkpt lat="45.395861087335845" lon="9.1513772621817"><ele>106.0</ele><time>2026-04-18T07:22:27Z</time></trkpt><trkpt lat="45.39579515912133" lon="9.1513371633835"><ele>106.0</ele><time>2026-04-18T07:22:29Z</time></trkpt><trkpt lat="45.39572460709599" lon="9.151293273599086"><ele>106.0</ele><time>2026-04-18T07:22:32Z</time></trkpt><trkpt lat="45.39565417351734" lon="9.151251696029645"><ele>106.00000000000001</ele><time>2026-04-18T07:22:37Z</time></trkpt><trkpt lat="45.395580217020495" lon="9.151206293642813"><ele>106.0</ele><time>2026-04-18T07:22:41Z</time></trkpt><trkpt lat="45.395509730464894" lon="9.151163104530742"><ele>106.19999999999999</ele><time>2026-04-18T07:22:44Z</time></trkpt><trkpt lat="45.395439564299956" lon="9.151120398029299"><ele>106.39999999999999</ele><time>2026-04-18T07:22:46Z</time></trkpt><trkpt lat="45.39534534912486" lon="9.15106330339565"><ele>106.6</ele><time>2026-04-18T07:22:48Z</time></trkpt><trkpt lat="45.39524912907334" lon="9.151004383760931"><ele>106.8</ele><time>2026-04-18T07:22:50Z</time></trkpt><trkpt lat="45.39515939912422" lon="9.150949649721912"><ele>107.0</ele><time>2026-04-18T07:22:52Z</time></trkpt><trkpt lat="45.39506572537764" lon="9.15089252206523"><ele>107.0</ele><time>2026-04-18T07:22:54Z</time></trkpt><trkpt lat="45.39497383970781" lon="9.150835945952236"><ele>106.99999999999999</ele><time>2026-04-18T07:22:56Z</time></trkpt><trkpt lat="45.39487445951231" lon="9.150774755668873"><ele>106.99999999999999</ele><time>2026-04-18T07:22:58Z</time></trkpt><trkpt lat="45.39478297729319" lon="9.15071850533608"><ele>107.0</ele><time>2026-04-18T07:23:00Z</time></trkpt><trkpt lat="45.39469185961253" lon="9.150662789554206"><ele>107.0</ele><time>2026-04-18T07:23:02Z</time></trkpt><trkpt lat="45.39459217004626" lon="9.150601832315992"><ele>107.19999999999999</ele><time>2026-04-18T07:23:04Z</time></trkpt><trkpt lat="45.394490354198524" lon="9.150539574918636"><ele>107.39999999999999</ele><time>2026-04-18T07:23:05.999Z</time></trkpt><trkpt lat="45.3943935665829" lon="9.150471402749606"><ele>107.60000000000001</ele><time>2026-04-18T07:23:07.999Z</time></trkpt><trkpt lat="45.394301171663734" lon="9.15040977771089"><ele>107.80000000000001</ele><time>2026-04-18T07:23:09.999Z</time></trkpt><trkpt lat="45.39420585481022" lon="9.15035588598042"><ele>108.0</ele><time>2026-04-18T07:23:11.999Z</time></trkpt><trkpt lat="45.394111341213474" lon="9.15030491116967"><ele>108.0</ele><time>2026-04-18T07:23:13.999Z</time></trkpt><trkpt lat="45.394021162949045" lon="9.150245997341651"><ele>108.00000000000001</ele><time>2026-04-18T07:23:15.999Z</time></trkpt><trkpt lat="45.39392895284543" lon="9.150195462057534"><ele>108.00000000000001</ele><time>2026-04-18T07:23:17.999Z</time></trkpt><trkpt lat="45.393826020970096" lon="9.150124373260429"><ele>108.0</ele><time>2026-04-18T07:23:20.001Z</time></trkpt><trkpt lat="45.39371960947583" lon="9.150064651562092"><ele>108.0</ele><time>2026-04-18T07:23:22.001Z</time></trkpt><trkpt lat="45.393620909530995" lon="9.150002293484013"><ele>107.80000000000001</ele><time>2026-04-18T07:23:24.001Z</time></trkpt><trkpt lat="45.39352374653341" lon="9.14994599269195"><ele>107.60000000000001</ele><time>2026-04-18T07:23:26.001Z</time></trkpt><trkpt lat="45.39342526682398" lon="9.149883667572828"><ele>107.39999999999999</ele><time>2026-04-18T07:23:28.001Z</time></trkpt><trkpt lat="45.39332808913693" lon="9.1498260838424"><ele>107.19999999999999</ele><time>2026-04-18T07:23:30.001Z</time></trkpt><trkpt lat="45.393229237542826" lon="9.149766144445586"><ele>107.0</ele><time>2026-04-18T07:23:32.001Z</time></trkpt><trkpt lat="45.39313691810068" lon="9.1496985101353"><ele>106.8</ele><time>2026-04-18T07:23:34.001Z</time></trkpt><trkpt lat="45.393034321685946" lon="9.149637622290511"><ele>106.6</ele><time>2026-04-18T07:23:36.001Z</time></trkpt><trkpt lat="45.39293502826262" lon="9.149578920424302"><ele>106.39999999999999</ele><time>2026-04-18T07:23:38.001Z</time></trkpt><trkpt lat="45.39283456290827" lon="9.149514550979045"><ele>106.19999999999999</ele><time>2026-04-18T07:23:40.001Z</time></trkpt><trkpt lat="45.3927307560272" lon="9.149453954655637"><ele>106.0</ele><time>2026-04-18T07:23:42.001Z</time></trkpt><trkpt lat="45.39263088747005" lon="9.149392427204086"><ele>106.0</ele><time>2026-04-18T07:23:44.001Z</time></trkpt><trkpt lat="45.39256619360417" lon="9.149334698079842"><ele>106.0</ele><time>2026-04-18T07:23:46.001Z</time></trkpt><trkpt lat="45.39246488086473" lon="9.149273516711217"><ele>106.0</ele><time>2026-04-18T07:23:48.001Z</time></trkpt><trkpt lat="45.392356310246335" lon="9.149210219055078"><ele>106.0</ele><time>2026-04-18T07:23:50.001Z</time></trkpt><trkpt lat="45.3922525894411" lon="9.149154747157981"><ele>106.0</ele><time>2026-04-18T07:23:52.001Z</time></trkpt><trkpt lat="45.39214848757074" lon="9.149095572197066"><ele>105.5</ele><time>2026-04-18T07:23:54.001Z</time></trkpt><trkpt lat="45.39204848505105" lon="9.1490311208518"><ele>105.0</ele><time>2026-04-18T07:23:56.001Z</time></trkpt><trkpt lat="45.39194163923673" lon="9.148969637361963"><ele>104.5</ele><time>2026-04-18T07:23:58.001Z</time></trkpt><trkpt lat="45.39183866900946" lon="9.148910014608989"><ele>104.0</ele><time>2026-04-18T07:24:00.001Z</time></trkpt><trkpt lat="45.3917297575016" lon="9.148845467301163"><ele>104.0</ele><time>2026-04-18T07:24:02.001Z</time></trkpt><trkpt lat="45.39161904176956" lon="9.148781665730176"><ele>104.0</ele><time>2026-04-18T07:24:04.001Z</time></trkpt><trkpt lat="45.39151717159634" lon="9.148722347189388"><ele>104.0</ele><time>2026-04-18T07:24:06Z</time></trkpt><trkpt lat="45.391413460382594" lon="9.148662163321484"><ele>104.0</ele><time>2026-04-18T07:24:08Z</time></trkpt><trkpt lat="45.39131467263571" lon="9.14860102775989"><ele>104.0</ele><time>2026-04-18T07:24:10Z</time></trkpt><trkpt lat="45.39121045442759" lon="9.148544500021707"><ele>104.49999999999999</ele><time>2026-04-18T07:24:12Z</time></trkpt><trkpt lat="45.391120222535726" lon="9.148486666658775"><ele>105.0</ele><time>2026-04-18T07:24:14Z</time></trkpt><trkpt lat="45.39102655063157" lon="9.148436927517075"><ele>105.5</ele><time>2026-04-18T07:24:16Z</time></trkpt><trkpt lat="45.390945227653376" lon="9.148388874612175"><ele>106.0</ele><time>2026-04-18T07:24:18Z</time></trkpt><trkpt lat="45.390881647732954" lon="9.148343424839412"><ele>106.49999999999999</ele><time>2026-04-18T07:24:20Z</time></trkpt><trkpt lat="45.3908179458533" lon="9.14830676519729"><ele>107.0</ele><time>2026-04-18T07:24:22Z</time></trkpt><trkpt lat="45.390726111918" lon="9.14824485149725"><ele>106.49999999999999</ele><time>2026-04-18T07:24:25Z</time></trkpt><trkpt lat="45.390661309153174" lon="9.148208602432335"><ele>106.0</ele><time>2026-04-18T07:24:27Z</time></trkpt><trkpt lat="45.390580499978164" lon="9.14816488383731"><ele>105.5</ele><time>2026-04-18T07:24:30Z</time></trkpt><trkpt lat="45.39048637382744" lon="9.148125788451681"><ele>105.0</ele><time>2026-04-18T07:24:32Z</time></trkpt><trkpt lat="45.39036984748837" lon="9.148061233048633"><ele>104.49999999999999</ele><time>2026-04-18T07:24:34Z</time></trkpt><trkpt lat="45.39030871333049" lon="9.148037258675444"><ele>104.0</ele><time>2026-04-18T07:24:35Z</time></trkpt><trkpt lat="45.390245493337204" lon="9.147999338285365"><ele>103.57142857142857</ele><time>2026-04-18T07:24:36Z</time></trkpt><trkpt lat="45.390184744944776" lon="9.147970095759563"><ele>103.14285714285715</ele><time>2026-04-18T07:24:37Z</time></trkpt><trkpt lat="45.390124180165515" lon="9.147941392632928"><ele>102.71428571428572</ele><time>2026-04-18T07:24:38Z</time></trkpt><trkpt lat="45.39005236489147" lon="9.14790328762597"><ele>102.28571428571428</ele><time>2026-04-18T07:24:39Z</time></trkpt><trkpt lat="45.389995229377604" lon="9.147864766687483"><ele>101.85714285714286</ele><time>2026-04-18T07:24:40Z</time></trkpt><trkpt lat="45.38993725714009" lon="9.147826531603968"><ele>101.42857142857143</ele><time>2026-04-18T07:24:41Z</time></trkpt><trkpt lat="45.38986759697987" lon="9.147790241444218"><ele>101.0</ele><time>2026-04-18T07:24:42Z</time></trkpt><trkpt lat="45.38980534099337" lon="9.147753509557042"><ele>100.99999999999999</ele><time>2026-04-18T07:24:43Z</time></trkpt><trkpt lat="45.38974624783544" lon="9.147715498071216"><ele>101.0</ele><time>2026-04-18T07:24:44Z</time></trkpt><trkpt lat="45.38968499612056" lon="9.147685961151922"><ele>101.0</ele><time>2026-04-18T07:24:45Z</time></trkpt><trkpt lat="45.38962491264096" lon="9.147653877630448"><ele>101.0</ele><time>2026-04-18T07:24:46Z</time></trkpt><trkpt lat="45.389507588282456" lon="9.14759360440969"><ele>100.99999999999999</ele><time>2026-04-18T07:24:48Z</time></trkpt><trkpt lat="45.38944874702887" lon="9.147560156927526"><ele>101.0</ele><time>2026-04-18T07:24:49Z</time></trkpt><trkpt lat="45.38933888343322" lon="9.147490759110584"><ele>101.19999999999999</ele><time>2026-04-18T07:24:51Z</time></trkpt><trkpt lat="45.38927932845979" lon="9.147459376716911"><ele>101.39999999999999</ele><time>2026-04-18T07:24:52Z</time></trkpt><trkpt lat="45.38916551371754" lon="9.147395207915244"><ele>101.6</ele><time>2026-04-18T07:24:54Z</time></trkpt><trkpt lat="45.38905729290204" lon="9.147336435896568"><ele>101.8</ele><time>2026-04-18T07:24:56Z</time></trkpt><trkpt lat="45.388949025673796" lon="9.147281083417584"><ele>102.0</ele><time>2026-04-18T07:24:58Z</time></trkpt><trkpt lat="45.38885202936672" lon="9.14722088342231"><ele>102.0</ele><time>2026-04-18T07:25:00Z</time></trkpt><trkpt lat="45.38874836773997" lon="9.147163475390476"><ele>102.0</ele><time>2026-04-18T07:25:02Z</time></trkpt><trkpt lat="45.388640169218746" lon="9.14710243845365"><ele>102.0</ele><time>2026-04-18T07:25:04Z</time></trkpt><trkpt lat="45.388536587758665" lon="9.147045091873823"><ele>102.0</ele><time>2026-04-18T07:25:06Z</time></trkpt><trkpt lat="45.38843705636372" lon="9.146987274028177"><ele>102.0</ele><time>2026-04-18T07:25:08Z</time></trkpt><trkpt lat="45.388347493830224" lon="9.146937110647483"><ele>102.0</ele><time>2026-04-18T07:25:10Z</time></trkpt><trkpt lat="45.38824580777213" lon="9.14687784086337"><ele>102.0</ele><time>2026-04-18T07:25:12Z</time></trkpt><trkpt lat="45.38813559508948" lon="9.146820556797167"><ele>102.0</ele><time>2026-04-18T07:25:14Z</time></trkpt><trkpt lat="45.38802695127613" lon="9.146760536565814"><ele>102.0</ele><time>2026-04-18T07:25:16Z</time></trkpt><trkpt lat="45.387927718292275" lon="9.146702719065742"><ele>102.25</ele><time>2026-04-18T07:25:18Z</time></trkpt><trkpt lat="45.387816913673305" lon="9.146643156637795"><ele>102.5</ele><time>2026-04-18T07:25:20Z</time></trkpt><trkpt lat="45.387708494935794" lon="9.14658004678649"><ele>102.75</ele><time>2026-04-18T07:25:22Z</time></trkpt><trkpt lat="45.3875987147533" lon="9.146521724166101"><ele>103.0</ele><time>2026-04-18T07:25:24Z</time></trkpt><trkpt lat="45.387492575415955" lon="9.146463276987493"><ele>103.2</ele><time>2026-04-18T07:25:26.002Z</time></trkpt><trkpt lat="45.3873871497787" lon="9.146399271632458"><ele>103.4</ele><time>2026-04-18T07:25:28.002Z</time></trkpt><trkpt lat="45.38728546922958" lon="9.146324238100993"><ele>103.60000000000001</ele><time>2026-04-18T07:25:30.001Z</time></trkpt><trkpt lat="45.38718962881358" lon="9.14624867283393"><ele>103.80000000000001</ele><time>2026-04-18T07:25:32.001Z</time></trkpt><trkpt lat="45.38709095068721" lon="9.146189777274323"><ele>104.0</ele><time>2026-04-18T07:25:34.001Z</time></trkpt><trkpt lat="45.386986678122994" lon="9.146148955970316"><ele>104.4</ele><time>2026-04-18T07:25:36.001Z</time></trkpt><trkpt lat="45.38688799399871" lon="9.146109342172705"><ele>104.80000000000001</ele><time>2026-04-18T07:25:38.001Z</time></trkpt><trkpt lat="45.38677977965047" lon="9.146064366710815"><ele>105.19999999999999</ele><time>2026-04-18T07:25:40.001Z</time></trkpt><trkpt lat="45.3866748392558" lon="9.146007739666322"><ele>105.6</ele><time>2026-04-18T07:25:42.001Z</time></trkpt><trkpt lat="45.386566305580004" lon="9.145947886555748"><ele>106.0</ele><time>2026-04-18T07:25:44.001Z</time></trkpt><trkpt lat="45.3864692109646" lon="9.145893371988505"><ele>106.0</ele><time>2026-04-18T07:25:46.001Z</time></trkpt><trkpt lat="45.386365978132865" lon="9.145839326050087"><ele>106.0</ele><time>2026-04-18T07:25:48.001Z</time></trkpt><trkpt lat="45.386258200886125" lon="9.14577745491645"><ele>106.0</ele><time>2026-04-18T07:25:50.001Z</time></trkpt><trkpt lat="45.3861641536997" lon="9.145716931292904"><ele>106.0</ele><time>2026-04-18T07:25:52.001Z</time></trkpt><trkpt lat="45.38606543654983" lon="9.145667969980613"><ele>106.0</ele><time>2026-04-18T07:25:54.001Z</time></trkpt><trkpt lat="45.38595137579343" lon="9.145605435649488"><ele>105.4</ele><time>2026-04-18T07:25:56.001Z</time></trkpt><trkpt lat="45.38584549773662" lon="9.145548671107807"><ele>104.8</ele><time>2026-04-18T07:25:58.001Z</time></trkpt><trkpt lat="45.38574006674391" lon="9.145493291665943"><ele>104.2</ele><time>2026-04-18T07:26:00.001Z</time></trkpt><trkpt lat="45.38564130226949" lon="9.145438093863525"><ele>103.60000000000001</ele><time>2026-04-18T07:26:02.001Z</time></trkpt><trkpt lat="45.385541974266246" lon="9.145379260612465"><ele>103.0</ele><time>2026-04-18T07:26:04.001Z</time></trkpt><trkpt lat="45.38543335270174" lon="9.145318669451045"><ele>103.0</ele><time>2026-04-18T07:26:06.001Z</time></trkpt><trkpt lat="45.385336486008775" lon="9.145264253678892"><ele>103.0</ele><time>2026-04-18T07:26:08.001Z</time></trkpt><trkpt lat="45.385225524319736" lon="9.145200943395025"><ele>103.0</ele><time>2026-04-18T07:26:10.001Z</time></trkpt><trkpt lat="45.38511720708986" lon="9.145139353986085"><ele>103.0</ele><time>2026-04-18T07:26:12.001Z</time></trkpt><trkpt lat="45.38501706284022" lon="9.145083028365594"><ele>103.0</ele><time>2026-04-18T07:26:14.001Z</time></trkpt><trkpt lat="45.384915534899385" lon="9.145029283999355"><ele>103.0</ele><time>2026-04-18T07:26:16Z</time></trkpt><trkpt lat="45.38480550398859" lon="9.144973608664843"><ele>103.0</ele><time>2026-04-18T07:26:18Z</time></trkpt><trkpt lat="45.38474848682402" lon="9.144934743253074"><ele>103.0</ele><time>2026-04-18T07:26:19Z</time></trkpt><trkpt lat="45.384643243612786" lon="9.14487351302089"><ele>103.0</ele><time>2026-04-18T07:26:21Z</time></trkpt><trkpt lat="45.38452597586882" lon="9.144816031467586"><ele>103.0</ele><time>2026-04-18T07:26:23Z</time></trkpt><trkpt lat="45.384421032587554" lon="9.144760303177094"><ele>102.25</ele><time>2026-04-18T07:26:25Z</time></trkpt><trkpt lat="45.384307403705904" lon="9.144690483310303"><ele>101.5</ele><time>2026-04-18T07:26:27Z</time></trkpt><trkpt lat="45.384195299358645" lon="9.144626313175568"><ele>100.75</ele><time>2026-04-18T07:26:29Z</time></trkpt><trkpt lat="45.38408398294736" lon="9.144570767935017"><ele>100.0</ele><time>2026-04-18T07:26:31Z</time></trkpt><trkpt lat="45.383973410073615" lon="9.144508950130316"><ele>100.0</ele><time>2026-04-18T07:26:33Z</time></trkpt><trkpt lat="45.38385854795902" lon="9.144450126473533"><ele>100.0</ele><time>2026-04-18T07:26:35Z</time></trkpt><trkpt lat="45.38374366304924" lon="9.14439216692342"><ele>100.0</ele><time>2026-04-18T07:26:37Z</time></trkpt><trkpt lat="45.383628928391744" lon="9.144330430371266"><ele>100.0</ele><time>2026-04-18T07:26:39Z</time></trkpt><trkpt lat="45.383519228075265" lon="9.144273272387933"><ele>100.25</ele><time>2026-04-18T07:26:41Z</time></trkpt><trkpt lat="45.3834138382335" lon="9.144213219360799"><ele>100.5</ele><time>2026-04-18T07:26:43Z</time></trkpt><trkpt lat="45.383300786400405" lon="9.144150507479381"><ele>100.75</ele><time>2026-04-18T07:26:45Z</time></trkpt><trkpt lat="45.38319104758158" lon="9.14409351191421"><ele>101.0</ele><time>2026-04-18T07:26:47Z</time></trkpt><trkpt lat="45.38308586757424" lon="9.144034809841402"><ele>101.25</ele><time>2026-04-18T07:26:49Z</time></trkpt><trkpt lat="45.38297398413059" lon="9.143978966664697"><ele>101.5</ele><time>2026-04-18T07:26:51Z</time></trkpt><trkpt lat="45.38286708967011" lon="9.143922266836794"><ele>101.75</ele><time>2026-04-18T07:26:53Z</time></trkpt><trkpt lat="45.38277017877775" lon="9.143856650142268"><ele>102.0</ele><time>2026-04-18T07:26:55Z</time></trkpt><trkpt lat="45.382665761567075" lon="9.14379564824004"><ele>102.0</ele><time>2026-04-18T07:26:57Z</time></trkpt><trkpt lat="45.38255796511372" lon="9.143741164650969"><ele>102.0</ele><time>2026-04-18T07:26:59Z</time></trkpt><trkpt lat="45.38245561507361" lon="9.143679122536684"><ele>102.0</ele><time>2026-04-18T07:27:01Z</time></trkpt><trkpt lat="45.38234761821829" lon="9.143616929584804"><ele>102.0</ele><time>2026-04-18T07:27:03Z</time></trkpt><trkpt lat="45.38223857564501" lon="9.143560165326177"><ele>102.6</ele><time>2026-04-18T07:27:05Z</time></trkpt><trkpt lat="45.382132778488554" lon="9.143502703721026"><ele>103.19999999999999</ele><time>2026-04-18T07:27:07Z</time></trkpt><trkpt lat="45.38203223230104" lon="9.143448244327715"><ele>103.8</ele><time>2026-04-18T07:27:09Z</time></trkpt><trkpt lat="45.38192284078423" lon="9.143382040282843"><ele>104.4</ele><time>2026-04-18T07:27:11Z</time></trkpt><trkpt lat="45.38182210663563" lon="9.143322721218448"><ele>105.0</ele><time>2026-04-18T07:27:13Z</time></trkpt><trkpt lat="45.381724583092186" lon="9.143271187440524"><ele>105.0</ele><time>2026-04-18T07:27:15Z</time></trkpt><trkpt lat="45.38162462348279" lon="9.14321837431916"><ele>105.0</ele><time>2026-04-18T07:27:17Z</time></trkpt><trkpt lat="45.38152428027408" lon="9.143157266117692"><ele>105.0</ele><time>2026-04-18T07:27:19Z</time></trkpt><trkpt lat="45.38143637861069" lon="9.14311555375469"><ele>105.0</ele><time>2026-04-18T07:27:21Z</time></trkpt><trkpt lat="45.38133694196947" lon="9.14306165841285"><ele>105.0</ele><time>2026-04-18T07:27:23Z</time></trkpt><trkpt lat="45.38123900057074" lon="9.14300447117484"><ele>105.0</ele><time>2026-04-18T07:27:25Z</time></trkpt><trkpt lat="45.38113660141258" lon="9.142955848228413"><ele>105.0</ele><time>2026-04-18T07:27:27Z</time></trkpt><trkpt lat="45.3810395562428" lon="9.14289886594823"><ele>105.0</ele><time>2026-04-18T07:27:29Z</time></trkpt><trkpt lat="45.38095651555667" lon="9.14285156851238"><ele>105.0</ele><time>2026-04-18T07:27:31.002Z</time></trkpt><trkpt lat="45.38086049035898" lon="9.142789385961786"><ele>105.0</ele><time>2026-04-18T07:27:33.001Z</time></trkpt><trkpt lat="45.38076612395651" lon="9.142734181354806"><ele>105.0</ele><time>2026-04-18T07:27:35.001Z</time></trkpt><trkpt lat="45.38066500440802" lon="9.142678886699128"><ele>105.0</ele><time>2026-04-18T07:27:37.002Z</time></trkpt><trkpt lat="45.38056415103958" lon="9.142630302839104"><ele>105.0</ele><time>2026-04-18T07:27:39.001Z</time></trkpt><trkpt lat="45.38044984208852" lon="9.142571431040617"><ele>105.0</ele><time>2026-04-18T07:27:41.002Z</time></trkpt><trkpt lat="45.38038731372941" lon="9.142541374880789"><ele>105.0</ele><time>2026-04-18T07:27:42.002Z</time></trkpt><trkpt lat="45.38032210517341" lon="9.142507542964733"><ele>104.85714285714286</ele><time>2026-04-18T07:27:43.001Z</time></trkpt><trkpt lat="45.38025420127986" lon="9.142470423968096"><ele>104.71428571428572</ele><time>2026-04-18T07:27:44.002Z</time></trkpt><trkpt lat="45.38018073779141" lon="9.142428418205373"><ele>104.57142857142857</ele><time>2026-04-18T07:27:45.002Z</time></trkpt><trkpt lat="45.380110157950966" lon="9.14239154856717"><ele>104.42857142857143</ele><time>2026-04-18T07:27:46.002Z</time></trkpt><trkpt lat="45.3800387723782" lon="9.142353301272149"><ele>104.28571428571429</ele><time>2026-04-18T07:27:47.002Z</time></trkpt><trkpt lat="45.37997184595564" lon="9.142310775406473"><ele>104.14285714285714</ele><time>2026-04-18T07:27:48.002Z</time></trkpt><trkpt lat="45.37991180659224" lon="9.142271073410667"><ele>104.0</ele><time>2026-04-18T07:27:49.002Z</time></trkpt><trkpt lat="45.37984405940657" lon="9.142229486690118"><ele>103.66666666666666</ele><time>2026-04-18T07:27:50.002Z</time></trkpt><trkpt lat="45.379774300761724" lon="9.142194792366691"><ele>103.33333333333333</ele><time>2026-04-18T07:27:51.002Z</time></trkpt><trkpt lat="45.37971297137725" lon="9.142161290572169"><ele>103.0</ele><time>2026-04-18T07:27:52.002Z</time></trkpt><trkpt lat="45.37964486597156" lon="9.142138377255781"><ele>102.66666666666666</ele><time>2026-04-18T07:27:53.002Z</time></trkpt><trkpt lat="45.37958234321427" lon="9.142114124311316"><ele>102.33333333333333</ele><time>2026-04-18T07:27:54.002Z</time></trkpt><trkpt lat="45.379493875554125" lon="9.142040373181585"><ele>102.0</ele><time>2026-04-18T07:27:56.002Z</time></trkpt><trkpt lat="45.37942088329662" lon="9.142003649873379"><ele>101.6</ele><time>2026-04-18T07:27:57.002Z</time></trkpt><trkpt lat="45.37935748080044" lon="9.141969289194332"><ele>101.19999999999999</ele><time>2026-04-18T07:27:58.002Z</time></trkpt><trkpt lat="45.37924673853181" lon="9.141910167025658"><ele>100.8</ele><time>2026-04-18T07:28:00.001Z</time></trkpt><trkpt lat="45.37914394566266" lon="9.141849082399403"><ele>100.4</ele><time>2026-04-18T07:28:02.001Z</time></trkpt><trkpt lat="45.37904018631975" lon="9.141792682693982"><ele>100.0</ele><time>2026-04-18T07:28:04.001Z</time></trkpt><trkpt lat="45.37893623540422" lon="9.14173181809913"><ele>99.8</ele><time>2026-04-18T07:28:06.001Z</time></trkpt><trkpt lat="45.378836742022244" lon="9.141672330356862"><ele>99.6</ele><time>2026-04-18T07:28:08.001Z</time></trkpt><trkpt lat="45.37873267752308" lon="9.141617439493016"><ele>99.4</ele><time>2026-04-18T07:28:10.001Z</time></trkpt><trkpt lat="45.378636635256036" lon="9.141560605226703"><ele>99.2</ele><time>2026-04-18T07:28:12.001Z</time></trkpt><trkpt lat="45.3785410828838" lon="9.14150715650942"><ele>99.0</ele><time>2026-04-18T07:28:14.001Z</time></trkpt><trkpt lat="45.37844465491205" lon="9.141449500813424"><ele>99.0</ele><time>2026-04-18T07:28:16.001Z</time></trkpt><trkpt lat="45.3783389526285" lon="9.141394164753066"><ele>99.0</ele><time>2026-04-18T07:28:18.001Z</time></trkpt><trkpt lat="45.37824406021068" lon="9.141340035901369"><ele>99.0</ele><time>2026-04-18T07:28:20.001Z</time></trkpt><trkpt lat="45.378148903596035" lon="9.141288250763584"><ele>99.0</ele><time>2026-04-18T07:28:22.001Z</time></trkpt><trkpt lat="45.3780478430745" lon="9.141229152013612"><ele>99.0</ele><time>2026-04-18T07:28:24.001Z</time></trkpt><trkpt lat="45.37794232404128" lon="9.141172955207463"><ele>99.0</ele><time>2026-04-18T07:28:26.001Z</time></trkpt><trkpt lat="45.37783960332041" lon="9.141116611187192"><ele>99.0</ele><time>2026-04-18T07:28:28.001Z</time></trkpt><trkpt lat="45.377739239422276" lon="9.141059779390092"><ele>99.0</ele><time>2026-04-18T07:28:30.001Z</time></trkpt><trkpt lat="45.37764047352473" lon="9.141008437152633"><ele>99.0</ele><time>2026-04-18T07:28:32.001Z</time></trkpt><trkpt lat="45.377544981018005" lon="9.140956544318698"><ele>99.0</ele><time>2026-04-18T07:28:34.001Z</time></trkpt><trkpt lat="45.37744768792447" lon="9.14090379950952"><ele>99.0</ele><time>2026-04-18T07:28:36.001Z</time></trkpt><trkpt lat="45.37735456693515" lon="9.140859388072581"><ele>99.0</ele><time>2026-04-18T07:28:38.001Z</time></trkpt><trkpt lat="45.377253226178226" lon="9.14079348092671"><ele>99.0</ele><time>2026-04-18T07:28:40.001Z</time></trkpt><trkpt lat="45.377151705699916" lon="9.14073561008734"><ele>99.0</ele><time>2026-04-18T07:28:42.001Z</time></trkpt><trkpt lat="45.37705397668758" lon="9.140684414208286"><ele>99.0</ele><time>2026-04-18T07:28:44.001Z</time></trkpt><trkpt lat="45.37694663712455" lon="9.140634690408138"><ele>99.0</ele><time>2026-04-18T07:28:46.001Z</time></trkpt><trkpt lat="45.37684934819388" lon="9.140577663621565"><ele>99.0</ele><time>2026-04-18T07:28:48.001Z</time></trkpt><trkpt lat="45.376764922716006" lon="9.140526040952658"><ele>99.0</ele><time>2026-04-18T07:28:50.001Z</time></trkpt><trkpt lat="45.37667972687519" lon="9.140474359093336"><ele>99.0</ele><time>2026-04-18T07:28:52.001Z</time></trkpt><trkpt lat="45.37661764614055" lon="9.140441641957606"><ele>99.0</ele><time>2026-04-18T07:28:53.001Z</time></trkpt><trkpt lat="45.37647589261724" lon="9.140361191762633"><ele>99.0</ele><time>2026-04-18T07:28:56.001Z</time></trkpt><trkpt lat="45.37639790707246" lon="9.140311137345464"><ele>99.0</ele><time>2026-04-18T07:28:58.001Z</time></trkpt><trkpt lat="45.37631112060214" lon="9.140247308128226"><ele>99.0</ele><time>2026-04-18T07:29:00.001Z</time></trkpt><trkpt lat="45.37620135133682" lon="9.140193537576005"><ele>99.0</ele><time>2026-04-18T07:29:02.001Z</time></trkpt><trkpt lat="45.37609955734288" lon="9.140135886198642"><ele>99.0</ele><time>2026-04-18T07:29:04.001Z</time></trkpt><trkpt lat="45.37600071827385" lon="9.140081176980267"><ele>99.2</ele><time>2026-04-18T07:29:06.001Z</time></trkpt><trkpt lat="45.37590928544308" lon="9.140037232016493"><ele>99.4</ele><time>2026-04-18T07:29:08.001Z</time></trkpt><trkpt lat="45.375804592758534" lon="9.139981239851041"><ele>99.6</ele><time>2026-04-18T07:29:10.001Z</time></trkpt><trkpt lat="45.37570080947443" lon="9.139927903573689"><ele>99.8</ele><time>2026-04-18T07:29:12.001Z</time></trkpt><trkpt lat="45.37560031091612" lon="9.139867927022198"><ele>100.0</ele><time>2026-04-18T07:29:14.001Z</time></trkpt><trkpt lat="45.37551012401069" lon="9.139815000831126"><ele>100.0</ele><time>2026-04-18T07:29:16.001Z</time></trkpt><trkpt lat="45.37540166385989" lon="9.139756514731713"><ele>100.0</ele><time>2026-04-18T07:29:18.001Z</time></trkpt><trkpt lat="45.375297692158234" lon="9.139702151727686"><ele>100.0</ele><time>2026-04-18T07:29:20.001Z</time></trkpt><trkpt lat="45.37522405108363" lon="9.139660055263048"><ele>100.0</ele><time>2026-04-18T07:29:22.001Z</time></trkpt><trkpt lat="45.375130607592936" lon="9.139608027830501"><ele>100.0</ele><time>2026-04-18T07:29:24.001Z</time></trkpt><trkpt lat="45.375029310651726" lon="9.139552257625803"><ele>100.0</ele><time>2026-04-18T07:29:26.001Z</time></trkpt><trkpt lat="45.37491819102265" lon="9.139498617224032"><ele>100.0</ele><time>2026-04-18T07:29:28.001Z</time></trkpt><trkpt lat="45.37481719313357" lon="9.139440734333604"><ele>100.0</ele><time>2026-04-18T07:29:30Z</time></trkpt><trkpt lat="45.374703072303674" lon="9.139386141274082"><ele>100.0</ele><time>2026-04-18T07:29:32Z</time></trkpt><trkpt lat="45.37460150643848" lon="9.139313071996419"><ele>100.00000000000001</ele><time>2026-04-18T07:29:34Z</time></trkpt><trkpt lat="45.37454049968536" lon="9.139280316592943"><ele>100.0</ele><time>2026-04-18T07:29:35Z</time></trkpt><trkpt lat="45.37442777169165" lon="9.13921813583453"><ele>100.0</ele><time>2026-04-18T07:29:37.001Z</time></trkpt><trkpt lat="45.374365411539756" lon="9.139189003249646"><ele>100.0</ele><time>2026-04-18T07:29:38.001Z</time></trkpt><trkpt lat="45.37425674838711" lon="9.13913094721577"><ele>100.00000000000001</ele><time>2026-04-18T07:29:40.001Z</time></trkpt><trkpt lat="45.37419069159745" lon="9.139099896576345"><ele>100.0</ele><time>2026-04-18T07:29:41.002Z</time></trkpt><trkpt lat="45.37413043985721" lon="9.139067696258687"><ele>99.83333333333334</ele><time>2026-04-18T07:29:42.002Z</time></trkpt><trkpt lat="45.374068066124394" lon="9.139031498108944"><ele>99.66666666666667</ele><time>2026-04-18T07:29:43.002Z</time></trkpt><trkpt lat="45.37400709179849" lon="9.138985561977869"><ele>99.5</ele><time>2026-04-18T07:29:44.002Z</time></trkpt><trkpt lat="45.373909506077226" lon="9.138889887410611"><ele>99.33333333333334</ele><time>2026-04-18T07:29:46.002Z</time></trkpt><trkpt lat="45.37385948682204" lon="9.138835172801661"><ele>99.16666666666667</ele><time>2026-04-18T07:29:47.002Z</time></trkpt><trkpt lat="45.37375237056303" lon="9.138748227099354"><ele>99.0</ele><time>2026-04-18T07:29:49.001Z</time></trkpt><trkpt lat="45.37363197587442" lon="9.138693616708668"><ele>98.80000000000001</ele><time>2026-04-18T07:29:51.002Z</time></trkpt><trkpt lat="45.37356575806134" lon="9.13866905441652"><ele>98.60000000000001</ele><time>2026-04-18T07:29:52.002Z</time></trkpt><trkpt lat="45.37344273849166" lon="9.138639732076252"><ele>98.4</ele><time>2026-04-18T07:29:54.002Z</time></trkpt><trkpt lat="45.37332452833435" lon="9.138618107650505"><ele>98.2</ele><time>2026-04-18T07:29:56.002Z</time></trkpt><trkpt lat="45.373208864017684" lon="9.138565696904418"><ele>98.0</ele><time>2026-04-18T07:29:58.002Z</time></trkpt><trkpt lat="45.373110374104435" lon="9.138505519960626"><ele>98.4</ele><time>2026-04-18T07:30:00.002Z</time></trkpt><trkpt lat="45.37301090050939" lon="9.138452419475772"><ele>98.80000000000001</ele><time>2026-04-18T07:30:02.002Z</time></trkpt><trkpt lat="45.3729294739778" lon="9.138399811900612"><ele>99.2</ele><time>2026-04-18T07:30:04.002Z</time></trkpt><trkpt lat="45.37282486074155" lon="9.138350178045368"><ele>99.6</ele><time>2026-04-18T07:30:06.002Z</time></trkpt><trkpt lat="45.37276633848554" lon="9.13831424300693"><ele>100.0</ele><time>2026-04-18T07:30:07.002Z</time></trkpt><trkpt lat="45.37266100687959" lon="9.138255486370538"><ele>99.6</ele><time>2026-04-18T07:30:09.002Z</time></trkpt><trkpt lat="45.372549808384846" lon="9.138187253646963"><ele>99.2</ele><time>2026-04-18T07:30:11.002Z</time></trkpt><trkpt lat="45.37244407607512" lon="9.138132931353208"><ele>98.80000000000001</ele><time>2026-04-18T07:30:13.002Z</time></trkpt><trkpt lat="45.37234023489027" lon="9.138078386849653"><ele>98.4</ele><time>2026-04-18T07:30:15.002Z</time></trkpt><trkpt lat="45.37225144225381" lon="9.138014321216229"><ele>98.0</ele><time>2026-04-18T07:30:17.002Z</time></trkpt><trkpt lat="45.37216479260201" lon="9.137971987546523"><ele>97.80000000000001</ele><time>2026-04-18T07:30:19.002Z</time></trkpt><trkpt lat="45.372057211596164" lon="9.137910462137503"><ele>97.6</ele><time>2026-04-18T07:30:21.001Z</time></trkpt><trkpt lat="45.37199683121303" lon="9.137876869633454"><ele>97.4</ele><time>2026-04-18T07:30:22.001Z</time></trkpt><trkpt lat="45.37189026629517" lon="9.13782034123597"><ele>97.19999999999999</ele><time>2026-04-18T07:30:24.001Z</time></trkpt><trkpt lat="45.37178192555955" lon="9.137761459663093"><ele>97.0</ele><time>2026-04-18T07:30:26.001Z</time></trkpt><trkpt lat="45.37167057731139" lon="9.137700207685395"><ele>97.0</ele><time>2026-04-18T07:30:28.001Z</time></trkpt><trkpt lat="45.37156433927575" lon="9.137643872183025"><ele>97.0</ele><time>2026-04-18T07:30:30.001Z</time></trkpt><trkpt lat="45.37146357958892" lon="9.137586210777583"><ele>97.0</ele><time>2026-04-18T07:30:32.001Z</time></trkpt><trkpt lat="45.371364674278695" lon="9.1375284424009"><ele>97.0</ele><time>2026-04-18T07:30:34.001Z</time></trkpt><trkpt lat="45.37126263670263" lon="9.137473430259703"><ele>97.0</ele><time>2026-04-18T07:30:36.001Z</time></trkpt><trkpt lat="45.3711647569114" lon="9.137417371526821"><ele>97.6</ele><time>2026-04-18T07:30:38.001Z</time></trkpt><trkpt lat="45.3710689303264" lon="9.137364835679252"><ele>98.19999999999999</ele><time>2026-04-18T07:30:40.001Z</time></trkpt><trkpt lat="45.3709612794227" lon="9.137301368666915"><ele>98.8</ele><time>2026-04-18T07:30:42.001Z</time></trkpt><trkpt lat="45.37086298908076" lon="9.137249298236135"><ele>99.4</ele><time>2026-04-18T07:30:44.001Z</time></trkpt><trkpt lat="45.370770337807365" lon="9.137190891439815"><ele>100.0</ele><time>2026-04-18T07:30:46.001Z</time></trkpt><trkpt lat="45.370659336227476" lon="9.137139134898415"><ele>100.0</ele><time>2026-04-18T07:30:48.001Z</time></trkpt><trkpt lat="45.370552033083094" lon="9.1370715313138"><ele>100.0</ele><time>2026-04-18T07:30:50.001Z</time></trkpt><trkpt lat="45.37044274131511" lon="9.137013837317824"><ele>100.0</ele><time>2026-04-18T07:30:52.001Z</time></trkpt><trkpt lat="45.37033829947853" lon="9.136953349390522"><ele>100.0</ele><time>2026-04-18T07:30:54.001Z</time></trkpt><trkpt lat="45.37022980741871" lon="9.13689419269747"><ele>100.2</ele><time>2026-04-18T07:30:56.001Z</time></trkpt><trkpt lat="45.37012280888646" lon="9.136830389838071"><ele>100.4</ele><time>2026-04-18T07:30:58.001Z</time></trkpt><trkpt lat="45.370020026886586" lon="9.13677805292412"><ele>100.6</ele><time>2026-04-18T07:31:00.001Z</time></trkpt><trkpt lat="45.36991316354986" lon="9.136727250509422"><ele>100.8</ele><time>2026-04-18T07:31:02.001Z</time></trkpt><trkpt lat="45.369815575942496" lon="9.1366696453537"><ele>101.0</ele><time>2026-04-18T07:31:04.001Z</time></trkpt><trkpt lat="45.369718447359105" lon="9.136619864000048"><ele>101.0</ele><time>2026-04-18T07:31:06.001Z</time></trkpt><trkpt lat="45.36961204242425" lon="9.136556941617929"><ele>101.0</ele><time>2026-04-18T07:31:08.001Z</time></trkpt><trkpt lat="45.369514235689124" lon="9.13651443707707"><ele>101.0</ele><time>2026-04-18T07:31:10.001Z</time></trkpt><trkpt lat="45.36941219897609" lon="9.136448506403461"><ele>101.0</ele><time>2026-04-18T07:31:12.001Z</time></trkpt><trkpt lat="45.36930712353443" lon="9.136385565110464"><ele>101.0</ele><time>2026-04-18T07:31:14.001Z</time></trkpt><trkpt lat="45.369213891309954" lon="9.136333519516041"><ele>100.6</ele><time>2026-04-18T07:31:16.001Z</time></trkpt><trkpt lat="45.369117797565124" lon="9.13627214944781"><ele>100.19999999999999</ele><time>2026-04-18T07:31:18.001Z</time></trkpt><trkpt lat="45.369015890767" lon="9.13621242069686"><ele>99.80000000000001</ele><time>2026-04-18T07:31:20.001Z</time></trkpt><trkpt lat="45.36891606375639" lon="9.136170097965426"><ele>99.4</ele><time>2026-04-18T07:31:22.001Z</time></trkpt><trkpt lat="45.36882707910007" lon="9.1361154102163"><ele>99.0</ele><time>2026-04-18T07:31:24.001Z</time></trkpt><trkpt lat="45.368739757965535" lon="9.13605730248946"><ele>99.0</ele><time>2026-04-18T07:31:26.001Z</time></trkpt><trkpt lat="45.36865368996908" lon="9.136007707405216"><ele>99.0</ele><time>2026-04-18T07:31:28.001Z</time></trkpt><trkpt lat="45.36858245961409" lon="9.135961241892813"><ele>99.0</ele><time>2026-04-18T07:31:30.001Z</time></trkpt><trkpt lat="45.36849929106588" lon="9.135915023453025"><ele>99.0</ele><time>2026-04-18T07:31:33.001Z</time></trkpt><trkpt lat="45.36841205521523" lon="9.135852739768085"><ele>99.0</ele><time>2026-04-18T07:31:36.001Z</time></trkpt><trkpt lat="45.36831943310627" lon="9.135801642116"><ele>99.0</ele><time>2026-04-18T07:31:38.001Z</time></trkpt><trkpt lat="45.3682282172221" lon="9.135753269039858"><ele>99.0</ele><time>2026-04-18T07:31:40.001Z</time></trkpt><trkpt lat="45.36812909095621" lon="9.135692414576399"><ele>99.0</ele><time>2026-04-18T07:31:42.001Z</time></trkpt><trkpt lat="45.368072871126444" lon="9.135650353023932"><ele>99.0</ele><time>2026-04-18T07:31:43.001Z</time></trkpt><trkpt lat="45.3679666379351" lon="9.135583782043383"><ele>99.0</ele><time>2026-04-18T07:31:45.002Z</time></trkpt><trkpt lat="45.36785687752634" lon="9.135522842917355"><ele>98.6</ele><time>2026-04-18T07:31:47.001Z</time></trkpt><trkpt lat="45.36775745836866" lon="9.135468684465161"><ele>98.2</ele><time>2026-04-18T07:31:49.002Z</time></trkpt><trkpt lat="45.36766350501987" lon="9.135408650950856"><ele>97.8</ele><time>2026-04-18T07:31:51.001Z</time></trkpt><trkpt lat="45.36755938395377" lon="9.135346513535826"><ele>97.39999999999999</ele><time>2026-04-18T07:31:53.002Z</time></trkpt><trkpt lat="45.36745471486084" lon="9.135289869804334"><ele>97.0</ele><time>2026-04-18T07:31:55.002Z</time></trkpt><trkpt lat="45.3673496755896" lon="9.135236032304366"><ele>97.0</ele><time>2026-04-18T07:31:57.001Z</time></trkpt><trkpt lat="45.367249767528186" lon="9.135174995069084"><ele>97.0</ele><time>2026-04-18T07:31:59.001Z</time></trkpt><trkpt lat="45.367147828332186" lon="9.13511092089734"><ele>97.0</ele><time>2026-04-18T07:32:01.001Z</time></trkpt><trkpt lat="45.36704396527247" lon="9.13505457811602"><ele>97.0</ele><time>2026-04-18T07:32:03.001Z</time></trkpt><trkpt lat="45.366944923247026" lon="9.134994422451717"><ele>97.0</ele><time>2026-04-18T07:32:05.001Z</time></trkpt><trkpt lat="45.366847528221676" lon="9.134936288877725"><ele>97.0</ele><time>2026-04-18T07:32:07.001Z</time></trkpt><trkpt lat="45.366753039083164" lon="9.13488069153244"><ele>97.0</ele><time>2026-04-18T07:32:09.001Z</time></trkpt><trkpt lat="45.36665611230812" lon="9.134815567726902"><ele>97.0</ele><time>2026-04-18T07:32:11.001Z</time></trkpt><trkpt lat="45.36655500498738" lon="9.134754414331123"><ele>97.0</ele><time>2026-04-18T07:32:13.001Z</time></trkpt><trkpt lat="45.36645314529717" lon="9.134695052751677"><ele>97.0</ele><time>2026-04-18T07:32:15.001Z</time></trkpt><trkpt lat="45.366349578768315" lon="9.134632486259992"><ele>97.0</ele><time>2026-04-18T07:32:17.001Z</time></trkpt><trkpt lat="45.3662488560139" lon="9.13457327433987"><ele>97.0</ele><time>2026-04-18T07:32:19.001Z</time></trkpt><trkpt lat="45.36615080799443" lon="9.13451729083659"><ele>97.0</ele><time>2026-04-18T07:32:21.001Z</time></trkpt><trkpt lat="45.366048178777454" lon="9.13445781179247"><ele>97.0</ele><time>2026-04-18T07:32:23.001Z</time></trkpt><trkpt lat="45.365945649043525" lon="9.134395678892723"><ele>97.0</ele><time>2026-04-18T07:32:25.001Z</time></trkpt><trkpt lat="45.36584082140416" lon="9.134333738243217"><ele>97.0</ele><time>2026-04-18T07:32:27.001Z</time></trkpt><trkpt lat="45.3657393498057" lon="9.134270289714001"><ele>97.0</ele><time>2026-04-18T07:32:29.001Z</time></trkpt><trkpt lat="45.365636905959555" lon="9.134209170880391"><ele>97.0</ele><time>2026-04-18T07:32:31.001Z</time></trkpt><trkpt lat="45.36553332376973" lon="9.1341457411636"><ele>97.0</ele><time>2026-04-18T07:32:33.001Z</time></trkpt><trkpt lat="45.36542800234152" lon="9.134084969336662"><ele>97.0</ele><time>2026-04-18T07:32:35.001Z</time></trkpt><trkpt lat="45.36532244318712" lon="9.13402525094815"><ele>97.0</ele><time>2026-04-18T07:32:37.001Z</time></trkpt><trkpt lat="45.36522401491899" lon="9.133961275536755"><ele>97.0</ele><time>2026-04-18T07:32:39.001Z</time></trkpt><trkpt lat="45.365129003305704" lon="9.133887076798107"><ele>97.0</ele><time>2026-04-18T07:32:41.001Z</time></trkpt><trkpt lat="45.365028739332786" lon="9.133834645155089"><ele>97.0</ele><time>2026-04-18T07:32:43.001Z</time></trkpt><trkpt lat="45.36493098138295" lon="9.133771381801704"><ele>97.0</ele><time>2026-04-18T07:32:45.001Z</time></trkpt><trkpt lat="45.364828845176675" lon="9.133706891251611"><ele>97.0</ele><time>2026-04-18T07:32:47.001Z</time></trkpt><trkpt lat="45.364726312457826" lon="9.133647615894708"><ele>97.0</ele><time>2026-04-18T07:32:49.001Z</time></trkpt><trkpt lat="45.36462258120816" lon="9.133584856440677"><ele>97.0</ele><time>2026-04-18T07:32:51Z</time></trkpt><trkpt lat="45.364520144680675" lon="9.133526899849983"><ele>97.0</ele><time>2026-04-18T07:32:53Z</time></trkpt><trkpt lat="45.36441825482722" lon="9.133466958011033"><ele>97.0</ele><time>2026-04-18T07:32:55Z</time></trkpt><trkpt lat="45.3643096546898" lon="9.133404453047643"><ele>97.0</ele><time>2026-04-18T07:32:57Z</time></trkpt><trkpt lat="45.36420750164318" lon="9.13334619731975"><ele>97.0</ele><time>2026-04-18T07:32:59Z</time></trkpt><trkpt lat="45.36410983516522" lon="9.133288714613109"><ele>97.0</ele><time>2026-04-18T07:33:01Z</time></trkpt><trkpt lat="45.36401080113536" lon="9.133246018384346"><ele>97.0</ele><time>2026-04-18T07:33:03Z</time></trkpt><trkpt lat="45.3639216029879" lon="9.133196309683257"><ele>97.0</ele><time>2026-04-18T07:33:05Z</time></trkpt><trkpt lat="45.363864229758455" lon="9.133153155585688"><ele>96.8</ele><time>2026-04-18T07:33:06Z</time></trkpt><trkpt lat="45.36376241743978" lon="9.13308871711646"><ele>96.6</ele><time>2026-04-18T07:33:08Z</time></trkpt><trkpt lat="45.36366293252385" lon="9.13303269135082"><ele>96.39999999999999</ele><time>2026-04-18T07:33:10Z</time></trkpt><trkpt lat="45.3635629622629" lon="9.132971196473354"><ele>96.19999999999999</ele><time>2026-04-18T07:33:12Z</time></trkpt><trkpt lat="45.36346040477375" lon="9.132904647734955"><ele>96.0</ele><time>2026-04-18T07:33:14Z</time></trkpt><trkpt lat="45.36336062466857" lon="9.132843373758668"><ele>95.99999999999999</ele><time>2026-04-18T07:33:16Z</time></trkpt><trkpt lat="45.36329479172863" lon="9.132808702507278"><ele>96.0</ele><time>2026-04-18T07:33:17Z</time></trkpt><trkpt lat="45.36323645080988" lon="9.132770552187512"><ele>96.0</ele><time>2026-04-18T07:33:18Z</time></trkpt><trkpt lat="45.363172908123005" lon="9.132732863193244"><ele>96.0</ele><time>2026-04-18T07:33:19Z</time></trkpt><trkpt lat="45.363108397565355" lon="9.132691836436749"><ele>96.0</ele><time>2026-04-18T07:33:20Z</time></trkpt><trkpt lat="45.363043707519495" lon="9.132655777822032"><ele>95.99999999999999</ele><time>2026-04-18T07:33:21Z</time></trkpt><trkpt lat="45.362981262593095" lon="9.132611376858105"><ele>96.0</ele><time>2026-04-18T07:33:22Z</time></trkpt><trkpt lat="45.36291255537415" lon="9.132570722926383"><ele>96.16666666666667</ele><time>2026-04-18T07:33:23Z</time></trkpt><trkpt lat="45.36283506272373" lon="9.132525917215391"><ele>96.33333333333334</ele><time>2026-04-18T07:33:24Z</time></trkpt><trkpt lat="45.36275943442541" lon="9.132475816622879"><ele>96.5</ele><time>2026-04-18T07:33:25Z</time></trkpt><trkpt lat="45.36268904652231" lon="9.132432204761097"><ele>96.66666666666667</ele><time>2026-04-18T07:33:26Z</time></trkpt><trkpt lat="45.362616392948205" lon="9.132391991967054"><ele>96.83333333333334</ele><time>2026-04-18T07:33:27Z</time></trkpt><trkpt lat="45.36254088920799" lon="9.132347380016006"><ele>97.0</ele><time>2026-04-18T07:33:28Z</time></trkpt><trkpt lat="45.36246160569455" lon="9.132300064462369"><ele>97.16666666666667</ele><time>2026-04-18T07:33:29Z</time></trkpt><trkpt lat="45.36238863787203" lon="9.132251492480911"><ele>97.33333333333334</ele><time>2026-04-18T07:33:30Z</time></trkpt><trkpt lat="45.362314609491456" lon="9.132205440162874"><ele>97.5</ele><time>2026-04-18T07:33:31Z</time></trkpt><trkpt lat="45.36224433795846" lon="9.132161785476933"><ele>97.66666666666666</ele><time>2026-04-18T07:33:32Z</time></trkpt><trkpt lat="45.362176254255594" lon="9.13212507954611"><ele>97.83333333333333</ele><time>2026-04-18T07:33:33Z</time></trkpt><trkpt lat="45.36211311572455" lon="9.132081450477232"><ele>98.0</ele><time>2026-04-18T07:33:34Z</time></trkpt><trkpt lat="45.3620493349921" lon="9.132040634989192"><ele>97.99999999999999</ele><time>2026-04-18T07:33:35Z</time></trkpt><trkpt lat="45.36198353699273" lon="9.131999906778688"><ele>98.0</ele><time>2026-04-18T07:33:36Z</time></trkpt><trkpt lat="45.361919178216105" lon="9.13195763515949"><ele>98.0</ele><time>2026-04-18T07:33:37Z</time></trkpt><trkpt lat="45.36185603950773" lon="9.131920470013279"><ele>98.0</ele><time>2026-04-18T07:33:38Z</time></trkpt><trkpt lat="45.361795521232914" lon="9.13188541402227"><ele>97.99999999999999</ele><time>2026-04-18T07:33:39Z</time></trkpt><trkpt lat="45.36168328817982" lon="9.131817347285526"><ele>98.0</ele><time>2026-04-18T07:33:41Z</time></trkpt><trkpt lat="45.36157839396815" lon="9.131756947890448"><ele>98.0</ele><time>2026-04-18T07:33:43Z</time></trkpt><trkpt lat="45.36148957699998" lon="9.13171494855805"><ele>98.0</ele><time>2026-04-18T07:33:45Z</time></trkpt><trkpt lat="45.361387252378584" lon="9.131637704569574"><ele>98.0</ele><time>2026-04-18T07:33:47Z</time></trkpt><trkpt lat="45.36129049356726" lon="9.131577099177086"><ele>98.0</ele><time>2026-04-18T07:33:49.001Z</time></trkpt><trkpt lat="45.36118886884659" lon="9.131519120754033"><ele>98.0</ele><time>2026-04-18T07:33:51.001Z</time></trkpt><trkpt lat="45.36113138284608" lon="9.131481912002664"><ele>97.80000000000001</ele><time>2026-04-18T07:33:52.002Z</time></trkpt><trkpt lat="45.36102701337986" lon="9.131420251846441"><ele>97.6</ele><time>2026-04-18T07:33:54.002Z</time></trkpt><trkpt lat="45.360922031835244" lon="9.131356518273368"><ele>97.4</ele><time>2026-04-18T07:33:56.002Z</time></trkpt><trkpt lat="45.360824685131455" lon="9.131295038600424"><ele>97.19999999999999</ele><time>2026-04-18T07:33:58.001Z</time></trkpt><trkpt lat="45.36072801102231" lon="9.131237520721681"><ele>97.0</ele><time>2026-04-18T07:34:00.002Z</time></trkpt><trkpt lat="45.360620928728764" lon="9.131173171969547"><ele>97.0</ele><time>2026-04-18T07:34:02.002Z</time></trkpt><trkpt lat="45.36051801132427" lon="9.131107636192354"><ele>97.0</ele><time>2026-04-18T07:34:04.002Z</time></trkpt><trkpt lat="45.360404090390766" lon="9.131041805124019"><ele>97.0</ele><time>2026-04-18T07:34:06.002Z</time></trkpt><trkpt lat="45.3602953068857" lon="9.130978178882504"><ele>97.0</ele><time>2026-04-18T07:34:08.002Z</time></trkpt><trkpt lat="45.36018820416812" lon="9.130910463553702"><ele>97.0</ele><time>2026-04-18T07:34:10.002Z</time></trkpt><trkpt lat="45.36007199366537" lon="9.130849693309353"><ele>97.0</ele><time>2026-04-18T07:34:12.002Z</time></trkpt><trkpt lat="45.35996343478926" lon="9.130783277401688"><ele>97.0</ele><time>2026-04-18T07:34:14.002Z</time></trkpt><trkpt lat="45.35985432651921" lon="9.130718489257916"><ele>97.0</ele><time>2026-04-18T07:34:16.002Z</time></trkpt><trkpt lat="45.35974462456809" lon="9.130650320866456"><ele>97.0</ele><time>2026-04-18T07:34:18.002Z</time></trkpt><trkpt lat="45.35964192608975" lon="9.13058640453859"><ele>97.0</ele><time>2026-04-18T07:34:20.002Z</time></trkpt><trkpt lat="45.35954288456264" lon="9.130530647424315"><ele>97.0</ele><time>2026-04-18T07:34:22.002Z</time></trkpt><trkpt lat="45.35944604858723" lon="9.13047778187026"><ele>97.0</ele><time>2026-04-18T07:34:24.002Z</time></trkpt><trkpt lat="45.3593613287423" lon="9.130423645528927"><ele>97.0</ele><time>2026-04-18T07:34:26.002Z</time></trkpt><trkpt lat="45.35927587273593" lon="9.130371295456133"><ele>97.0</ele><time>2026-04-18T07:34:28.002Z</time></trkpt><trkpt lat="45.359184418070306" lon="9.13031578744524"><ele>97.0</ele><time>2026-04-18T07:34:30.002Z</time></trkpt><trkpt lat="45.35908793952885" lon="9.130251619085312"><ele>97.0</ele><time>2026-04-18T07:34:32.002Z</time></trkpt><trkpt lat="45.35899212500322" lon="9.130199621982518"><ele>97.0</ele><time>2026-04-18T07:34:34.002Z</time></trkpt><trkpt lat="45.3588915906999" lon="9.130137104499125"><ele>97.0</ele><time>2026-04-18T07:34:36.002Z</time></trkpt><trkpt lat="45.358791678424936" lon="9.13007948162909"><ele>97.19999999999999</ele><time>2026-04-18T07:34:38.002Z</time></trkpt><trkpt lat="45.358691490111525" lon="9.130015809514056"><ele>97.4</ele><time>2026-04-18T07:34:40.002Z</time></trkpt><trkpt lat="45.35859183216221" lon="9.129962442816895"><ele>97.6</ele><time>2026-04-18T07:34:42.002Z</time></trkpt><trkpt lat="45.35849762393995" lon="9.129906699777635"><ele>97.80000000000001</ele><time>2026-04-18T07:34:44.002Z</time></trkpt><trkpt lat="45.358402164236836" lon="9.1298466281559"><ele>98.0</ele><time>2026-04-18T07:34:46.002Z</time></trkpt><trkpt lat="45.358310649295795" lon="9.129794412517708"><ele>98.0</ele><time>2026-04-18T07:34:48.002Z</time></trkpt><trkpt lat="45.358223157959344" lon="9.129741663979289"><ele>98.0</ele><time>2026-04-18T07:34:50.002Z</time></trkpt><trkpt lat="45.358126872366725" lon="9.129680676374424"><ele>98.0</ele><time>2026-04-18T07:34:52.002Z</time></trkpt><trkpt lat="45.358031340741654" lon="9.129630016535975"><ele>98.0</ele><time>2026-04-18T07:34:54.002Z</time></trkpt><trkpt lat="45.35793662353887" lon="9.129570935652659"><ele>98.0</ele><time>2026-04-18T07:34:56.002Z</time></trkpt><trkpt lat="45.35783752569573" lon="9.129515032365926"><ele>98.2</ele><time>2026-04-18T07:34:58.001Z</time></trkpt><trkpt lat="45.35774531606536" lon="9.129454559693988"><ele>98.4</ele><time>2026-04-18T07:35:00.001Z</time></trkpt><trkpt lat="45.35765117400877" lon="9.129397928717378"><ele>98.60000000000001</ele><time>2026-04-18T07:35:02.001Z</time></trkpt><trkpt lat="45.3575606425065" lon="9.129339829438278"><ele>98.80000000000001</ele><time>2026-04-18T07:35:04.001Z</time></trkpt><trkpt lat="45.35745130852867" lon="9.129282193802094"><ele>99.0</ele><time>2026-04-18T07:35:06.001Z</time></trkpt><trkpt lat="45.357352376342654" lon="9.129217238185015"><ele>99.0</ele><time>2026-04-18T07:35:08.001Z</time></trkpt><trkpt lat="45.357263351451316" lon="9.129160179899326"><ele>99.0</ele><time>2026-04-18T07:35:10.001Z</time></trkpt><trkpt lat="45.35718885296538" lon="9.129115562125822"><ele>99.0</ele><time>2026-04-18T07:35:12.001Z</time></trkpt><trkpt lat="45.357131555197434" lon="9.129069422044665"><ele>99.0</ele><time>2026-04-18T07:35:14.001Z</time></trkpt><trkpt lat="45.357063057526176" lon="9.129007686691361"><ele>99.0</ele><time>2026-04-18T07:35:16.001Z</time></trkpt><trkpt lat="45.356983704146415" lon="9.12895882311575"><ele>99.0</ele><time>2026-04-18T07:35:18.001Z</time></trkpt><trkpt lat="45.35686072135963" lon="9.128896501101591"><ele>99.2</ele><time>2026-04-18T07:35:20.001Z</time></trkpt><trkpt lat="45.35679988090531" lon="9.128855813966958"><ele>99.4</ele><time>2026-04-18T07:35:21.001Z</time></trkpt><trkpt lat="45.356700594038024" lon="9.128797393084337"><ele>99.6</ele><time>2026-04-18T07:35:23.001Z</time></trkpt><trkpt lat="45.35659442009805" lon="9.128729185699505"><ele>99.8</ele><time>2026-04-18T07:35:25.001Z</time></trkpt><trkpt lat="45.356532215739364" lon="9.128700703004627"><ele>100.0</ele><time>2026-04-18T07:35:26.001Z</time></trkpt><trkpt lat="45.356424525235234" lon="9.12863838763784"><ele>99.6</ele><time>2026-04-18T07:35:28.001Z</time></trkpt><trkpt lat="45.3563240405214" lon="9.12857327392871"><ele>99.2</ele><time>2026-04-18T07:35:30.001Z</time></trkpt><trkpt lat="45.356219211398205" lon="9.128510255752937"><ele>98.80000000000001</ele><time>2026-04-18T07:35:32.001Z</time></trkpt><trkpt lat="45.35612030126357" lon="9.128453064275293"><ele>98.4</ele><time>2026-04-18T07:35:34.001Z</time></trkpt><trkpt lat="45.35601190510943" lon="9.128395227256672"><ele>98.0</ele><time>2026-04-18T07:35:36.001Z</time></trkpt><trkpt lat="45.35590273179185" lon="9.128327690069435"><ele>98.0</ele><time>2026-04-18T07:35:38.001Z</time></trkpt><trkpt lat="45.35579548029723" lon="9.128264318097694"><ele>98.0</ele><time>2026-04-18T07:35:40.001Z</time></trkpt><trkpt lat="45.355683331174674" lon="9.128202050491655"><ele>98.0</ele><time>2026-04-18T07:35:42.001Z</time></trkpt><trkpt lat="45.35557660383873" lon="9.128135422991377"><ele>98.0</ele><time>2026-04-18T07:35:44.001Z</time></trkpt><trkpt lat="45.35547538779311" lon="9.128066125141746"><ele>97.60000000000001</ele><time>2026-04-18T07:35:46.001Z</time></trkpt><trkpt lat="45.355385233452374" lon="9.128010825729701"><ele>97.2</ele><time>2026-04-18T07:35:48.001Z</time></trkpt><trkpt lat="45.355284743369" lon="9.127943603646115"><ele>96.8</ele><time>2026-04-18T07:35:50.001Z</time></trkpt><trkpt lat="45.35519664801679" lon="9.127877613171856"><ele>96.4</ele><time>2026-04-18T07:35:52.001Z</time></trkpt><trkpt lat="45.35510296246992" lon="9.1277743116892"><ele>96.0</ele><time>2026-04-18T07:35:54.001Z</time></trkpt><trkpt lat="45.355004676004654" lon="9.127697963558061"><ele>96.0</ele><time>2026-04-18T07:35:56.002Z</time></trkpt><trkpt lat="45.35491237274692" lon="9.12764319930514"><ele>96.0</ele><time>2026-04-18T07:35:58.002Z</time></trkpt><trkpt lat="45.35480312190815" lon="9.127597521190085"><ele>96.0</ele><time>2026-04-18T07:36:00.002Z</time></trkpt><trkpt lat="45.35469378660254" lon="9.127555017979976"><ele>96.0</ele><time>2026-04-18T07:36:02.002Z</time></trkpt><trkpt lat="45.35458123642795" lon="9.127482126177894"><ele>96.19999999999999</ele><time>2026-04-18T07:36:04.002Z</time></trkpt><trkpt lat="45.35452957616648" lon="9.127426151158787"><ele>96.39999999999999</ele><time>2026-04-18T07:36:05.001Z</time></trkpt><trkpt lat="45.354444268301805" lon="9.127326225818956"><ele>96.6</ele><time>2026-04-18T07:36:07.002Z</time></trkpt><trkpt lat="45.35434570531658" lon="9.127226751081874"><ele>96.8</ele><time>2026-04-18T07:36:09.002Z</time></trkpt><trkpt lat="45.354248089877366" lon="9.127125913551222"><ele>97.0</ele><time>2026-04-18T07:36:11.002Z</time></trkpt><trkpt lat="45.35416224286656" lon="9.12702624134719"><ele>97.19999999999999</ele><time>2026-04-18T07:36:13.002Z</time></trkpt><trkpt lat="45.354084916611114" lon="9.126948226671509"><ele>97.4</ele><time>2026-04-18T07:36:15.002Z</time></trkpt><trkpt lat="45.354018489245895" lon="9.126872882229081"><ele>97.6</ele><time>2026-04-18T07:36:17.002Z</time></trkpt><trkpt lat="45.35394181389079" lon="9.126783121771131"><ele>97.80000000000001</ele><time>2026-04-18T07:36:19.002Z</time></trkpt><trkpt lat="45.35386293305051" lon="9.126691084648671"><ele>98.0</ele><time>2026-04-18T07:36:21.002Z</time></trkpt><trkpt lat="45.35378521367898" lon="9.12660126696221"><ele>98.33333333333333</ele><time>2026-04-18T07:36:23.002Z</time></trkpt><trkpt lat="45.35370848223899" lon="9.126500728337803"><ele>98.66666666666666</ele><time>2026-04-18T07:36:25.002Z</time></trkpt><trkpt lat="45.35363127647685" lon="9.126407756205008"><ele>99.0</ele><time>2026-04-18T07:36:27.002Z</time></trkpt><trkpt lat="45.35355656558527" lon="9.126413270108198"><ele>99.33333333333334</ele><time>2026-04-18T07:36:29.002Z</time></trkpt><trkpt lat="45.35349258799917" lon="9.126476163857399"><ele>99.66666666666667</ele><time>2026-04-18T07:36:31.002Z</time></trkpt><trkpt lat="45.35341711309837" lon="9.126512351902711"><ele>100.0</ele><time>2026-04-18T07:36:34.002Z</time></trkpt><trkpt lat="45.35337114290481" lon="9.126447336064679"><ele>100.00000000000001</ele><time>2026-04-18T07:36:36.002Z</time></trkpt><trkpt lat="45.35333779571083" lon="9.12636488165555"><ele>100.0</ele><time>2026-04-18T07:36:39.002Z</time></trkpt><trkpt lat="45.35326075474555" lon="9.126289713806404"><ele>100.0</ele><time>2026-04-18T07:36:42.002Z</time></trkpt><trkpt lat="45.35318140930821" lon="9.126194362065627"><ele>100.0</ele><time>2026-04-18T07:36:45.002Z</time></trkpt><trkpt lat="45.35311042633466" lon="9.126120054530894"><ele>100.00000000000001</ele><time>2026-04-18T07:36:47.002Z</time></trkpt><trkpt lat="45.353041002460735" lon="9.126036768584013"><ele>100.0</ele><time>2026-04-18T07:36:49.002Z</time></trkpt><trkpt lat="45.352967987490004" lon="9.125957380779838"><ele>100.0</ele><time>2026-04-18T07:36:51.002Z</time></trkpt><trkpt lat="45.352889460563375" lon="9.12586589503836"><ele>100.0</ele><time>2026-04-18T07:36:53.001Z</time></trkpt><trkpt lat="45.35281534306565" lon="9.125778083738787"><ele>100.0</ele><time>2026-04-18T07:36:55.001Z</time></trkpt><trkpt lat="45.352729431627" lon="9.12568583450181"><ele>100.0</ele><time>2026-04-18T07:36:57.001Z</time></trkpt><trkpt lat="45.35265241546993" lon="9.125595785882554"><ele>100.0</ele><time>2026-04-18T07:36:59.001Z</time></trkpt><trkpt lat="45.35257054174964" lon="9.125504504994248"><ele>99.75</ele><time>2026-04-18T07:37:01.001Z</time></trkpt><trkpt lat="45.3524812743241" lon="9.125403531181332"><ele>99.5</ele><time>2026-04-18T07:37:03.001Z</time></trkpt><trkpt lat="45.352390945057934" lon="9.125300469786657"><ele>99.25</ele><time>2026-04-18T07:37:05.001Z</time></trkpt><trkpt lat="45.35229496221514" lon="9.125199121396994"><ele>99.0</ele><time>2026-04-18T07:37:07.001Z</time></trkpt><trkpt lat="45.352207242682645" lon="9.125096424113707"><ele>99.0</ele><time>2026-04-18T07:37:09.001Z</time></trkpt><trkpt lat="45.352113417392154" lon="9.124999234902658"><ele>99.0</ele><time>2026-04-18T07:37:11.001Z</time></trkpt><trkpt lat="45.35202868858442" lon="9.124901664904746"><ele>99.0</ele><time>2026-04-18T07:37:13.001Z</time></trkpt><trkpt lat="45.3519415408331" lon="9.12479789959041"><ele>99.0</ele><time>2026-04-18T07:37:15.001Z</time></trkpt><trkpt lat="45.35184859559241" lon="9.124698240469243"><ele>99.0</ele><time>2026-04-18T07:37:17.001Z</time></trkpt><trkpt lat="45.3517631251281" lon="9.124599229531249"><ele>99.0</ele><time>2026-04-18T07:37:19.001Z</time></trkpt><trkpt lat="45.35167949077848" lon="9.12451745064525"><ele>99.0</ele><time>2026-04-18T07:37:21.001Z</time></trkpt><trkpt lat="45.35159401825825" lon="9.124424487664845"><ele>99.0</ele><time>2026-04-18T07:37:23.001Z</time></trkpt><trkpt lat="45.35154457363729" lon="9.12436803635391"><ele>99.0</ele><time>2026-04-18T07:37:24.001Z</time></trkpt><trkpt lat="45.351460371655904" lon="9.124265268634623"><ele>99.0</ele><time>2026-04-18T07:37:26.001Z</time></trkpt><trkpt lat="45.35137353719736" lon="9.12416318658308"><ele>99.0</ele><time>2026-04-18T07:37:28.001Z</time></trkpt><trkpt lat="45.35128861476344" lon="9.124061056229516"><ele>99.0</ele><time>2026-04-18T07:37:30.001Z</time></trkpt><trkpt lat="45.35119835404563" lon="9.123964835840457"><ele>99.0</ele><time>2026-04-18T07:37:32.001Z</time></trkpt><trkpt lat="45.35111421540981" lon="9.123869654592273"><ele>99.0</ele><time>2026-04-18T07:37:34.001Z</time></trkpt><trkpt lat="45.351032814705796" lon="9.123776389620499"><ele>98.6</ele><time>2026-04-18T07:37:36.001Z</time></trkpt><trkpt lat="45.35094461392569" lon="9.123675257336151"><ele>98.2</ele><time>2026-04-18T07:37:38.001Z</time></trkpt><trkpt lat="45.35086447090673" lon="9.123579589038956"><ele>97.8</ele><time>2026-04-18T07:37:40.001Z</time></trkpt><trkpt lat="45.350782857468836" lon="9.123488283984946"><ele>97.39999999999999</ele><time>2026-04-18T07:37:42.001Z</time></trkpt><trkpt lat="45.35069526002368" lon="9.123388050025131"><ele>97.0</ele><time>2026-04-18T07:37:44.001Z</time></trkpt><trkpt lat="45.350612274201936" lon="9.12329181837394"><ele>97.0</ele><time>2026-04-18T07:37:46.001Z</time></trkpt><trkpt lat="45.350527687865615" lon="9.123197318802381"><ele>97.0</ele><time>2026-04-18T07:37:48.001Z</time></trkpt><trkpt lat="45.35043942127819" lon="9.12309998140842"><ele>97.0</ele><time>2026-04-18T07:37:50.001Z</time></trkpt><trkpt lat="45.35035135021608" lon="9.122998391544375"><ele>97.0</ele><time>2026-04-18T07:37:52.001Z</time></trkpt><trkpt lat="45.35025586181868" lon="9.122897804339763"><ele>97.0</ele><time>2026-04-18T07:37:54.001Z</time></trkpt><trkpt lat="45.35016649363269" lon="9.122795280336742"><ele>97.0</ele><time>2026-04-18T07:37:56.001Z</time></trkpt><trkpt lat="45.35007884623556" lon="9.122693014521618"><ele>97.0</ele><time>2026-04-18T07:37:58.001Z</time></trkpt><trkpt lat="45.349985988794124" lon="9.12259273889022"><ele>97.0</ele><time>2026-04-18T07:38:00.001Z</time></trkpt><trkpt lat="45.34989912003508" lon="9.122484391401166"><ele>96.75</ele><time>2026-04-18T07:38:02.002Z</time></trkpt><trkpt lat="45.34981056449602" lon="9.122383123423903"><ele>96.5</ele><time>2026-04-18T07:38:04.002Z</time></trkpt><trkpt lat="45.34971484906181" lon="9.122275279114163"><ele>96.25</ele><time>2026-04-18T07:38:06.002Z</time></trkpt><trkpt lat="45.349622550858605" lon="9.122167461855588"><ele>96.0</ele><time>2026-04-18T07:38:08.002Z</time></trkpt><trkpt lat="45.34953172384702" lon="9.122071768313377"><ele>96.4</ele><time>2026-04-18T07:38:10.002Z</time></trkpt><trkpt lat="45.349439854095976" lon="9.12197032991396"><ele>96.8</ele><time>2026-04-18T07:38:12.002Z</time></trkpt><trkpt lat="45.3493565308913" lon="9.121872475295277"><ele>97.2</ele><time>2026-04-18T07:38:14.002Z</time></trkpt><trkpt lat="45.349279323755425" lon="9.12177707043363"><ele>97.60000000000001</ele><time>2026-04-18T07:38:16.002Z</time></trkpt><trkpt lat="45.3491949982378" lon="9.121680829724468"><ele>98.0</ele><time>2026-04-18T07:38:18.002Z</time></trkpt><trkpt lat="45.34910885780369" lon="9.121587754684436"><ele>97.80000000000001</ele><time>2026-04-18T07:38:20.002Z</time></trkpt><trkpt lat="45.34902508498397" lon="9.121491556790422"><ele>97.6</ele><time>2026-04-18T07:38:22.002Z</time></trkpt><trkpt lat="45.3489413772491" lon="9.121391986912633"><ele>97.4</ele><time>2026-04-18T07:38:24.002Z</time></trkpt><trkpt lat="45.34885324182347" lon="9.121297331705632"><ele>97.19999999999999</ele><time>2026-04-18T07:38:26.002Z</time></trkpt><trkpt lat="45.3487620845298" lon="9.121189860724348"><ele>97.0</ele><time>2026-04-18T07:38:28.002Z</time></trkpt><trkpt lat="45.34866853909294" lon="9.121090009859238"><ele>97.0</ele><time>2026-04-18T07:38:30.002Z</time></trkpt><trkpt lat="45.348580160798136" lon="9.120984276676676"><ele>97.0</ele><time>2026-04-18T07:38:32.002Z</time></trkpt><trkpt lat="45.34848539836528" lon="9.120875240525736"><ele>97.0</ele><time>2026-04-18T07:38:34.002Z</time></trkpt><trkpt lat="45.348396936495156" lon="9.120775168185551"><ele>97.0</ele><time>2026-04-18T07:38:36.002Z</time></trkpt><trkpt lat="45.34829817349905" lon="9.120667933747036"><ele>97.16666666666667</ele><time>2026-04-18T07:38:38.002Z</time></trkpt><trkpt lat="45.34820327353829" lon="9.120554789563451"><ele>97.33333333333334</ele><time>2026-04-18T07:38:40.002Z</time></trkpt><trkpt lat="45.34815321420223" lon="9.12049816159056"><ele>97.5</ele><time>2026-04-18T07:38:41.002Z</time></trkpt><trkpt lat="45.348104003027416" lon="9.120441077801695"><ele>97.66666666666666</ele><time>2026-04-18T07:38:42.002Z</time></trkpt><trkpt lat="45.348051651326635" lon="9.120382078877993"><ele>97.83333333333333</ele><time>2026-04-18T07:38:43.002Z</time></trkpt><trkpt lat="45.34800202592205" lon="9.12032245262806"><ele>98.0</ele><time>2026-04-18T07:38:44.002Z</time></trkpt><trkpt lat="45.34795013245921" lon="9.120262521996608"><ele>97.99999999999999</ele><time>2026-04-18T07:38:45.002Z</time></trkpt><trkpt lat="45.34789952403714" lon="9.120207585619584"><ele>98.0</ele><time>2026-04-18T07:38:46.002Z</time></trkpt><trkpt lat="45.347844437396475" lon="9.120150968260186"><ele>98.0</ele><time>2026-04-18T07:38:47.002Z</time></trkpt><trkpt lat="45.347791645058585" lon="9.12008715600561"><ele>98.0</ele><time>2026-04-18T07:38:48.002Z</time></trkpt><trkpt lat="45.34769239004395" lon="9.11997181355984"><ele>97.99999999999999</ele><time>2026-04-18T07:38:50.002Z</time></trkpt><trkpt lat="45.34763553793801" lon="9.119908143278307"><ele>98.0</ele><time>2026-04-18T07:38:51.002Z</time></trkpt><trkpt lat="45.34758160700717" lon="9.119850580378868"><ele>97.85714285714286</ele><time>2026-04-18T07:38:52.002Z</time></trkpt><trkpt lat="45.34752647696445" lon="9.119793748446638"><ele>97.71428571428572</ele><time>2026-04-18T07:38:53.002Z</time></trkpt><trkpt lat="45.34747162025783" lon="9.119732782985295"><ele>97.57142857142857</ele><time>2026-04-18T07:38:54.002Z</time></trkpt><trkpt lat="45.34742013910602" lon="9.119667494108711"><ele>97.42857142857143</ele><time>2026-04-18T07:38:55.002Z</time></trkpt><trkpt lat="45.347371678478474" lon="9.119610163335501"><ele>97.28571428571429</ele><time>2026-04-18T07:38:56.002Z</time></trkpt><trkpt lat="45.347317712503106" lon="9.119545903018295"><ele>97.14285714285714</ele><time>2026-04-18T07:38:57.002Z</time></trkpt><trkpt lat="45.347263350975176" lon="9.119484251278154"><ele>97.0</ele><time>2026-04-18T07:38:58.002Z</time></trkpt><trkpt lat="45.34721060809691" lon="9.11942089727103"><ele>97.0</ele><time>2026-04-18T07:38:59.002Z</time></trkpt><trkpt lat="45.347156929488" lon="9.119360383339174"><ele>97.0</ele><time>2026-04-18T07:39:00.002Z</time></trkpt><trkpt lat="45.34710595326594" lon="9.1193057824942"><ele>97.0</ele><time>2026-04-18T07:39:01.002Z</time></trkpt><trkpt lat="45.347053912325784" lon="9.119245731498848"><ele>97.0</ele><time>2026-04-18T07:39:02.002Z</time></trkpt><trkpt lat="45.34700249185614" lon="9.119184546384739"><ele>97.0</ele><time>2026-04-18T07:39:03.002Z</time></trkpt><trkpt lat="45.34695226394576" lon="9.119126325086668"><ele>97.0</ele><time>2026-04-18T07:39:04.002Z</time></trkpt><trkpt lat="45.346902474827644" lon="9.119067779288615"><ele>97.0</ele><time>2026-04-18T07:39:05.002Z</time></trkpt><trkpt lat="45.34684652499746" lon="9.119015660293526"><ele>96.83333333333334</ele><time>2026-04-18T07:39:06.002Z</time></trkpt><trkpt lat="45.346793542086644" lon="9.118961520136928"><ele>96.66666666666667</ele><time>2026-04-18T07:39:07.002Z</time></trkpt><trkpt lat="45.34674037475955" lon="9.118900993376943"><ele>96.5</ele><time>2026-04-18T07:39:08.002Z</time></trkpt><trkpt lat="45.34668872209276" lon="9.118843069547696"><ele>96.33333333333334</ele><time>2026-04-18T07:39:09.002Z</time></trkpt><trkpt lat="45.346633287017646" lon="9.118782546798542"><ele>96.16666666666667</ele><time>2026-04-18T07:39:10.002Z</time></trkpt><trkpt lat="45.346582129434196" lon="9.118718794203964"><ele>96.0</ele><time>2026-04-18T07:39:11.002Z</time></trkpt><trkpt lat="45.346487296594226" lon="9.118604856138148"><ele>96.0</ele><time>2026-04-18T07:39:13.002Z</time></trkpt><trkpt lat="45.34643464935185" lon="9.118543038090417"><ele>96.0</ele><time>2026-04-18T07:39:14.002Z</time></trkpt><trkpt lat="45.34633760460033" lon="9.118429414431517"><ele>96.0</ele><time>2026-04-18T07:39:16.002Z</time></trkpt><trkpt lat="45.346288449015596" lon="9.118366455924944"><ele>96.0</ele><time>2026-04-18T07:39:17.002Z</time></trkpt><trkpt lat="45.34619010319675" lon="9.118259380929384"><ele>96.0</ele><time>2026-04-18T07:39:19.001Z</time></trkpt><trkpt lat="45.34613918560103" lon="9.118197294002826"><ele>96.16666666666667</ele><time>2026-04-18T07:39:20.001Z</time></trkpt><trkpt lat="45.346087997664505" lon="9.118138319926416"><ele>96.33333333333334</ele><time>2026-04-18T07:39:21.001Z</time></trkpt><trkpt lat="45.34599057062401" lon="9.118024166509178"><ele>96.5</ele><time>2026-04-18T07:39:23.001Z</time></trkpt><trkpt lat="45.34593965313135" lon="9.117968453912527"><ele>96.66666666666667</ele><time>2026-04-18T07:39:24.001Z</time></trkpt><trkpt lat="45.34588555459251" lon="9.117907752140942"><ele>96.83333333333334</ele><time>2026-04-18T07:39:25.001Z</time></trkpt><trkpt lat="45.34583443717618" lon="9.117851356675047"><ele>97.0</ele><time>2026-04-18T07:39:26.001Z</time></trkpt><trkpt lat="45.34578486604627" lon="9.117787099476693"><ele>97.0</ele><time>2026-04-18T07:39:27.001Z</time></trkpt><trkpt lat="45.34569302591059" lon="9.117679129114208"><ele>97.0</ele><time>2026-04-18T07:39:29.001Z</time></trkpt><trkpt lat="45.3456403377999" lon="9.117623645366136"><ele>97.0</ele><time>2026-04-18T07:39:30.001Z</time></trkpt><trkpt lat="45.34558974115705" lon="9.117566361392077"><ele>97.0</ele><time>2026-04-18T07:39:31.001Z</time></trkpt><trkpt lat="45.34548953518117" lon="9.11745336609949"><ele>97.0</ele><time>2026-04-18T07:39:33.001Z</time></trkpt><trkpt lat="45.34539744093433" lon="9.117342737992074"><ele>97.0</ele><time>2026-04-18T07:39:35.001Z</time></trkpt><trkpt lat="45.34534495899756" lon="9.11728266449629"><ele>97.0</ele><time>2026-04-18T07:39:36.001Z</time></trkpt><trkpt lat="45.34529581864657" lon="9.117225925500922"><ele>97.0</ele><time>2026-04-18T07:39:37.001Z</time></trkpt><trkpt lat="45.34524388614483" lon="9.117168866479021"><ele>97.0</ele><time>2026-04-18T07:39:38.001Z</time></trkpt><trkpt lat="45.34519311292645" lon="9.117113198958027"><ele>97.0</ele><time>2026-04-18T07:39:39.001Z</time></trkpt><trkpt lat="45.3451441794769" lon="9.117055907309531"><ele>97.0</ele><time>2026-04-18T07:39:40.001Z</time></trkpt><trkpt lat="45.3450871714428" lon="9.117001626266047"><ele>97.0</ele><time>2026-04-18T07:39:41.001Z</time></trkpt><trkpt lat="45.34503049407264" lon="9.116946790499055"><ele>97.0</ele><time>2026-04-18T07:39:42.001Z</time></trkpt><trkpt lat="45.3449756546284" lon="9.116882445468047"><ele>97.0</ele><time>2026-04-18T07:39:43.001Z</time></trkpt><trkpt lat="45.34492259679485" lon="9.116820502896102"><ele>97.0</ele><time>2026-04-18T07:39:44.001Z</time></trkpt><trkpt lat="45.34487076227012" lon="9.116757399947062"><ele>97.0</ele><time>2026-04-18T07:39:45.001Z</time></trkpt><trkpt lat="45.344818163578346" lon="9.11669996970768"><ele>97.0</ele><time>2026-04-18T07:39:46.001Z</time></trkpt><trkpt lat="45.34476002988904" lon="9.116638784463769"><ele>97.0</ele><time>2026-04-18T07:39:47.001Z</time></trkpt><trkpt lat="45.34470806020069" lon="9.116579472036188"><ele>97.0</ele><time>2026-04-18T07:39:48.001Z</time></trkpt><trkpt lat="45.34465914740587" lon="9.116518955779863"><ele>97.0</ele><time>2026-04-18T07:39:49.001Z</time></trkpt><trkpt lat="45.34460758736837" lon="9.11646097116009"><ele>97.0</ele><time>2026-04-18T07:39:50.001Z</time></trkpt><trkpt lat="45.34455476723907" lon="9.116402005874358"><ele>97.0</ele><time>2026-04-18T07:39:51.001Z</time></trkpt><trkpt lat="45.34445839281394" lon="9.116291881773748"><ele>97.0</ele><time>2026-04-18T07:39:53.001Z</time></trkpt><trkpt lat="45.34440864363922" lon="9.116235578120785"><ele>97.0</ele><time>2026-04-18T07:39:54.001Z</time></trkpt><trkpt lat="45.3443612389988" lon="9.116176127160168"><ele>97.0</ele><time>2026-04-18T07:39:55.001Z</time></trkpt><trkpt lat="45.34431203348942" lon="9.116117868790061"><ele>97.0</ele><time>2026-04-18T07:39:56.001Z</time></trkpt><trkpt lat="45.344258760472485" lon="9.116064783170165"><ele>97.0</ele><time>2026-04-18T07:39:57.001Z</time></trkpt><trkpt lat="45.344206284963725" lon="9.116008610062261"><ele>97.0</ele><time>2026-04-18T07:39:58.001Z</time></trkpt><trkpt lat="45.34411554033991" lon="9.115900681640703"><ele>97.0</ele><time>2026-04-18T07:40:00.001Z</time></trkpt><trkpt lat="45.34401796919624" lon="9.115791414457714"><ele>97.0</ele><time>2026-04-18T07:40:02.001Z</time></trkpt><trkpt lat="45.34396802742184" lon="9.115732067377554"><ele>97.0</ele><time>2026-04-18T07:40:03.001Z</time></trkpt><trkpt lat="45.343872411278" lon="9.11562157032458"><ele>97.0</ele><time>2026-04-18T07:40:05.001Z</time></trkpt><trkpt lat="45.343823500773034" lon="9.115563384345336"><ele>97.0</ele><time>2026-04-18T07:40:06.001Z</time></trkpt><trkpt lat="45.34372488658155" lon="9.115447648902354"><ele>97.0</ele><time>2026-04-18T07:40:08.002Z</time></trkpt><trkpt lat="45.34362762964091" lon="9.11534367054367"><ele>97.0</ele><time>2026-04-18T07:40:10.001Z</time></trkpt><trkpt lat="45.343532863007674" lon="9.115234290538096"><ele>97.0</ele><time>2026-04-18T07:40:12.001Z</time></trkpt><trkpt lat="45.343439046107456" lon="9.115129839724124"><ele>97.0</ele><time>2026-04-18T07:40:14.001Z</time></trkpt><trkpt lat="45.34334598614245" lon="9.115022461326314"><ele>97.0</ele><time>2026-04-18T07:40:16Z</time></trkpt><trkpt lat="45.343249250738594" lon="9.114922051892634"><ele>97.0</ele><time>2026-04-18T07:40:17.999Z</time></trkpt><trkpt lat="45.343156413941685" lon="9.114807849490091"><ele>97.0</ele><time>2026-04-18T07:40:20Z</time></trkpt><trkpt lat="45.343057205311574" lon="9.11470063281331"><ele>97.0</ele><time>2026-04-18T07:40:21.999Z</time></trkpt><trkpt lat="45.342967442327215" lon="9.11459671453492"><ele>97.0</ele><time>2026-04-18T07:40:23.999Z</time></trkpt><trkpt lat="45.34287974946738" lon="9.114494985511591"><ele>97.0</ele><time>2026-04-18T07:40:25.999Z</time></trkpt><trkpt lat="45.34278699467888" lon="9.114387364461628"><ele>97.0</ele><time>2026-04-18T07:40:27.999Z</time></trkpt><trkpt lat="45.34273522990508" lon="9.114333318410296"><ele>97.0</ele><time>2026-04-18T07:40:28.998Z</time></trkpt><trkpt lat="45.342637420912006" lon="9.11423236217796"><ele>97.00000000000001</ele><time>2026-04-18T07:40:30.998Z</time></trkpt><trkpt lat="45.34258366128675" lon="9.114177909418075"><ele>97.0</ele><time>2026-04-18T07:40:31.998Z</time></trkpt><trkpt lat="45.34248188276894" lon="9.114059572456203"><ele>97.0</ele><time>2026-04-18T07:40:33.998Z</time></trkpt><trkpt lat="45.3424240054762" lon="9.114001451087727"><ele>97.0</ele><time>2026-04-18T07:40:34.998Z</time></trkpt><trkpt lat="45.34237107255666" lon="9.113944350474215"><ele>97.00000000000001</ele><time>2026-04-18T07:40:35.998Z</time></trkpt><trkpt lat="45.34231379351227" lon="9.113883727331908"><ele>97.0</ele><time>2026-04-18T07:40:36.998Z</time></trkpt><trkpt lat="45.342260681192634" lon="9.113813599090314"><ele>97.14285714285714</ele><time>2026-04-18T07:40:37.998Z</time></trkpt><trkpt lat="45.34221079046897" lon="9.113745380200186"><ele>97.28571428571429</ele><time>2026-04-18T07:40:38.998Z</time></trkpt><trkpt lat="45.342157805086096" lon="9.113672931101254"><ele>97.42857142857143</ele><time>2026-04-18T07:40:39.998Z</time></trkpt><trkpt lat="45.3421040136077" lon="9.113612454429333"><ele>97.57142857142857</ele><time>2026-04-18T07:40:40.998Z</time></trkpt><trkpt lat="45.342048557534106" lon="9.113551792488902"><ele>97.71428571428572</ele><time>2026-04-18T07:40:41.998Z</time></trkpt><trkpt lat="45.3419968406913" lon="9.113490111738818"><ele>97.85714285714286</ele><time>2026-04-18T07:40:42.998Z</time></trkpt><trkpt lat="45.34194440142097" lon="9.113426216994078"><ele>98.0</ele><time>2026-04-18T07:40:43.997Z</time></trkpt><trkpt lat="45.34188924455597" lon="9.113364181727333"><ele>97.99999999999999</ele><time>2026-04-18T07:40:44.997Z</time></trkpt><trkpt lat="45.341836643325216" lon="9.113302570247123"><ele>98.0</ele><time>2026-04-18T07:40:45.997Z</time></trkpt><trkpt lat="45.34178370278367" lon="9.113240234377542"><ele>98.0</ele><time>2026-04-18T07:40:46.997Z</time></trkpt><trkpt lat="45.341732948166445" lon="9.113182949682841"><ele>98.0</ele><time>2026-04-18T07:40:47.997Z</time></trkpt><trkpt lat="45.341679839011164" lon="9.113130170319709"><ele>97.99999999999999</ele><time>2026-04-18T07:40:48.997Z</time></trkpt><trkpt lat="45.34158813614696" lon="9.11302382782541"><ele>98.0</ele><time>2026-04-18T07:40:50.997Z</time></trkpt><trkpt lat="45.34149095504874" lon="9.112914451950987"><ele>97.80000000000001</ele><time>2026-04-18T07:40:52.997Z</time></trkpt><trkpt lat="45.34144096898677" lon="9.11285532549599"><ele>97.6</ele><time>2026-04-18T07:40:53.997Z</time></trkpt><trkpt lat="45.3413393989137" lon="9.112745704460059"><ele>97.4</ele><time>2026-04-18T07:40:55.997Z</time></trkpt><trkpt lat="45.34124244158045" lon="9.112632010629774"><ele>97.19999999999999</ele><time>2026-04-18T07:40:57.997Z</time></trkpt><trkpt lat="45.341142297568624" lon="9.112517745308875"><ele>97.0</ele><time>2026-04-18T07:40:59.997Z</time></trkpt><trkpt lat="45.34108808562965" lon="9.112457555895412"><ele>97.0</ele><time>2026-04-18T07:41:00.997Z</time></trkpt><trkpt lat="45.340990367795804" lon="9.11234285262927"><ele>97.0</ele><time>2026-04-18T07:41:02.997Z</time></trkpt><trkpt lat="45.34089054433893" lon="9.112234764048111"><ele>97.0</ele><time>2026-04-18T07:41:04.997Z</time></trkpt><trkpt lat="45.340840243005474" lon="9.11217262425579"><ele>97.0</ele><time>2026-04-18T07:41:05.997Z</time></trkpt><trkpt lat="45.34078709878765" lon="9.112110901852557"><ele>97.0</ele><time>2026-04-18T07:41:06.997Z</time></trkpt><trkpt lat="45.34073830890684" lon="9.11205360458037"><ele>97.0</ele><time>2026-04-18T07:41:07.997Z</time></trkpt><trkpt lat="45.340641744700974" lon="9.111942800821593"><ele>97.0</ele><time>2026-04-18T07:41:09.997Z</time></trkpt><trkpt lat="45.34059080492154" lon="9.11188257949722"><ele>97.0</ele><time>2026-04-18T07:41:10.997Z</time></trkpt><trkpt lat="45.34049253408017" lon="9.111768051537187"><ele>97.0</ele><time>2026-04-18T07:41:12.997Z</time></trkpt><trkpt lat="45.340403811016785" lon="9.1116632080733"><ele>97.0</ele><time>2026-04-18T07:41:14.997Z</time></trkpt><trkpt lat="45.34030437660365" lon="9.111549332341776"><ele>96.83333333333334</ele><time>2026-04-18T07:41:16.997Z</time></trkpt><trkpt lat="45.34025405861626" lon="9.111493212902962"><ele>96.66666666666667</ele><time>2026-04-18T07:41:17.997Z</time></trkpt><trkpt lat="45.34020086091793" lon="9.111436860692104"><ele>96.5</ele><time>2026-04-18T07:41:18.997Z</time></trkpt><trkpt lat="45.34010394311125" lon="9.111325690259427"><ele>96.33333333333334</ele><time>2026-04-18T07:41:20.997Z</time></trkpt><trkpt lat="45.34000579449674" lon="9.111215044362709"><ele>96.16666666666667</ele><time>2026-04-18T07:41:22.997Z</time></trkpt><trkpt lat="45.339950836337174" lon="9.11115818520626"><ele>96.0</ele><time>2026-04-18T07:41:23.997Z</time></trkpt><trkpt lat="45.33989969377427" lon="9.111101379576922"><ele>96.0</ele><time>2026-04-18T07:41:24.997Z</time></trkpt><trkpt lat="45.33980689914571" lon="9.110991549050867"><ele>96.0</ele><time>2026-04-18T07:41:26.996Z</time></trkpt><trkpt lat="45.33975821728861" lon="9.110929188223949"><ele>96.0</ele><time>2026-04-18T07:41:27.996Z</time></trkpt><trkpt lat="45.339703947421526" lon="9.11086958064504"><ele>96.0</ele><time>2026-04-18T07:41:28.996Z</time></trkpt><trkpt lat="45.3396471890405" lon="9.110810728949025"><ele>96.0</ele><time>2026-04-18T07:41:29.996Z</time></trkpt><trkpt lat="45.33955551873538" lon="9.11069616937932"><ele>96.0</ele><time>2026-04-18T07:41:31.996Z</time></trkpt><trkpt lat="45.33950241992692" lon="9.11064004462423"><ele>96.0</ele><time>2026-04-18T07:41:32.996Z</time></trkpt><trkpt lat="45.33945150888237" lon="9.110583647696695"><ele>96.0</ele><time>2026-04-18T07:41:33.996Z</time></trkpt><trkpt lat="45.339355609853015" lon="9.110478167642668"><ele>96.0</ele><time>2026-04-18T07:41:35.996Z</time></trkpt><trkpt lat="45.33926242993796" lon="9.110370608213366"><ele>96.0</ele><time>2026-04-18T07:41:37.996Z</time></trkpt><trkpt lat="45.339162029052574" lon="9.110265763096766"><ele>96.0</ele><time>2026-04-18T07:41:39.996Z</time></trkpt><trkpt lat="45.33911213573326" lon="9.110206878529524"><ele>96.0</ele><time>2026-04-18T07:41:40.996Z</time></trkpt><trkpt lat="45.33906253251939" lon="9.110148601190527"><ele>96.0</ele><time>2026-04-18T07:41:41.996Z</time></trkpt><trkpt lat="45.33901196048696" lon="9.110089515660835"><ele>96.0</ele><time>2026-04-18T07:41:42.996Z</time></trkpt><trkpt lat="45.33891341602168" lon="9.10996713495405"><ele>96.0</ele><time>2026-04-18T07:41:44.996Z</time></trkpt><trkpt lat="45.33886220300874" lon="9.109908663330648"><ele>96.0</ele><time>2026-04-18T07:41:45.996Z</time></trkpt><trkpt lat="45.33881118704141" lon="9.109850762445804"><ele>96.0</ele><time>2026-04-18T07:41:46.996Z</time></trkpt><trkpt lat="45.338759888577805" lon="9.10979474212544"><ele>96.0</ele><time>2026-04-18T07:41:47.996Z</time></trkpt><trkpt lat="45.33870942463311" lon="9.109738713998857"><ele>96.0</ele><time>2026-04-18T07:41:48.996Z</time></trkpt><trkpt lat="45.338655570829054" lon="9.109681533578273"><ele>96.0</ele><time>2026-04-18T07:41:49.996Z</time></trkpt><trkpt lat="45.33860401679491" lon="9.109618583636617"><ele>96.0</ele><time>2026-04-18T07:41:50.996Z</time></trkpt><trkpt lat="45.338553105296384" lon="9.10956163147884"><ele>96.0</ele><time>2026-04-18T07:41:51.996Z</time></trkpt><trkpt lat="45.33845499803034" lon="9.109452714734395"><ele>96.0</ele><time>2026-04-18T07:41:53.996Z</time></trkpt><trkpt lat="45.338405277772125" lon="9.109397606340877"><ele>96.0</ele><time>2026-04-18T07:41:54.996Z</time></trkpt><trkpt lat="45.33830446621626" lon="9.109293706420392"><ele>96.0</ele><time>2026-04-18T07:41:56.996Z</time></trkpt><trkpt lat="45.33820585840831" lon="9.109198332062421"><ele>96.0</ele><time>2026-04-18T07:41:58.996Z</time></trkpt><trkpt lat="45.33815169422256" lon="9.10914531937238"><ele>96.0</ele><time>2026-04-18T07:41:59.996Z</time></trkpt><trkpt lat="45.338093859370304" lon="9.10909379041692"><ele>96.0</ele><time>2026-04-18T07:42:00.996Z</time></trkpt><trkpt lat="45.33804078657037" lon="9.109043029819329"><ele>96.0</ele><time>2026-04-18T07:42:01.996Z</time></trkpt><trkpt lat="45.337985155561086" lon="9.108990680363217"><ele>96.5</ele><time>2026-04-18T07:42:02.996Z</time></trkpt><trkpt lat="45.33793219330341" lon="9.10893124472478"><ele>97.0</ele><time>2026-04-18T07:42:03.996Z</time></trkpt><trkpt lat="45.33783368681473" lon="9.108820069999723"><ele>97.5</ele><time>2026-04-18T07:42:05.996Z</time></trkpt><trkpt lat="45.33778163029805" lon="9.108759014384056"><ele>98.0</ele><time>2026-04-18T07:42:06.996Z</time></trkpt><trkpt lat="45.337699384835844" lon="9.108629630610645"><ele>98.5</ele><time>2026-04-18T07:42:08.996Z</time></trkpt><trkpt lat="45.33765954439476" lon="9.108554980123243"><ele>99.0</ele><time>2026-04-18T07:42:09.996Z</time></trkpt><trkpt lat="45.3376137708902" lon="9.108492428783212"><ele>99.0</ele><time>2026-04-18T07:42:10.996Z</time></trkpt><trkpt lat="45.33756178269657" lon="9.10843376264889"><ele>99.0</ele><time>2026-04-18T07:42:11.996Z</time></trkpt><trkpt lat="45.33750677992566" lon="9.108375219410185"><ele>99.0</ele><time>2026-04-18T07:42:12.997Z</time></trkpt><trkpt lat="45.33745752519179" lon="9.108313596534508"><ele>99.0</ele><time>2026-04-18T07:42:13.996Z</time></trkpt><trkpt lat="45.33736952370579" lon="9.108200632330886"><ele>99.0</ele><time>2026-04-18T07:42:15.996Z</time></trkpt><trkpt lat="45.337322809057426" lon="9.108140425330353"><ele>99.0</ele><time>2026-04-18T07:42:16.997Z</time></trkpt><trkpt lat="45.33728018668524" lon="9.108071407209748"><ele>99.0</ele><time>2026-04-18T07:42:17.997Z</time></trkpt><trkpt lat="45.33721032407816" lon="9.107950716729867"><ele>99.14285714285715</ele><time>2026-04-18T07:42:19.997Z</time></trkpt><trkpt lat="45.337172310708134" lon="9.107878683844785"><ele>99.28571428571428</ele><time>2026-04-18T07:42:20.997Z</time></trkpt><trkpt lat="45.33713620538797" lon="9.107801787974"><ele>99.42857142857143</ele><time>2026-04-18T07:42:21.997Z</time></trkpt><trkpt lat="45.337102526786836" lon="9.107722879955814"><ele>99.57142857142858</ele><time>2026-04-18T07:42:22.997Z</time></trkpt><trkpt lat="45.337071005774966" lon="9.107641876709225"><ele>99.71428571428572</ele><time>2026-04-18T07:42:23.997Z</time></trkpt><trkpt lat="45.337035999001884" lon="9.10756544205476"><ele>99.85714285714286</ele><time>2026-04-18T07:42:24.997Z</time></trkpt><trkpt lat="45.33699571671814" lon="9.107489766840894"><ele>100.0</ele><time>2026-04-18T07:42:25.997Z</time></trkpt><trkpt lat="45.33694885518308" lon="9.107417653943651"><ele>100.00000000000001</ele><time>2026-04-18T07:42:26.997Z</time></trkpt><trkpt lat="45.3369051426489" lon="9.107350509121487"><ele>100.0</ele><time>2026-04-18T07:42:27.997Z</time></trkpt><trkpt lat="45.33686332661699" lon="9.107280053201704"><ele>100.0</ele><time>2026-04-18T07:42:28.997Z</time></trkpt><trkpt lat="45.33682998998875" lon="9.107196780040045"><ele>100.0</ele><time>2026-04-18T07:42:29.997Z</time></trkpt><trkpt lat="45.33678600080243" lon="9.107018322715117"><ele>100.00000000000001</ele><time>2026-04-18T07:42:31.997Z</time></trkpt><trkpt lat="45.336763765044296" lon="9.106934420674591"><ele>100.0</ele><time>2026-04-18T07:42:32.997Z</time></trkpt><trkpt lat="45.33673445900789" lon="9.106851108480909"><ele>100.0</ele><time>2026-04-18T07:42:33.997Z</time></trkpt><trkpt lat="45.33670127480295" lon="9.106773622476053"><ele>100.0</ele><time>2026-04-18T07:42:34.997Z</time></trkpt><trkpt lat="45.336631419007546" lon="9.106621836288605"><ele>100.0</ele><time>2026-04-18T07:42:36.997Z</time></trkpt><trkpt lat="45.33660401205726" lon="9.106541128116916"><ele>100.0</ele><time>2026-04-18T07:42:37.997Z</time></trkpt><trkpt lat="45.336575181343264" lon="9.106377819571787"><ele>100.0</ele><time>2026-04-18T07:42:39.997Z</time></trkpt><trkpt lat="45.336524436184185" lon="9.106225105321766"><ele>100.0</ele><time>2026-04-18T07:42:41.997Z</time></trkpt><trkpt lat="45.33644460200618" lon="9.106102360614086"><ele>100.0</ele><time>2026-04-18T07:42:43.997Z</time></trkpt><trkpt lat="45.33634267555915" lon="9.106013566815513"><ele>100.0</ele><time>2026-04-18T07:42:45.997Z</time></trkpt><trkpt lat="45.336228790384524" lon="9.105960726797763"><ele>100.0</ele><time>2026-04-18T07:42:47.997Z</time></trkpt><trkpt lat="45.3361672328166" lon="9.105931097082037"><ele>100.0</ele><time>2026-04-18T07:42:48.997Z</time></trkpt><trkpt lat="45.336041532459966" lon="9.105874016442101"><ele>100.00000000000001</ele><time>2026-04-18T07:42:50.997Z</time></trkpt><trkpt lat="45.335973023902" lon="9.105840980730997"><ele>100.0</ele><time>2026-04-18T07:42:51.997Z</time></trkpt><trkpt lat="45.33590667589787" lon="9.10580114057913"><ele>100.0</ele><time>2026-04-18T07:42:52.997Z</time></trkpt><trkpt lat="45.33583863672963" lon="9.105765029302782"><ele>100.0</ele><time>2026-04-18T07:42:53.997Z</time></trkpt><trkpt lat="45.3357759666279" lon="9.105726412148348"><ele>100.0</ele><time>2026-04-18T07:42:54.997Z</time></trkpt><trkpt lat="45.33570940107419" lon="9.105698516226754"><ele>100.00000000000001</ele><time>2026-04-18T07:42:55.997Z</time></trkpt><trkpt lat="45.33565002760891" lon="9.105657824782037"><ele>100.0</ele><time>2026-04-18T07:42:57.997Z</time></trkpt><trkpt lat="45.33553368199175" lon="9.105619117979977"><ele>99.6</ele><time>2026-04-18T07:42:59.997Z</time></trkpt><trkpt lat="45.33543569623603" lon="9.10556067230819"><ele>99.2</ele><time>2026-04-18T07:43:01.997Z</time></trkpt><trkpt lat="45.33534110644399" lon="9.105489777993943"><ele>98.80000000000001</ele><time>2026-04-18T07:43:03.997Z</time></trkpt><trkpt lat="45.33524364039426" lon="9.105424254267595"><ele>98.4</ele><time>2026-04-18T07:43:05.997Z</time></trkpt><trkpt lat="45.33514267885113" lon="9.105362571315572"><ele>98.0</ele><time>2026-04-18T07:43:07.996Z</time></trkpt><trkpt lat="45.3350392005673" lon="9.105286321138012"><ele>98.0</ele><time>2026-04-18T07:43:09.996Z</time></trkpt><trkpt lat="45.3349385117646" lon="9.105215873654846"><ele>98.0</ele><time>2026-04-18T07:43:11.996Z</time></trkpt><trkpt lat="45.33484577889849" lon="9.105154175491368"><ele>98.0</ele><time>2026-04-18T07:43:13.996Z</time></trkpt><trkpt lat="45.33475252606641" lon="9.105104864657081"><ele>98.0</ele><time>2026-04-18T07:43:15.996Z</time></trkpt><trkpt lat="45.334647189271735" lon="9.105072283260283"><ele>98.0</ele><time>2026-04-18T07:43:17.996Z</time></trkpt><trkpt lat="45.3345383301402" lon="9.10510251015543"><ele>98.4</ele><time>2026-04-18T07:43:19.996Z</time></trkpt><trkpt lat="45.33444484199565" lon="9.105149886190757"><ele>98.80000000000001</ele><time>2026-04-18T07:43:21.996Z</time></trkpt><trkpt lat="45.334330423740234" lon="9.105173962854302"><ele>99.2</ele><time>2026-04-18T07:43:23.996Z</time></trkpt><trkpt lat="45.334225114785035" lon="9.105241827167088"><ele>99.6</ele><time>2026-04-18T07:43:25.996Z</time></trkpt><trkpt lat="45.3341579702876" lon="9.105239872343539"><ele>100.0</ele><time>2026-04-18T07:43:29.996Z</time></trkpt><trkpt lat="45.33408557088055" lon="9.105185686636299"><ele>100.00000000000001</ele><time>2026-04-18T07:43:32.996Z</time></trkpt><trkpt lat="45.33403299864679" lon="9.105130222643249"><ele>100.0</ele><time>2026-04-18T07:43:39.996Z</time></trkpt><trkpt lat="45.3339105725053" lon="9.105082756994653"><ele>100.0</ele><time>2026-04-18T07:43:52.996Z</time></trkpt><trkpt lat="45.33384256067723" lon="9.105068635725155"><ele>100.0</ele><time>2026-04-18T07:43:54.996Z</time></trkpt><trkpt lat="45.33375000733513" lon="9.105047684208932"><ele>100.00000000000001</ele><time>2026-04-18T07:43:56.996Z</time></trkpt><trkpt lat="45.33366303022875" lon="9.105006594739992"><ele>100.0</ele><time>2026-04-18T07:43:58.996Z</time></trkpt><trkpt lat="45.333572512676895" lon="9.104992147938695"><ele>100.16666666666667</ele><time>2026-04-18T07:44:00.996Z</time></trkpt><trkpt lat="45.33349369753932" lon="9.104968411335525"><ele>100.33333333333334</ele><time>2026-04-18T07:44:02.996Z</time></trkpt><trkpt lat="45.33340671109372" lon="9.10493842946826"><ele>100.5</ele><time>2026-04-18T07:44:04.996Z</time></trkpt><trkpt lat="45.3333170290968" lon="9.104914546404887"><ele>100.66666666666666</ele><time>2026-04-18T07:44:06.996Z</time></trkpt><trkpt lat="45.333228948240844" lon="9.104892602215195"><ele>100.83333333333333</ele><time>2026-04-18T07:44:08.996Z</time></trkpt><trkpt lat="45.33315023397341" lon="9.10487796584341"><ele>101.0</ele><time>2026-04-18T07:44:10.996Z</time></trkpt><trkpt lat="45.33307438118162" lon="9.104851954840505"><ele>100.83333333333333</ele><time>2026-04-18T07:44:13.996Z</time></trkpt><trkpt lat="45.33301046324175" lon="9.104813733791236"><ele>100.66666666666666</ele><time>2026-04-18T07:44:23.997Z</time></trkpt><trkpt lat="45.33294149001028" lon="9.104787133014298"><ele>100.5</ele><time>2026-04-18T07:44:26.996Z</time></trkpt><trkpt lat="45.33288199211824" lon="9.104751164036195"><ele>100.33333333333334</ele><time>2026-04-18T07:44:30.997Z</time></trkpt><trkpt lat="45.33279200032084" lon="9.104732921099698"><ele>100.16666666666667</ele><time>2026-04-18T07:45:00.996Z</time></trkpt><trkpt lat="45.33272474956337" lon="9.10471897154774"><ele>100.0</ele><time>2026-04-18T07:45:02.996Z</time></trkpt><trkpt lat="45.33263805344905" lon="9.104708332397344"><ele>100.0</ele><time>2026-04-18T07:45:04.996Z</time></trkpt><trkpt lat="45.33254929592247" lon="9.104701872987556"><ele>100.0</ele><time>2026-04-18T07:45:06.996Z</time></trkpt><trkpt lat="45.33245366358718" lon="9.104688893686383"><ele>100.0</ele><time>2026-04-18T07:45:08.996Z</time></trkpt><trkpt lat="45.33235597393596" lon="9.104682715233972"><ele>100.0</ele><time>2026-04-18T07:45:10.996Z</time></trkpt><trkpt lat="45.332255860904546" lon="9.104677519160761"><ele>100.0</ele><time>2026-04-18T07:45:12.996Z</time></trkpt><trkpt lat="45.33214797503655" lon="9.104664811831935"><ele>99.4</ele><time>2026-04-18T07:45:14.996Z</time></trkpt><trkpt lat="45.33204059114543" lon="9.104652120103607"><ele>98.8</ele><time>2026-04-18T07:45:16.996Z</time></trkpt><trkpt lat="45.33193314139039" lon="9.10463564851394"><ele>98.19999999999999</ele><time>2026-04-18T07:45:18.996Z</time></trkpt><trkpt lat="45.33182677540732" lon="9.104620867507643"><ele>97.6</ele><time>2026-04-18T07:45:20.996Z</time></trkpt><trkpt lat="45.331716331240116" lon="9.104611598409743"><ele>97.0</ele><time>2026-04-18T07:45:22.996Z</time></trkpt><trkpt lat="45.33161471282558" lon="9.10460123232425"><ele>97.0</ele><time>2026-04-18T07:45:24.996Z</time></trkpt><trkpt lat="45.33149911098158" lon="9.104593871781429"><ele>97.0</ele><time>2026-04-18T07:45:26.996Z</time></trkpt><trkpt lat="45.33140186266582" lon="9.104583233072082"><ele>97.0</ele><time>2026-04-18T07:45:28.996Z</time></trkpt><trkpt lat="45.331304463724926" lon="9.10456409661466"><ele>97.0</ele><time>2026-04-18T07:45:30.996Z</time></trkpt><trkpt lat="45.331192395488884" lon="9.104545287566763"><ele>97.0</ele><time>2026-04-18T07:45:32.996Z</time></trkpt><trkpt lat="45.331075843974276" lon="9.104534886642497"><ele>97.0</ele><time>2026-04-18T07:45:34.996Z</time></trkpt><trkpt lat="45.33097104867407" lon="9.10453292079366"><ele>97.0</ele><time>2026-04-18T07:45:36.996Z</time></trkpt><trkpt lat="45.330878348234165" lon="9.10452074604731"><ele>97.0</ele><time>2026-04-18T07:45:38.996Z</time></trkpt><trkpt lat="45.33078082714451" lon="9.104490972003813"><ele>97.0</ele><time>2026-04-18T07:45:40.996Z</time></trkpt><trkpt lat="45.330680713270105" lon="9.104486849772245"><ele>97.0</ele><time>2026-04-18T07:45:42.996Z</time></trkpt><trkpt lat="45.330587646874854" lon="9.104483703935664"><ele>97.39999999999999</ele><time>2026-04-18T07:45:44.996Z</time></trkpt><trkpt lat="45.33049107915801" lon="9.104471515678869"><ele>97.8</ele><time>2026-04-18T07:45:46.996Z</time></trkpt><trkpt lat="45.33038759274728" lon="9.104461270089306"><ele>98.2</ele><time>2026-04-18T07:45:48.995Z</time></trkpt><trkpt lat="45.33029102948855" lon="9.104450746947128"><ele>98.6</ele><time>2026-04-18T07:45:50.995Z</time></trkpt><trkpt lat="45.330191869754174" lon="9.104439390622526"><ele>99.0</ele><time>2026-04-18T07:45:52.995Z</time></trkpt><trkpt lat="45.33008932350821" lon="9.104436134996565"><ele>99.0</ele><time>2026-04-18T07:45:54.995Z</time></trkpt><trkpt lat="45.3299953863681" lon="9.104426395133839"><ele>99.0</ele><time>2026-04-18T07:45:56.995Z</time></trkpt><trkpt lat="45.32988967137677" lon="9.104413287335467"><ele>99.0</ele><time>2026-04-18T07:45:58.995Z</time></trkpt><trkpt lat="45.329790125389565" lon="9.104406457719794"><ele>99.0</ele><time>2026-04-18T07:46:00.995Z</time></trkpt><trkpt lat="45.32969776582749" lon="9.104394203814648"><ele>99.0</ele><time>2026-04-18T07:46:02.995Z</time></trkpt><trkpt lat="45.32960827536668" lon="9.10439109375148"><ele>99.0</ele><time>2026-04-18T07:46:04.995Z</time></trkpt><trkpt lat="45.32952680825996" lon="9.104377141996482"><ele>99.0</ele><time>2026-04-18T07:46:06.995Z</time></trkpt><trkpt lat="45.32942842110165" lon="9.104358335373716"><ele>99.0</ele><time>2026-04-18T07:46:08.995Z</time></trkpt><trkpt lat="45.32932400579109" lon="9.104350801862534"><ele>99.0</ele><time>2026-04-18T07:46:10.995Z</time></trkpt><trkpt lat="45.32922238529475" lon="9.104342345165698"><ele>99.0</ele><time>2026-04-18T07:46:12.995Z</time></trkpt><trkpt lat="45.32912117100054" lon="9.104333534471934"><ele>99.0</ele><time>2026-04-18T07:46:14.995Z</time></trkpt><trkpt lat="45.32901296672166" lon="9.10432351539212"><ele>99.0</ele><time>2026-04-18T07:46:16.995Z</time></trkpt><trkpt lat="45.328908530340115" lon="9.104317138068527"><ele>99.0</ele><time>2026-04-18T07:46:18.995Z</time></trkpt><trkpt lat="45.328806701890144" lon="9.104306894541713"><ele>99.0</ele><time>2026-04-18T07:46:20.995Z</time></trkpt><trkpt lat="45.328708187613735" lon="9.104297304094946"><ele>99.0</ele><time>2026-04-18T07:46:22.995Z</time></trkpt><trkpt lat="45.32861180343459" lon="9.104290239039495"><ele>99.0</ele><time>2026-04-18T07:46:24.996Z</time></trkpt><trkpt lat="45.32850557112018" lon="9.104275390052992"><ele>99.0</ele><time>2026-04-18T07:46:26.997Z</time></trkpt><trkpt lat="45.32839913037327" lon="9.104261962823669"><ele>99.0</ele><time>2026-04-18T07:46:28.997Z</time></trkpt><trkpt lat="45.32829742420518" lon="9.104257264597585"><ele>99.0</ele><time>2026-04-18T07:46:30.996Z</time></trkpt><trkpt lat="45.32819821204528" lon="9.10424308754001"><ele>99.0</ele><time>2026-04-18T07:46:32.996Z</time></trkpt><trkpt lat="45.328110786524526" lon="9.10423102161743"><ele>99.0</ele><time>2026-04-18T07:46:34.997Z</time></trkpt><trkpt lat="45.32802586082395" lon="9.104233432164039"><ele>99.0</ele><time>2026-04-18T07:46:36.996Z</time></trkpt><trkpt lat="45.32794233567524" lon="9.104220369279977"><ele>99.0</ele><time>2026-04-18T07:46:38.997Z</time></trkpt><trkpt lat="45.32785052372301" lon="9.104205445965318"><ele>99.0</ele><time>2026-04-18T07:46:40.997Z</time></trkpt><trkpt lat="45.327756821936795" lon="9.104193612875914"><ele>99.0</ele><time>2026-04-18T07:46:42.997Z</time></trkpt><trkpt lat="45.327667696565655" lon="9.104182543223617"><ele>99.0</ele><time>2026-04-18T07:46:44.997Z</time></trkpt><trkpt lat="45.32757577130671" lon="9.104169889964501"><ele>99.0</ele><time>2026-04-18T07:46:46.997Z</time></trkpt><trkpt lat="45.327473588342464" lon="9.104164454332777"><ele>99.0</ele><time>2026-04-18T07:46:48.997Z</time></trkpt><trkpt lat="45.32737831651894" lon="9.104154254845906"><ele>99.0</ele><time>2026-04-18T07:46:50.997Z</time></trkpt><trkpt lat="45.32727203895311" lon="9.104139610309327"><ele>99.0</ele><time>2026-04-18T07:46:52.996Z</time></trkpt><trkpt lat="45.327170308369844" lon="9.104126881829773"><ele>99.0</ele><time>2026-04-18T07:46:54.996Z</time></trkpt><trkpt lat="45.327063597540416" lon="9.104114981866433"><ele>99.0</ele><time>2026-04-18T07:46:56.996Z</time></trkpt><trkpt lat="45.326963196028395" lon="9.10410630733228"><ele>99.0</ele><time>2026-04-18T07:46:58.996Z</time></trkpt><trkpt lat="45.32686802500224" lon="9.104094448253791"><ele>99.0</ele><time>2026-04-18T07:47:00.996Z</time></trkpt><trkpt lat="45.32676461432466" lon="9.104078849062114"><ele>99.0</ele><time>2026-04-18T07:47:02.996Z</time></trkpt><trkpt lat="45.32665782848507" lon="9.104070369243376"><ele>99.0</ele><time>2026-04-18T07:47:04.996Z</time></trkpt><trkpt lat="45.32655648572176" lon="9.10406005437241"><ele>99.0</ele><time>2026-04-18T07:47:06.996Z</time></trkpt><trkpt lat="45.326451395623835" lon="9.104051486566167"><ele>99.0</ele><time>2026-04-18T07:47:08.996Z</time></trkpt><trkpt lat="45.32635046621674" lon="9.10403390938362"><ele>99.0</ele><time>2026-04-18T07:47:10.996Z</time></trkpt><trkpt lat="45.32625025579053" lon="9.104021791291517"><ele>99.0</ele><time>2026-04-18T07:47:12.996Z</time></trkpt><trkpt lat="45.3261371761779" lon="9.104010022782923"><ele>99.0</ele><time>2026-04-18T07:47:14.996Z</time></trkpt><trkpt lat="45.326036310688174" lon="9.10399648359201"><ele>98.80000000000001</ele><time>2026-04-18T07:47:16.996Z</time></trkpt><trkpt lat="45.32593238691049" lon="9.103989864926305"><ele>98.60000000000001</ele><time>2026-04-18T07:47:18.996Z</time></trkpt><trkpt lat="45.325822572261636" lon="9.103975330632167"><ele>98.4</ele><time>2026-04-18T07:47:20.996Z</time></trkpt><trkpt lat="45.32572202494689" lon="9.103965329842408"><ele>98.2</ele><time>2026-04-18T07:47:22.996Z</time></trkpt><trkpt lat="45.325618403921744" lon="9.103955886641753"><ele>98.0</ele><time>2026-04-18T07:47:24.996Z</time></trkpt><trkpt lat="45.325519753712015" lon="9.1039444967384"><ele>98.0</ele><time>2026-04-18T07:47:26.996Z</time></trkpt><trkpt lat="45.325408583224565" lon="9.10393391803425"><ele>98.0</ele><time>2026-04-18T07:47:28.996Z</time></trkpt><trkpt lat="45.32529974869252" lon="9.103919618563275"><ele>98.0</ele><time>2026-04-18T07:47:30.996Z</time></trkpt><trkpt lat="45.32519892411662" lon="9.103916117582568"><ele>98.0</ele><time>2026-04-18T07:47:32.996Z</time></trkpt><trkpt lat="45.32508333918218" lon="9.103901232936707"><ele>98.0</ele><time>2026-04-18T07:47:34.996Z</time></trkpt><trkpt lat="45.32497748913737" lon="9.103888740436219"><ele>98.0</ele><time>2026-04-18T07:47:36.996Z</time></trkpt><trkpt lat="45.32486905556717" lon="9.103878038737937"><ele>98.0</ele><time>2026-04-18T07:47:38.996Z</time></trkpt><trkpt lat="45.32476431900612" lon="9.103870814584637"><ele>98.0</ele><time>2026-04-18T07:47:40.996Z</time></trkpt><trkpt lat="45.324658191219186" lon="9.103858325887687"><ele>98.0</ele><time>2026-04-18T07:47:42.996Z</time></trkpt><trkpt lat="45.32455273435515" lon="9.103860843528086"><ele>98.0</ele><time>2026-04-18T07:47:44.996Z</time></trkpt><trkpt lat="45.324448515286655" lon="9.103868319218657"><ele>97.80000000000001</ele><time>2026-04-18T07:47:46.996Z</time></trkpt><trkpt lat="45.32434653207669" lon="9.103875856942722"><ele>97.6</ele><time>2026-04-18T07:47:48.996Z</time></trkpt><trkpt lat="45.32424840923736" lon="9.10388843860512"><ele>97.4</ele><time>2026-04-18T07:47:50.996Z</time></trkpt><trkpt lat="45.32415983089182" lon="9.103894915354658"><ele>97.19999999999999</ele><time>2026-04-18T07:47:52.996Z</time></trkpt><trkpt lat="45.324057049790795" lon="9.103916706567775"><ele>97.0</ele><time>2026-04-18T07:47:54.996Z</time></trkpt><trkpt lat="45.323954012613655" lon="9.103952171540445"><ele>97.19999999999999</ele><time>2026-04-18T07:47:56.996Z</time></trkpt><trkpt lat="45.32385463423314" lon="9.103981952014918"><ele>97.4</ele><time>2026-04-18T07:47:58.996Z</time></trkpt><trkpt lat="45.32376468831322" lon="9.104017112243136"><ele>97.6</ele><time>2026-04-18T07:48:00.996Z</time></trkpt><trkpt lat="45.32366002995157" lon="9.104060367108268"><ele>97.80000000000001</ele><time>2026-04-18T07:48:02.996Z</time></trkpt><trkpt lat="45.32355820471513" lon="9.10409312703648"><ele>98.0</ele><time>2026-04-18T07:48:04.996Z</time></trkpt><trkpt lat="45.32346224390101" lon="9.104128692175191"><ele>98.0</ele><time>2026-04-18T07:48:06.996Z</time></trkpt><trkpt lat="45.32337571020961" lon="9.104166095675037"><ele>98.0</ele><time>2026-04-18T07:48:08.995Z</time></trkpt><trkpt lat="45.32327092281826" lon="9.104205591296669"><ele>98.0</ele><time>2026-04-18T07:48:10.995Z</time></trkpt><trkpt lat="45.32318934036578" lon="9.104240282031068"><ele>98.0</ele><time>2026-04-18T07:48:12.995Z</time></trkpt><trkpt lat="45.32309233287766" lon="9.104282512891347"><ele>98.0</ele><time>2026-04-18T07:48:14.995Z</time></trkpt><trkpt lat="45.322992246196875" lon="9.104318597767536"><ele>97.60000000000001</ele><time>2026-04-18T07:48:16.995Z</time></trkpt><trkpt lat="45.322895067506145" lon="9.104359110880539"><ele>97.2</ele><time>2026-04-18T07:48:18.995Z</time></trkpt><trkpt lat="45.322794212963515" lon="9.104384329717"><ele>96.8</ele><time>2026-04-18T07:48:20.995Z</time></trkpt><trkpt lat="45.32269316523642" lon="9.104414579566772"><ele>96.4</ele><time>2026-04-18T07:48:22.995Z</time></trkpt><trkpt lat="45.3225923610144" lon="9.104450359678347"><ele>96.0</ele><time>2026-04-18T07:48:24.995Z</time></trkpt><trkpt lat="45.32249424941625" lon="9.104487701851017"><ele>96.0</ele><time>2026-04-18T07:48:26.995Z</time></trkpt><trkpt lat="45.32239523544653" lon="9.104525241962657"><ele>96.0</ele><time>2026-04-18T07:48:28.995Z</time></trkpt><trkpt lat="45.32229377953125" lon="9.104559852815278"><ele>96.0</ele><time>2026-04-18T07:48:30.997Z</time></trkpt><trkpt lat="45.32219046445514" lon="9.104593629405684"><ele>96.0</ele><time>2026-04-18T07:48:32.997Z</time></trkpt><trkpt lat="45.32208987253072" lon="9.104633330267497"><ele>96.0</ele><time>2026-04-18T07:48:34.996Z</time></trkpt><trkpt lat="45.32199101083906" lon="9.10466673142751"><ele>96.19999999999999</ele><time>2026-04-18T07:48:36.996Z</time></trkpt><trkpt lat="45.32189234518437" lon="9.104705206612682"><ele>96.39999999999999</ele><time>2026-04-18T07:48:38.996Z</time></trkpt><trkpt lat="45.32179104136771" lon="9.104740279130855"><ele>96.6</ele><time>2026-04-18T07:48:40.996Z</time></trkpt><trkpt lat="45.32169063223416" lon="9.104776795269302"><ele>96.8</ele><time>2026-04-18T07:48:42.996Z</time></trkpt><trkpt lat="45.321584475545315" lon="9.10481556899536"><ele>97.0</ele><time>2026-04-18T07:48:44.997Z</time></trkpt><trkpt lat="45.32148948475372" lon="9.104859082738056"><ele>96.8</ele><time>2026-04-18T07:48:46.997Z</time></trkpt><trkpt lat="45.32138742257942" lon="9.104890349170509"><ele>96.6</ele><time>2026-04-18T07:48:48.997Z</time></trkpt><trkpt lat="45.321289169341824" lon="9.104931129680864"><ele>96.39999999999999</ele><time>2026-04-18T07:48:50.997Z</time></trkpt><trkpt lat="45.32119344264977" lon="9.104968585143242"><ele>96.19999999999999</ele><time>2026-04-18T07:48:52.997Z</time></trkpt><trkpt lat="45.32109095167715" lon="9.105005331653256"><ele>96.0</ele><time>2026-04-18T07:48:54.997Z</time></trkpt><trkpt lat="45.32099029907013" lon="9.105042488039238"><ele>96.0</ele><time>2026-04-18T07:48:56.997Z</time></trkpt><trkpt lat="45.320887995739284" lon="9.10508154658306"><ele>96.0</ele><time>2026-04-18T07:48:58.996Z</time></trkpt><trkpt lat="45.32078785879792" lon="9.105121382509664"><ele>96.0</ele><time>2026-04-18T07:49:00.996Z</time></trkpt><trkpt lat="45.32069314826835" lon="9.105156393231583"><ele>96.0</ele><time>2026-04-18T07:49:02.996Z</time></trkpt><trkpt lat="45.32059240853827" lon="9.10519809892793"><ele>96.0</ele><time>2026-04-18T07:49:04.996Z</time></trkpt><trkpt lat="45.32048837536359" lon="9.105240907596993"><ele>96.0</ele><time>2026-04-18T07:49:06.996Z</time></trkpt><trkpt lat="45.32039021413075" lon="9.105288550290629"><ele>96.0</ele><time>2026-04-18T07:49:08.996Z</time></trkpt><trkpt lat="45.32029375245774" lon="9.105345862714683"><ele>96.0</ele><time>2026-04-18T07:49:10.996Z</time></trkpt><trkpt lat="45.320198666642426" lon="9.105408537544884"><ele>96.0</ele><time>2026-04-18T07:49:12.996Z</time></trkpt><trkpt lat="45.32010659172424" lon="9.105474610008798"><ele>96.0</ele><time>2026-04-18T07:49:14.996Z</time></trkpt><trkpt lat="45.32001340329072" lon="9.105541758043497"><ele>96.0</ele><time>2026-04-18T07:49:16.996Z</time></trkpt><trkpt lat="45.31992520375247" lon="9.105607271825676"><ele>96.0</ele><time>2026-04-18T07:49:18.996Z</time></trkpt><trkpt lat="45.31983029537187" lon="9.105679782745252"><ele>96.0</ele><time>2026-04-18T07:49:20.996Z</time></trkpt><trkpt lat="45.31974862652763" lon="9.105749960494826"><ele>96.0</ele><time>2026-04-18T07:49:22.996Z</time></trkpt><trkpt lat="45.31966775776815" lon="9.105809327778875"><ele>96.0</ele><time>2026-04-18T07:49:24.996Z</time></trkpt><trkpt lat="45.31958117402502" lon="9.1058770480771"><ele>96.19999999999999</ele><time>2026-04-18T07:49:26.996Z</time></trkpt><trkpt lat="45.31948877084842" lon="9.10594669384345"><ele>96.39999999999999</ele><time>2026-04-18T07:49:28.996Z</time></trkpt><trkpt lat="45.31939821102554" lon="9.106018876108497"><ele>96.6</ele><time>2026-04-18T07:49:30.996Z</time></trkpt><trkpt lat="45.31931312882748" lon="9.106085300103064"><ele>96.8</ele><time>2026-04-18T07:49:32.996Z</time></trkpt><trkpt lat="45.31922328366983" lon="9.106156707260421"><ele>97.0</ele><time>2026-04-18T07:49:34.996Z</time></trkpt><trkpt lat="45.31913740190629" lon="9.106224384139878"><ele>97.0</ele><time>2026-04-18T07:49:36.996Z</time></trkpt><trkpt lat="45.319047104623955" lon="9.10629124177136"><ele>97.0</ele><time>2026-04-18T07:49:38.996Z</time></trkpt><trkpt lat="45.31896527597337" lon="9.10635390989288"><ele>97.0</ele><time>2026-04-18T07:49:40.996Z</time></trkpt><trkpt lat="45.31888032187837" lon="9.106418148051034"><ele>97.0</ele><time>2026-04-18T07:49:42.996Z</time></trkpt><trkpt lat="45.31879085208588" lon="9.106488494038283"><ele>97.0</ele><time>2026-04-18T07:49:44.996Z</time></trkpt><trkpt lat="45.318707401014805" lon="9.106555848734597"><ele>96.8</ele><time>2026-04-18T07:49:46.996Z</time></trkpt><trkpt lat="45.31861687761123" lon="9.106619397482705"><ele>96.6</ele><time>2026-04-18T07:49:48.996Z</time></trkpt><trkpt lat="45.318523750733085" lon="9.106678788884139"><ele>96.39999999999999</ele><time>2026-04-18T07:49:50.996Z</time></trkpt><trkpt lat="45.31842900627541" lon="9.10673553430364"><ele>96.19999999999999</ele><time>2026-04-18T07:49:52.996Z</time></trkpt><trkpt lat="45.31833813272653" lon="9.106793950272843"><ele>96.0</ele><time>2026-04-18T07:49:54.996Z</time></trkpt><trkpt lat="45.31825001577106" lon="9.106831903499922"><ele>96.0</ele><time>2026-04-18T07:49:56.996Z</time></trkpt><trkpt lat="45.3181599891901" lon="9.106878147441657"><ele>96.0</ele><time>2026-04-18T07:49:58.996Z</time></trkpt><trkpt lat="45.31808086070551" lon="9.106913413396427"><ele>96.0</ele><time>2026-04-18T07:50:00.996Z</time></trkpt><trkpt lat="45.31801095155413" lon="9.106952282857648"><ele>96.0</ele><time>2026-04-18T07:50:02.996Z</time></trkpt><trkpt lat="45.31794237490877" lon="9.106975138444275"><ele>96.0</ele><time>2026-04-18T07:50:04.996Z</time></trkpt><trkpt lat="45.31787765806695" lon="9.106997249336635"><ele>96.0</ele><time>2026-04-18T07:50:06.996Z</time></trkpt><trkpt lat="45.3177904087962" lon="9.10699942479139"><ele>96.14285714285714</ele><time>2026-04-18T07:50:09.996Z</time></trkpt><trkpt lat="45.317725848514115" lon="9.10700552812229"><ele>96.28571428571428</ele><time>2026-04-18T07:50:11.996Z</time></trkpt><trkpt lat="45.317649092979856" lon="9.107040946988416"><ele>96.42857142857142</ele><time>2026-04-18T07:50:14.995Z</time></trkpt><trkpt lat="45.31758168707862" lon="9.107051651452746"><ele>96.57142857142857</ele><time>2026-04-18T07:50:17.995Z</time></trkpt><trkpt lat="45.317520912602724" lon="9.107079457354052"><ele>96.71428571428572</ele><time>2026-04-18T07:50:19.995Z</time></trkpt><trkpt lat="45.317455383333765" lon="9.107092772048688"><ele>96.85714285714285</ele><time>2026-04-18T07:50:21.995Z</time></trkpt><trkpt lat="45.31738651906946" lon="9.107127865208168"><ele>97.0</ele><time>2026-04-18T07:50:23.995Z</time></trkpt><trkpt lat="45.31731612637392" lon="9.107133109085279"><ele>97.00000000000001</ele><time>2026-04-18T07:50:26.995Z</time></trkpt><trkpt lat="45.3172619610799" lon="9.107186122127997"><ele>97.0</ele><time>2026-04-18T07:51:32.996Z</time></trkpt><trkpt lat="45.317171147377344" lon="9.107219966211598"><ele>97.0</ele><time>2026-04-18T07:51:35.996Z</time></trkpt><trkpt lat="45.317088804806396" lon="9.107247348127727"><ele>97.0</ele><time>2026-04-18T07:51:37.996Z</time></trkpt><trkpt lat="45.3170022309308" lon="9.107276647509432"><ele>97.00000000000001</ele><time>2026-04-18T07:51:39.996Z</time></trkpt><trkpt lat="45.31691872004223" lon="9.107292497616912"><ele>97.0</ele><time>2026-04-18T07:51:41.996Z</time></trkpt><trkpt lat="45.31682012906456" lon="9.107334385312567"><ele>97.0</ele><time>2026-04-18T07:51:43.996Z</time></trkpt><trkpt lat="45.31673637333259" lon="9.107361109826554"><ele>97.0</ele><time>2026-04-18T07:51:45.996Z</time></trkpt><trkpt lat="45.31663105360659" lon="9.107379421532102"><ele>97.0</ele><time>2026-04-18T07:51:47.996Z</time></trkpt><trkpt lat="45.31651226233901" lon="9.107412926439686"><ele>97.0</ele><time>2026-04-18T07:51:49.996Z</time></trkpt><trkpt lat="45.31639928648834" lon="9.107440611502115"><ele>97.0</ele><time>2026-04-18T07:51:51.996Z</time></trkpt><trkpt lat="45.316284593236375" lon="9.107453025397863"><ele>96.8</ele><time>2026-04-18T07:51:53.996Z</time></trkpt><trkpt lat="45.31617471716281" lon="9.107466892059144"><ele>96.6</ele><time>2026-04-18T07:51:55.996Z</time></trkpt><trkpt lat="45.31606656266258" lon="9.107469278746636"><ele>96.39999999999999</ele><time>2026-04-18T07:51:57.996Z</time></trkpt><trkpt lat="45.3159548069102" lon="9.107466430796181"><ele>96.19999999999999</ele><time>2026-04-18T07:51:59.996Z</time></trkpt><trkpt lat="45.31589006047066" lon="9.107462994200967"><ele>96.0</ele><time>2026-04-18T07:52:00.996Z</time></trkpt><trkpt lat="45.31576719896264" lon="9.107466232760649"><ele>96.0</ele><time>2026-04-18T07:52:02.996Z</time></trkpt><trkpt lat="45.31565252865491" lon="9.10746858767503"><ele>96.0</ele><time>2026-04-18T07:52:04.996Z</time></trkpt><trkpt lat="45.31554228601819" lon="9.107473545390556"><ele>96.0</ele><time>2026-04-18T07:52:06.996Z</time></trkpt><trkpt lat="45.31541894667701" lon="9.107476473654387"><ele>96.0</ele><time>2026-04-18T07:52:08.996Z</time></trkpt><trkpt lat="45.31530953094939" lon="9.107478853971765"><ele>95.8</ele><time>2026-04-18T07:52:10.996Z</time></trkpt><trkpt lat="45.31520687137215" lon="9.107484085001994"><ele>95.6</ele><time>2026-04-18T07:52:12.996Z</time></trkpt><trkpt lat="45.31509725145881" lon="9.107493025817092"><ele>95.4</ele><time>2026-04-18T07:52:14.995Z</time></trkpt><trkpt lat="45.31498968708236" lon="9.107484749273775"><ele>95.2</ele><time>2026-04-18T07:52:16.995Z</time></trkpt><trkpt lat="45.31488586814715" lon="9.107489699298617"><ele>95.0</ele><time>2026-04-18T07:52:18.995Z</time></trkpt><trkpt lat="45.314775687836466" lon="9.107470415858074"><ele>94.6</ele><time>2026-04-18T07:52:20.995Z</time></trkpt><trkpt lat="45.3146655650974" lon="9.107462079531645"><ele>94.2</ele><time>2026-04-18T07:52:22.995Z</time></trkpt><trkpt lat="45.31455303249595" lon="9.10745916713315"><ele>93.80000000000001</ele><time>2026-04-18T07:52:24.995Z</time></trkpt><trkpt lat="45.31444727617493" lon="9.107456473727458"><ele>93.4</ele><time>2026-04-18T07:52:26.995Z</time></trkpt><trkpt lat="45.314334368241894" lon="9.107462903998929"><ele>93.0</ele><time>2026-04-18T07:52:28.995Z</time></trkpt><trkpt lat="45.31422220775278" lon="9.107462440874837"><ele>93.0</ele><time>2026-04-18T07:52:30.995Z</time></trkpt><trkpt lat="45.31410342370256" lon="9.107476138545167"><ele>93.0</ele><time>2026-04-18T07:52:32.995Z</time></trkpt><trkpt lat="45.31398645746993" lon="9.107502419490876"><ele>93.0</ele><time>2026-04-18T07:52:34.995Z</time></trkpt><trkpt lat="45.31387731249246" lon="9.107529466377809"><ele>93.0</ele><time>2026-04-18T07:52:36.995Z</time></trkpt><trkpt lat="45.31377040961364" lon="9.107562945817268"><ele>93.2</ele><time>2026-04-18T07:52:38.995Z</time></trkpt><trkpt lat="45.31366656517174" lon="9.107586378114805"><ele>93.4</ele><time>2026-04-18T07:52:40.995Z</time></trkpt><trkpt lat="45.31355212825293" lon="9.10762531402331"><ele>93.60000000000001</ele><time>2026-04-18T07:52:42.996Z</time></trkpt><trkpt lat="45.313445369917474" lon="9.107658906622948"><ele>93.80000000000001</ele><time>2026-04-18T07:52:44.996Z</time></trkpt><trkpt lat="45.31333984732431" lon="9.10770256458298"><ele>94.0</ele><time>2026-04-18T07:52:46.996Z</time></trkpt><trkpt lat="45.31322619320461" lon="9.107753734782422"><ele>94.0</ele><time>2026-04-18T07:52:48.997Z</time></trkpt><trkpt lat="45.313166111529185" lon="9.107781750895617"><ele>94.0</ele><time>2026-04-18T07:52:49.996Z</time></trkpt><trkpt lat="45.31305568119032" lon="9.107826636637807"><ele>94.0</ele><time>2026-04-18T07:52:51.996Z</time></trkpt><trkpt lat="45.312948937369775" lon="9.107868854627005"><ele>94.0</ele><time>2026-04-18T07:52:53.996Z</time></trkpt><trkpt lat="45.31283516188585" lon="9.107912394914967"><ele>94.0</ele><time>2026-04-18T07:52:55.996Z</time></trkpt><trkpt lat="45.312724499996285" lon="9.107949601312614"><ele>93.75</ele><time>2026-04-18T07:52:57.996Z</time></trkpt><trkpt lat="45.312617243911795" lon="9.107992674428088"><ele>93.5</ele><time>2026-04-18T07:52:59.996Z</time></trkpt><trkpt lat="45.31250654404807" lon="9.108032968753747"><ele>93.25</ele><time>2026-04-18T07:53:01.996Z</time></trkpt><trkpt lat="45.312398757742606" lon="9.10806522147133"><ele>93.0</ele><time>2026-04-18T07:53:03.996Z</time></trkpt><trkpt lat="45.31228378204294" lon="9.10810407914692"><ele>93.0</ele><time>2026-04-18T07:53:05.996Z</time></trkpt><trkpt lat="45.31217397764438" lon="9.108149930267757"><ele>93.0</ele><time>2026-04-18T07:53:07.996Z</time></trkpt><trkpt lat="45.31206488960639" lon="9.108186266097565"><ele>93.0</ele><time>2026-04-18T07:53:09.996Z</time></trkpt><trkpt lat="45.31195465666601" lon="9.10823057455476"><ele>93.0</ele><time>2026-04-18T07:53:11.996Z</time></trkpt><trkpt lat="45.31184231462676" lon="9.1082716644209"><ele>93.0</ele><time>2026-04-18T07:53:13.996Z</time></trkpt><trkpt lat="45.31172479541469" lon="9.10831443472081"><ele>93.0</ele><time>2026-04-18T07:53:15.996Z</time></trkpt><trkpt lat="45.31161434850345" lon="9.108356380541942"><ele>93.0</ele><time>2026-04-18T07:53:17.996Z</time></trkpt><trkpt lat="45.31150333427058" lon="9.108393175883318"><ele>93.0</ele><time>2026-04-18T07:53:19.996Z</time></trkpt><trkpt lat="45.311391154915285" lon="9.108430131470236"><ele>93.2</ele><time>2026-04-18T07:53:21.996Z</time></trkpt><trkpt lat="45.311283005976215" lon="9.108472659522473"><ele>93.4</ele><time>2026-04-18T07:53:23.996Z</time></trkpt><trkpt lat="45.31122010680513" lon="9.108497043833724"><ele>93.60000000000001</ele><time>2026-04-18T07:53:24.996Z</time></trkpt><trkpt lat="45.31110649252608" lon="9.108541500077614"><ele>93.80000000000001</ele><time>2026-04-18T07:53:26.996Z</time></trkpt><trkpt lat="45.31099646291353" lon="9.108584320264189"><ele>94.0</ele><time>2026-04-18T07:53:28.996Z</time></trkpt><trkpt lat="45.31088957058553" lon="9.108628262097536"><ele>94.0</ele><time>2026-04-18T07:53:30.996Z</time></trkpt><trkpt lat="45.31078056765296" lon="9.108670003672058"><ele>94.0</ele><time>2026-04-18T07:53:32.995Z</time></trkpt><trkpt lat="45.31066518133687" lon="9.108722109643667"><ele>94.0</ele><time>2026-04-18T07:53:34.995Z</time></trkpt><trkpt lat="45.31054834050034" lon="9.108765462615965"><ele>94.0</ele><time>2026-04-18T07:53:36.995Z</time></trkpt><trkpt lat="45.31043496183931" lon="9.10881217083748"><ele>94.2</ele><time>2026-04-18T07:53:38.995Z</time></trkpt><trkpt lat="45.310314406445926" lon="9.108844706385032"><ele>94.4</ele><time>2026-04-18T07:53:40.995Z</time></trkpt><trkpt lat="45.31019960851126" lon="9.108891014816285"><ele>94.6</ele><time>2026-04-18T07:53:42.995Z</time></trkpt><trkpt lat="45.310080560036475" lon="9.108935257590446"><ele>94.8</ele><time>2026-04-18T07:53:44.995Z</time></trkpt><trkpt lat="45.31001842155856" lon="9.108959123322219"><ele>95.0</ele><time>2026-04-18T07:53:45.995Z</time></trkpt><trkpt lat="45.30989291239802" lon="9.108993992667822"><ele>95.0</ele><time>2026-04-18T07:53:47.995Z</time></trkpt><trkpt lat="45.30978079248869" lon="9.109047718457441"><ele>95.0</ele><time>2026-04-18T07:53:49.995Z</time></trkpt><trkpt lat="45.3096652635452" lon="9.109092650240527"><ele>95.0</ele><time>2026-04-18T07:53:51.995Z</time></trkpt><trkpt lat="45.30955490888581" lon="9.10914125091868"><ele>95.0</ele><time>2026-04-18T07:53:53.995Z</time></trkpt><trkpt lat="45.30943798699621" lon="9.109181766074348"><ele>94.5</ele><time>2026-04-18T07:53:55.995Z</time></trkpt><trkpt lat="45.3093261178051" lon="9.109218991543607"><ele>94.0</ele><time>2026-04-18T07:53:57.995Z</time></trkpt><trkpt lat="45.30921156496702" lon="9.109268872864362"><ele>93.5</ele><time>2026-04-18T07:53:59.995Z</time></trkpt><trkpt lat="45.309098177645254" lon="9.109317106358796"><ele>93.0</ele><time>2026-04-18T07:54:01.995Z</time></trkpt><trkpt lat="45.30899371686463" lon="9.109356781618347"><ele>93.2</ele><time>2026-04-18T07:54:03.995Z</time></trkpt><trkpt lat="45.30888459288597" lon="9.109392617355761"><ele>93.4</ele><time>2026-04-18T07:54:05.995Z</time></trkpt><trkpt lat="45.30877861046433" lon="9.10943556611263"><ele>93.60000000000001</ele><time>2026-04-18T07:54:07.995Z</time></trkpt><trkpt lat="45.308675949758126" lon="9.109479617615238"><ele>93.80000000000001</ele><time>2026-04-18T07:54:09.995Z</time></trkpt><trkpt lat="45.30856775528216" lon="9.109516439348925"><ele>94.0</ele><time>2026-04-18T07:54:11.995Z</time></trkpt><trkpt lat="45.30845825946156" lon="9.109558765306573"><ele>94.0</ele><time>2026-04-18T07:54:13.995Z</time></trkpt><trkpt lat="45.3083598891192" lon="9.1095957937073"><ele>94.0</ele><time>2026-04-18T07:54:15.995Z</time></trkpt><trkpt lat="45.30825311096286" lon="9.109637961794796"><ele>94.0</ele><time>2026-04-18T07:54:17.995Z</time></trkpt><trkpt lat="45.30814703672662" lon="9.109677823156174"><ele>94.0</ele><time>2026-04-18T07:54:19.995Z</time></trkpt><trkpt lat="45.30804471381357" lon="9.109712329675963"><ele>94.0</ele><time>2026-04-18T07:54:21.995Z</time></trkpt><trkpt lat="45.30793696250934" lon="9.109751150273686"><ele>93.80000000000001</ele><time>2026-04-18T07:54:23.995Z</time></trkpt><trkpt lat="45.30783345718718" lon="9.109787722072774"><ele>93.60000000000001</ele><time>2026-04-18T07:54:25.995Z</time></trkpt><trkpt lat="45.30773024996818" lon="9.109831687400456"><ele>93.4</ele><time>2026-04-18T07:54:27.995Z</time></trkpt><trkpt lat="45.30762631224283" lon="9.10987143525332"><ele>93.2</ele><time>2026-04-18T07:54:29.995Z</time></trkpt><trkpt lat="45.307521474335594" lon="9.109905342143115"><ele>93.0</ele><time>2026-04-18T07:54:31.995Z</time></trkpt><trkpt lat="45.307415403092" lon="9.109946942024223"><ele>93.0</ele><time>2026-04-18T07:54:33.995Z</time></trkpt><trkpt lat="45.30730954917618" lon="9.109988580261621"><ele>93.0</ele><time>2026-04-18T07:54:35.995Z</time></trkpt><trkpt lat="45.30720349581592" lon="9.110026039244934"><ele>93.0</ele><time>2026-04-18T07:54:37.995Z</time></trkpt><trkpt lat="45.30710151682092" lon="9.110065847630533"><ele>93.0</ele><time>2026-04-18T07:54:39.995Z</time></trkpt><trkpt lat="45.30700688432719" lon="9.110099838527008"><ele>93.0</ele><time>2026-04-18T07:54:41.995Z</time></trkpt><trkpt lat="45.30689728102101" lon="9.110132624037302"><ele>93.2</ele><time>2026-04-18T07:54:43.995Z</time></trkpt><trkpt lat="45.30678868368354" lon="9.110181048449515"><ele>93.4</ele><time>2026-04-18T07:54:45.995Z</time></trkpt><trkpt lat="45.30668792210918" lon="9.110212055995374"><ele>93.60000000000001</ele><time>2026-04-18T07:54:47.994Z</time></trkpt><trkpt lat="45.3065852235649" lon="9.110252021511306"><ele>93.80000000000001</ele><time>2026-04-18T07:54:49.996Z</time></trkpt><trkpt lat="45.30648533274287" lon="9.110287672367432"><ele>94.0</ele><time>2026-04-18T07:54:51.997Z</time></trkpt><trkpt lat="45.30638410202655" lon="9.110319470591577"><ele>94.4</ele><time>2026-04-18T07:54:53.996Z</time></trkpt><trkpt lat="45.30628047031835" lon="9.110362084768168"><ele>94.80000000000001</ele><time>2026-04-18T07:54:55.996Z</time></trkpt><trkpt lat="45.30617663176375" lon="9.110402563485247"><ele>95.19999999999999</ele><time>2026-04-18T07:54:57.996Z</time></trkpt><trkpt lat="45.30607822355989" lon="9.110438448161279"><ele>95.6</ele><time>2026-04-18T07:54:59.996Z</time></trkpt><trkpt lat="45.30597479106401" lon="9.110476726031104"><ele>96.0</ele><time>2026-04-18T07:55:01.996Z</time></trkpt><trkpt lat="45.30587430261143" lon="9.110514005651106"><ele>96.0</ele><time>2026-04-18T07:55:03.996Z</time></trkpt><trkpt lat="45.30576557530479" lon="9.110557669726653"><ele>96.0</ele><time>2026-04-18T07:55:05.996Z</time></trkpt><trkpt lat="45.30566379789565" lon="9.11059735036222"><ele>96.0</ele><time>2026-04-18T07:55:07.996Z</time></trkpt><trkpt lat="45.30556738589124" lon="9.110627517914164"><ele>96.0</ele><time>2026-04-18T07:55:09.996Z</time></trkpt><trkpt lat="45.30547052941723" lon="9.110657029590232"><ele>96.0</ele><time>2026-04-18T07:55:11.996Z</time></trkpt><trkpt lat="45.30536430988111" lon="9.110696199946412"><ele>96.0</ele><time>2026-04-18T07:55:13.996Z</time></trkpt><trkpt lat="45.30526479001955" lon="9.110738207889925"><ele>96.0</ele><time>2026-04-18T07:55:15.996Z</time></trkpt><trkpt lat="45.30515778168773" lon="9.110768739084708"><ele>96.0</ele><time>2026-04-18T07:55:17.996Z</time></trkpt><trkpt lat="45.30505773817591" lon="9.110799818633017"><ele>96.0</ele><time>2026-04-18T07:55:19.996Z</time></trkpt><trkpt lat="45.30494724892358" lon="9.110837970759915"><ele>96.0</ele><time>2026-04-18T07:55:21.996Z</time></trkpt><trkpt lat="45.30483935320062" lon="9.110872561718933"><ele>95.4</ele><time>2026-04-18T07:55:23.996Z</time></trkpt><trkpt lat="45.30474079245206" lon="9.110901753296645"><ele>94.8</ele><time>2026-04-18T07:55:25.996Z</time></trkpt><trkpt lat="45.304625641489146" lon="9.110957638153053"><ele>94.2</ele><time>2026-04-18T07:55:27.996Z</time></trkpt><trkpt lat="45.30451549260476" lon="9.110998764707926"><ele>93.60000000000001</ele><time>2026-04-18T07:55:29.996Z</time></trkpt><trkpt lat="45.304409419755316" lon="9.111041749470953"><ele>93.0</ele><time>2026-04-18T07:55:31.996Z</time></trkpt><trkpt lat="45.304306977121556" lon="9.111084499718396"><ele>93.0</ele><time>2026-04-18T07:55:33.996Z</time></trkpt><trkpt lat="45.304197960463256" lon="9.111122706703226"><ele>93.0</ele><time>2026-04-18T07:55:35.996Z</time></trkpt><trkpt lat="45.30409353727225" lon="9.111167392969293"><ele>93.0</ele><time>2026-04-18T07:55:37.996Z</time></trkpt><trkpt lat="45.3039894313556" lon="9.111216524453756"><ele>93.0</ele><time>2026-04-18T07:55:39.996Z</time></trkpt><trkpt lat="45.30387632903595" lon="9.111260032897475"><ele>93.0</ele><time>2026-04-18T07:55:41.996Z</time></trkpt><trkpt lat="45.303778383783346" lon="9.111299844374283"><ele>92.80000000000001</ele><time>2026-04-18T07:55:43.996Z</time></trkpt><trkpt lat="45.30366623876269" lon="9.111337557461523"><ele>92.6</ele><time>2026-04-18T07:55:45.996Z</time></trkpt><trkpt lat="45.303555278943335" lon="9.111380562217402"><ele>92.4</ele><time>2026-04-18T07:55:47.996Z</time></trkpt><trkpt lat="45.303451969385875" lon="9.111419183155002"><ele>92.19999999999999</ele><time>2026-04-18T07:55:49.996Z</time></trkpt><trkpt lat="45.30334608206004" lon="9.111456473789383"><ele>92.0</ele><time>2026-04-18T07:55:51.996Z</time></trkpt><trkpt lat="45.303246709259184" lon="9.111489448868044"><ele>92.0</ele><time>2026-04-18T07:55:53.995Z</time></trkpt><trkpt lat="45.30313902505469" lon="9.111535040059263"><ele>92.0</ele><time>2026-04-18T07:55:55.995Z</time></trkpt><trkpt lat="45.303035969480476" lon="9.111577912472198"><ele>92.0</ele><time>2026-04-18T07:55:57.995Z</time></trkpt><trkpt lat="45.30293424434689" lon="9.11161451412971"><ele>92.0</ele><time>2026-04-18T07:55:59.995Z</time></trkpt><trkpt lat="45.30282689986803" lon="9.111649845547033"><ele>92.0</ele><time>2026-04-18T07:56:01.995Z</time></trkpt><trkpt lat="45.30272317564121" lon="9.111689050987861"><ele>92.0</ele><time>2026-04-18T07:56:03.995Z</time></trkpt><trkpt lat="45.30262034566216" lon="9.11173296817597"><ele>92.0</ele><time>2026-04-18T07:56:05.995Z</time></trkpt><trkpt lat="45.302512564157574" lon="9.111771754044055"><ele>92.0</ele><time>2026-04-18T07:56:07.995Z</time></trkpt><trkpt lat="45.30241450818258" lon="9.111803680419682"><ele>92.0</ele><time>2026-04-18T07:56:09.995Z</time></trkpt><trkpt lat="45.30232198428101" lon="9.111831139072093"><ele>92.0</ele><time>2026-04-18T07:56:11.995Z</time></trkpt><trkpt lat="45.302218730936424" lon="9.111873202938733"><ele>92.0</ele><time>2026-04-18T07:56:13.995Z</time></trkpt><trkpt lat="45.30211698288892" lon="9.111912425318494"><ele>92.0</ele><time>2026-04-18T07:56:15.995Z</time></trkpt><trkpt lat="45.30201668347119" lon="9.111949493778683"><ele>92.0</ele><time>2026-04-18T07:56:17.995Z</time></trkpt><trkpt lat="45.30192149191867" lon="9.111983385277066"><ele>92.0</ele><time>2026-04-18T07:56:19.995Z</time></trkpt><trkpt lat="45.30182721693531" lon="9.11202134129278"><ele>92.0</ele><time>2026-04-18T07:56:21.995Z</time></trkpt><trkpt lat="45.30172237722414" lon="9.112066351724701"><ele>92.0</ele><time>2026-04-18T07:56:23.995Z</time></trkpt><trkpt lat="45.301624632838696" lon="9.112105991370507"><ele>92.0</ele><time>2026-04-18T07:56:25.995Z</time></trkpt><trkpt lat="45.301520589269835" lon="9.11215138012254"><ele>92.0</ele><time>2026-04-18T07:56:27.995Z</time></trkpt><trkpt lat="45.30141394788739" lon="9.11219584043812"><ele>92.0</ele><time>2026-04-18T07:56:29.995Z</time></trkpt><trkpt lat="45.301318243547804" lon="9.112237218327738"><ele>92.0</ele><time>2026-04-18T07:56:31.995Z</time></trkpt><trkpt lat="45.30121274254493" lon="9.112285166582556"><ele>92.0</ele><time>2026-04-18T07:56:33.995Z</time></trkpt><trkpt lat="45.30110538617018" lon="9.112320152533618"><ele>92.0</ele><time>2026-04-18T07:56:35.995Z</time></trkpt><trkpt lat="45.30100065305082" lon="9.112365613158412"><ele>92.0</ele><time>2026-04-18T07:56:37.995Z</time></trkpt><trkpt lat="45.30089784748295" lon="9.112410355660597"><ele>92.0</ele><time>2026-04-18T07:56:39.995Z</time></trkpt><trkpt lat="45.30079768907708" lon="9.112446228419161"><ele>92.0</ele><time>2026-04-18T07:56:41.995Z</time></trkpt><trkpt lat="45.300691598287735" lon="9.112489848480703"><ele>92.0</ele><time>2026-04-18T07:56:43.995Z</time></trkpt><trkpt lat="45.300588527058316" lon="9.112539222962777"><ele>92.0</ele><time>2026-04-18T07:56:45.995Z</time></trkpt><trkpt lat="45.30048327978043" lon="9.112583798187067"><ele>92.0</ele><time>2026-04-18T07:56:47.995Z</time></trkpt><trkpt lat="45.30038013880516" lon="9.112616310083515"><ele>92.0</ele><time>2026-04-18T07:56:49.995Z</time></trkpt><trkpt lat="45.30027066960933" lon="9.112646627965757"><ele>92.0</ele><time>2026-04-18T07:56:51.995Z</time></trkpt><trkpt lat="45.300178098066" lon="9.112676850098827"><ele>92.0</ele><time>2026-04-18T07:56:53.995Z</time></trkpt><trkpt lat="45.300069055820785" lon="9.11271850926677"><ele>92.0</ele><time>2026-04-18T07:56:55.996Z</time></trkpt><trkpt lat="45.299962867807146" lon="9.112760687599897"><ele>92.0</ele><time>2026-04-18T07:56:57.996Z</time></trkpt><trkpt lat="45.29985506532331" lon="9.11279827307441"><ele>92.0</ele><time>2026-04-18T07:56:59.996Z</time></trkpt><trkpt lat="45.29974527221372" lon="9.11283806183103"><ele>92.0</ele><time>2026-04-18T07:57:01.996Z</time></trkpt><trkpt lat="45.29963377766257" lon="9.112879741471309"><ele>91.75</ele><time>2026-04-18T07:57:03.996Z</time></trkpt><trkpt lat="45.299522209026435" lon="9.112926835021726"><ele>91.5</ele><time>2026-04-18T07:57:05.996Z</time></trkpt><trkpt lat="45.29941937245654" lon="9.112959054934139"><ele>91.25</ele><time>2026-04-18T07:57:07.996Z</time></trkpt><trkpt lat="45.299302605210144" lon="9.112997707688594"><ele>91.0</ele><time>2026-04-18T07:57:09.996Z</time></trkpt><trkpt lat="45.29919013803688" lon="9.113041928127505"><ele>91.0</ele><time>2026-04-18T07:57:11.996Z</time></trkpt><trkpt lat="45.29907651907465" lon="9.11308286380826"><ele>91.0</ele><time>2026-04-18T07:57:13.996Z</time></trkpt><trkpt lat="45.29896528370209" lon="9.113120105078556"><ele>91.0</ele><time>2026-04-18T07:57:15.996Z</time></trkpt><trkpt lat="45.29884523709539" lon="9.113165295376618"><ele>91.0</ele><time>2026-04-18T07:57:17.996Z</time></trkpt><trkpt lat="45.298739594447845" lon="9.113205606276168"><ele>91.5</ele><time>2026-04-18T07:57:19.996Z</time></trkpt><trkpt lat="45.298626530809166" lon="9.113243994113661"><ele>92.0</ele><time>2026-04-18T07:57:21.996Z</time></trkpt><trkpt lat="45.29850712514598" lon="9.113289484897436"><ele>92.5</ele><time>2026-04-18T07:57:23.996Z</time></trkpt><trkpt lat="45.29839328282997" lon="9.11332976121539"><ele>93.0</ele><time>2026-04-18T07:57:25.996Z</time></trkpt><trkpt lat="45.29829126870921" lon="9.113362184993123"><ele>93.0</ele><time>2026-04-18T07:57:27.996Z</time></trkpt><trkpt lat="45.29822852471853" lon="9.11338351988722"><ele>93.0</ele><time>2026-04-18T07:57:28.996Z</time></trkpt><trkpt lat="45.298115101412755" lon="9.113433447298668"><ele>93.0</ele><time>2026-04-18T07:57:30.996Z</time></trkpt><trkpt lat="45.298001850128365" lon="9.113477292090552"><ele>93.0</ele><time>2026-04-18T07:57:32.996Z</time></trkpt><trkpt lat="45.29789097130117" lon="9.113515247623816"><ele>93.0</ele><time>2026-04-18T07:57:34.996Z</time></trkpt><trkpt lat="45.29777747303226" lon="9.113558121363491"><ele>93.2</ele><time>2026-04-18T07:57:36.996Z</time></trkpt><trkpt lat="45.297714383068566" lon="9.113581616826492"><ele>93.4</ele><time>2026-04-18T07:57:37.996Z</time></trkpt><trkpt lat="45.29760418196718" lon="9.113617967377088"><ele>93.60000000000001</ele><time>2026-04-18T07:57:39.996Z</time></trkpt><trkpt lat="45.29749363090471" lon="9.113669503578244"><ele>93.80000000000001</ele><time>2026-04-18T07:57:41.995Z</time></trkpt><trkpt lat="45.29738501400688" lon="9.113707565796991"><ele>94.0</ele><time>2026-04-18T07:57:43.995Z</time></trkpt><trkpt lat="45.29727693923849" lon="9.113758744523517"><ele>93.75</ele><time>2026-04-18T07:57:45.995Z</time></trkpt><trkpt lat="45.2971630126165" lon="9.113801681036302"><ele>93.5</ele><time>2026-04-18T07:57:47.995Z</time></trkpt><trkpt lat="45.297058940910084" lon="9.113826935519995"><ele>93.25</ele><time>2026-04-18T07:57:49.995Z</time></trkpt><trkpt lat="45.29695891829522" lon="9.113874451556399"><ele>93.0</ele><time>2026-04-18T07:57:51.995Z</time></trkpt><trkpt lat="45.29684164119724" lon="9.113927850261287"><ele>93.0</ele><time>2026-04-18T07:57:53.995Z</time></trkpt><trkpt lat="45.29673008775736" lon="9.11396504678008"><ele>93.0</ele><time>2026-04-18T07:57:55.995Z</time></trkpt><trkpt lat="45.29662447674422" lon="9.11400678166342"><ele>93.0</ele><time>2026-04-18T07:57:57.995Z</time></trkpt><trkpt lat="45.29651587352853" lon="9.114052887938872"><ele>93.0</ele><time>2026-04-18T07:57:59.995Z</time></trkpt><trkpt lat="45.29640201356255" lon="9.114089494393628"><ele>92.5</ele><time>2026-04-18T07:58:01.995Z</time></trkpt><trkpt lat="45.29628684133037" lon="9.114123043606313"><ele>92.0</ele><time>2026-04-18T07:58:03.995Z</time></trkpt><trkpt lat="45.296173928410965" lon="9.114161980786598"><ele>91.5</ele><time>2026-04-18T07:58:05.995Z</time></trkpt><trkpt lat="45.29605449545264" lon="9.114208558171653"><ele>91.0</ele><time>2026-04-18T07:58:07.995Z</time></trkpt><trkpt lat="45.2959464796107" lon="9.114247721235783"><ele>91.0</ele><time>2026-04-18T07:58:09.995Z</time></trkpt><trkpt lat="45.295832927565534" lon="9.114291481547882"><ele>91.0</ele><time>2026-04-18T07:58:11.995Z</time></trkpt><trkpt lat="45.295723858638844" lon="9.11433834380245"><ele>91.0</ele><time>2026-04-18T07:58:13.995Z</time></trkpt><trkpt lat="45.29560282238238" lon="9.114383832966816"><ele>91.0</ele><time>2026-04-18T07:58:15.995Z</time></trkpt><trkpt lat="45.29549645353477" lon="9.114431787338493"><ele>91.0</ele><time>2026-04-18T07:58:17.995Z</time></trkpt><trkpt lat="45.29538177782109" lon="9.114470250272127"><ele>91.0</ele><time>2026-04-18T07:58:19.995Z</time></trkpt><trkpt lat="45.29527616628151" lon="9.114505517643451"><ele>91.0</ele><time>2026-04-18T07:58:21.995Z</time></trkpt><trkpt lat="45.295161526791844" lon="9.114556515609177"><ele>91.0</ele><time>2026-04-18T07:58:23.995Z</time></trkpt><trkpt lat="45.29505250474587" lon="9.11459286447657"><ele>91.0</ele><time>2026-04-18T07:58:25.995Z</time></trkpt><trkpt lat="45.294942251914755" lon="9.114627687565958"><ele>91.0</ele><time>2026-04-18T07:58:27.995Z</time></trkpt><trkpt lat="45.29483066933252" lon="9.114662121194046"><ele>91.0</ele><time>2026-04-18T07:58:29.995Z</time></trkpt><trkpt lat="45.29472448701935" lon="9.114708451864958"><ele>91.0</ele><time>2026-04-18T07:58:31.995Z</time></trkpt><trkpt lat="45.294617770507415" lon="9.114752217262687"><ele>91.0</ele><time>2026-04-18T07:58:33.995Z</time></trkpt><trkpt lat="45.294507848728216" lon="9.114799205548879"><ele>91.0</ele><time>2026-04-18T07:58:35.995Z</time></trkpt><trkpt lat="45.29439757178925" lon="9.114842953904857"><ele>91.0</ele><time>2026-04-18T07:58:37.995Z</time></trkpt><trkpt lat="45.294287740339264" lon="9.114883889747794"><ele>91.0</ele><time>2026-04-18T07:58:39.995Z</time></trkpt><trkpt lat="45.29418405807792" lon="9.114921630452807"><ele>91.0</ele><time>2026-04-18T07:58:41.995Z</time></trkpt><trkpt lat="45.29408070809791" lon="9.114968242751894"><ele>91.0</ele><time>2026-04-18T07:58:43.995Z</time></trkpt><trkpt lat="45.29397499121172" lon="9.115004110398614"><ele>91.0</ele><time>2026-04-18T07:58:45.995Z</time></trkpt><trkpt lat="45.293866437418096" lon="9.115050577819432"><ele>91.0</ele><time>2026-04-18T07:58:47.995Z</time></trkpt><trkpt lat="45.29376539605399" lon="9.115086137091101"><ele>91.0</ele><time>2026-04-18T07:58:49.995Z</time></trkpt><trkpt lat="45.293665132952796" lon="9.115121667568676"><ele>91.0</ele><time>2026-04-18T07:58:51.995Z</time></trkpt><trkpt lat="45.29355561340062" lon="9.115158913404253"><ele>91.0</ele><time>2026-04-18T07:58:53.995Z</time></trkpt><trkpt lat="45.293448989796694" lon="9.115194273386923"><ele>91.0</ele><time>2026-04-18T07:58:55.995Z</time></trkpt><trkpt lat="45.293336158407286" lon="9.115236954406965"><ele>91.0</ele><time>2026-04-18T07:58:57.994Z</time></trkpt><trkpt lat="45.29322803009527" lon="9.115277529882423"><ele>91.0</ele><time>2026-04-18T07:58:59.994Z</time></trkpt><trkpt lat="45.293122380600906" lon="9.11531721302324"><ele>91.0</ele><time>2026-04-18T07:59:01.997Z</time></trkpt><trkpt lat="45.29301690963127" lon="9.11535693683755"><ele>91.0</ele><time>2026-04-18T07:59:03.996Z</time></trkpt><trkpt lat="45.29291374524738" lon="9.115394681937419"><ele>90.75</ele><time>2026-04-18T07:59:05.996Z</time></trkpt><trkpt lat="45.29280670392209" lon="9.115440030308621"><ele>90.5</ele><time>2026-04-18T07:59:07.996Z</time></trkpt><trkpt lat="45.29269608509858" lon="9.115483956781707"><ele>90.25</ele><time>2026-04-18T07:59:09.996Z</time></trkpt><trkpt lat="45.2925902839648" lon="9.115518838695042"><ele>90.0</ele><time>2026-04-18T07:59:11.996Z</time></trkpt><trkpt lat="45.29247811731866" lon="9.115566802139284"><ele>90.0</ele><time>2026-04-18T07:59:13.996Z</time></trkpt><trkpt lat="45.29237207926558" lon="9.115606198476659"><ele>90.0</ele><time>2026-04-18T07:59:15.996Z</time></trkpt><trkpt lat="45.29225849112145" lon="9.115651009605031"><ele>90.0</ele><time>2026-04-18T07:59:17.996Z</time></trkpt><trkpt lat="45.29215161030757" lon="9.11569246080608"><ele>90.0</ele><time>2026-04-18T07:59:19.996Z</time></trkpt><trkpt lat="45.29204492392973" lon="9.115729097505913"><ele>90.0</ele><time>2026-04-18T07:59:21.996Z</time></trkpt><trkpt lat="45.29193327217427" lon="9.115775724654855"><ele>90.2</ele><time>2026-04-18T07:59:23.996Z</time></trkpt><trkpt lat="45.291825582463886" lon="9.115813311115376"><ele>90.4</ele><time>2026-04-18T07:59:25.996Z</time></trkpt><trkpt lat="45.29172157152843" lon="9.11585279174283"><ele>90.6</ele><time>2026-04-18T07:59:27.996Z</time></trkpt><trkpt lat="45.29161248796458" lon="9.115894319228504"><ele>90.8</ele><time>2026-04-18T07:59:29.996Z</time></trkpt><trkpt lat="45.29150476855702" lon="9.115932922777402"><ele>91.0</ele><time>2026-04-18T07:59:31.996Z</time></trkpt><trkpt lat="45.29139083296175" lon="9.115981413601792"><ele>91.0</ele><time>2026-04-18T07:59:33.996Z</time></trkpt><trkpt lat="45.29128598304721" lon="9.116017125626374"><ele>91.0</ele><time>2026-04-18T07:59:35.996Z</time></trkpt><trkpt lat="45.29117519263172" lon="9.116054070230565"><ele>91.0</ele><time>2026-04-18T07:59:37.996Z</time></trkpt><trkpt lat="45.2910670958952" lon="9.116094899237812"><ele>91.0</ele><time>2026-04-18T07:59:39.996Z</time></trkpt><trkpt lat="45.29096177230139" lon="9.116131917501948"><ele>91.0</ele><time>2026-04-18T07:59:41.996Z</time></trkpt><trkpt lat="45.290853155110995" lon="9.116175746743036"><ele>91.0</ele><time>2026-04-18T07:59:43.996Z</time></trkpt><trkpt lat="45.29074509367674" lon="9.116219752152244"><ele>91.0</ele><time>2026-04-18T07:59:45.996Z</time></trkpt><trkpt lat="45.29064468972462" lon="9.1162574884953"><ele>91.0</ele><time>2026-04-18T07:59:47.996Z</time></trkpt><trkpt lat="45.29054151926531" lon="9.116294187173004"><ele>91.0</ele><time>2026-04-18T07:59:49.996Z</time></trkpt><trkpt lat="45.29044060970959" lon="9.11633123485465"><ele>91.0</ele><time>2026-04-18T07:59:51.996Z</time></trkpt><trkpt lat="45.29033886785745" lon="9.116369443472477"><ele>91.0</ele><time>2026-04-18T07:59:53.996Z</time></trkpt><trkpt lat="45.290239485180564" lon="9.116407198808806"><ele>91.0</ele><time>2026-04-18T07:59:55.996Z</time></trkpt><trkpt lat="45.29014063301277" lon="9.116447334115565"><ele>91.0</ele><time>2026-04-18T07:59:57.996Z</time></trkpt><trkpt lat="45.29004300802808" lon="9.116481125374435"><ele>91.0</ele><time>2026-04-18T07:59:59.996Z</time></trkpt><trkpt lat="45.28994126774621" lon="9.116526773747914"><ele>91.0</ele><time>2026-04-18T08:00:01.996Z</time></trkpt><trkpt lat="45.289837723800915" lon="9.116562976825218"><ele>90.8</ele><time>2026-04-18T08:00:03.996Z</time></trkpt><trkpt lat="45.28973580966688" lon="9.116597999000387"><ele>90.6</ele><time>2026-04-18T08:00:05.996Z</time></trkpt><trkpt lat="45.2896297367886" lon="9.116643512620772"><ele>90.4</ele><time>2026-04-18T08:00:07.996Z</time></trkpt><trkpt lat="45.28952268973952" lon="9.11668003849381"><ele>90.2</ele><time>2026-04-18T08:00:09.996Z</time></trkpt><trkpt lat="45.28942553160408" lon="9.116721870558674"><ele>90.0</ele><time>2026-04-18T08:00:11.996Z</time></trkpt><trkpt lat="45.28932160715945" lon="9.116760164087683"><ele>90.0</ele><time>2026-04-18T08:00:13.996Z</time></trkpt><trkpt lat="45.28921807849232" lon="9.116800538285922"><ele>90.0</ele><time>2026-04-18T08:00:15.996Z</time></trkpt><trkpt lat="45.28911486039413" lon="9.116842659519287"><ele>90.0</ele><time>2026-04-18T08:00:17.995Z</time></trkpt><trkpt lat="45.28901107819525" lon="9.116875589854725"><ele>90.0</ele><time>2026-04-18T08:00:19.995Z</time></trkpt><trkpt lat="45.28891270832262" lon="9.116910637856263"><ele>90.0</ele><time>2026-04-18T08:00:21.995Z</time></trkpt><trkpt lat="45.28880980669083" lon="9.11695252023957"><ele>90.4</ele><time>2026-04-18T08:00:23.995Z</time></trkpt><trkpt lat="45.288706684280776" lon="9.116994999657225"><ele>90.8</ele><time>2026-04-18T08:00:25.995Z</time></trkpt><trkpt lat="45.288610753799205" lon="9.11702959296359"><ele>91.19999999999999</ele><time>2026-04-18T08:00:27.995Z</time></trkpt><trkpt lat="45.2885054499988" lon="9.117069078442684"><ele>91.6</ele><time>2026-04-18T08:00:29.995Z</time></trkpt><trkpt lat="45.288404706434996" lon="9.117107395390732"><ele>92.0</ele><time>2026-04-18T08:00:31.995Z</time></trkpt><trkpt lat="45.28829877996684" lon="9.117148157124836"><ele>92.0</ele><time>2026-04-18T08:00:33.995Z</time></trkpt><trkpt lat="45.28819544959327" lon="9.117185487770556"><ele>92.0</ele><time>2026-04-18T08:00:35.995Z</time></trkpt><trkpt lat="45.28809112494652" lon="9.117224724939037"><ele>92.0</ele><time>2026-04-18T08:00:37.995Z</time></trkpt><trkpt lat="45.287983312415" lon="9.117272257231383"><ele>92.0</ele><time>2026-04-18T08:00:39.995Z</time></trkpt><trkpt lat="45.28788077723586" lon="9.117310850165907"><ele>92.0</ele><time>2026-04-18T08:00:41.995Z</time></trkpt><trkpt lat="45.28778056745957" lon="9.117349626632784"><ele>92.0</ele><time>2026-04-18T08:00:43.995Z</time></trkpt><trkpt lat="45.28767458501703" lon="9.117389875652673"><ele>92.0</ele><time>2026-04-18T08:00:45.995Z</time></trkpt><trkpt lat="45.28757219178227" lon="9.117425924486577"><ele>92.0</ele><time>2026-04-18T08:00:47.995Z</time></trkpt><trkpt lat="45.28746624275973" lon="9.117469008426516"><ele>92.0</ele><time>2026-04-18T08:00:49.995Z</time></trkpt><trkpt lat="45.287365193692466" lon="9.11751076705663"><ele>92.0</ele><time>2026-04-18T08:00:51.995Z</time></trkpt><trkpt lat="45.287260366608606" lon="9.11754837601219"><ele>92.0</ele><time>2026-04-18T08:00:53.995Z</time></trkpt><trkpt lat="45.28716541027808" lon="9.117585197379771"><ele>92.0</ele><time>2026-04-18T08:00:55.995Z</time></trkpt><trkpt lat="45.28705862616483" lon="9.117625161903986"><ele>92.0</ele><time>2026-04-18T08:00:57.995Z</time></trkpt><trkpt lat="45.286953725818734" lon="9.117663541910188"><ele>92.0</ele><time>2026-04-18T08:00:59.995Z</time></trkpt><trkpt lat="45.28685085182995" lon="9.117708100906434"><ele>92.0</ele><time>2026-04-18T08:01:01.995Z</time></trkpt><trkpt lat="45.286754981819534" lon="9.117745005258305"><ele>92.0</ele><time>2026-04-18T08:01:03.995Z</time></trkpt><trkpt lat="45.286653463690506" lon="9.11777949055706"><ele>92.0</ele><time>2026-04-18T08:01:05.995Z</time></trkpt><trkpt lat="45.286548584030044" lon="9.117816888487571"><ele>92.0</ele><time>2026-04-18T08:01:07.997Z</time></trkpt><trkpt lat="45.286442740357764" lon="9.117854712008352"><ele>92.0</ele><time>2026-04-18T08:01:09.996Z</time></trkpt><trkpt lat="45.28634002522986" lon="9.1178931398204"><ele>92.0</ele><time>2026-04-18T08:01:11.996Z</time></trkpt><trkpt lat="45.28623644728315" lon="9.117937143792853"><ele>91.6</ele><time>2026-04-18T08:01:13.996Z</time></trkpt><trkpt lat="45.28613425704676" lon="9.117972100763224"><ele>91.19999999999999</ele><time>2026-04-18T08:01:15.996Z</time></trkpt><trkpt lat="45.2860334316927" lon="9.118008838690836"><ele>90.8</ele><time>2026-04-18T08:01:17.996Z</time></trkpt><trkpt lat="45.2859260017172" lon="9.118045901803203"><ele>90.4</ele><time>2026-04-18T08:01:19.996Z</time></trkpt><trkpt lat="45.28582123583597" lon="9.118079460872949"><ele>90.0</ele><time>2026-04-18T08:01:21.996Z</time></trkpt><trkpt lat="45.28572108795215" lon="9.118120641084442"><ele>90.0</ele><time>2026-04-18T08:01:23.996Z</time></trkpt><trkpt lat="45.285628182094364" lon="9.118153451779197"><ele>90.0</ele><time>2026-04-18T08:01:25.996Z</time></trkpt><trkpt lat="45.285533160914554" lon="9.11819302282479"><ele>90.0</ele><time>2026-04-18T08:01:27.996Z</time></trkpt><trkpt lat="45.28543820642712" lon="9.118234295019784"><ele>90.0</ele><time>2026-04-18T08:01:29.996Z</time></trkpt><trkpt lat="45.28536252346036" lon="9.118265406151506"><ele>90.0</ele><time>2026-04-18T08:01:31.996Z</time></trkpt><trkpt lat="45.28527862410145" lon="9.118299144338957"><ele>90.0</ele><time>2026-04-18T08:01:33.996Z</time></trkpt><trkpt lat="45.285167322632354" lon="9.118331677829907"><ele>90.0</ele><time>2026-04-18T08:01:35.996Z</time></trkpt><trkpt lat="45.28505194027664" lon="9.118377707248023"><ele>90.0</ele><time>2026-04-18T08:01:37.996Z</time></trkpt><trkpt lat="45.28494081496072" lon="9.1184336669871"><ele>90.0</ele><time>2026-04-18T08:01:39.996Z</time></trkpt><trkpt lat="45.284835501910685" lon="9.118471017377836"><ele>89.8</ele><time>2026-04-18T08:01:41.996Z</time></trkpt><trkpt lat="45.28473474931753" lon="9.118503012853427"><ele>89.6</ele><time>2026-04-18T08:01:43.996Z</time></trkpt><trkpt lat="45.28462650772578" lon="9.118549402903959"><ele>89.4</ele><time>2026-04-18T08:01:45.996Z</time></trkpt><trkpt lat="45.28452583439957" lon="9.11858545428125"><ele>89.2</ele><time>2026-04-18T08:01:47.996Z</time></trkpt><trkpt lat="45.28443469454127" lon="9.11862032787027"><ele>89.0</ele><time>2026-04-18T08:01:49.996Z</time></trkpt><trkpt lat="45.284362043996275" lon="9.118643675014631"><ele>89.0</ele><time>2026-04-18T08:01:51.996Z</time></trkpt><trkpt lat="45.28428387360461" lon="9.118673463460267"><ele>89.0</ele><time>2026-04-18T08:01:54.996Z</time></trkpt><trkpt lat="45.28419692703135" lon="9.118699377537462"><ele>89.0</ele><time>2026-04-18T08:01:57.995Z</time></trkpt><trkpt lat="45.28412840946125" lon="9.11873960543546"><ele>89.0</ele><time>2026-04-18T08:01:59.995Z</time></trkpt><trkpt lat="45.284061944926165" lon="9.118762201429233"><ele>89.0</ele><time>2026-04-18T08:02:01.995Z</time></trkpt><trkpt lat="45.28396271963852" lon="9.118788557921429"><ele>89.0</ele><time>2026-04-18T08:02:03.995Z</time></trkpt><trkpt lat="45.28386021287693" lon="9.118828968817157"><ele>89.2</ele><time>2026-04-18T08:02:05.995Z</time></trkpt><trkpt lat="45.28375624887767" lon="9.118862454575837"><ele>89.4</ele><time>2026-04-18T08:02:07.995Z</time></trkpt><trkpt lat="45.283659917803774" lon="9.118893349644102"><ele>89.6</ele><time>2026-04-18T08:02:09.995Z</time></trkpt><trkpt lat="45.283566451420924" lon="9.1189300230395"><ele>89.8</ele><time>2026-04-18T08:02:11.995Z</time></trkpt><trkpt lat="45.28347121885625" lon="9.11896161400045"><ele>90.0</ele><time>2026-04-18T08:02:13.995Z</time></trkpt><trkpt lat="45.28337730802895" lon="9.119002815260828"><ele>90.0</ele><time>2026-04-18T08:02:15.995Z</time></trkpt><trkpt lat="45.2832657366398" lon="9.119043783263411"><ele>90.0</ele><time>2026-04-18T08:02:17.995Z</time></trkpt><trkpt lat="45.28316699513391" lon="9.119081153854966"><ele>90.0</ele><time>2026-04-18T08:02:19.995Z</time></trkpt><trkpt lat="45.28306509256868" lon="9.119116543834684"><ele>90.0</ele><time>2026-04-18T08:02:21.995Z</time></trkpt><trkpt lat="45.28296670428798" lon="9.119152378308446"><ele>90.0</ele><time>2026-04-18T08:02:23.995Z</time></trkpt><trkpt lat="45.28286499189003" lon="9.119189620445194"><ele>89.8</ele><time>2026-04-18T08:02:25.995Z</time></trkpt><trkpt lat="45.28276070329392" lon="9.11922841227313"><ele>89.6</ele><time>2026-04-18T08:02:27.995Z</time></trkpt><trkpt lat="45.28265333463638" lon="9.119268255752196"><ele>89.4</ele><time>2026-04-18T08:02:29.995Z</time></trkpt><trkpt lat="45.282551455515865" lon="9.119307748423441"><ele>89.2</ele><time>2026-04-18T08:02:31.995Z</time></trkpt><trkpt lat="45.282450375046146" lon="9.119340313975524"><ele>89.0</ele><time>2026-04-18T08:02:33.995Z</time></trkpt><trkpt lat="45.2823472658448" lon="9.119372699561893"><ele>89.2</ele><time>2026-04-18T08:02:35.995Z</time></trkpt><trkpt lat="45.282248006093816" lon="9.119416303578486"><ele>89.4</ele><time>2026-04-18T08:02:37.995Z</time></trkpt><trkpt lat="45.282148877052876" lon="9.119448857392989"><ele>89.6</ele><time>2026-04-18T08:02:39.995Z</time></trkpt><trkpt lat="45.282044811282574" lon="9.119492872755451"><ele>89.8</ele><time>2026-04-18T08:02:41.995Z</time></trkpt><trkpt lat="45.2819454157169" lon="9.119530199091978"><ele>90.0</ele><time>2026-04-18T08:02:43.995Z</time></trkpt><trkpt lat="45.281840124481235" lon="9.119573047570874"><ele>90.0</ele><time>2026-04-18T08:02:45.995Z</time></trkpt><trkpt lat="45.28173819572584" lon="9.119620673391841"><ele>90.0</ele><time>2026-04-18T08:02:47.995Z</time></trkpt><trkpt lat="45.2816359089306" lon="9.11965906141077"><ele>90.0</ele><time>2026-04-18T08:02:49.995Z</time></trkpt><trkpt lat="45.28153397645885" lon="9.119701594004145"><ele>90.0</ele><time>2026-04-18T08:02:51.995Z</time></trkpt><trkpt lat="45.28143367273512" lon="9.119739344803728"><ele>90.0</ele><time>2026-04-18T08:02:53.995Z</time></trkpt><trkpt lat="45.28133197504997" lon="9.119779767366909"><ele>89.8</ele><time>2026-04-18T08:02:55.995Z</time></trkpt><trkpt lat="45.2812429902881" lon="9.119808348822811"><ele>89.6</ele><time>2026-04-18T08:02:57.995Z</time></trkpt><trkpt lat="45.28114746331707" lon="9.119834948634473"><ele>89.4</ele><time>2026-04-18T08:02:59.995Z</time></trkpt><trkpt lat="45.2810370051957" lon="9.119887364717883"><ele>89.2</ele><time>2026-04-18T08:03:01.995Z</time></trkpt><trkpt lat="45.28093423951359" lon="9.119924164450998"><ele>89.0</ele><time>2026-04-18T08:03:03.995Z</time></trkpt><trkpt lat="45.2808364478068" lon="9.119963832910639"><ele>89.0</ele><time>2026-04-18T08:03:05.995Z</time></trkpt><trkpt lat="45.28073365669652" lon="9.12001279636657"><ele>89.0</ele><time>2026-04-18T08:03:07.995Z</time></trkpt><trkpt lat="45.28062782453541" lon="9.120049236250576"><ele>89.0</ele><time>2026-04-18T08:03:09.995Z</time></trkpt><trkpt lat="45.28052579024971" lon="9.120077584615897"><ele>89.0</ele><time>2026-04-18T08:03:11.994Z</time></trkpt><trkpt lat="45.28041762927285" lon="9.120120424642353"><ele>89.0</ele><time>2026-04-18T08:03:13.996Z</time></trkpt><trkpt lat="45.280314664984395" lon="9.120161034264118"><ele>88.80000000000001</ele><time>2026-04-18T08:03:15.997Z</time></trkpt><trkpt lat="45.2802168888837" lon="9.120195227743176"><ele>88.60000000000001</ele><time>2026-04-18T08:03:17.996Z</time></trkpt><trkpt lat="45.280115538805426" lon="9.120241527892983"><ele>88.4</ele><time>2026-04-18T08:03:19.997Z</time></trkpt><trkpt lat="45.28001529885019" lon="9.120275418618911"><ele>88.2</ele><time>2026-04-18T08:03:21.997Z</time></trkpt><trkpt lat="45.27992285500519" lon="9.120295673446112"><ele>88.0</ele><time>2026-04-18T08:03:23.996Z</time></trkpt><trkpt lat="45.27981185124491" lon="9.120346036638235"><ele>88.4</ele><time>2026-04-18T08:03:25.996Z</time></trkpt><trkpt lat="45.279707940935374" lon="9.12038843408842"><ele>88.80000000000001</ele><time>2026-04-18T08:03:27.996Z</time></trkpt><trkpt lat="45.27960820499499" lon="9.120422980796304"><ele>89.2</ele><time>2026-04-18T08:03:29.996Z</time></trkpt><trkpt lat="45.27951211964085" lon="9.120448039606398"><ele>89.6</ele><time>2026-04-18T08:03:31.996Z</time></trkpt><trkpt lat="45.279419789838904" lon="9.120473107572193"><ele>90.0</ele><time>2026-04-18T08:03:33.996Z</time></trkpt><trkpt lat="45.27931004610189" lon="9.120519934371659"><ele>90.0</ele><time>2026-04-18T08:03:35.996Z</time></trkpt><trkpt lat="45.27921215927152" lon="9.120556942531145"><ele>90.0</ele><time>2026-04-18T08:03:37.996Z</time></trkpt><trkpt lat="45.279110772760326" lon="9.120597384012504"><ele>90.0</ele><time>2026-04-18T08:03:39.996Z</time></trkpt><trkpt lat="45.279006682690536" lon="9.120636778839485"><ele>90.0</ele><time>2026-04-18T08:03:41.996Z</time></trkpt><trkpt lat="45.27890917264322" lon="9.120670071619095"><ele>90.0</ele><time>2026-04-18T08:03:43.996Z</time></trkpt><trkpt lat="45.27881373421565" lon="9.120706528934095"><ele>90.2</ele><time>2026-04-18T08:03:45.996Z</time></trkpt><trkpt lat="45.27871902718969" lon="9.120739303855073"><ele>90.4</ele><time>2026-04-18T08:03:47.996Z</time></trkpt><trkpt lat="45.27862684659771" lon="9.120779140890201"><ele>90.6</ele><time>2026-04-18T08:03:49.996Z</time></trkpt><trkpt lat="45.278536266434784" lon="9.120813265304708"><ele>90.8</ele><time>2026-04-18T08:03:51.996Z</time></trkpt><trkpt lat="45.278438794197925" lon="9.12085362423359"><ele>91.0</ele><time>2026-04-18T08:03:53.995Z</time></trkpt><trkpt lat="45.27834416028867" lon="9.120878452564067"><ele>91.0</ele><time>2026-04-18T08:03:55.995Z</time></trkpt><trkpt lat="45.27824988483151" lon="9.12091779594931"><ele>91.0</ele><time>2026-04-18T08:03:57.995Z</time></trkpt><trkpt lat="45.2781486888134" lon="9.120955672690696"><ele>91.0</ele><time>2026-04-18T08:03:59.995Z</time></trkpt><trkpt lat="45.27804667159286" lon="9.121006293913869"><ele>91.0</ele><time>2026-04-18T08:04:01.995Z</time></trkpt><trkpt lat="45.27794194365348" lon="9.121049793575594"><ele>91.0</ele><time>2026-04-18T08:04:03.995Z</time></trkpt><trkpt lat="45.27783448278199" lon="9.121090171861992"><ele>90.4</ele><time>2026-04-18T08:04:05.995Z</time></trkpt><trkpt lat="45.27774046274518" lon="9.121128907370508"><ele>89.8</ele><time>2026-04-18T08:04:07.995Z</time></trkpt><trkpt lat="45.2776420945728" lon="9.121164338942814"><ele>89.2</ele><time>2026-04-18T08:04:09.995Z</time></trkpt><trkpt lat="45.277543732092504" lon="9.12119262647636"><ele>88.60000000000001</ele><time>2026-04-18T08:04:11.995Z</time></trkpt><trkpt lat="45.27744429503711" lon="9.121232491711549"><ele>88.0</ele><time>2026-04-18T08:04:13.995Z</time></trkpt><trkpt lat="45.27733865121769" lon="9.121269859624173"><ele>88.2</ele><time>2026-04-18T08:04:15.995Z</time></trkpt><trkpt lat="45.27723561313129" lon="9.121308543911152"><ele>88.4</ele><time>2026-04-18T08:04:17.995Z</time></trkpt><trkpt lat="45.27713391167034" lon="9.12134003823428"><ele>88.60000000000001</ele><time>2026-04-18T08:04:19.995Z</time></trkpt><trkpt lat="45.27702785423944" lon="9.121388237110889"><ele>88.80000000000001</ele><time>2026-04-18T08:04:21.995Z</time></trkpt><trkpt lat="45.276921038434246" lon="9.121422402937645"><ele>89.0</ele><time>2026-04-18T08:04:23.995Z</time></trkpt><trkpt lat="45.27681801603981" lon="9.121467824362737"><ele>89.0</ele><time>2026-04-18T08:04:25.995Z</time></trkpt><trkpt lat="45.27671222459682" lon="9.121509122597912"><ele>89.0</ele><time>2026-04-18T08:04:27.995Z</time></trkpt><trkpt lat="45.27660108138401" lon="9.121557583935255"><ele>89.0</ele><time>2026-04-18T08:04:29.995Z</time></trkpt><trkpt lat="45.27649520139854" lon="9.121600531515204"><ele>89.0</ele><time>2026-04-18T08:04:31.995Z</time></trkpt><trkpt lat="45.27639192668146" lon="9.121641164116921"><ele>89.0</ele><time>2026-04-18T08:04:33.995Z</time></trkpt><trkpt lat="45.27628580256629" lon="9.121687029868927"><ele>88.80000000000001</ele><time>2026-04-18T08:04:35.995Z</time></trkpt><trkpt lat="45.27618297462909" lon="9.121720006333785"><ele>88.60000000000001</ele><time>2026-04-18T08:04:37.995Z</time></trkpt><trkpt lat="45.27607358729503" lon="9.12175987272006"><ele>88.4</ele><time>2026-04-18T08:04:39.995Z</time></trkpt><trkpt lat="45.27596329121809" lon="9.121797312099892"><ele>88.2</ele><time>2026-04-18T08:04:41.995Z</time></trkpt><trkpt lat="45.275855770757325" lon="9.12184652670233"><ele>88.0</ele><time>2026-04-18T08:04:43.995Z</time></trkpt><trkpt lat="45.27575309091009" lon="9.12188714755971"><ele>88.0</ele><time>2026-04-18T08:04:45.995Z</time></trkpt><trkpt lat="45.27564433411434" lon="9.121933668351485"><ele>88.0</ele><time>2026-04-18T08:04:47.995Z</time></trkpt><trkpt lat="45.27554068954037" lon="9.1219739703554"><ele>88.0</ele><time>2026-04-18T08:04:49.995Z</time></trkpt><trkpt lat="45.2754309786609" lon="9.122009279828315"><ele>88.0</ele><time>2026-04-18T08:04:51.995Z</time></trkpt><trkpt lat="45.27532365229603" lon="9.12204157006884"><ele>88.0</ele><time>2026-04-18T08:04:53.995Z</time></trkpt><trkpt lat="45.2752119640866" lon="9.122086426804254"><ele>88.5</ele><time>2026-04-18T08:04:55.995Z</time></trkpt><trkpt lat="45.27509692146271" lon="9.12212761788524"><ele>89.0</ele><time>2026-04-18T08:04:57.995Z</time></trkpt><trkpt lat="45.27499207322881" lon="9.12217746519599"><ele>89.5</ele><time>2026-04-18T08:04:59.995Z</time></trkpt><trkpt lat="45.27487811883644" lon="9.122221703966254"><ele>90.0</ele><time>2026-04-18T08:05:01.995Z</time></trkpt><trkpt lat="45.27477178195491" lon="9.122254190900513"><ele>90.0</ele><time>2026-04-18T08:05:03.995Z</time></trkpt><trkpt lat="45.27466176433889" lon="9.122301510463835"><ele>90.0</ele><time>2026-04-18T08:05:05.995Z</time></trkpt><trkpt lat="45.27455996496216" lon="9.12233980476304"><ele>90.0</ele><time>2026-04-18T08:05:07.994Z</time></trkpt><trkpt lat="45.27445445883043" lon="9.122381135501433"><ele>90.0</ele><time>2026-04-18T08:05:09.994Z</time></trkpt><trkpt lat="45.27435569463986" lon="9.122417416454066"><ele>90.0</ele><time>2026-04-18T08:05:11.994Z</time></trkpt><trkpt lat="45.27425273292826" lon="9.122461935978688"><ele>90.0</ele><time>2026-04-18T08:05:13.994Z</time></trkpt><trkpt lat="45.274152451118525" lon="9.122507758215443"><ele>90.0</ele><time>2026-04-18T08:05:15.994Z</time></trkpt><trkpt lat="45.27405250394034" lon="9.122548103792276"><ele>90.0</ele><time>2026-04-18T08:05:17.994Z</time></trkpt><trkpt lat="45.27394827222204" lon="9.122587497630168"><ele>90.0</ele><time>2026-04-18T08:05:19.996Z</time></trkpt><trkpt lat="45.27384822692523" lon="9.122622453147514"><ele>90.0</ele><time>2026-04-18T08:05:21.997Z</time></trkpt><trkpt lat="45.27374286990252" lon="9.122662328928325"><ele>89.8</ele><time>2026-04-18T08:05:23.997Z</time></trkpt><trkpt lat="45.273639396430674" lon="9.122700442869853"><ele>89.6</ele><time>2026-04-18T08:05:25.997Z</time></trkpt><trkpt lat="45.273542458517994" lon="9.12272707159785"><ele>89.4</ele><time>2026-04-18T08:05:27.996Z</time></trkpt><trkpt lat="45.27343607703769" lon="9.122770404632567"><ele>89.2</ele><time>2026-04-18T08:05:29.996Z</time></trkpt><trkpt lat="45.273329336470034" lon="9.122813315593675"><ele>89.0</ele><time>2026-04-18T08:05:31.996Z</time></trkpt><trkpt lat="45.27322204887977" lon="9.12285366253471"><ele>89.0</ele><time>2026-04-18T08:05:33.996Z</time></trkpt><trkpt lat="45.27311480238997" lon="9.122895335605934"><ele>89.0</ele><time>2026-04-18T08:05:35.996Z</time></trkpt><trkpt lat="45.27300354426919" lon="9.122943821173322"><ele>89.0</ele><time>2026-04-18T08:05:37.996Z</time></trkpt><trkpt lat="45.272896286483125" lon="9.12298488462945"><ele>89.0</ele><time>2026-04-18T08:05:39.996Z</time></trkpt><trkpt lat="45.27279099521303" lon="9.123024539075606"><ele>89.0</ele><time>2026-04-18T08:05:41.996Z</time></trkpt><trkpt lat="45.272684163140724" lon="9.123068064545368"><ele>89.0</ele><time>2026-04-18T08:05:43.996Z</time></trkpt><trkpt lat="45.27257816796959" lon="9.123107511751627"><ele>89.0</ele><time>2026-04-18T08:05:45.996Z</time></trkpt><trkpt lat="45.27247016586139" lon="9.123142605360202"><ele>89.0</ele><time>2026-04-18T08:05:47.996Z</time></trkpt><trkpt lat="45.27236560479646" lon="9.12317646683485"><ele>89.0</ele><time>2026-04-18T08:05:49.996Z</time></trkpt><trkpt lat="45.27226568615698" lon="9.123206344085347"><ele>89.0</ele><time>2026-04-18T08:05:51.996Z</time></trkpt><trkpt lat="45.27215409132875" lon="9.123245702936972"><ele>89.0</ele><time>2026-04-18T08:05:53.996Z</time></trkpt><trkpt lat="45.27205444649152" lon="9.123290615410514"><ele>89.0</ele><time>2026-04-18T08:05:55.996Z</time></trkpt><trkpt lat="45.27194244016024" lon="9.123332818725485"><ele>89.0</ele><time>2026-04-18T08:05:57.996Z</time></trkpt><trkpt lat="45.27183539396176" lon="9.123376458567565"><ele>89.0</ele><time>2026-04-18T08:05:59.996Z</time></trkpt><trkpt lat="45.271731667266685" lon="9.123415921515038"><ele>89.0</ele><time>2026-04-18T08:06:01.996Z</time></trkpt><trkpt lat="45.27162869974376" lon="9.123455727361328"><ele>89.0</ele><time>2026-04-18T08:06:03.996Z</time></trkpt><trkpt lat="45.27152594239534" lon="9.123491711663712"><ele>89.0</ele><time>2026-04-18T08:06:05.996Z</time></trkpt><trkpt lat="45.27142249352002" lon="9.123538764194587"><ele>89.0</ele><time>2026-04-18T08:06:07.995Z</time></trkpt><trkpt lat="45.271320634426864" lon="9.123577019117699"><ele>89.0</ele><time>2026-04-18T08:06:09.995Z</time></trkpt><trkpt lat="45.271223674444364" lon="9.123610930737563"><ele>89.0</ele><time>2026-04-18T08:06:11.995Z</time></trkpt><trkpt lat="45.27112362922021" lon="9.123644362227699"><ele>89.2</ele><time>2026-04-18T08:06:13.995Z</time></trkpt><trkpt lat="45.27101230251554" lon="9.123687696513505"><ele>89.4</ele><time>2026-04-18T08:06:15.995Z</time></trkpt><trkpt lat="45.27090628251587" lon="9.123729252992776"><ele>89.6</ele><time>2026-04-18T08:06:17.995Z</time></trkpt><trkpt lat="45.270800491123715" lon="9.12377175719546"><ele>89.8</ele><time>2026-04-18T08:06:19.995Z</time></trkpt><trkpt lat="45.270696231239" lon="9.123815344258997"><ele>90.0</ele><time>2026-04-18T08:06:21.995Z</time></trkpt><trkpt lat="45.270590220852284" lon="9.123854093511703"><ele>90.0</ele><time>2026-04-18T08:06:23.995Z</time></trkpt><trkpt lat="45.27047226577347" lon="9.12389766696025"><ele>90.0</ele><time>2026-04-18T08:06:25.995Z</time></trkpt><trkpt lat="45.270361609749216" lon="9.123934412091844"><ele>90.0</ele><time>2026-04-18T08:06:27.995Z</time></trkpt><trkpt lat="45.27025453479014" lon="9.123977362575124"><ele>90.0</ele><time>2026-04-18T08:06:29.995Z</time></trkpt><trkpt lat="45.27014932164551" lon="9.124015037378088"><ele>90.0</ele><time>2026-04-18T08:06:31.995Z</time></trkpt><trkpt lat="45.27004183667569" lon="9.124047187291188"><ele>90.0</ele><time>2026-04-18T08:06:33.995Z</time></trkpt><trkpt lat="45.26993541534297" lon="9.124091106282401"><ele>90.0</ele><time>2026-04-18T08:06:35.995Z</time></trkpt><trkpt lat="45.26982966761625" lon="9.124138903203995"><ele>90.0</ele><time>2026-04-18T08:06:37.995Z</time></trkpt><trkpt lat="45.26972868825469" lon="9.124164924915677"><ele>90.0</ele><time>2026-04-18T08:06:39.995Z</time></trkpt><trkpt lat="45.26962526775182" lon="9.124205865074096"><ele>89.6</ele><time>2026-04-18T08:06:41.995Z</time></trkpt><trkpt lat="45.2695246920914" lon="9.124243379574155"><ele>89.2</ele><time>2026-04-18T08:06:43.995Z</time></trkpt><trkpt lat="45.26942318359824" lon="9.124282847420757"><ele>88.80000000000001</ele><time>2026-04-18T08:06:45.995Z</time></trkpt><trkpt lat="45.26931881707375" lon="9.124322841624451"><ele>88.4</ele><time>2026-04-18T08:06:47.995Z</time></trkpt><trkpt lat="45.26921346982118" lon="9.124364407708583"><ele>88.0</ele><time>2026-04-18T08:06:49.995Z</time></trkpt><trkpt lat="45.26911171218504" lon="9.12440240175649"><ele>88.0</ele><time>2026-04-18T08:06:51.944Z</time></trkpt><trkpt lat="45.26901011626646" lon="9.124437936410482"><ele>88.0</ele><time>2026-04-18T08:06:53.944Z</time></trkpt><trkpt lat="45.26890458551849" lon="9.124480704860677"><ele>88.0</ele><time>2026-04-18T08:06:55.944Z</time></trkpt><trkpt lat="45.26879439051318" lon="9.124518987265239"><ele>88.0</ele><time>2026-04-18T08:06:57.944Z</time></trkpt><trkpt lat="45.26868849968646" lon="9.124564722136311"><ele>88.0</ele><time>2026-04-18T08:06:59.944Z</time></trkpt><trkpt lat="45.268583997196664" lon="9.124600184384859"><ele>87.80000000000001</ele><time>2026-04-18T08:07:01.944Z</time></trkpt><trkpt lat="45.26847911218294" lon="9.124638798679255"><ele>87.6</ele><time>2026-04-18T08:07:03.944Z</time></trkpt><trkpt lat="45.26837321843462" lon="9.124678829802109"><ele>87.4</ele><time>2026-04-18T08:07:05.944Z</time></trkpt><trkpt lat="45.26827749739686" lon="9.124715829251485"><ele>87.19999999999999</ele><time>2026-04-18T08:07:07.944Z</time></trkpt><trkpt lat="45.26816722597167" lon="9.124762716113386"><ele>87.0</ele><time>2026-04-18T08:07:09.944Z</time></trkpt><trkpt lat="45.268065134168054" lon="9.124800578801754"><ele>87.0</ele><time>2026-04-18T08:07:11.944Z</time></trkpt><trkpt lat="45.26796192715355" lon="9.124841054050203"><ele>87.0</ele><time>2026-04-18T08:07:13.944Z</time></trkpt><trkpt lat="45.26785797015836" lon="9.124880406855114"><ele>87.0</ele><time>2026-04-18T08:07:15.944Z</time></trkpt><trkpt lat="45.26775072096476" lon="9.124930608820112"><ele>87.0</ele><time>2026-04-18T08:07:17.944Z</time></trkpt><trkpt lat="45.26764781643801" lon="9.124971106797352"><ele>87.0</ele><time>2026-04-18T08:07:19.944Z</time></trkpt><trkpt lat="45.267546360422315" lon="9.125006703178073"><ele>87.19999999999999</ele><time>2026-04-18T08:07:21.944Z</time></trkpt><trkpt lat="45.26744413524709" lon="9.125039459833426"><ele>87.4</ele><time>2026-04-18T08:07:23.944Z</time></trkpt><trkpt lat="45.267338789508095" lon="9.125080563181445"><ele>87.6</ele><time>2026-04-18T08:07:25.946Z</time></trkpt><trkpt lat="45.26723724968782" lon="9.125123180426815"><ele>87.80000000000001</ele><time>2026-04-18T08:07:27.946Z</time></trkpt><trkpt lat="45.26713192842488" lon="9.125167080013926"><ele>88.0</ele><time>2026-04-18T08:07:29.945Z</time></trkpt><trkpt lat="45.26702700183996" lon="9.1252058345629"><ele>88.0</ele><time>2026-04-18T08:07:31.946Z</time></trkpt><trkpt lat="45.26692077269528" lon="9.125243092178184"><ele>88.0</ele><time>2026-04-18T08:07:33.946Z</time></trkpt><trkpt lat="45.266818215578745" lon="9.125281579978699"><ele>88.0</ele><time>2026-04-18T08:07:35.946Z</time></trkpt><trkpt lat="45.26671193769483" lon="9.125317831348921"><ele>88.0</ele><time>2026-04-18T08:07:37.946Z</time></trkpt><trkpt lat="45.26660458226534" lon="9.125360881214817"><ele>88.0</ele><time>2026-04-18T08:07:39.945Z</time></trkpt><trkpt lat="45.26650162429854" lon="9.125397746173297"><ele>88.0</ele><time>2026-04-18T08:07:41.945Z</time></trkpt><trkpt lat="45.26639657071835" lon="9.125442939980314"><ele>88.0</ele><time>2026-04-18T08:07:43.945Z</time></trkpt><trkpt lat="45.26629135315208" lon="9.125482050337178"><ele>88.0</ele><time>2026-04-18T08:07:45.945Z</time></trkpt><trkpt lat="45.2661879263482" lon="9.125518174954596"><ele>88.0</ele><time>2026-04-18T08:07:47.945Z</time></trkpt><trkpt lat="45.26608240806212" lon="9.125561218787112"><ele>88.0</ele><time>2026-04-18T08:07:49.945Z</time></trkpt><trkpt lat="45.26597425718489" lon="9.12560345016535"><ele>88.0</ele><time>2026-04-18T08:07:51.945Z</time></trkpt><trkpt lat="45.26587284066869" lon="9.125642295134195"><ele>88.0</ele><time>2026-04-18T08:07:53.945Z</time></trkpt><trkpt lat="45.26577152801267" lon="9.12567622574991"><ele>88.0</ele><time>2026-04-18T08:07:55.945Z</time></trkpt><trkpt lat="45.26567223116034" lon="9.125720259149064"><ele>88.0</ele><time>2026-04-18T08:07:57.945Z</time></trkpt><trkpt lat="45.26557220792419" lon="9.125746192394924"><ele>88.0</ele><time>2026-04-18T08:07:59.945Z</time></trkpt><trkpt lat="45.26546924844341" lon="9.125787625920514"><ele>88.2</ele><time>2026-04-18T08:08:01.945Z</time></trkpt><trkpt lat="45.26536969580165" lon="9.125825607023122"><ele>88.4</ele><time>2026-04-18T08:08:03.945Z</time></trkpt><trkpt lat="45.26526735801226" lon="9.125866113154743"><ele>88.60000000000001</ele><time>2026-04-18T08:08:05.945Z</time></trkpt><trkpt lat="45.265165553936434" lon="9.125906016891523"><ele>88.80000000000001</ele><time>2026-04-18T08:08:07.945Z</time></trkpt><trkpt lat="45.265067712699526" lon="9.12594129655239"><ele>89.0</ele><time>2026-04-18T08:08:09.945Z</time></trkpt><trkpt lat="45.26495653962074" lon="9.125980742535766"><ele>89.0</ele><time>2026-04-18T08:08:11.945Z</time></trkpt><trkpt lat="45.264859766205625" lon="9.12601879542432"><ele>89.0</ele><time>2026-04-18T08:08:13.945Z</time></trkpt><trkpt lat="45.26476546760316" lon="9.126062246707509"><ele>89.0</ele><time>2026-04-18T08:08:15.945Z</time></trkpt><trkpt lat="45.26466107252048" lon="9.126103247316154"><ele>89.0</ele><time>2026-04-18T08:08:17.944Z</time></trkpt><trkpt lat="45.26456082981631" lon="9.126144420873908"><ele>89.0</ele><time>2026-04-18T08:08:19.944Z</time></trkpt><trkpt lat="45.26445510218349" lon="9.126177318030836"><ele>88.80000000000001</ele><time>2026-04-18T08:08:21.944Z</time></trkpt><trkpt lat="45.26434979166591" lon="9.126218375709819"><ele>88.60000000000001</ele><time>2026-04-18T08:08:23.944Z</time></trkpt><trkpt lat="45.264247443681484" lon="9.126262905999177"><ele>88.4</ele><time>2026-04-18T08:08:25.944Z</time></trkpt><trkpt lat="45.264145150425" lon="9.126292047720046"><ele>88.2</ele><time>2026-04-18T08:08:27.944Z</time></trkpt><trkpt lat="45.26404074524002" lon="9.126331111564605"><ele>88.0</ele><time>2026-04-18T08:08:29.944Z</time></trkpt><trkpt lat="45.263938184933764" lon="9.126379473301709"><ele>88.0</ele><time>2026-04-18T08:08:31.944Z</time></trkpt><trkpt lat="45.263832155873" lon="9.12641836916525"><ele>88.0</ele><time>2026-04-18T08:08:33.944Z</time></trkpt><trkpt lat="45.26372544531762" lon="9.126458599304678"><ele>88.0</ele><time>2026-04-18T08:08:35.944Z</time></trkpt><trkpt lat="45.26362604038878" lon="9.126503361374526"><ele>88.0</ele><time>2026-04-18T08:08:37.944Z</time></trkpt><trkpt lat="45.26352398845223" lon="9.12654209627829"><ele>88.0</ele><time>2026-04-18T08:08:39.944Z</time></trkpt><trkpt lat="45.26343122400254" lon="9.126564827455429"><ele>88.0</ele><time>2026-04-18T08:08:41.944Z</time></trkpt><trkpt lat="45.26334383180766" lon="9.126591972036579"><ele>88.0</ele><time>2026-04-18T08:08:43.944Z</time></trkpt><trkpt lat="45.26323449615152" lon="9.126632352746864"><ele>88.0</ele><time>2026-04-18T08:08:45.944Z</time></trkpt><trkpt lat="45.26312959993011" lon="9.126670235043825"><ele>88.0</ele><time>2026-04-18T08:08:47.944Z</time></trkpt><trkpt lat="45.26302985160305" lon="9.126708392544097"><ele>88.0</ele><time>2026-04-18T08:08:49.944Z</time></trkpt><trkpt lat="45.26292691895592" lon="9.126751244315978"><ele>87.80000000000001</ele><time>2026-04-18T08:08:51.944Z</time></trkpt><trkpt lat="45.26282858116628" lon="9.12678343467854"><ele>87.6</ele><time>2026-04-18T08:08:53.943Z</time></trkpt><trkpt lat="45.26272615911209" lon="9.126825525729279"><ele>87.4</ele><time>2026-04-18T08:08:55.943Z</time></trkpt><trkpt lat="45.2626211124619" lon="9.126863634742477"><ele>87.19999999999999</ele><time>2026-04-18T08:08:57.943Z</time></trkpt><trkpt lat="45.262518581513746" lon="9.126904297152894"><ele>87.0</ele><time>2026-04-18T08:08:59.943Z</time></trkpt><trkpt lat="45.26241598755217" lon="9.12694793813165"><ele>87.0</ele><time>2026-04-18T08:09:01.943Z</time></trkpt><trkpt lat="45.262323379960435" lon="9.126982747116921"><ele>87.0</ele><time>2026-04-18T08:09:03.943Z</time></trkpt><trkpt lat="45.26222440627201" lon="9.1270197312253"><ele>87.0</ele><time>2026-04-18T08:09:05.943Z</time></trkpt><trkpt lat="45.26211963278945" lon="9.127064090135539"><ele>87.0</ele><time>2026-04-18T08:09:07.943Z</time></trkpt><trkpt lat="45.262015038827286" lon="9.127098813655872"><ele>87.0</ele><time>2026-04-18T08:09:09.943Z</time></trkpt><trkpt lat="45.261903586117015" lon="9.127140291806873"><ele>87.0</ele><time>2026-04-18T08:09:11.943Z</time></trkpt><trkpt lat="45.26180191225054" lon="9.127182751742016"><ele>87.0</ele><time>2026-04-18T08:09:13.943Z</time></trkpt><trkpt lat="45.261700931261906" lon="9.127220003631406"><ele>87.0</ele><time>2026-04-18T08:09:15.943Z</time></trkpt><trkpt lat="45.26160402510906" lon="9.127256621895192"><ele>87.0</ele><time>2026-04-18T08:09:17.943Z</time></trkpt><trkpt lat="45.26150928406432" lon="9.127290276175046"><ele>87.0</ele><time>2026-04-18T08:09:19.943Z</time></trkpt><trkpt lat="45.26140704349921" lon="9.127329517778497"><ele>87.0</ele><time>2026-04-18T08:09:21.943Z</time></trkpt><trkpt lat="45.26130668427589" lon="9.127366448424297"><ele>87.0</ele><time>2026-04-18T08:09:23.943Z</time></trkpt><trkpt lat="45.26120792709555" lon="9.127399902198727"><ele>87.0</ele><time>2026-04-18T08:09:25.943Z</time></trkpt><trkpt lat="45.26110580711635" lon="9.127434414317309"><ele>87.0</ele><time>2026-04-18T08:09:27.942Z</time></trkpt><trkpt lat="45.26100433926548" lon="9.127474450948922"><ele>87.0</ele><time>2026-04-18T08:09:29.942Z</time></trkpt><trkpt lat="45.26090560259842" lon="9.127508143053898"><ele>87.0</ele><time>2026-04-18T08:09:31.945Z</time></trkpt><trkpt lat="45.26080684428108" lon="9.127550570038583"><ele>87.0</ele><time>2026-04-18T08:09:33.944Z</time></trkpt><trkpt lat="45.26070744109249" lon="9.127586036672662"><ele>87.0</ele><time>2026-04-18T08:09:35.944Z</time></trkpt><trkpt lat="45.2606040776254" lon="9.127628892345239"><ele>87.0</ele><time>2026-04-18T08:09:37.944Z</time></trkpt><trkpt lat="45.26050492779509" lon="9.12766428289772"><ele>87.0</ele><time>2026-04-18T08:09:39.944Z</time></trkpt><trkpt lat="45.260400793261624" lon="9.127702630775282"><ele>86.8</ele><time>2026-04-18T08:09:41.944Z</time></trkpt><trkpt lat="45.26030127619444" lon="9.127736007071116"><ele>86.6</ele><time>2026-04-18T08:09:43.944Z</time></trkpt><trkpt lat="45.26020537217439" lon="9.12777687067866"><ele>86.39999999999999</ele><time>2026-04-18T08:09:45.944Z</time></trkpt><trkpt lat="45.260107636494915" lon="9.127814522943316"><ele>86.19999999999999</ele><time>2026-04-18T08:09:47.944Z</time></trkpt><trkpt lat="45.260004867027654" lon="9.127852724144152"><ele>86.0</ele><time>2026-04-18T08:09:49.943Z</time></trkpt><trkpt lat="45.25991253649949" lon="9.127886297913237"><ele>86.0</ele><time>2026-04-18T08:09:51.943Z</time></trkpt><trkpt lat="45.259816158941675" lon="9.127919423754937"><ele>86.0</ele><time>2026-04-18T08:09:53.943Z</time></trkpt><trkpt lat="45.25971144893529" lon="9.12796568358481"><ele>86.0</ele><time>2026-04-18T08:09:55.943Z</time></trkpt><trkpt lat="45.25961789419868" lon="9.128002834712893"><ele>86.0</ele><time>2026-04-18T08:09:57.943Z</time></trkpt><trkpt lat="45.25951762608964" lon="9.128043049131884"><ele>86.0</ele><time>2026-04-18T08:09:59.943Z</time></trkpt><trkpt lat="45.25941748936143" lon="9.128080776675063"><ele>86.0</ele><time>2026-04-18T08:10:01.943Z</time></trkpt><trkpt lat="45.259320998410935" lon="9.12811301202478"><ele>86.0</ele><time>2026-04-18T08:10:03.943Z</time></trkpt><trkpt lat="45.25921851953318" lon="9.128148784776146"><ele>86.0</ele><time>2026-04-18T08:10:05.943Z</time></trkpt><trkpt lat="45.2591182221208" lon="9.128181253670048"><ele>86.0</ele><time>2026-04-18T08:10:07.943Z</time></trkpt><trkpt lat="45.259021296124196" lon="9.128214399253716"><ele>86.0</ele><time>2026-04-18T08:10:09.943Z</time></trkpt><trkpt lat="45.25891387850205" lon="9.128253190372007"><ele>86.4</ele><time>2026-04-18T08:10:11.943Z</time></trkpt><trkpt lat="45.258802638231984" lon="9.128297141076628"><ele>86.8</ele><time>2026-04-18T08:10:13.943Z</time></trkpt><trkpt lat="45.25869782392822" lon="9.128333009107847"><ele>87.2</ele><time>2026-04-18T08:10:15.943Z</time></trkpt><trkpt lat="45.258590411453845" lon="9.128375919894749"><ele>87.60000000000001</ele><time>2026-04-18T08:10:17.943Z</time></trkpt><trkpt lat="45.25848220864516" lon="9.128414800760234"><ele>88.0</ele><time>2026-04-18T08:10:19.943Z</time></trkpt><trkpt lat="45.25837534122446" lon="9.128455004644348"><ele>88.0</ele><time>2026-04-18T08:10:21.943Z</time></trkpt><trkpt lat="45.25827715543489" lon="9.128491518423674"><ele>88.0</ele><time>2026-04-18T08:10:23.943Z</time></trkpt><trkpt lat="45.258181140319465" lon="9.128533443651268"><ele>88.0</ele><time>2026-04-18T08:10:25.942Z</time></trkpt><trkpt lat="45.25807529619834" lon="9.128570047364942"><ele>88.0</ele><time>2026-04-18T08:10:27.942Z</time></trkpt><trkpt lat="45.25797223989529" lon="9.128611485493932"><ele>88.0</ele><time>2026-04-18T08:10:29.942Z</time></trkpt><trkpt lat="45.257868324683685" lon="9.128653252675669"><ele>87.60000000000001</ele><time>2026-04-18T08:10:31.942Z</time></trkpt><trkpt lat="45.257765983924656" lon="9.128688554594097"><ele>87.2</ele><time>2026-04-18T08:10:33.942Z</time></trkpt><trkpt lat="45.257653656684994" lon="9.12873737285308"><ele>86.8</ele><time>2026-04-18T08:10:35.942Z</time></trkpt><trkpt lat="45.25755332911417" lon="9.12877699102027"><ele>86.4</ele><time>2026-04-18T08:10:37.942Z</time></trkpt><trkpt lat="45.25744826889488" lon="9.12881674647239"><ele>86.0</ele><time>2026-04-18T08:10:39.942Z</time></trkpt><trkpt lat="45.257342034223356" lon="9.128854973103058"><ele>86.19999999999999</ele><time>2026-04-18T08:10:41.942Z</time></trkpt><trkpt lat="45.25723857815751" lon="9.128898473317859"><ele>86.39999999999999</ele><time>2026-04-18T08:10:43.942Z</time></trkpt><trkpt lat="45.2571371409006" lon="9.128934580230537"><ele>86.6</ele><time>2026-04-18T08:10:45.942Z</time></trkpt><trkpt lat="45.25703271799786" lon="9.1289751062322"><ele>86.8</ele><time>2026-04-18T08:10:47.942Z</time></trkpt><trkpt lat="45.256929404895644" lon="9.129014195447112"><ele>87.0</ele><time>2026-04-18T08:10:49.942Z</time></trkpt><trkpt lat="45.25682138242875" lon="9.129058848030233"><ele>87.0</ele><time>2026-04-18T08:10:51.942Z</time></trkpt><trkpt lat="45.25671773436093" lon="9.129097223395778"><ele>87.0</ele><time>2026-04-18T08:10:53.942Z</time></trkpt><trkpt lat="45.256612580375176" lon="9.129139186780751"><ele>87.0</ele><time>2026-04-18T08:10:55.942Z</time></trkpt><trkpt lat="45.256507250337265" lon="9.129172549687329"><ele>87.0</ele><time>2026-04-18T08:10:57.942Z</time></trkpt><trkpt lat="45.25640101422395" lon="9.129228543991939"><ele>87.0</ele><time>2026-04-18T08:10:59.942Z</time></trkpt><trkpt lat="45.25629739127071" lon="9.129276457983776"><ele>87.0</ele><time>2026-04-18T08:11:01.941Z</time></trkpt><trkpt lat="45.256196617519485" lon="9.129334327029108"><ele>87.0</ele><time>2026-04-18T08:11:03.941Z</time></trkpt><trkpt lat="45.256090282963854" lon="9.12940191336354"><ele>87.0</ele><time>2026-04-18T08:11:05.941Z</time></trkpt><trkpt lat="45.25598715151409" lon="9.12947771604848"><ele>87.0</ele><time>2026-04-18T08:11:07.941Z</time></trkpt><trkpt lat="45.255879807207215" lon="9.129564682720169"><ele>87.0</ele><time>2026-04-18T08:11:09.941Z</time></trkpt><trkpt lat="45.255779036766896" lon="9.129637130565916"><ele>87.0</ele><time>2026-04-18T08:11:11.941Z</time></trkpt><trkpt lat="45.25568325593646" lon="9.129715186914622"><ele>87.0</ele><time>2026-04-18T08:11:13.941Z</time></trkpt><trkpt lat="45.255589045850655" lon="9.129786894247982"><ele>87.0</ele><time>2026-04-18T08:11:15.941Z</time></trkpt><trkpt lat="45.25549380411663" lon="9.129854818475415"><ele>87.0</ele><time>2026-04-18T08:11:17.941Z</time></trkpt><trkpt lat="45.255398458008884" lon="9.129938682830048"><ele>87.39999999999999</ele><time>2026-04-18T08:11:19.941Z</time></trkpt><trkpt lat="45.25530670595014" lon="9.130007703481223"><ele>87.8</ele><time>2026-04-18T08:11:21.941Z</time></trkpt><trkpt lat="45.255214251082286" lon="9.130083215707408"><ele>88.2</ele><time>2026-04-18T08:11:23.941Z</time></trkpt><trkpt lat="45.2551219315328" lon="9.130159634455536"><ele>88.6</ele><time>2026-04-18T08:11:25.941Z</time></trkpt><trkpt lat="45.25502719843452" lon="9.130228807537495"><ele>89.0</ele><time>2026-04-18T08:11:27.941Z</time></trkpt><trkpt lat="45.254934230986066" lon="9.130301360893494"><ele>89.0</ele><time>2026-04-18T08:11:29.941Z</time></trkpt><trkpt lat="45.254842206055216" lon="9.130376322518877"><ele>89.0</ele><time>2026-04-18T08:11:31.941Z</time></trkpt><trkpt lat="45.254748422930476" lon="9.130447584619988"><ele>89.0</ele><time>2026-04-18T08:11:33.941Z</time></trkpt><trkpt lat="45.254657224229774" lon="9.13052052689626"><ele>89.0</ele><time>2026-04-18T08:11:35.94Z</time></trkpt><trkpt lat="45.2545685984639" lon="9.13058854542144"><ele>89.0</ele><time>2026-04-18T08:11:37.942Z</time></trkpt><trkpt lat="45.254483571496856" lon="9.130658140036203"><ele>89.0</ele><time>2026-04-18T08:11:39.943Z</time></trkpt><trkpt lat="45.25439725500814" lon="9.130722658611445"><ele>89.0</ele><time>2026-04-18T08:11:41.943Z</time></trkpt><trkpt lat="45.25431532895564" lon="9.130781579938333"><ele>89.0</ele><time>2026-04-18T08:11:43.942Z</time></trkpt><trkpt lat="45.25422581222265" lon="9.130834372383195"><ele>89.0</ele><time>2026-04-18T08:11:45.943Z</time></trkpt><trkpt lat="45.25413569021492" lon="9.130903089058375"><ele>89.0</ele><time>2026-04-18T08:11:47.942Z</time></trkpt><trkpt lat="45.25404754945952" lon="9.130960857778435"><ele>89.4</ele><time>2026-04-18T08:11:49.942Z</time></trkpt><trkpt lat="45.25395727067798" lon="9.131015495116083"><ele>89.80000000000001</ele><time>2026-04-18T08:11:51.942Z</time></trkpt><trkpt lat="45.25387782913842" lon="9.131060807784788"><ele>90.19999999999999</ele><time>2026-04-18T08:11:53.942Z</time></trkpt><trkpt lat="45.25378987106636" lon="9.131098415089445"><ele>90.6</ele><time>2026-04-18T08:11:55.942Z</time></trkpt><trkpt lat="45.25370191459335" lon="9.131143368132506"><ele>91.0</ele><time>2026-04-18T08:11:57.942Z</time></trkpt><trkpt lat="45.25361637086473" lon="9.131191967201337"><ele>91.0</ele><time>2026-04-18T08:11:59.942Z</time></trkpt><trkpt lat="45.25353087080874" lon="9.131232532104386"><ele>91.0</ele><time>2026-04-18T08:12:01.942Z</time></trkpt><trkpt lat="45.253444450275495" lon="9.131266769663426"><ele>91.0</ele><time>2026-04-18T08:12:03.942Z</time></trkpt><trkpt lat="45.25337237009216" lon="9.131299966249706"><ele>91.0</ele><time>2026-04-18T08:12:05.941Z</time></trkpt><trkpt lat="45.25331188990015" lon="9.131349074092837"><ele>91.0</ele><time>2026-04-18T08:12:08.941Z</time></trkpt><trkpt lat="45.25329289166473" lon="9.131437562786894"><ele>91.0</ele><time>2026-04-18T08:12:11.941Z</time></trkpt><trkpt lat="45.25330528867567" lon="9.131545238972187"><ele>90.83333333333333</ele><time>2026-04-18T08:12:13.941Z</time></trkpt><trkpt lat="45.25332122170783" lon="9.131643973133297"><ele>90.66666666666666</ele><time>2026-04-18T08:12:15.941Z</time></trkpt><trkpt lat="45.253342237426054" lon="9.131754555774254"><ele>90.5</ele><time>2026-04-18T08:12:17.941Z</time></trkpt><trkpt lat="45.253375604735915" lon="9.131866427689154"><ele>90.33333333333333</ele><time>2026-04-18T08:12:19.941Z</time></trkpt><trkpt lat="45.25340171186455" lon="9.131996800166938"><ele>90.16666666666667</ele><time>2026-04-18T08:12:21.941Z</time></trkpt><trkpt lat="45.253424585297594" lon="9.132115642879786"><ele>90.0</ele><time>2026-04-18T08:12:23.941Z</time></trkpt><trkpt lat="45.253453090093274" lon="9.13223387318754"><ele>90.0</ele><time>2026-04-18T08:12:25.941Z</time></trkpt><trkpt lat="45.25348417040509" lon="9.132351496136039"><ele>90.0</ele><time>2026-04-18T08:12:27.941Z</time></trkpt><trkpt lat="45.25351048929101" lon="9.132470827817857"><ele>90.0</ele><time>2026-04-18T08:12:29.941Z</time></trkpt><trkpt lat="45.25353302104518" lon="9.132594484855023"><ele>90.0</ele><time>2026-04-18T08:12:31.941Z</time></trkpt><trkpt lat="45.25356690030889" lon="9.132784013582622"><ele>90.0</ele><time>2026-04-18T08:12:34.941Z</time></trkpt><trkpt lat="45.2535980576275" lon="9.132904087693742"><ele>90.0</ele><time>2026-04-18T08:12:36.941Z</time></trkpt><trkpt lat="45.25362717673491" lon="9.133033884414855"><ele>90.0</ele><time>2026-04-18T08:12:38.941Z</time></trkpt><trkpt lat="45.253657636457" lon="9.13319335214993"><ele>90.0</ele><time>2026-04-18T08:12:40.94Z</time></trkpt><trkpt lat="45.253686518418256" lon="9.133348578344934"><ele>90.0</ele><time>2026-04-18T08:12:42.94Z</time></trkpt><trkpt lat="45.25371669944302" lon="9.133471036423053"><ele>90.0</ele><time>2026-04-18T08:12:44.94Z</time></trkpt><trkpt lat="45.253724684133864" lon="9.133592898148875"><ele>90.0</ele><time>2026-04-18T08:12:46.94Z</time></trkpt><trkpt lat="45.253754488345116" lon="9.133717964670879"><ele>90.0</ele><time>2026-04-18T08:12:48.94Z</time></trkpt><trkpt lat="45.25377682341783" lon="9.133827751513866"><ele>90.0</ele><time>2026-04-18T08:12:50.94Z</time></trkpt><trkpt lat="45.25380116978006" lon="9.133960902276993"><ele>90.0</ele><time>2026-04-18T08:12:52.94Z</time></trkpt><trkpt lat="45.25383375600229" lon="9.134100492596378"><ele>90.0</ele><time>2026-04-18T08:12:54.94Z</time></trkpt><trkpt lat="45.25386661204341" lon="9.1342497448665"><ele>90.0</ele><time>2026-04-18T08:12:56.94Z</time></trkpt><trkpt lat="45.253902082263984" lon="9.134364912013261"><ele>90.0</ele><time>2026-04-18T08:12:58.94Z</time></trkpt><trkpt lat="45.25394238095428" lon="9.13451703588681"><ele>90.0</ele><time>2026-04-18T08:13:00.94Z</time></trkpt><trkpt lat="45.253955835457724" lon="9.134612130371206"><ele>90.0</ele><time>2026-04-18T08:13:01.94Z</time></trkpt><trkpt lat="45.253973892642314" lon="9.134702185144018"><ele>90.0</ele><time>2026-04-18T08:13:02.94Z</time></trkpt><trkpt lat="45.254003979175714" lon="9.134868570332547"><ele>89.8</ele><time>2026-04-18T08:13:04.94Z</time></trkpt><trkpt lat="45.25404178701492" lon="9.13501639264169"><ele>89.6</ele><time>2026-04-18T08:13:06.94Z</time></trkpt><trkpt lat="45.25407385478748" lon="9.135165841514242"><ele>89.4</ele><time>2026-04-18T08:13:08.94Z</time></trkpt><trkpt lat="45.25409538908324" lon="9.135278473468361"><ele>89.2</ele><time>2026-04-18T08:13:10.94Z</time></trkpt><trkpt lat="45.25413636097944" lon="9.13543558711177"><ele>89.0</ele><time>2026-04-18T08:13:12.94Z</time></trkpt><trkpt lat="45.25416411630178" lon="9.135568289037375"><ele>88.80000000000001</ele><time>2026-04-18T08:13:14.94Z</time></trkpt><trkpt lat="45.254195003468176" lon="9.135734201166152"><ele>88.60000000000001</ele><time>2026-04-18T08:13:16.939Z</time></trkpt><trkpt lat="45.25422950533093" lon="9.135881700591094"><ele>88.4</ele><time>2026-04-18T08:13:18.939Z</time></trkpt><trkpt lat="45.254252598062635" lon="9.136007197339117"><ele>88.2</ele><time>2026-04-18T08:13:20.939Z</time></trkpt><trkpt lat="45.254279361881764" lon="9.136133839433553"><ele>88.0</ele><time>2026-04-18T08:13:22.939Z</time></trkpt><trkpt lat="45.254316997797254" lon="9.136298792170608"><ele>88.0</ele><time>2026-04-18T08:13:24.939Z</time></trkpt><trkpt lat="45.25434631724186" lon="9.136440644563873"><ele>88.0</ele><time>2026-04-18T08:13:26.939Z</time></trkpt><trkpt lat="45.254371058857124" lon="9.136580709630097"><ele>88.0</ele><time>2026-04-18T08:13:28.939Z</time></trkpt><trkpt lat="45.25440355872874" lon="9.136736160266612"><ele>88.0</ele><time>2026-04-18T08:13:30.939Z</time></trkpt><trkpt lat="45.25444300757826" lon="9.136875644635076"><ele>88.0</ele><time>2026-04-18T08:13:32.939Z</time></trkpt><trkpt lat="45.25446364157218" lon="9.137016070253154"><ele>88.25</ele><time>2026-04-18T08:13:34.939Z</time></trkpt><trkpt lat="45.25449533852575" lon="9.137155934181658"><ele>88.5</ele><time>2026-04-18T08:13:36.939Z</time></trkpt><trkpt lat="45.254531804725396" lon="9.137319343157893"><ele>88.75</ele><time>2026-04-18T08:13:38.939Z</time></trkpt><trkpt lat="45.25456536654432" lon="9.137475288809625"><ele>89.0</ele><time>2026-04-18T08:13:40.939Z</time></trkpt><trkpt lat="45.25460462584354" lon="9.13762481799101"><ele>89.0</ele><time>2026-04-18T08:13:42.941Z</time></trkpt><trkpt lat="45.254633051552474" lon="9.13777247941611"><ele>89.0</ele><time>2026-04-18T08:13:44.941Z</time></trkpt><trkpt lat="45.254664717954064" lon="9.137915307699025"><ele>89.0</ele><time>2026-04-18T08:13:46.941Z</time></trkpt><trkpt lat="45.254689537493114" lon="9.138045700601955"><ele>89.0</ele><time>2026-04-18T08:13:48.94Z</time></trkpt><trkpt lat="45.25473307981158" lon="9.13821119260866"><ele>89.0</ele><time>2026-04-18T08:13:50.941Z</time></trkpt><trkpt lat="45.254763168890854" lon="9.138348531313639"><ele>89.2</ele><time>2026-04-18T08:13:52.94Z</time></trkpt><trkpt lat="45.25479728436353" lon="9.138479295477389"><ele>89.4</ele><time>2026-04-18T08:13:54.941Z</time></trkpt><trkpt lat="45.254822724921425" lon="9.13862080360871"><ele>89.6</ele><time>2026-04-18T08:13:56.94Z</time></trkpt><trkpt lat="45.25484235524031" lon="9.138715221834364"><ele>89.8</ele><time>2026-04-18T08:13:57.94Z</time></trkpt><trkpt lat="45.254878666455866" lon="9.138854317765881"><ele>90.0</ele><time>2026-04-18T08:13:59.94Z</time></trkpt><trkpt lat="45.2549158115499" lon="9.139007240155113"><ele>89.6</ele><time>2026-04-18T08:14:01.94Z</time></trkpt><trkpt lat="45.254954901154804" lon="9.139148244729379"><ele>89.2</ele><time>2026-04-18T08:14:03.94Z</time></trkpt><trkpt lat="45.25497757243624" lon="9.139294371039247"><ele>88.80000000000001</ele><time>2026-04-18T08:14:05.94Z</time></trkpt><trkpt lat="45.254995511333746" lon="9.139382032246335"><ele>88.4</ele><time>2026-04-18T08:14:06.94Z</time></trkpt><trkpt lat="45.25503191800602" lon="9.139541422191355"><ele>88.0</ele><time>2026-04-18T08:14:08.94Z</time></trkpt><trkpt lat="45.25506412915276" lon="9.1396931172055"><ele>88.0</ele><time>2026-04-18T08:14:10.94Z</time></trkpt><trkpt lat="45.25507992651662" lon="9.139780819007918"><ele>88.0</ele><time>2026-04-18T08:14:11.94Z</time></trkpt><trkpt lat="45.25509688392693" lon="9.139870419476797"><ele>88.0</ele><time>2026-04-18T08:14:12.94Z</time></trkpt><trkpt lat="45.25512518982349" lon="9.14000985891289"><ele>88.0</ele><time>2026-04-18T08:14:14.94Z</time></trkpt><trkpt lat="45.25516287096983" lon="9.140173756526222"><ele>88.0</ele><time>2026-04-18T08:14:16.94Z</time></trkpt><trkpt lat="45.255176579347555" lon="9.140261571847297"><ele>88.0</ele><time>2026-04-18T08:14:17.94Z</time></trkpt><trkpt lat="45.255214990194006" lon="9.140413291890136"><ele>88.0</ele><time>2026-04-18T08:14:19.94Z</time></trkpt><trkpt lat="45.25525182203788" lon="9.14057979096252"><ele>88.0</ele><time>2026-04-18T08:14:21.94Z</time></trkpt><trkpt lat="45.25528149184989" lon="9.140706371565036"><ele>88.0</ele><time>2026-04-18T08:14:23.94Z</time></trkpt><trkpt lat="45.2553180383012" lon="9.140876096246462"><ele>88.0</ele><time>2026-04-18T08:14:25.94Z</time></trkpt><trkpt lat="45.255339837275486" lon="9.140965331047845"><ele>88.0</ele><time>2026-04-18T08:14:26.94Z</time></trkpt><trkpt lat="45.25536269974694" lon="9.141049816391064"><ele>88.16666666666666</ele><time>2026-04-18T08:14:27.94Z</time></trkpt><trkpt lat="45.2553870888507" lon="9.141196583166854"><ele>88.33333333333333</ele><time>2026-04-18T08:14:29.94Z</time></trkpt><trkpt lat="45.25541830164368" lon="9.14128569390586"><ele>88.5</ele><time>2026-04-18T08:14:30.939Z</time></trkpt><trkpt lat="45.25545108763567" lon="9.141436376277106"><ele>88.66666666666667</ele><time>2026-04-18T08:14:32.939Z</time></trkpt><trkpt lat="45.25547614390534" lon="9.141537773684272"><ele>88.83333333333334</ele><time>2026-04-18T08:14:33.939Z</time></trkpt><trkpt lat="45.25549697895518" lon="9.141623640978311"><ele>89.0</ele><time>2026-04-18T08:14:34.939Z</time></trkpt><trkpt lat="45.25552261081857" lon="9.141767624594287"><ele>88.6</ele><time>2026-04-18T08:14:36.939Z</time></trkpt><trkpt lat="45.25555528216833" lon="9.141923947908943"><ele>88.2</ele><time>2026-04-18T08:14:38.939Z</time></trkpt><trkpt lat="45.25558830994666" lon="9.14206721694293"><ele>87.8</ele><time>2026-04-18T08:14:40.939Z</time></trkpt><trkpt lat="45.25562182531762" lon="9.142222474958478"><ele>87.39999999999999</ele><time>2026-04-18T08:14:42.939Z</time></trkpt><trkpt lat="45.25565043799325" lon="9.142303649021184"><ele>87.0</ele><time>2026-04-18T08:14:43.939Z</time></trkpt><trkpt lat="45.25567181478096" lon="9.14239245334929"><ele>87.0</ele><time>2026-04-18T08:14:44.939Z</time></trkpt><trkpt lat="45.25569520426597" lon="9.142482802011052"><ele>87.0</ele><time>2026-04-18T08:14:45.939Z</time></trkpt><trkpt lat="45.25573231654149" lon="9.142646184384969"><ele>87.0</ele><time>2026-04-18T08:14:47.939Z</time></trkpt><trkpt lat="45.25577191517034" lon="9.142809659881385"><ele>87.0</ele><time>2026-04-18T08:14:49.939Z</time></trkpt><trkpt lat="45.255813292001214" lon="9.142971311205205"><ele>87.0</ele><time>2026-04-18T08:14:51.939Z</time></trkpt><trkpt lat="45.25583405361919" lon="9.143060168608269"><ele>87.0</ele><time>2026-04-18T08:14:52.939Z</time></trkpt><trkpt lat="45.2558567103631" lon="9.1431494129972"><ele>87.0</ele><time>2026-04-18T08:14:53.939Z</time></trkpt><trkpt lat="45.25588311652945" lon="9.143232347089263"><ele>87.0</ele><time>2026-04-18T08:14:54.939Z</time></trkpt><trkpt lat="45.25590621032249" lon="9.143326519669474"><ele>87.0</ele><time>2026-04-18T08:14:55.939Z</time></trkpt><trkpt lat="45.255941960402126" lon="9.143490065661064"><ele>87.0</ele><time>2026-04-18T08:14:57.939Z</time></trkpt><trkpt lat="45.255978390015365" lon="9.143645355292696"><ele>87.0</ele><time>2026-04-18T08:14:59.939Z</time></trkpt><trkpt lat="45.256011106542196" lon="9.143786063210946"><ele>87.19999999999999</ele><time>2026-04-18T08:15:01.939Z</time></trkpt><trkpt lat="45.256037806729175" lon="9.143920765468277"><ele>87.4</ele><time>2026-04-18T08:15:03.939Z</time></trkpt><trkpt lat="45.25606176620957" lon="9.144045188750122"><ele>87.6</ele><time>2026-04-18T08:15:05.938Z</time></trkpt><trkpt lat="45.25610268215058" lon="9.14418555286415"><ele>87.80000000000001</ele><time>2026-04-18T08:15:07.938Z</time></trkpt><trkpt lat="45.256127795131405" lon="9.144310472724618"><ele>88.0</ele><time>2026-04-18T08:15:09.938Z</time></trkpt><trkpt lat="45.25616247512674" lon="9.14443938334655"><ele>88.0</ele><time>2026-04-18T08:15:11.938Z</time></trkpt><trkpt lat="45.25619564208242" lon="9.144553551252482"><ele>88.0</ele><time>2026-04-18T08:15:13.938Z</time></trkpt><trkpt lat="45.25621115136129" lon="9.144647751684134"><ele>88.0</ele><time>2026-04-18T08:15:15.938Z</time></trkpt><trkpt lat="45.256241184451405" lon="9.144777317166637"><ele>88.0</ele><time>2026-04-18T08:15:17.938Z</time></trkpt><trkpt lat="45.25625749786001" lon="9.144916494759983"><ele>88.0</ele><time>2026-04-18T08:15:20.938Z</time></trkpt><trkpt lat="45.256273635015155" lon="9.145019673522274"><ele>88.0</ele><time>2026-04-18T08:15:22.938Z</time></trkpt><trkpt lat="45.25628991718795" lon="9.145124822128698"><ele>88.5</ele><time>2026-04-18T08:15:24.938Z</time></trkpt><trkpt lat="45.256326372296535" lon="9.145236791802343"><ele>89.0</ele><time>2026-04-18T08:15:26.938Z</time></trkpt><trkpt lat="45.25635419326157" lon="9.145342353953914"><ele>89.5</ele><time>2026-04-18T08:15:28.938Z</time></trkpt><trkpt lat="45.25638103583263" lon="9.145447102909403"><ele>90.0</ele><time>2026-04-18T08:15:30.938Z</time></trkpt><trkpt lat="45.256413053353164" lon="9.145555950772758"><ele>90.5</ele><time>2026-04-18T08:15:32.938Z</time></trkpt><trkpt lat="45.25643183531549" lon="9.145650789873407"><ele>91.0</ele><time>2026-04-18T08:15:34.938Z</time></trkpt><trkpt lat="45.256462404184376" lon="9.145766642241544"><ele>91.14285714285714</ele><time>2026-04-18T08:15:37.938Z</time></trkpt><trkpt lat="45.25647749863535" lon="9.145857617428133"><ele>91.28571428571428</ele><time>2026-04-18T08:15:40.938Z</time></trkpt><trkpt lat="45.25651786587875" lon="9.145935543357014"><ele>91.42857142857143</ele><time>2026-04-18T08:15:43.937Z</time></trkpt><trkpt lat="45.25659185649656" lon="9.145955640913444"><ele>91.57142857142857</ele><time>2026-04-18T08:16:08.938Z</time></trkpt><trkpt lat="45.256670926153696" lon="9.14596702483539"><ele>91.71428571428571</ele><time>2026-04-18T08:16:54.937Z</time></trkpt><trkpt lat="45.25667080079044" lon="9.145867781955817"><ele>91.85714285714286</ele><time>2026-04-18T08:33:49.918Z</time></trkpt><trkpt lat="45.25660534344954" lon="9.14585491280347"><ele>92.0</ele><time>2026-04-18T08:34:14.918Z</time></trkpt><trkpt lat="45.25655300539621" lon="9.145800273426971"><ele>92.0</ele><time>2026-04-18T08:34:53.918Z</time></trkpt><trkpt lat="45.25652612494072" lon="9.145718522485458"><ele>92.0</ele><time>2026-04-18T08:34:56.918Z</time></trkpt><trkpt lat="45.25649558718236" lon="9.145640256214126"><ele>92.0</ele><time>2026-04-18T08:35:13.917Z</time></trkpt><trkpt lat="45.25643840413232" lon="9.145593851409895"><ele>92.0</ele><time>2026-04-18T08:36:14.915Z</time></trkpt><trkpt lat="45.2564132501321" lon="9.145508128909583"><ele>92.0</ele><time>2026-04-18T08:36:22.915Z</time></trkpt><trkpt lat="45.25640725856127" lon="9.145417662172774"><ele>92.0</ele><time>2026-04-18T08:36:32.915Z</time></trkpt><trkpt lat="45.256368846539864" lon="9.145326732184712"><ele>92.0</ele><time>2026-04-18T08:36:49.916Z</time></trkpt><trkpt lat="45.25634497353862" lon="9.145213101306835"><ele>91.85714285714286</ele><time>2026-04-18T08:36:52.916Z</time></trkpt><trkpt lat="45.25632296751585" lon="9.14512084243601"><ele>91.71428571428571</ele><time>2026-04-18T08:36:54.916Z</time></trkpt><trkpt lat="45.25629868266951" lon="9.145000721507316"><ele>91.57142857142857</ele><time>2026-04-18T08:36:57.915Z</time></trkpt><trkpt lat="45.25627909607146" lon="9.144888457684363"><ele>91.42857142857143</ele><time>2026-04-18T08:37:00.916Z</time></trkpt><trkpt lat="45.256256807201794" lon="9.144793892236216"><ele>91.28571428571428</ele><time>2026-04-18T08:37:03.916Z</time></trkpt><trkpt lat="45.25625574425857" lon="9.144702231809443"><ele>91.14285714285714</ele><time>2026-04-18T08:37:06.916Z</time></trkpt><trkpt lat="45.25623841979013" lon="9.144602124363534"><ele>91.0</ele><time>2026-04-18T08:37:09.916Z</time></trkpt><trkpt lat="45.25621069551285" lon="9.144489336699804"><ele>90.57142857142857</ele><time>2026-04-18T08:37:12.916Z</time></trkpt><trkpt lat="45.25618340628504" lon="9.144376421420054"><ele>90.14285714285714</ele><time>2026-04-18T08:37:16.915Z</time></trkpt><trkpt lat="45.256150269610345" lon="9.1442617919409"><ele>89.71428571428572</ele><time>2026-04-18T08:37:20.915Z</time></trkpt><trkpt lat="45.25612867035557" lon="9.144154332076264"><ele>89.28571428571428</ele><time>2026-04-18T08:37:23.915Z</time></trkpt><trkpt lat="45.2561099573938" lon="9.144065971852411"><ele>88.85714285714286</ele><time>2026-04-18T08:37:25.915Z</time></trkpt><trkpt lat="45.25609126502295" lon="9.143980563798614"><ele>88.42857142857143</ele><time>2026-04-18T08:37:27.915Z</time></trkpt><trkpt lat="45.256073579670435" lon="9.143886654263852"><ele>88.0</ele><time>2026-04-18T08:37:29.915Z</time></trkpt><trkpt lat="45.25605336122801" lon="9.143795427362098"><ele>88.0</ele><time>2026-04-18T08:37:31.915Z</time></trkpt><trkpt lat="45.25603125872224" lon="9.143708902161858"><ele>88.0</ele><time>2026-04-18T08:37:33.915Z</time></trkpt><trkpt lat="45.25600199985289" lon="9.14361330552991"><ele>88.0</ele><time>2026-04-18T08:37:36.915Z</time></trkpt><trkpt lat="45.255985123549415" lon="9.143502951235948"><ele>88.0</ele><time>2026-04-18T08:37:39.915Z</time></trkpt><trkpt lat="45.255961347006284" lon="9.143405195025016"><ele>88.0</ele><time>2026-04-18T08:37:42.915Z</time></trkpt><trkpt lat="45.255941356826334" lon="9.143292893546588"><ele>88.0</ele><time>2026-04-18T08:37:46.915Z</time></trkpt><trkpt lat="45.255914668388904" lon="9.143164945968275"><ele>87.83333333333333</ele><time>2026-04-18T08:37:50.914Z</time></trkpt><trkpt lat="45.255886897305544" lon="9.143036231678337"><ele>87.66666666666666</ele><time>2026-04-18T08:37:53.914Z</time></trkpt><trkpt lat="45.25586422634368" lon="9.142933681921123"><ele>87.5</ele><time>2026-04-18T08:37:55.914Z</time></trkpt><trkpt lat="45.255832746468634" lon="9.142820074603053"><ele>87.33333333333333</ele><time>2026-04-18T08:37:57.914Z</time></trkpt><trkpt lat="45.25581034402991" lon="9.142712392356374"><ele>87.16666666666667</ele><time>2026-04-18T08:37:59.914Z</time></trkpt><trkpt lat="45.25578796312222" lon="9.1426072432068"><ele>87.0</ele><time>2026-04-18T08:38:01.914Z</time></trkpt><trkpt lat="45.255766779051655" lon="9.142497627974247"><ele>87.0</ele><time>2026-04-18T08:38:03.914Z</time></trkpt><trkpt lat="45.25574038426192" lon="9.142395036180757"><ele>87.0</ele><time>2026-04-18T08:38:05.914Z</time></trkpt><trkpt lat="45.25572412758279" lon="9.14227633606253"><ele>87.0</ele><time>2026-04-18T08:38:07.914Z</time></trkpt><trkpt lat="45.25569273845661" lon="9.142143510083526"><ele>87.0</ele><time>2026-04-18T08:38:09.914Z</time></trkpt><trkpt lat="45.255671102165145" lon="9.142035331456272"><ele>87.0</ele><time>2026-04-18T08:38:11.914Z</time></trkpt><trkpt lat="45.2556492895296" lon="9.141946159974246"><ele>87.0</ele><time>2026-04-18T08:38:13.914Z</time></trkpt><trkpt lat="45.255618433623475" lon="9.141859187218964"><ele>87.0</ele><time>2026-04-18T08:38:15.914Z</time></trkpt><trkpt lat="45.25559686210167" lon="9.141740066223134"><ele>87.0</ele><time>2026-04-18T08:38:17.914Z</time></trkpt><trkpt lat="45.25557408217219" lon="9.141634195165773"><ele>87.0</ele><time>2026-04-18T08:38:19.914Z</time></trkpt><trkpt lat="45.25554488251033" lon="9.141532043250244"><ele>87.0</ele><time>2026-04-18T08:38:21.914Z</time></trkpt><trkpt lat="45.25553102361219" lon="9.14142308574659"><ele>87.0</ele><time>2026-04-18T08:38:23.913Z</time></trkpt><trkpt lat="45.2555033048467" lon="9.141312260975976"><ele>87.0</ele><time>2026-04-18T08:38:25.913Z</time></trkpt><trkpt lat="45.255477788061874" lon="9.141180918800138"><ele>87.19999999999999</ele><time>2026-04-18T08:38:27.913Z</time></trkpt><trkpt lat="45.25545178223389" lon="9.1410580651621"><ele>87.4</ele><time>2026-04-18T08:38:29.913Z</time></trkpt><trkpt lat="45.255419834008336" lon="9.140941692649728"><ele>87.6</ele><time>2026-04-18T08:38:31.913Z</time></trkpt><trkpt lat="45.25538803551133" lon="9.140799504222475"><ele>87.80000000000001</ele><time>2026-04-18T08:38:33.913Z</time></trkpt><trkpt lat="45.25536180566987" lon="9.140681452975578"><ele>88.0</ele><time>2026-04-18T08:38:35.913Z</time></trkpt><trkpt lat="45.25533177516583" lon="9.140548787509317"><ele>88.0</ele><time>2026-04-18T08:38:37.913Z</time></trkpt><trkpt lat="45.25530963755621" lon="9.140432948929087"><ele>88.0</ele><time>2026-04-18T08:38:39.913Z</time></trkpt><trkpt lat="45.2552840827796" lon="9.140328619556275"><ele>88.0</ele><time>2026-04-18T08:38:41.913Z</time></trkpt><trkpt lat="45.25526048062843" lon="9.140200711656338"><ele>88.0</ele><time>2026-04-18T08:38:43.913Z</time></trkpt><trkpt lat="45.25523509730001" lon="9.14007314431418"><ele>88.0</ele><time>2026-04-18T08:38:45.913Z</time></trkpt><trkpt lat="45.25520326734361" lon="9.139928779156781"><ele>88.0</ele><time>2026-04-18T08:38:47.913Z</time></trkpt><trkpt lat="45.255169655412566" lon="9.139800595140223"><ele>88.0</ele><time>2026-04-18T08:38:49.913Z</time></trkpt><trkpt lat="45.2551462815507" lon="9.139665480947237"><ele>88.0</ele><time>2026-04-18T08:38:51.913Z</time></trkpt><trkpt lat="45.25510961109439" lon="9.139537570889873"><ele>88.0</ele><time>2026-04-18T08:38:53.913Z</time></trkpt><trkpt lat="45.2550830737175" lon="9.13942797095621"><ele>88.0</ele><time>2026-04-18T08:38:55.914Z</time></trkpt><trkpt lat="45.25505108318968" lon="9.139276780409647"><ele>88.0</ele><time>2026-04-18T08:38:57.913Z</time></trkpt><trkpt lat="45.25502181173433" lon="9.139149154108601"><ele>88.0</ele><time>2026-04-18T08:38:59.913Z</time></trkpt><trkpt lat="45.254987549483275" lon="9.139011786783566"><ele>88.0</ele><time>2026-04-18T08:39:01.914Z</time></trkpt><trkpt lat="45.25495468343418" lon="9.138904716764047"><ele>88.0</ele><time>2026-04-18T08:39:03.914Z</time></trkpt><trkpt lat="45.254940616570096" lon="9.13879016128218"><ele>88.0</ele><time>2026-04-18T08:39:05.913Z</time></trkpt><trkpt lat="45.254911449927896" lon="9.138661338858876"><ele>88.2</ele><time>2026-04-18T08:39:07.914Z</time></trkpt><trkpt lat="45.25488954728458" lon="9.138542870934454"><ele>88.4</ele><time>2026-04-18T08:39:09.914Z</time></trkpt><trkpt lat="45.25485925768606" lon="9.138423148968498"><ele>88.60000000000001</ele><time>2026-04-18T08:39:11.914Z</time></trkpt><trkpt lat="45.254822861630394" lon="9.138296579813183"><ele>88.80000000000001</ele><time>2026-04-18T08:39:13.914Z</time></trkpt><trkpt lat="45.254790203321846" lon="9.138150017977278"><ele>89.0</ele><time>2026-04-18T08:39:15.913Z</time></trkpt><trkpt lat="45.25475180834035" lon="9.137977294304177"><ele>89.0</ele><time>2026-04-18T08:39:17.913Z</time></trkpt><trkpt lat="45.25472865328268" lon="9.137889735944102"><ele>89.0</ele><time>2026-04-18T08:39:18.913Z</time></trkpt><trkpt lat="45.2547044685669" lon="9.137756418092932"><ele>89.0</ele><time>2026-04-18T08:39:20.913Z</time></trkpt><trkpt lat="45.25466876837346" lon="9.137607455931787"><ele>89.0</ele><time>2026-04-18T08:39:22.913Z</time></trkpt><trkpt lat="45.25463841845559" lon="9.137472883281305"><ele>89.0</ele><time>2026-04-18T08:39:24.913Z</time></trkpt><trkpt lat="45.254604690093586" lon="9.137332352083481"><ele>89.0</ele><time>2026-04-18T08:39:26.913Z</time></trkpt><trkpt lat="45.25457723357069" lon="9.137187201695326"><ele>89.0</ele><time>2026-04-18T08:39:28.913Z</time></trkpt><trkpt lat="45.25455134862509" lon="9.1370469245805"><ele>89.0</ele><time>2026-04-18T08:39:30.913Z</time></trkpt><trkpt lat="45.25452710165164" lon="9.136920340052294"><ele>89.0</ele><time>2026-04-18T08:39:32.913Z</time></trkpt><trkpt lat="45.254489144514665" lon="9.13677928165644"><ele>89.0</ele><time>2026-04-18T08:39:34.913Z</time></trkpt><trkpt lat="45.2544614114986" lon="9.136644863330638"><ele>88.80000000000001</ele><time>2026-04-18T08:39:36.913Z</time></trkpt><trkpt lat="45.25443745714399" lon="9.136509842133721"><ele>88.60000000000001</ele><time>2026-04-18T08:39:38.913Z</time></trkpt><trkpt lat="45.25440578764403" lon="9.136394077594975"><ele>88.4</ele><time>2026-04-18T08:39:40.913Z</time></trkpt><trkpt lat="45.25437392307855" lon="9.136244856878431"><ele>88.2</ele><time>2026-04-18T08:39:42.913Z</time></trkpt><trkpt lat="45.254343022831996" lon="9.136086622095245"><ele>88.0</ele><time>2026-04-18T08:39:44.913Z</time></trkpt><trkpt lat="45.254311587350394" lon="9.135958142286373"><ele>88.0</ele><time>2026-04-18T08:39:46.913Z</time></trkpt><trkpt lat="45.254283754662126" lon="9.135827340524253"><ele>88.0</ele><time>2026-04-18T08:39:48.913Z</time></trkpt><trkpt lat="45.25425034040536" lon="9.135674760864733"><ele>88.0</ele><time>2026-04-18T08:39:50.912Z</time></trkpt><trkpt lat="45.25422421353909" lon="9.135518485985562"><ele>88.0</ele><time>2026-04-18T08:39:52.912Z</time></trkpt><trkpt lat="45.25420416428401" lon="9.135427443449768"><ele>88.0</ele><time>2026-04-18T08:39:53.912Z</time></trkpt><trkpt lat="45.25417033527951" lon="9.135282154632817"><ele>88.2</ele><time>2026-04-18T08:39:55.912Z</time></trkpt><trkpt lat="45.25414413740647" lon="9.135159027813435"><ele>88.4</ele><time>2026-04-18T08:39:57.912Z</time></trkpt><trkpt lat="45.25411253502733" lon="9.135015799193033"><ele>88.60000000000001</ele><time>2026-04-18T08:39:59.912Z</time></trkpt><trkpt lat="45.2540781997545" lon="9.13484767820246"><ele>88.80000000000001</ele><time>2026-04-18T08:40:01.912Z</time></trkpt><trkpt lat="45.25405052927481" lon="9.134725335148254"><ele>89.0</ele><time>2026-04-18T08:40:03.912Z</time></trkpt><trkpt lat="45.254030133601795" lon="9.134638710218212"><ele>89.16666666666667</ele><time>2026-04-18T08:40:04.912Z</time></trkpt><trkpt lat="45.25401246971734" lon="9.134534836916538"><ele>89.33333333333334</ele><time>2026-04-18T08:40:06.912Z</time></trkpt><trkpt lat="45.253992745078" lon="9.13441445696684"><ele>89.5</ele><time>2026-04-18T08:40:08.912Z</time></trkpt><trkpt lat="45.25395252703812" lon="9.134292286104678"><ele>89.66666666666667</ele><time>2026-04-18T08:40:10.912Z</time></trkpt><trkpt lat="45.25391929924703" lon="9.134166230696788"><ele>89.83333333333333</ele><time>2026-04-18T08:40:12.912Z</time></trkpt><trkpt lat="45.25389325624962" lon="9.134039879969176"><ele>90.0</ele><time>2026-04-18T08:40:14.912Z</time></trkpt><trkpt lat="45.253879199694794" lon="9.133932725907025"><ele>90.0</ele><time>2026-04-18T08:40:16.912Z</time></trkpt><trkpt lat="45.25385642446575" lon="9.13381003718508"><ele>90.0</ele><time>2026-04-18T08:40:18.912Z</time></trkpt><trkpt lat="45.253833642031935" lon="9.133668916703078"><ele>90.0</ele><time>2026-04-18T08:40:20.912Z</time></trkpt><trkpt lat="45.25380989027087" lon="9.133499655041359"><ele>90.0</ele><time>2026-04-18T08:40:22.912Z</time></trkpt><trkpt lat="45.25378696402138" lon="9.133394524451308"><ele>90.0</ele><time>2026-04-18T08:40:23.912Z</time></trkpt><trkpt lat="45.25376285108193" lon="9.133307498283314"><ele>90.0</ele><time>2026-04-18T08:40:24.912Z</time></trkpt><trkpt lat="45.253722273450805" lon="9.13315233416667"><ele>90.0</ele><time>2026-04-18T08:40:26.911Z</time></trkpt><trkpt lat="45.25368019210269" lon="9.132987389265546"><ele>90.0</ele><time>2026-04-18T08:40:28.911Z</time></trkpt><trkpt lat="45.2536406343069" lon="9.13283340644227"><ele>90.0</ele><time>2026-04-18T08:40:30.911Z</time></trkpt><trkpt lat="45.25360584236733" lon="9.132686549817075"><ele>90.0</ele><time>2026-04-18T08:40:32.911Z</time></trkpt><trkpt lat="45.253574401749056" lon="9.132537571963061"><ele>90.0</ele><time>2026-04-18T08:40:34.911Z</time></trkpt><trkpt lat="45.25354601976704" lon="9.132387046952127"><ele>90.0</ele><time>2026-04-18T08:40:36.911Z</time></trkpt><trkpt lat="45.25351080396092" lon="9.132259170344373"><ele>90.0</ele><time>2026-04-18T08:40:38.911Z</time></trkpt><trkpt lat="45.253485858468" lon="9.132133582815749"><ele>90.0</ele><time>2026-04-18T08:40:40.911Z</time></trkpt><trkpt lat="45.25344615990065" lon="9.132015393714003"><ele>90.0</ele><time>2026-04-18T08:40:42.911Z</time></trkpt><trkpt lat="45.253421000948705" lon="9.131881775095927"><ele>90.0</ele><time>2026-04-18T08:40:44.911Z</time></trkpt><trkpt lat="45.25338986515724" lon="9.131749675145008"><ele>90.0</ele><time>2026-04-18T08:40:46.911Z</time></trkpt><trkpt lat="45.253364683439045" lon="9.131645397752337"><ele>90.0</ele><time>2026-04-18T08:40:48.911Z</time></trkpt><trkpt lat="45.25333313179925" lon="9.1315409069894"><ele>90.0</ele><time>2026-04-18T08:40:50.911Z</time></trkpt><trkpt lat="45.253331892413904" lon="9.131443502342478"><ele>90.0</ele><time>2026-04-18T08:40:52.911Z</time></trkpt><trkpt lat="45.25339909486136" lon="9.131397787134883"><ele>90.16666666666667</ele><time>2026-04-18T08:40:55.911Z</time></trkpt><trkpt lat="45.25346430355479" lon="9.131351928077613"><ele>90.33333333333333</ele><time>2026-04-18T08:40:57.911Z</time></trkpt><trkpt lat="45.25353572087984" lon="9.131318818765463"><ele>90.5</ele><time>2026-04-18T08:40:59.911Z</time></trkpt><trkpt lat="45.25361732019019" lon="9.131265186059924"><ele>90.66666666666666</ele><time>2026-04-18T08:41:01.911Z</time></trkpt><trkpt lat="45.25370047536538" lon="9.131223116387586"><ele>90.83333333333333</ele><time>2026-04-18T08:41:03.911Z</time></trkpt><trkpt lat="45.25377891852902" lon="9.131174379562543"><ele>91.0</ele><time>2026-04-18T08:41:05.911Z</time></trkpt><trkpt lat="45.25385750545244" lon="9.131134375145416"><ele>91.0</ele><time>2026-04-18T08:41:07.911Z</time></trkpt><trkpt lat="45.253928333709915" lon="9.131093417997956"><ele>91.0</ele><time>2026-04-18T08:41:09.912Z</time></trkpt><trkpt lat="45.254021152934705" lon="9.131034548164397"><ele>91.0</ele><time>2026-04-18T08:41:12.911Z</time></trkpt><trkpt lat="45.25408864595953" lon="9.130984620278669"><ele>91.0</ele><time>2026-04-18T08:41:14.911Z</time></trkpt><trkpt lat="45.25415793086146" lon="9.130933427844495"><ele>91.0</ele><time>2026-04-18T08:41:16.911Z</time></trkpt><trkpt lat="45.25422552238549" lon="9.130878923329915"><ele>91.0</ele><time>2026-04-18T08:41:18.911Z</time></trkpt><trkpt lat="45.2543087630014" lon="9.130811141258112"><ele>91.16666666666666</ele><time>2026-04-18T08:41:20.911Z</time></trkpt><trkpt lat="45.25438458359916" lon="9.13075876570984"><ele>91.33333333333333</ele><time>2026-04-18T08:41:22.911Z</time></trkpt><trkpt lat="45.2544585029768" lon="9.130697662709215"><ele>91.5</ele><time>2026-04-18T08:41:24.911Z</time></trkpt><trkpt lat="45.25452931030022" lon="9.130653595516883"><ele>91.66666666666667</ele><time>2026-04-18T08:41:26.911Z</time></trkpt><trkpt lat="45.25460873770252" lon="9.130590534172814"><ele>91.83333333333334</ele><time>2026-04-18T08:41:28.911Z</time></trkpt><trkpt lat="45.25469288792782" lon="9.130521207306282"><ele>92.0</ele><time>2026-04-18T08:41:30.911Z</time></trkpt><trkpt lat="45.25477601882897" lon="9.130454488386032"><ele>91.39999999999999</ele><time>2026-04-18T08:41:32.911Z</time></trkpt><trkpt lat="45.25486502355142" lon="9.13038653559478"><ele>90.8</ele><time>2026-04-18T08:41:34.911Z</time></trkpt><trkpt lat="45.25495669810334" lon="9.13030982402074"><ele>90.2</ele><time>2026-04-18T08:41:36.911Z</time></trkpt><trkpt lat="45.25504245358744" lon="9.130243699104744"><ele>89.6</ele><time>2026-04-18T08:41:38.911Z</time></trkpt><trkpt lat="45.255131213578714" lon="9.130175291214925"><ele>89.0</ele><time>2026-04-18T08:41:40.911Z</time></trkpt><trkpt lat="45.25522150117037" lon="9.130110714286097"><ele>89.0</ele><time>2026-04-18T08:41:42.91Z</time></trkpt><trkpt lat="45.255309057980924" lon="9.130038038142443"><ele>89.0</ele><time>2026-04-18T08:41:44.91Z</time></trkpt><trkpt lat="45.25539629196292" lon="9.129969667263875"><ele>89.0</ele><time>2026-04-18T08:41:46.91Z</time></trkpt><trkpt lat="45.255486174244616" lon="9.12989533177287"><ele>89.0</ele><time>2026-04-18T08:41:48.91Z</time></trkpt><trkpt lat="45.25557980026498" lon="9.12982637143836"><ele>89.0</ele><time>2026-04-18T08:41:50.91Z</time></trkpt><trkpt lat="45.25566922825243" lon="9.129747461784444"><ele>88.6</ele><time>2026-04-18T08:41:52.91Z</time></trkpt><trkpt lat="45.25576461137379" lon="9.129678140605149"><ele>88.2</ele><time>2026-04-18T08:41:54.91Z</time></trkpt><trkpt lat="45.25585513464591" lon="9.129604785151868"><ele>87.8</ele><time>2026-04-18T08:41:56.91Z</time></trkpt><trkpt lat="45.255947708662326" lon="9.129531131454224"><ele>87.39999999999999</ele><time>2026-04-18T08:41:58.91Z</time></trkpt><trkpt lat="45.25603586129575" lon="9.129468205024274"><ele>87.0</ele><time>2026-04-18T08:42:00.91Z</time></trkpt><trkpt lat="45.25612949082814" lon="9.12940383703607"><ele>87.0</ele><time>2026-04-18T08:42:02.91Z</time></trkpt><trkpt lat="45.25622590505637" lon="9.129348047542177"><ele>87.0</ele><time>2026-04-18T08:42:04.91Z</time></trkpt><trkpt lat="45.256313153294414" lon="9.129297176921781"><ele>87.0</ele><time>2026-04-18T08:42:06.91Z</time></trkpt><trkpt lat="45.25638966947129" lon="9.129257170385497"><ele>87.0</ele><time>2026-04-18T08:42:08.91Z</time></trkpt><trkpt lat="45.256494471260794" lon="9.129211455083889"><ele>87.0</ele><time>2026-04-18T08:42:10.91Z</time></trkpt><trkpt lat="45.25657898716198" lon="9.129174789393147"><ele>87.0</ele><time>2026-04-18T08:42:12.91Z</time></trkpt><trkpt lat="45.25668025622215" lon="9.129137533718206"><ele>87.0</ele><time>2026-04-18T08:42:14.91Z</time></trkpt><trkpt lat="45.256773688207666" lon="9.129099944219828"><ele>87.0</ele><time>2026-04-18T08:42:16.908Z</time></trkpt><trkpt lat="45.25686883037002" lon="9.12907279236215"><ele>87.0</ele><time>2026-04-18T08:42:18.903Z</time></trkpt><trkpt lat="45.25697348604122" lon="9.1290320282995"><ele>87.0</ele><time>2026-04-18T08:42:20.898Z</time></trkpt><trkpt lat="45.25706542442672" lon="9.12899421774437"><ele>87.0</ele><time>2026-04-18T08:42:22.894Z</time></trkpt><trkpt lat="45.25716453069275" lon="9.128953507857988"><ele>87.0</ele><time>2026-04-18T08:42:24.89Z</time></trkpt><trkpt lat="45.25726027234723" lon="9.128915159305938"><ele>87.0</ele><time>2026-04-18T08:42:26.887Z</time></trkpt><trkpt lat="45.257372340889795" lon="9.128874345011413"><ele>87.0</ele><time>2026-04-18T08:42:28.884Z</time></trkpt><trkpt lat="45.25747130018005" lon="9.128832866621707"><ele>87.0</ele><time>2026-04-18T08:42:30.882Z</time></trkpt><trkpt lat="45.25757757798978" lon="9.128788689905344"><ele>86.75</ele><time>2026-04-18T08:42:32.88Z</time></trkpt><trkpt lat="45.257677987074125" lon="9.128752829145037"><ele>86.5</ele><time>2026-04-18T08:42:34.878Z</time></trkpt><trkpt lat="45.25778622969398" lon="9.128708834839461"><ele>86.25</ele><time>2026-04-18T08:42:36.876Z</time></trkpt><trkpt lat="45.25789478448267" lon="9.128671141747565"><ele>86.0</ele><time>2026-04-18T08:42:38.874Z</time></trkpt><trkpt lat="45.25802169908769" lon="9.128631959021885"><ele>86.0</ele><time>2026-04-18T08:42:40.873Z</time></trkpt><trkpt lat="45.25808605245203" lon="9.12860274515405"><ele>86.0</ele><time>2026-04-18T08:42:41.872Z</time></trkpt><trkpt lat="45.25820594284637" lon="9.128560967587905"><ele>86.0</ele><time>2026-04-18T08:42:43.871Z</time></trkpt><trkpt lat="45.25826704702793" lon="9.128536958999518"><ele>86.0</ele><time>2026-04-18T08:42:44.871Z</time></trkpt><trkpt lat="45.25838028912388" lon="9.12849998858915"><ele>86.0</ele><time>2026-04-18T08:42:46.87Z</time></trkpt><trkpt lat="45.258445706650534" lon="9.128474100554975"><ele>86.0</ele><time>2026-04-18T08:42:47.869Z</time></trkpt><trkpt lat="45.258556848639074" lon="9.128432798637775"><ele>86.19999999999999</ele><time>2026-04-18T08:42:49.868Z</time></trkpt><trkpt lat="45.25866715916641" lon="9.128395342516297"><ele>86.39999999999999</ele><time>2026-04-18T08:42:51.868Z</time></trkpt><trkpt lat="45.25879187195325" lon="9.128347013404223"><ele>86.6</ele><time>2026-04-18T08:42:53.867Z</time></trkpt><trkpt lat="45.25885615297188" lon="9.128326040816644"><ele>86.8</ele><time>2026-04-18T08:42:54.867Z</time></trkpt><trkpt lat="45.25897589036655" lon="9.128277463752548"><ele>87.0</ele><time>2026-04-18T08:42:56.866Z</time></trkpt><trkpt lat="45.25909052795017" lon="9.128238167690627"><ele>86.75</ele><time>2026-04-18T08:42:58.866Z</time></trkpt><trkpt lat="45.25916123298702" lon="9.128221740938496"><ele>86.5</ele><time>2026-04-18T08:43:00.865Z</time></trkpt><trkpt lat="45.259285726700064" lon="9.128180802066947"><ele>86.25</ele><time>2026-04-18T08:43:02.865Z</time></trkpt><trkpt lat="45.25940883820019" lon="9.128127104710416"><ele>86.0</ele><time>2026-04-18T08:43:04.865Z</time></trkpt><trkpt lat="45.25953341183017" lon="9.128079857350144"><ele>86.0</ele><time>2026-04-18T08:43:06.866Z</time></trkpt><trkpt lat="45.25960366723258" lon="9.128054770786397"><ele>86.0</ele><time>2026-04-18T08:43:07.865Z</time></trkpt><trkpt lat="45.25967255109246" lon="9.128024594053274"><ele>86.0</ele><time>2026-04-18T08:43:08.865Z</time></trkpt><trkpt lat="45.25979436988115" lon="9.127978493597855"><ele>86.0</ele><time>2026-04-18T08:43:10.865Z</time></trkpt><trkpt lat="45.259858078774386" lon="9.127954961317842"><ele>86.0</ele><time>2026-04-18T08:43:11.865Z</time></trkpt><trkpt lat="45.25992336696945" lon="9.127929786871002"><ele>86.0</ele><time>2026-04-18T08:43:12.865Z</time></trkpt><trkpt lat="45.26004344153837" lon="9.12788267973008"><ele>86.0</ele><time>2026-04-18T08:43:14.864Z</time></trkpt><trkpt lat="45.26015104207465" lon="9.127846194855112"><ele>86.0</ele><time>2026-04-18T08:43:16.865Z</time></trkpt><trkpt lat="45.260270920307455" lon="9.127797039641365"><ele>86.0</ele><time>2026-04-18T08:43:18.864Z</time></trkpt><trkpt lat="45.26038657350126" lon="9.127755213333748"><ele>86.0</ele><time>2026-04-18T08:43:20.864Z</time></trkpt><trkpt lat="45.26050269946782" lon="9.12771005933083"><ele>86.25</ele><time>2026-04-18T08:43:22.864Z</time></trkpt><trkpt lat="45.26061841949412" lon="9.127667301335388"><ele>86.5</ele><time>2026-04-18T08:43:24.864Z</time></trkpt><trkpt lat="45.260735175908884" lon="9.127620681795573"><ele>86.75</ele><time>2026-04-18T08:43:26.863Z</time></trkpt><trkpt lat="45.26085065148342" lon="9.127574774423682"><ele>87.0</ele><time>2026-04-18T08:43:28.863Z</time></trkpt><trkpt lat="45.260968374470146" lon="9.127523842824111"><ele>87.0</ele><time>2026-04-18T08:43:30.863Z</time></trkpt><trkpt lat="45.26108479199728" lon="9.127483675165747"><ele>87.0</ele><time>2026-04-18T08:43:32.863Z</time></trkpt><trkpt lat="45.26120433091684" lon="9.127442095107353"><ele>87.0</ele><time>2026-04-18T08:43:34.863Z</time></trkpt><trkpt lat="45.26132095784443" lon="9.127397883979892"><ele>87.0</ele><time>2026-04-18T08:43:36.863Z</time></trkpt><trkpt lat="45.26143794187397" lon="9.127359061041618"><ele>87.0</ele><time>2026-04-18T08:43:38.863Z</time></trkpt><trkpt lat="45.2614986483883" lon="9.127332258649343"><ele>87.0</ele><time>2026-04-18T08:43:39.863Z</time></trkpt><trkpt lat="45.26161141575451" lon="9.12728316004181"><ele>87.0</ele><time>2026-04-18T08:43:41.863Z</time></trkpt><trkpt lat="45.26170256022444" lon="9.127237111686856"><ele>87.0</ele><time>2026-04-18T08:43:43.862Z</time></trkpt><trkpt lat="45.26177296242532" lon="9.127221568007394"><ele>87.0</ele><time>2026-04-18T08:43:44.862Z</time></trkpt><trkpt lat="45.2618349987367" lon="9.127200159331078"><ele>87.0</ele><time>2026-04-18T08:43:45.862Z</time></trkpt><trkpt lat="45.26189624929545" lon="9.127176080376488"><ele>87.0</ele><time>2026-04-18T08:43:46.862Z</time></trkpt><trkpt lat="45.26200609175201" lon="9.127133102668854"><ele>87.0</ele><time>2026-04-18T08:43:48.862Z</time></trkpt><trkpt lat="45.26211543974625" lon="9.12709362192573"><ele>87.0</ele><time>2026-04-18T08:43:50.862Z</time></trkpt><trkpt lat="45.26222287708729" lon="9.127048806663465"><ele>87.0</ele><time>2026-04-18T08:43:52.862Z</time></trkpt><trkpt lat="45.26232660194934" lon="9.127013111788925"><ele>87.0</ele><time>2026-04-18T08:43:54.862Z</time></trkpt><trkpt lat="45.26243587034101" lon="9.126970505743515"><ele>87.0</ele><time>2026-04-18T08:43:56.862Z</time></trkpt><trkpt lat="45.262538765781" lon="9.1269286116896"><ele>87.0</ele><time>2026-04-18T08:43:58.862Z</time></trkpt><trkpt lat="45.2626498917578" lon="9.126890177420162"><ele>87.0</ele><time>2026-04-18T08:44:00.862Z</time></trkpt><trkpt lat="45.26275609611964" lon="9.126848908307533"><ele>87.0</ele><time>2026-04-18T08:44:02.862Z</time></trkpt><trkpt lat="45.26285614602163" lon="9.126804202731511"><ele>87.0</ele><time>2026-04-18T08:44:04.862Z</time></trkpt><trkpt lat="45.26296387599806" lon="9.126766385265423"><ele>87.0</ele><time>2026-04-18T08:44:06.861Z</time></trkpt><trkpt lat="45.26306832547784" lon="9.126732008288181"><ele>87.0</ele><time>2026-04-18T08:44:08.861Z</time></trkpt><trkpt lat="45.26317618581628" lon="9.126684701973874"><ele>87.0</ele><time>2026-04-18T08:44:10.861Z</time></trkpt><trkpt lat="45.26328427876441" lon="9.126643803973373"><ele>87.0</ele><time>2026-04-18T08:44:12.861Z</time></trkpt><trkpt lat="45.26338158526357" lon="9.126604946685642"><ele>87.0</ele><time>2026-04-18T08:44:14.861Z</time></trkpt><trkpt lat="45.26347986899948" lon="9.12656509112543"><ele>87.19999999999999</ele><time>2026-04-18T08:44:16.861Z</time></trkpt><trkpt lat="45.263574682492546" lon="9.126543257866935"><ele>87.4</ele><time>2026-04-18T08:44:18.861Z</time></trkpt><trkpt lat="45.263689153889025" lon="9.126499825047073"><ele>87.6</ele><time>2026-04-18T08:44:20.861Z</time></trkpt><trkpt lat="45.26380137654497" lon="9.126454565083245"><ele>87.80000000000001</ele><time>2026-04-18T08:44:22.861Z</time></trkpt><trkpt lat="45.26390985223589" lon="9.126415935451607"><ele>88.0</ele><time>2026-04-18T08:44:24.861Z</time></trkpt><trkpt lat="45.26401635225235" lon="9.126375787044278"><ele>88.0</ele><time>2026-04-18T08:44:26.861Z</time></trkpt><trkpt lat="45.26412364303867" lon="9.12633791836664"><ele>88.0</ele><time>2026-04-18T08:44:28.861Z</time></trkpt><trkpt lat="45.26422572344486" lon="9.126295097396117"><ele>88.0</ele><time>2026-04-18T08:44:30.86Z</time></trkpt><trkpt lat="45.2643240525615" lon="9.126262308457223"><ele>88.0</ele><time>2026-04-18T08:44:32.86Z</time></trkpt><trkpt lat="45.26442282136683" lon="9.126224210943427"><ele>88.0</ele><time>2026-04-18T08:44:34.86Z</time></trkpt><trkpt lat="45.264514221456125" lon="9.126189462949835"><ele>88.0</ele><time>2026-04-18T08:44:36.86Z</time></trkpt><trkpt lat="45.26459338802073" lon="9.12615781753493"><ele>88.0</ele><time>2026-04-18T08:44:38.86Z</time></trkpt><trkpt lat="45.264690350568394" lon="9.12612730583739"><ele>88.0</ele><time>2026-04-18T08:44:40.86Z</time></trkpt><trkpt lat="45.264795112854614" lon="9.126086862013528"><ele>88.0</ele><time>2026-04-18T08:44:42.86Z</time></trkpt><trkpt lat="45.264890547935316" lon="9.12604676449701"><ele>88.0</ele><time>2026-04-18T08:44:44.86Z</time></trkpt><trkpt lat="45.26498910383473" lon="9.126012408702382"><ele>88.2</ele><time>2026-04-18T08:44:46.86Z</time></trkpt><trkpt lat="45.26509156813515" lon="9.12597573395553"><ele>88.4</ele><time>2026-04-18T08:44:48.86Z</time></trkpt><trkpt lat="45.26518989432228" lon="9.125936708358221"><ele>88.60000000000001</ele><time>2026-04-18T08:44:50.86Z</time></trkpt><trkpt lat="45.26528545820471" lon="9.12591158379492"><ele>88.80000000000001</ele><time>2026-04-18T08:44:52.86Z</time></trkpt><trkpt lat="45.26537445157474" lon="9.125875881292952"><ele>89.0</ele><time>2026-04-18T08:44:54.86Z</time></trkpt><trkpt lat="45.26547155652396" lon="9.12584326600799"><ele>89.0</ele><time>2026-04-18T08:44:56.859Z</time></trkpt><trkpt lat="45.265557234901856" lon="9.125796671651337"><ele>89.0</ele><time>2026-04-18T08:44:58.859Z</time></trkpt><trkpt lat="45.26565660008127" lon="9.125767999035254"><ele>89.0</ele><time>2026-04-18T08:45:00.859Z</time></trkpt><trkpt lat="45.26575704857011" lon="9.125726775189213"><ele>89.0</ele><time>2026-04-18T08:45:02.859Z</time></trkpt><trkpt lat="45.26584184446671" lon="9.125687645993358"><ele>89.0</ele><time>2026-04-18T08:45:04.859Z</time></trkpt><trkpt lat="45.26596094502835" lon="9.125649371095873"><ele>88.80000000000001</ele><time>2026-04-18T08:45:06.859Z</time></trkpt><trkpt lat="45.2660608811656" lon="9.125606826359789"><ele>88.60000000000001</ele><time>2026-04-18T08:45:08.859Z</time></trkpt><trkpt lat="45.26616248248504" lon="9.12556547282802"><ele>88.4</ele><time>2026-04-18T08:45:10.859Z</time></trkpt><trkpt lat="45.26626362648905" lon="9.125527062965805"><ele>88.2</ele><time>2026-04-18T08:45:12.86Z</time></trkpt><trkpt lat="45.26637434032983" lon="9.12549022862477"><ele>88.0</ele><time>2026-04-18T08:45:14.86Z</time></trkpt><trkpt lat="45.2664777422802" lon="9.125452017718432"><ele>88.0</ele><time>2026-04-18T08:45:16.86Z</time></trkpt><trkpt lat="45.26657421949231" lon="9.125404857559076"><ele>88.0</ele><time>2026-04-18T08:45:18.86Z</time></trkpt><trkpt lat="45.26666550851498" lon="9.125373874289924"><ele>88.0</ele><time>2026-04-18T08:45:20.86Z</time></trkpt><trkpt lat="45.26677966952116" lon="9.125340664304286"><ele>88.0</ele><time>2026-04-18T08:45:22.86Z</time></trkpt><trkpt lat="45.2668903605221" lon="9.125296887809027"><ele>88.0</ele><time>2026-04-18T08:45:24.86Z</time></trkpt><trkpt lat="45.266995197639545" lon="9.125255074943096"><ele>88.0</ele><time>2026-04-18T08:45:26.859Z</time></trkpt><trkpt lat="45.26710293179551" lon="9.125227139463306"><ele>88.0</ele><time>2026-04-18T08:45:28.859Z</time></trkpt><trkpt lat="45.267207378964684" lon="9.125185277814026"><ele>88.0</ele><time>2026-04-18T08:45:30.859Z</time></trkpt><trkpt lat="45.26729636513423" lon="9.12515526127772"><ele>88.0</ele><time>2026-04-18T08:45:32.859Z</time></trkpt><trkpt lat="45.267402755237136" lon="9.12510894677906"><ele>88.0</ele><time>2026-04-18T08:45:34.859Z</time></trkpt><trkpt lat="45.26750558230534" lon="9.125071460270028"><ele>88.0</ele><time>2026-04-18T08:45:36.859Z</time></trkpt><trkpt lat="45.26756791857665" lon="9.125048975923912"><ele>88.0</ele><time>2026-04-18T08:45:37.859Z</time></trkpt><trkpt lat="45.267675640600096" lon="9.12500451249576"><ele>88.0</ele><time>2026-04-18T08:45:39.859Z</time></trkpt><trkpt lat="45.267839691334075" lon="9.124937460278483"><ele>88.0</ele><time>2026-04-18T08:45:42.859Z</time></trkpt><trkpt lat="45.26794538971378" lon="9.124903241718764"><ele>87.80000000000001</ele><time>2026-04-18T08:45:44.859Z</time></trkpt><trkpt lat="45.26804997332148" lon="9.12485702001831"><ele>87.6</ele><time>2026-04-18T08:45:46.859Z</time></trkpt><trkpt lat="45.26815847055298" lon="9.12481842510487"><ele>87.4</ele><time>2026-04-18T08:45:48.859Z</time></trkpt><trkpt lat="45.268266256910294" lon="9.124777913689336"><ele>87.19999999999999</ele><time>2026-04-18T08:45:50.859Z</time></trkpt><trkpt lat="45.268366621911845" lon="9.124743437445014"><ele>87.0</ele><time>2026-04-18T08:45:52.858Z</time></trkpt><trkpt lat="45.26844969287553" lon="9.124705496460944"><ele>87.0</ele><time>2026-04-18T08:45:54.858Z</time></trkpt><trkpt lat="45.26855481810057" lon="9.124663468220296"><ele>87.0</ele><time>2026-04-18T08:45:56.858Z</time></trkpt><trkpt lat="45.268642354023925" lon="9.12462858044649"><ele>87.0</ele><time>2026-04-18T08:45:58.858Z</time></trkpt><trkpt lat="45.26874237450635" lon="9.124597164949977"><ele>87.0</ele><time>2026-04-18T08:46:00.858Z</time></trkpt><trkpt lat="45.268845610967674" lon="9.124548430003522"><ele>87.0</ele><time>2026-04-18T08:46:02.858Z</time></trkpt><trkpt lat="45.26895386710194" lon="9.124513319157545"><ele>87.19999999999999</ele><time>2026-04-18T08:46:04.858Z</time></trkpt><trkpt lat="45.26906334404383" lon="9.124467347545105"><ele>87.4</ele><time>2026-04-18T08:46:06.858Z</time></trkpt><trkpt lat="45.26914802379327" lon="9.124427367029375"><ele>87.6</ele><time>2026-04-18T08:46:08.858Z</time></trkpt><trkpt lat="45.269249823227035" lon="9.124393171460126"><ele>87.80000000000001</ele><time>2026-04-18T08:46:10.858Z</time></trkpt><trkpt lat="45.26935681849279" lon="9.124346774380145"><ele>88.0</ele><time>2026-04-18T08:46:12.858Z</time></trkpt><trkpt lat="45.269438702125555" lon="9.124314756943818"><ele>88.0</ele><time>2026-04-18T08:46:14.858Z</time></trkpt><trkpt lat="45.26953443312915" lon="9.124269375002445"><ele>88.0</ele><time>2026-04-18T08:46:16.857Z</time></trkpt><trkpt lat="45.26964131170267" lon="9.124227163399302"><ele>88.0</ele><time>2026-04-18T08:46:18.857Z</time></trkpt><trkpt lat="45.26975131266109" lon="9.124189338722315"><ele>88.0</ele><time>2026-04-18T08:46:20.857Z</time></trkpt><trkpt lat="45.2698598463047" lon="9.124155699829231"><ele>88.0</ele><time>2026-04-18T08:46:22.857Z</time></trkpt><trkpt lat="45.2699509157094" lon="9.124116987175315"><ele>88.5</ele><time>2026-04-18T08:46:24.857Z</time></trkpt><trkpt lat="45.270064692639494" lon="9.124076819056382"><ele>89.0</ele><time>2026-04-18T08:46:26.857Z</time></trkpt><trkpt lat="45.270190918612954" lon="9.124039857194564"><ele>89.5</ele><time>2026-04-18T08:46:28.857Z</time></trkpt><trkpt lat="45.270293231292946" lon="9.123999070938975"><ele>90.0</ele><time>2026-04-18T08:46:30.857Z</time></trkpt><trkpt lat="45.27039836907982" lon="9.123955043318736"><ele>90.0</ele><time>2026-04-18T08:46:32.857Z</time></trkpt><trkpt lat="45.270510675357414" lon="9.123914127502083"><ele>90.0</ele><time>2026-04-18T08:46:34.857Z</time></trkpt><trkpt lat="45.27062215061069" lon="9.12387648103092"><ele>90.0</ele><time>2026-04-18T08:46:36.857Z</time></trkpt><trkpt lat="45.27073670078625" lon="9.123829727010556"><ele>90.0</ele><time>2026-04-18T08:46:38.857Z</time></trkpt><trkpt lat="45.27083164407602" lon="9.123791813089811"><ele>90.0</ele><time>2026-04-18T08:46:40.857Z</time></trkpt><trkpt lat="45.270941840235665" lon="9.123747619737717"><ele>90.0</ele><time>2026-04-18T08:46:42.856Z</time></trkpt><trkpt lat="45.27104569278529" lon="9.123706139481667"><ele>90.0</ele><time>2026-04-18T08:46:44.856Z</time></trkpt><trkpt lat="45.2711425403625" lon="9.123664619644579"><ele>90.0</ele><time>2026-04-18T08:46:46.856Z</time></trkpt><trkpt lat="45.27123736562157" lon="9.123627264165341"><ele>90.0</ele><time>2026-04-18T08:46:48.856Z</time></trkpt><trkpt lat="45.27134302053568" lon="9.123588771052273"><ele>90.0</ele><time>2026-04-18T08:46:50.856Z</time></trkpt><trkpt lat="45.27145955177382" lon="9.12354582872189"><ele>89.75</ele><time>2026-04-18T08:46:52.856Z</time></trkpt><trkpt lat="45.27157905710327" lon="9.123503018130663"><ele>89.5</ele><time>2026-04-18T08:46:54.856Z</time></trkpt><trkpt lat="45.27168788475703" lon="9.123466464860991"><ele>89.25</ele><time>2026-04-18T08:46:56.856Z</time></trkpt><trkpt lat="45.27178238679158" lon="9.123434210363524"><ele>89.0</ele><time>2026-04-18T08:46:58.856Z</time></trkpt><trkpt lat="45.27189626323648" lon="9.123388810991711"><ele>89.0</ele><time>2026-04-18T08:47:00.856Z</time></trkpt><trkpt lat="45.27200771816156" lon="9.123346030038732"><ele>89.0</ele><time>2026-04-18T08:47:02.856Z</time></trkpt><trkpt lat="45.272120956683935" lon="9.123304426877965"><ele>89.0</ele><time>2026-04-18T08:47:04.856Z</time></trkpt><trkpt lat="45.272222056774304" lon="9.123266296544479"><ele>89.0</ele><time>2026-04-18T08:47:06.856Z</time></trkpt><trkpt lat="45.2723249060509" lon="9.12323119134792"><ele>89.0</ele><time>2026-04-18T08:47:08.855Z</time></trkpt><trkpt lat="45.27241748300757" lon="9.123189513634813"><ele>89.0</ele><time>2026-04-18T08:47:10.855Z</time></trkpt><trkpt lat="45.27254542774085" lon="9.123146972010879"><ele>89.0</ele><time>2026-04-18T08:47:12.855Z</time></trkpt><trkpt lat="45.272656959942424" lon="9.123100747440684"><ele>89.0</ele><time>2026-04-18T08:47:14.855Z</time></trkpt><trkpt lat="45.27275679738195" lon="9.123063442982588"><ele>89.0</ele><time>2026-04-18T08:47:16.855Z</time></trkpt><trkpt lat="45.27287622082357" lon="9.123023269995832"><ele>89.0</ele><time>2026-04-18T08:47:18.857Z</time></trkpt><trkpt lat="45.27299246143622" lon="9.12297682128584"><ele>89.0</ele><time>2026-04-18T08:47:20.856Z</time></trkpt><trkpt lat="45.2730933582042" lon="9.12294085576198"><ele>89.0</ele><time>2026-04-18T08:47:22.856Z</time></trkpt><trkpt lat="45.27319701484665" lon="9.122902317390508"><ele>89.0</ele><time>2026-04-18T08:47:24.856Z</time></trkpt><trkpt lat="45.27330016306829" lon="9.122859407846159"><ele>89.0</ele><time>2026-04-18T08:47:26.857Z</time></trkpt><trkpt lat="45.2733973277362" lon="9.122819075407474"><ele>89.0</ele><time>2026-04-18T08:47:28.857Z</time></trkpt><trkpt lat="45.27348162150004" lon="9.12278961900297"><ele>89.0</ele><time>2026-04-18T08:47:30.857Z</time></trkpt><trkpt lat="45.2735809822069" lon="9.122737628014942"><ele>89.0</ele><time>2026-04-18T08:47:32.856Z</time></trkpt><trkpt lat="45.27367134389632" lon="9.122697569532654"><ele>89.0</ele><time>2026-04-18T08:47:34.856Z</time></trkpt><trkpt lat="45.27378313220148" lon="9.122657329558185"><ele>89.0</ele><time>2026-04-18T08:47:36.856Z</time></trkpt><trkpt lat="45.27389718224033" lon="9.122624520298926"><ele>89.16666666666667</ele><time>2026-04-18T08:47:38.856Z</time></trkpt><trkpt lat="45.273958486417484" lon="9.122594322184089"><ele>89.33333333333334</ele><time>2026-04-18T08:47:39.856Z</time></trkpt><trkpt lat="45.27406306391403" lon="9.122552240733961"><ele>89.5</ele><time>2026-04-18T08:47:41.856Z</time></trkpt><trkpt lat="45.27412516074112" lon="9.122528680507667"><ele>89.66666666666667</ele><time>2026-04-18T08:47:42.856Z</time></trkpt><trkpt lat="45.274239853499175" lon="9.122490211756109"><ele>89.83333333333333</ele><time>2026-04-18T08:47:44.856Z</time></trkpt><trkpt lat="45.27430190213608" lon="9.122466699530806"><ele>90.0</ele><time>2026-04-18T08:47:45.856Z</time></trkpt><trkpt lat="45.27442260625189" lon="9.122425057931892"><ele>90.0</ele><time>2026-04-18T08:47:47.856Z</time></trkpt><trkpt lat="45.27454131949482" lon="9.122385690178344"><ele>90.0</ele><time>2026-04-18T08:47:49.856Z</time></trkpt><trkpt lat="45.2746517038447" lon="9.122346772588577"><ele>90.0</ele><time>2026-04-18T08:47:51.855Z</time></trkpt><trkpt lat="45.27476761267906" lon="9.122303288623439"><ele>90.0</ele><time>2026-04-18T08:47:53.855Z</time></trkpt><trkpt lat="45.274871532990865" lon="9.122258488031278"><ele>90.0</ele><time>2026-04-18T08:47:55.855Z</time></trkpt><trkpt lat="45.27493911355411" lon="9.12223773962571"><ele>90.0</ele><time>2026-04-18T08:47:56.855Z</time></trkpt><trkpt lat="45.2750388330989" lon="9.12219829231303"><ele>90.0</ele><time>2026-04-18T08:47:58.855Z</time></trkpt><trkpt lat="45.27515217735717" lon="9.122158073893317"><ele>90.0</ele><time>2026-04-18T08:48:00.855Z</time></trkpt><trkpt lat="45.27526007514489" lon="9.12211938020424"><ele>90.0</ele><time>2026-04-18T08:48:02.855Z</time></trkpt><trkpt lat="45.27535899067532" lon="9.122075170123367"><ele>90.0</ele><time>2026-04-18T08:48:04.855Z</time></trkpt><trkpt lat="45.27544413565393" lon="9.12203740125472"><ele>90.0</ele><time>2026-04-18T08:48:06.855Z</time></trkpt><trkpt lat="45.27552894720336" lon="9.122000706915987"><ele>90.0</ele><time>2026-04-18T08:48:08.855Z</time></trkpt><trkpt lat="45.27563575823743" lon="9.121966173424326"><ele>90.0</ele><time>2026-04-18T08:48:10.855Z</time></trkpt><trkpt lat="45.27574885248785" lon="9.12192529675758"><ele>90.0</ele><time>2026-04-18T08:48:12.855Z</time></trkpt><trkpt lat="45.27584933192701" lon="9.121884567345846"><ele>89.6</ele><time>2026-04-18T08:48:14.855Z</time></trkpt><trkpt lat="45.27595437261026" lon="9.121845411013501"><ele>89.2</ele><time>2026-04-18T08:48:16.855Z</time></trkpt><trkpt lat="45.276069045462535" lon="9.121807694677695"><ele>88.80000000000001</ele><time>2026-04-18T08:48:18.854Z</time></trkpt><trkpt lat="45.27616215584983" lon="9.121781850935701"><ele>88.4</ele><time>2026-04-18T08:48:20.854Z</time></trkpt><trkpt lat="45.27624177257845" lon="9.121755254672966"><ele>88.0</ele><time>2026-04-18T08:48:22.854Z</time></trkpt><trkpt lat="45.276359106566034" lon="9.121704460446574"><ele>88.2</ele><time>2026-04-18T08:48:24.854Z</time></trkpt><trkpt lat="45.27646368356381" lon="9.121657316771811"><ele>88.4</ele><time>2026-04-18T08:48:26.854Z</time></trkpt><trkpt lat="45.276524470788736" lon="9.121632534039104"><ele>88.60000000000001</ele><time>2026-04-18T08:48:27.854Z</time></trkpt><trkpt lat="45.27662001498067" lon="9.121582092768417"><ele>88.80000000000001</ele><time>2026-04-18T08:48:29.854Z</time></trkpt><trkpt lat="45.27671176357605" lon="9.121546368598215"><ele>89.0</ele><time>2026-04-18T08:48:31.854Z</time></trkpt><trkpt lat="45.27681193530438" lon="9.121496532746194"><ele>89.0</ele><time>2026-04-18T08:48:33.854Z</time></trkpt><trkpt lat="45.276905660622674" lon="9.121446110170222"><ele>89.0</ele><time>2026-04-18T08:48:35.854Z</time></trkpt><trkpt lat="45.277010720577415" lon="9.121414564081798"><ele>89.0</ele><time>2026-04-18T08:48:37.854Z</time></trkpt><trkpt lat="45.27707627809748" lon="9.121397411293989"><ele>89.0</ele><time>2026-04-18T08:48:38.854Z</time></trkpt><trkpt lat="45.27718232276643" lon="9.121362212209332"><ele>89.0</ele><time>2026-04-18T08:48:40.854Z</time></trkpt><trkpt lat="45.27729506457839" lon="9.121324567249681"><ele>88.80000000000001</ele><time>2026-04-18T08:48:42.854Z</time></trkpt><trkpt lat="45.2774063033113" lon="9.121285440126025"><ele>88.60000000000001</ele><time>2026-04-18T08:48:44.853Z</time></trkpt><trkpt lat="45.27751087430475" lon="9.121249433931638"><ele>88.4</ele><time>2026-04-18T08:48:46.853Z</time></trkpt><trkpt lat="45.27760517823129" lon="9.121221224084922"><ele>88.2</ele><time>2026-04-18T08:48:48.853Z</time></trkpt><trkpt lat="45.27770451918972" lon="9.121165490989586"><ele>88.0</ele><time>2026-04-18T08:48:50.853Z</time></trkpt><trkpt lat="45.277816209917944" lon="9.121132593166628"><ele>88.0</ele><time>2026-04-18T08:48:52.853Z</time></trkpt><trkpt lat="45.27792454491712" lon="9.121082435824821"><ele>88.0</ele><time>2026-04-18T08:48:54.853Z</time></trkpt><trkpt lat="45.27799086939875" lon="9.121069391042996"><ele>88.0</ele><time>2026-04-18T08:48:55.853Z</time></trkpt><trkpt lat="45.278056451091054" lon="9.121050644813284"><ele>88.0</ele><time>2026-04-18T08:48:56.853Z</time></trkpt><trkpt lat="45.27817538564597" lon="9.121010626116844"><ele>88.0</ele><time>2026-04-18T08:48:58.853Z</time></trkpt><trkpt lat="45.27827647522002" lon="9.120959166721562"><ele>88.60000000000001</ele><time>2026-04-18T08:49:00.853Z</time></trkpt><trkpt lat="45.27837793740726" lon="9.120916606686755"><ele>89.2</ele><time>2026-04-18T08:49:02.853Z</time></trkpt><trkpt lat="45.27845919790267" lon="9.120873436439561"><ele>89.8</ele><time>2026-04-18T08:49:04.853Z</time></trkpt><trkpt lat="45.27853554160157" lon="9.12084570097747"><ele>90.4</ele><time>2026-04-18T08:49:06.853Z</time></trkpt><trkpt lat="45.278626389339024" lon="9.1207903947054"><ele>91.0</ele><time>2026-04-18T08:49:08.852Z</time></trkpt><trkpt lat="45.27874079043719" lon="9.120759915228899"><ele>90.75</ele><time>2026-04-18T08:49:10.852Z</time></trkpt><trkpt lat="45.278841437840434" lon="9.12071503832548"><ele>90.5</ele><time>2026-04-18T08:49:12.852Z</time></trkpt><trkpt lat="45.27895901507605" lon="9.120682642507774"><ele>90.25</ele><time>2026-04-18T08:49:14.852Z</time></trkpt><trkpt lat="45.27907531545847" lon="9.120638356439907"><ele>90.0</ele><time>2026-04-18T08:49:16.852Z</time></trkpt><trkpt lat="45.27918262164891" lon="9.120591658650753"><ele>90.0</ele><time>2026-04-18T08:49:18.852Z</time></trkpt><trkpt lat="45.279279164403476" lon="9.120552154787811"><ele>90.0</ele><time>2026-04-18T08:49:20.852Z</time></trkpt><trkpt lat="45.27934278674993" lon="9.120536433298431"><ele>90.0</ele><time>2026-04-18T08:49:21.852Z</time></trkpt><trkpt lat="45.279452360850286" lon="9.120493840195486"><ele>90.0</ele><time>2026-04-18T08:49:23.852Z</time></trkpt><trkpt lat="45.27955093525333" lon="9.120469212315992"><ele>90.0</ele><time>2026-04-18T08:49:25.853Z</time></trkpt><trkpt lat="45.27964928142025" lon="9.120412600638971"><ele>89.6</ele><time>2026-04-18T08:49:27.853Z</time></trkpt><trkpt lat="45.27977470737188" lon="9.120387354909575"><ele>89.2</ele><time>2026-04-18T08:49:29.853Z</time></trkpt><trkpt lat="45.27984561136794" lon="9.120367552647954"><ele>88.80000000000001</ele><time>2026-04-18T08:49:30.853Z</time></trkpt><trkpt lat="45.279965067374256" lon="9.12032924910498"><ele>88.4</ele><time>2026-04-18T08:49:32.853Z</time></trkpt><trkpt lat="45.28004313391116" lon="9.120288871171745"><ele>88.0</ele><time>2026-04-18T08:49:34.852Z</time></trkpt><trkpt lat="45.280149327523645" lon="9.120243849470512"><ele>88.0</ele><time>2026-04-18T08:49:36.852Z</time></trkpt><trkpt lat="45.280280504369046" lon="9.120213500909792"><ele>88.0</ele><time>2026-04-18T08:49:38.852Z</time></trkpt><trkpt lat="45.280349326944894" lon="9.120184589457294"><ele>88.0</ele><time>2026-04-18T08:49:39.852Z</time></trkpt><trkpt lat="45.280446533859475" lon="9.120147274371245"><ele>88.0</ele><time>2026-04-18T08:49:41.852Z</time></trkpt><trkpt lat="45.28051430201572" lon="9.12012244336483"><ele>88.0</ele><time>2026-04-18T08:49:42.852Z</time></trkpt><trkpt lat="45.280623292182064" lon="9.120077935492944"><ele>88.25</ele><time>2026-04-18T08:49:44.852Z</time></trkpt><trkpt lat="45.2807266155562" lon="9.120036777064914"><ele>88.5</ele><time>2026-04-18T08:49:46.852Z</time></trkpt><trkpt lat="45.28084799219251" lon="9.119994421438658"><ele>88.75</ele><time>2026-04-18T08:49:48.852Z</time></trkpt><trkpt lat="45.28096034399477" lon="9.119950378715687"><ele>89.0</ele><time>2026-04-18T08:49:50.852Z</time></trkpt><trkpt lat="45.28107497125775" lon="9.119912603768391"><ele>89.0</ele><time>2026-04-18T08:49:52.852Z</time></trkpt><trkpt lat="45.28119305099378" lon="9.119865028754404"><ele>89.0</ele><time>2026-04-18T08:49:54.852Z</time></trkpt><trkpt lat="45.28125570173564" lon="9.119845354138228"><ele>89.0</ele><time>2026-04-18T08:49:55.852Z</time></trkpt><trkpt lat="45.28135149472576" lon="9.119804262931353"><ele>89.0</ele><time>2026-04-18T08:49:57.852Z</time></trkpt><trkpt lat="45.28146726101802" lon="9.119765946381744"><ele>89.0</ele><time>2026-04-18T08:49:59.852Z</time></trkpt><trkpt lat="45.28156300087868" lon="9.119711667966891"><ele>89.2</ele><time>2026-04-18T08:50:01.851Z</time></trkpt><trkpt lat="45.281692482389026" lon="9.119675428324044"><ele>89.4</ele><time>2026-04-18T08:50:03.851Z</time></trkpt><trkpt lat="45.28175449470367" lon="9.119654531925075"><ele>89.6</ele><time>2026-04-18T08:50:04.851Z</time></trkpt><trkpt lat="45.28181754456006" lon="9.119633598002201"><ele>89.8</ele><time>2026-04-18T08:50:05.851Z</time></trkpt><trkpt lat="45.28192454499346" lon="9.119596780817302"><ele>90.0</ele><time>2026-04-18T08:50:07.851Z</time></trkpt><trkpt lat="45.282028986819775" lon="9.119550392215547"><ele>90.0</ele><time>2026-04-18T08:50:09.851Z</time></trkpt><trkpt lat="45.28213529384772" lon="9.119507907988778"><ele>90.0</ele><time>2026-04-18T08:50:11.851Z</time></trkpt><trkpt lat="45.28225012031663" lon="9.119466770487804"><ele>90.0</ele><time>2026-04-18T08:50:13.851Z</time></trkpt><trkpt lat="45.28234168876976" lon="9.11941264935053"><ele>90.0</ele><time>2026-04-18T08:50:15.851Z</time></trkpt><trkpt lat="45.282457769039354" lon="9.119370376506678"><ele>90.0</ele><time>2026-04-18T08:50:17.851Z</time></trkpt><trkpt lat="45.28251977173557" lon="9.11934801578688"><ele>89.8</ele><time>2026-04-18T08:50:18.851Z</time></trkpt><trkpt lat="45.28263610936195" lon="9.119299685066425"><ele>89.6</ele><time>2026-04-18T08:50:20.851Z</time></trkpt><trkpt lat="45.282751667338104" lon="9.119273976602667"><ele>89.4</ele><time>2026-04-18T08:50:22.851Z</time></trkpt><trkpt lat="45.28285058167242" lon="9.119230878698298"><ele>89.2</ele><time>2026-04-18T08:50:24.851Z</time></trkpt><trkpt lat="45.282951529689356" lon="9.119201849704286"><ele>89.0</ele><time>2026-04-18T08:50:26.85Z</time></trkpt><trkpt lat="45.28304092251765" lon="9.119179383206076"><ele>89.2</ele><time>2026-04-18T08:50:28.85Z</time></trkpt><trkpt lat="45.283113475558736" lon="9.11914822650151"><ele>89.4</ele><time>2026-04-18T08:50:30.85Z</time></trkpt><trkpt lat="45.2832199235539" lon="9.119117342949256"><ele>89.6</ele><time>2026-04-18T08:50:32.85Z</time></trkpt><trkpt lat="45.28333243993089" lon="9.119077210564692"><ele>89.8</ele><time>2026-04-18T08:50:34.85Z</time></trkpt><trkpt lat="45.28343171107878" lon="9.119041456765679"><ele>90.0</ele><time>2026-04-18T08:50:36.85Z</time></trkpt><trkpt lat="45.28350043733986" lon="9.11902098804952"><ele>90.0</ele><time>2026-04-18T08:50:38.85Z</time></trkpt><trkpt lat="45.28358002076367" lon="9.118991729278887"><ele>90.0</ele><time>2026-04-18T08:50:40.85Z</time></trkpt><trkpt lat="45.283652019277326" lon="9.118969498753707"><ele>90.0</ele><time>2026-04-18T08:50:42.85Z</time></trkpt><trkpt lat="45.28373235974397" lon="9.118947988531982"><ele>90.0</ele><time>2026-04-18T08:50:44.85Z</time></trkpt><trkpt lat="45.28382803062022" lon="9.118909526610574"><ele>90.0</ele><time>2026-04-18T08:50:46.85Z</time></trkpt><trkpt lat="45.28393190040589" lon="9.118866759093105"><ele>90.0</ele><time>2026-04-18T08:50:48.85Z</time></trkpt><trkpt lat="45.284011485933554" lon="9.118837343115032"><ele>89.83333333333333</ele><time>2026-04-18T08:50:50.85Z</time></trkpt><trkpt lat="45.28409529023204" lon="9.118794229441367"><ele>89.66666666666667</ele><time>2026-04-18T08:50:53.849Z</time></trkpt><trkpt lat="45.28417174832781" lon="9.118765951948092"><ele>89.5</ele><time>2026-04-18T08:50:56.849Z</time></trkpt><trkpt lat="45.284245713933586" lon="9.118734747703595"><ele>89.33333333333334</ele><time>2026-04-18T08:50:59.849Z</time></trkpt><trkpt lat="45.28431543531123" lon="9.118711629875136"><ele>89.16666666666667</ele><time>2026-04-18T08:51:01.849Z</time></trkpt><trkpt lat="45.28438767710128" lon="9.118682911426559"><ele>89.0</ele><time>2026-04-18T08:51:03.849Z</time></trkpt><trkpt lat="45.284458610293825" lon="9.118652765354383"><ele>89.0</ele><time>2026-04-18T08:51:05.849Z</time></trkpt><trkpt lat="45.28453315639571" lon="9.118621099960192"><ele>89.0</ele><time>2026-04-18T08:51:07.849Z</time></trkpt><trkpt lat="45.28462169073968" lon="9.118588707294412"><ele>89.0</ele><time>2026-04-18T08:51:09.849Z</time></trkpt><trkpt lat="45.284720426488406" lon="9.118549651259288"><ele>89.0</ele><time>2026-04-18T08:51:11.849Z</time></trkpt><trkpt lat="45.28481094214958" lon="9.11851163624727"><ele>89.0</ele><time>2026-04-18T08:51:13.849Z</time></trkpt><trkpt lat="45.284901158612946" lon="9.118471451208544"><ele>89.16666666666667</ele><time>2026-04-18T08:51:15.849Z</time></trkpt><trkpt lat="45.28497749861314" lon="9.118440680535201"><ele>89.33333333333334</ele><time>2026-04-18T08:51:17.848Z</time></trkpt><trkpt lat="45.285066115834745" lon="9.11841511820842"><ele>89.5</ele><time>2026-04-18T08:51:19.848Z</time></trkpt><trkpt lat="45.28516660374151" lon="9.118371828398438"><ele>89.66666666666667</ele><time>2026-04-18T08:51:21.848Z</time></trkpt><trkpt lat="45.28524048007218" lon="9.118333981500328"><ele>89.83333333333333</ele><time>2026-04-18T08:51:23.848Z</time></trkpt><trkpt lat="45.2853137872895" lon="9.11830939827001"><ele>90.0</ele><time>2026-04-18T08:51:26.848Z</time></trkpt><trkpt lat="45.285399415377206" lon="9.118271427389146"><ele>90.0</ele><time>2026-04-18T08:51:28.848Z</time></trkpt><trkpt lat="45.28548689423084" lon="9.118235319138561"><ele>90.0</ele><time>2026-04-18T08:51:30.849Z</time></trkpt><trkpt lat="45.28557387925105" lon="9.118199964825191"><ele>90.0</ele><time>2026-04-18T08:51:32.85Z</time></trkpt><trkpt lat="45.28565544972997" lon="9.118162256212427"><ele>90.0</ele><time>2026-04-18T08:51:34.849Z</time></trkpt><trkpt lat="45.28575176546036" lon="9.118133351601598"><ele>90.0</ele><time>2026-04-18T08:51:36.85Z</time></trkpt><trkpt lat="45.285848388062554" lon="9.118101632436142"><ele>90.0</ele><time>2026-04-18T08:51:38.85Z</time></trkpt><trkpt lat="45.28595167217262" lon="9.11806512111194"><ele>90.0</ele><time>2026-04-18T08:51:40.849Z</time></trkpt><trkpt lat="45.286053415167" lon="9.118023201606706"><ele>90.0</ele><time>2026-04-18T08:51:42.849Z</time></trkpt><trkpt lat="45.28615267932318" lon="9.117983647082104"><ele>90.0</ele><time>2026-04-18T08:51:44.849Z</time></trkpt><trkpt lat="45.28625924738921" lon="9.117944207654421"><ele>90.0</ele><time>2026-04-18T08:51:46.849Z</time></trkpt><trkpt lat="45.28635560343322" lon="9.117905628173471"><ele>90.4</ele><time>2026-04-18T08:51:48.849Z</time></trkpt><trkpt lat="45.28645976789464" lon="9.117864112205115"><ele>90.8</ele><time>2026-04-18T08:51:50.849Z</time></trkpt><trkpt lat="45.28656195688642" lon="9.117823243464967"><ele>91.19999999999999</ele><time>2026-04-18T08:51:52.849Z</time></trkpt><trkpt lat="45.28666743719361" lon="9.117783610239044"><ele>91.6</ele><time>2026-04-18T08:51:54.849Z</time></trkpt><trkpt lat="45.28676659461495" lon="9.117745318716922"><ele>92.0</ele><time>2026-04-18T08:51:56.849Z</time></trkpt><trkpt lat="45.28687270236199" lon="9.11770708459018"><ele>92.0</ele><time>2026-04-18T08:51:58.849Z</time></trkpt><trkpt lat="45.286983319976805" lon="9.117663365701153"><ele>92.0</ele><time>2026-04-18T08:52:00.848Z</time></trkpt><trkpt lat="45.28709307065049" lon="9.117623049700619"><ele>92.0</ele><time>2026-04-18T08:52:02.848Z</time></trkpt><trkpt lat="45.2872012589935" lon="9.11758633002155"><ele>92.0</ele><time>2026-04-18T08:52:04.848Z</time></trkpt><trkpt lat="45.287306516988004" lon="9.11754555808906"><ele>92.0</ele><time>2026-04-18T08:52:06.848Z</time></trkpt><trkpt lat="45.28741308901771" lon="9.117506483955111"><ele>92.0</ele><time>2026-04-18T08:52:08.848Z</time></trkpt><trkpt lat="45.28752369411405" lon="9.117465168640022"><ele>92.0</ele><time>2026-04-18T08:52:10.848Z</time></trkpt><trkpt lat="45.28763276302793" lon="9.117422797101675"><ele>92.0</ele><time>2026-04-18T08:52:12.848Z</time></trkpt><trkpt lat="45.287738146481985" lon="9.11738196783525"><ele>92.0</ele><time>2026-04-18T08:52:14.848Z</time></trkpt><trkpt lat="45.28784372362241" lon="9.117339342706778"><ele>92.0</ele><time>2026-04-18T08:52:16.848Z</time></trkpt><trkpt lat="45.28794609848365" lon="9.11729944658741"><ele>92.0</ele><time>2026-04-18T08:52:18.848Z</time></trkpt><trkpt lat="45.288049768880526" lon="9.117261090801657"><ele>92.0</ele><time>2026-04-18T08:52:20.848Z</time></trkpt><trkpt lat="45.28815043620082" lon="9.117225064769212"><ele>92.0</ele><time>2026-04-18T08:52:22.848Z</time></trkpt><trkpt lat="45.288250807146404" lon="9.117187536341977"><ele>92.0</ele><time>2026-04-18T08:52:24.848Z</time></trkpt><trkpt lat="45.288353909185545" lon="9.11715013618015"><ele>92.0</ele><time>2026-04-18T08:52:26.847Z</time></trkpt><trkpt lat="45.28846306832812" lon="9.117106703046097"><ele>92.0</ele><time>2026-04-18T08:52:28.847Z</time></trkpt><trkpt lat="45.28857047186537" lon="9.117065695457049"><ele>92.0</ele><time>2026-04-18T08:52:30.847Z</time></trkpt><trkpt lat="45.288675462806346" lon="9.117022912082852"><ele>92.0</ele><time>2026-04-18T08:52:32.847Z</time></trkpt><trkpt lat="45.28877955799955" lon="9.116979868155596"><ele>92.0</ele><time>2026-04-18T08:52:34.847Z</time></trkpt><trkpt lat="45.288888457828634" lon="9.116936493570867"><ele>92.0</ele><time>2026-04-18T08:52:36.847Z</time></trkpt><trkpt lat="45.288997737179564" lon="9.116900120410028"><ele>91.5</ele><time>2026-04-18T08:52:38.847Z</time></trkpt><trkpt lat="45.289102146167814" lon="9.11685753070979"><ele>91.0</ele><time>2026-04-18T08:52:40.847Z</time></trkpt><trkpt lat="45.28920960362785" lon="9.116820974841861"><ele>90.5</ele><time>2026-04-18T08:52:42.847Z</time></trkpt><trkpt lat="45.28932734234305" lon="9.116781551090208"><ele>90.0</ele><time>2026-04-18T08:52:44.847Z</time></trkpt><trkpt lat="45.289441221852776" lon="9.116741186346658"><ele>90.0</ele><time>2026-04-18T08:52:46.847Z</time></trkpt><trkpt lat="45.28955353729914" lon="9.116694593651513"><ele>90.0</ele><time>2026-04-18T08:52:48.847Z</time></trkpt><trkpt lat="45.289659068544715" lon="9.116656019546971"><ele>90.0</ele><time>2026-04-18T08:52:50.847Z</time></trkpt><trkpt lat="45.28976359800571" lon="9.116610456326924"><ele>90.0</ele><time>2026-04-18T08:52:52.846Z</time></trkpt><trkpt lat="45.28986767438948" lon="9.116572551577708"><ele>90.0</ele><time>2026-04-18T08:52:54.846Z</time></trkpt><trkpt lat="45.28997391566033" lon="9.116534416351916"><ele>90.2</ele><time>2026-04-18T08:52:56.846Z</time></trkpt><trkpt lat="45.29008039029968" lon="9.11649364578003"><ele>90.4</ele><time>2026-04-18T08:52:58.846Z</time></trkpt><trkpt lat="45.290178534702655" lon="9.116456382923666"><ele>90.6</ele><time>2026-04-18T08:53:00.846Z</time></trkpt><trkpt lat="45.29026729065987" lon="9.116416052782657"><ele>90.8</ele><time>2026-04-18T08:53:02.846Z</time></trkpt><trkpt lat="45.29036346194695" lon="9.116384073859585"><ele>91.0</ele><time>2026-04-18T08:53:04.846Z</time></trkpt><trkpt lat="45.290461089372144" lon="9.11634187959458"><ele>91.0</ele><time>2026-04-18T08:53:06.846Z</time></trkpt><trkpt lat="45.29055803984241" lon="9.116310034665412"><ele>91.0</ele><time>2026-04-18T08:53:08.846Z</time></trkpt><trkpt lat="45.29066004124197" lon="9.11626867270339"><ele>91.0</ele><time>2026-04-18T08:53:10.846Z</time></trkpt><trkpt lat="45.29076349022615" lon="9.116229806154236"><ele>91.0</ele><time>2026-04-18T08:53:12.846Z</time></trkpt><trkpt lat="45.290864644834464" lon="9.116195180505084"><ele>91.0</ele><time>2026-04-18T08:53:14.846Z</time></trkpt><trkpt lat="45.29097117116994" lon="9.11615525611615"><ele>91.0</ele><time>2026-04-18T08:53:16.846Z</time></trkpt><trkpt lat="45.291076638705086" lon="9.11611620126263"><ele>91.0</ele><time>2026-04-18T08:53:18.845Z</time></trkpt><trkpt lat="45.291179087153296" lon="9.116079480863014"><ele>91.0</ele><time>2026-04-18T08:53:20.845Z</time></trkpt><trkpt lat="45.2912812720136" lon="9.116036347238825"><ele>91.0</ele><time>2026-04-18T08:53:22.845Z</time></trkpt><trkpt lat="45.29139060157875" lon="9.115999702748878"><ele>91.0</ele><time>2026-04-18T08:53:24.845Z</time></trkpt><trkpt lat="45.291492224817816" lon="9.11596264689922"><ele>91.19999999999999</ele><time>2026-04-18T08:53:26.845Z</time></trkpt><trkpt lat="45.29159649356064" lon="9.115919246761884"><ele>91.39999999999999</ele><time>2026-04-18T08:53:28.845Z</time></trkpt><trkpt lat="45.291699793338" lon="9.115882915332397"><ele>91.6</ele><time>2026-04-18T08:53:30.845Z</time></trkpt><trkpt lat="45.29180329950907" lon="9.115842783533035"><ele>91.8</ele><time>2026-04-18T08:53:32.845Z</time></trkpt><trkpt lat="45.29190981892233" lon="9.115801969075806"><ele>92.0</ele><time>2026-04-18T08:53:34.845Z</time></trkpt><trkpt lat="45.29201181606891" lon="9.115760449498332"><ele>91.8</ele><time>2026-04-18T08:53:36.846Z</time></trkpt><trkpt lat="45.29212053115775" lon="9.115724367472692"><ele>91.6</ele><time>2026-04-18T08:53:38.846Z</time></trkpt><trkpt lat="45.29222635344655" lon="9.115687524647253"><ele>91.39999999999999</ele><time>2026-04-18T08:53:40.846Z</time></trkpt><trkpt lat="45.29232944397379" lon="9.115647768383807"><ele>91.19999999999999</ele><time>2026-04-18T08:53:42.846Z</time></trkpt><trkpt lat="45.29242899503322" lon="9.11560460773643"><ele>91.0</ele><time>2026-04-18T08:53:44.846Z</time></trkpt><trkpt lat="45.29252961259831" lon="9.115569128962234"><ele>90.8</ele><time>2026-04-18T08:53:46.845Z</time></trkpt><trkpt lat="45.29263519457041" lon="9.115530066859966"><ele>90.6</ele><time>2026-04-18T08:53:48.845Z</time></trkpt><trkpt lat="45.29274140752205" lon="9.1154880572986"><ele>90.4</ele><time>2026-04-18T08:53:50.845Z</time></trkpt><trkpt lat="45.29284864798551" lon="9.115448467170449"><ele>90.2</ele><time>2026-04-18T08:53:52.845Z</time></trkpt><trkpt lat="45.29295299625728" lon="9.115409840197197"><ele>90.0</ele><time>2026-04-18T08:53:54.845Z</time></trkpt><trkpt lat="45.293054088242165" lon="9.11537413726457"><ele>90.2</ele><time>2026-04-18T08:53:56.845Z</time></trkpt><trkpt lat="45.29315665471333" lon="9.115336486568625"><ele>90.4</ele><time>2026-04-18T08:53:58.845Z</time></trkpt><trkpt lat="45.293261681739516" lon="9.115293381048804"><ele>90.6</ele><time>2026-04-18T08:54:00.845Z</time></trkpt><trkpt lat="45.293363483792874" lon="9.115253504808702"><ele>90.8</ele><time>2026-04-18T08:54:02.844Z</time></trkpt><trkpt lat="45.29347404929025" lon="9.115216731233065"><ele>91.0</ele><time>2026-04-18T08:54:04.844Z</time></trkpt><trkpt lat="45.29358137461616" lon="9.115175232748136"><ele>91.0</ele><time>2026-04-18T08:54:06.844Z</time></trkpt><trkpt lat="45.293692653948554" lon="9.115133289319637"><ele>91.0</ele><time>2026-04-18T08:54:08.844Z</time></trkpt><trkpt lat="45.29380040165844" lon="9.11509494961809"><ele>91.0</ele><time>2026-04-18T08:54:10.844Z</time></trkpt><trkpt lat="45.293913896737756" lon="9.115055667652117"><ele>91.0</ele><time>2026-04-18T08:54:12.844Z</time></trkpt><trkpt lat="45.29401764358918" lon="9.115012514795366"><ele>91.0</ele><time>2026-04-18T08:54:14.844Z</time></trkpt><trkpt lat="45.294125924657514" lon="9.114969870986524"><ele>91.0</ele><time>2026-04-18T08:54:16.844Z</time></trkpt><trkpt lat="45.29423609104413" lon="9.1149333732579"><ele>91.0</ele><time>2026-04-18T08:54:18.844Z</time></trkpt><trkpt lat="45.294346070880934" lon="9.114890564827315"><ele>91.0</ele><time>2026-04-18T08:54:20.844Z</time></trkpt><trkpt lat="45.29446007203108" lon="9.114845323620848"><ele>91.0</ele><time>2026-04-18T08:54:22.844Z</time></trkpt><trkpt lat="45.29456311628257" lon="9.114808620871544"><ele>91.0</ele><time>2026-04-18T08:54:24.844Z</time></trkpt><trkpt lat="45.29467114766661" lon="9.114768741900129"><ele>91.0</ele><time>2026-04-18T08:54:26.844Z</time></trkpt><trkpt lat="45.294774083964796" lon="9.114726855375224"><ele>91.0</ele><time>2026-04-18T08:54:28.843Z</time></trkpt><trkpt lat="45.29487654455737" lon="9.11468614525656"><ele>91.0</ele><time>2026-04-18T08:54:30.843Z</time></trkpt><trkpt lat="45.294976468395845" lon="9.114648774426856"><ele>91.0</ele><time>2026-04-18T08:54:32.843Z</time></trkpt><trkpt lat="45.295072579011254" lon="9.114598349451715"><ele>91.0</ele><time>2026-04-18T08:54:34.843Z</time></trkpt><trkpt lat="45.29516684205861" lon="9.114556450144873"><ele>91.0</ele><time>2026-04-18T08:54:36.843Z</time></trkpt><trkpt lat="45.295274880047586" lon="9.114514506053105"><ele>91.0</ele><time>2026-04-18T08:54:38.843Z</time></trkpt><trkpt lat="45.295363948021006" lon="9.114470735262342"><ele>91.0</ele><time>2026-04-18T08:54:40.843Z</time></trkpt><trkpt lat="45.29547652413886" lon="9.114431048750085"><ele>91.0</ele><time>2026-04-18T08:54:42.843Z</time></trkpt><trkpt lat="45.29557426467387" lon="9.114395170277257"><ele>91.0</ele><time>2026-04-18T08:54:44.843Z</time></trkpt><trkpt lat="45.29568804102882" lon="9.114347504453322"><ele>91.0</ele><time>2026-04-18T08:54:46.843Z</time></trkpt><trkpt lat="45.29580662792944" lon="9.114316439402588"><ele>91.0</ele><time>2026-04-18T08:54:48.843Z</time></trkpt><trkpt lat="45.29592459261191" lon="9.114275228077759"><ele>91.0</ele><time>2026-04-18T08:54:50.843Z</time></trkpt><trkpt lat="45.296034721614674" lon="9.114237067102977"><ele>91.0</ele><time>2026-04-18T08:54:52.843Z</time></trkpt><trkpt lat="45.29613732550038" lon="9.114190455332078"><ele>91.0</ele><time>2026-04-18T08:54:54.842Z</time></trkpt><trkpt lat="45.29624764936319" lon="9.114150443360854"><ele>91.0</ele><time>2026-04-18T08:54:56.842Z</time></trkpt><trkpt lat="45.29630976743902" lon="9.114127993007601"><ele>91.0</ele><time>2026-04-18T08:54:57.842Z</time></trkpt><trkpt lat="45.29640936153926" lon="9.11408859098858"><ele>91.4</ele><time>2026-04-18T08:54:59.842Z</time></trkpt><trkpt lat="45.296509672170274" lon="9.114044347358355"><ele>91.8</ele><time>2026-04-18T08:55:01.842Z</time></trkpt><trkpt lat="45.29661936527575" lon="9.114004366596015"><ele>92.2</ele><time>2026-04-18T08:55:03.842Z</time></trkpt><trkpt lat="45.29673512411345" lon="9.113958937477793"><ele>92.60000000000001</ele><time>2026-04-18T08:55:05.842Z</time></trkpt><trkpt lat="45.29683423448213" lon="9.113916396551454"><ele>93.0</ele><time>2026-04-18T08:55:07.842Z</time></trkpt><trkpt lat="45.29693942638021" lon="9.113881277481763"><ele>93.0</ele><time>2026-04-18T08:55:09.842Z</time></trkpt><trkpt lat="45.29704006798817" lon="9.113843726395682"><ele>93.0</ele><time>2026-04-18T08:55:11.842Z</time></trkpt><trkpt lat="45.29714925216926" lon="9.113805553122992"><ele>93.0</ele><time>2026-04-18T08:55:13.842Z</time></trkpt><trkpt lat="45.29725067531122" lon="9.11375642664947"><ele>93.0</ele><time>2026-04-18T08:55:15.842Z</time></trkpt><trkpt lat="45.29735961241775" lon="9.113718040333014"><ele>93.0</ele><time>2026-04-18T08:55:17.842Z</time></trkpt><trkpt lat="45.29745381881468" lon="9.113675436052878"><ele>93.2</ele><time>2026-04-18T08:55:19.841Z</time></trkpt><trkpt lat="45.297557310371445" lon="9.113638603103958"><ele>93.4</ele><time>2026-04-18T08:55:21.841Z</time></trkpt><trkpt lat="45.29765500040432" lon="9.113597117549075"><ele>93.60000000000001</ele><time>2026-04-18T08:55:23.841Z</time></trkpt><trkpt lat="45.297753594241186" lon="9.113557228633779"><ele>93.80000000000001</ele><time>2026-04-18T08:55:25.841Z</time></trkpt><trkpt lat="45.29785769943623" lon="9.113517140937626"><ele>94.0</ele><time>2026-04-18T08:55:27.841Z</time></trkpt><trkpt lat="45.29796552514735" lon="9.11348506336354"><ele>94.0</ele><time>2026-04-18T08:55:29.841Z</time></trkpt><trkpt lat="45.298067918180266" lon="9.113438119642762"><ele>94.0</ele><time>2026-04-18T08:55:31.841Z</time></trkpt><trkpt lat="45.29818740373813" lon="9.113409331884775"><ele>94.0</ele><time>2026-04-18T08:55:33.841Z</time></trkpt><trkpt lat="45.2982901035251" lon="9.11336174968172"><ele>94.0</ele><time>2026-04-18T08:55:35.841Z</time></trkpt><trkpt lat="45.29840262564023" lon="9.113320908451731"><ele>93.75</ele><time>2026-04-18T08:55:37.841Z</time></trkpt><trkpt lat="45.298515623536986" lon="9.113282334838447"><ele>93.5</ele><time>2026-04-18T08:55:39.841Z</time></trkpt><trkpt lat="45.29862030798418" lon="9.11323931695374"><ele>93.25</ele><time>2026-04-18T08:55:41.841Z</time></trkpt><trkpt lat="45.29872854011247" lon="9.113201431582537"><ele>93.0</ele><time>2026-04-18T08:55:43.842Z</time></trkpt><trkpt lat="45.29884034504066" lon="9.113157702498787"><ele>92.60000000000001</ele><time>2026-04-18T08:55:45.842Z</time></trkpt><trkpt lat="45.298937586483284" lon="9.11311656171957"><ele>92.2</ele><time>2026-04-18T08:55:47.842Z</time></trkpt><trkpt lat="45.29904117531748" lon="9.113087005557972"><ele>91.8</ele><time>2026-04-18T08:55:49.842Z</time></trkpt><trkpt lat="45.29914455457361" lon="9.113041677230957"><ele>91.4</ele><time>2026-04-18T08:55:51.841Z</time></trkpt><trkpt lat="45.299262563374946" lon="9.113006474801104"><ele>91.0</ele><time>2026-04-18T08:55:53.842Z</time></trkpt><trkpt lat="45.2993715864792" lon="9.112966732914426"><ele>91.0</ele><time>2026-04-18T08:55:55.842Z</time></trkpt><trkpt lat="45.29947973507038" lon="9.1129216885736"><ele>91.0</ele><time>2026-04-18T08:55:57.842Z</time></trkpt><trkpt lat="45.29958962144202" lon="9.112886730404977"><ele>91.0</ele><time>2026-04-18T08:55:59.842Z</time></trkpt><trkpt lat="45.29969346370785" lon="9.112845503198695"><ele>91.0</ele><time>2026-04-18T08:56:01.841Z</time></trkpt><trkpt lat="45.29980233015676" lon="9.112800819488237"><ele>91.0</ele><time>2026-04-18T08:56:03.841Z</time></trkpt><trkpt lat="45.299908808897975" lon="9.112760576231643"><ele>91.19999999999999</ele><time>2026-04-18T08:56:05.841Z</time></trkpt><trkpt lat="45.300006490006446" lon="9.112721675654036"><ele>91.39999999999999</ele><time>2026-04-18T08:56:07.841Z</time></trkpt><trkpt lat="45.300106755692276" lon="9.112688431141892"><ele>91.6</ele><time>2026-04-18T08:56:09.841Z</time></trkpt><trkpt lat="45.30020940277983" lon="9.112660060036177"><ele>91.8</ele><time>2026-04-18T08:56:11.841Z</time></trkpt><trkpt lat="45.30030015124631" lon="9.112624138700454"><ele>92.0</ele><time>2026-04-18T08:56:13.841Z</time></trkpt><trkpt lat="45.30040607397326" lon="9.11258552866168"><ele>92.0</ele><time>2026-04-18T08:56:15.841Z</time></trkpt><trkpt lat="45.300513013510226" lon="9.112545047405213"><ele>92.0</ele><time>2026-04-18T08:56:17.841Z</time></trkpt><trkpt lat="45.30060477172296" lon="9.112501348872112"><ele>92.0</ele><time>2026-04-18T08:56:19.841Z</time></trkpt><trkpt lat="45.30070757518691" lon="9.112468689165263"><ele>92.0</ele><time>2026-04-18T08:56:21.841Z</time></trkpt><trkpt lat="45.300821163254795" lon="9.112433677935982"><ele>92.0</ele><time>2026-04-18T08:56:23.841Z</time></trkpt><trkpt lat="45.30092693895309" lon="9.11239503998563"><ele>92.0</ele><time>2026-04-18T08:56:25.841Z</time></trkpt><trkpt lat="45.3010357390141" lon="9.11235670231246"><ele>92.0</ele><time>2026-04-18T08:56:27.84Z</time></trkpt><trkpt lat="45.30114326711089" lon="9.112322545040715"><ele>92.0</ele><time>2026-04-18T08:56:29.84Z</time></trkpt><trkpt lat="45.301211032204215" lon="9.112312750189751"><ele>92.0</ele><time>2026-04-18T08:56:30.84Z</time></trkpt><trkpt lat="45.3012735131648" lon="9.112288006461336"><ele>92.0</ele><time>2026-04-18T08:56:31.84Z</time></trkpt><trkpt lat="45.301381229346376" lon="9.11224730048178"><ele>92.0</ele><time>2026-04-18T08:56:33.84Z</time></trkpt><trkpt lat="45.301481896003736" lon="9.112196762548272"><ele>92.0</ele><time>2026-04-18T08:56:35.84Z</time></trkpt><trkpt lat="45.30159263683301" lon="9.112159085370704"><ele>92.0</ele><time>2026-04-18T08:56:37.84Z</time></trkpt><trkpt lat="45.30165507018877" lon="9.11214311159036"><ele>92.0</ele><time>2026-04-18T08:56:38.84Z</time></trkpt><trkpt lat="45.3017622002566" lon="9.112091406646657"><ele>92.0</ele><time>2026-04-18T08:56:40.84Z</time></trkpt><trkpt lat="45.30186850187442" lon="9.112050551434658"><ele>92.0</ele><time>2026-04-18T08:56:42.84Z</time></trkpt><trkpt lat="45.301946703397604" lon="9.11201072952795"><ele>92.0</ele><time>2026-04-18T08:56:44.84Z</time></trkpt><trkpt lat="45.302021071461965" lon="9.111974090114314"><ele>92.0</ele><time>2026-04-18T08:56:46.84Z</time></trkpt><trkpt lat="45.302120840448" lon="9.111945246044632"><ele>92.0</ele><time>2026-04-18T08:56:48.84Z</time></trkpt><trkpt lat="45.30219247424821" lon="9.111923529856023"><ele>92.0</ele><time>2026-04-18T08:56:49.84Z</time></trkpt><trkpt lat="45.302253020353824" lon="9.111892998765132"><ele>92.0</ele><time>2026-04-18T08:56:50.84Z</time></trkpt><trkpt lat="45.30235314022928" lon="9.111851295655889"><ele>91.8</ele><time>2026-04-18T08:56:52.84Z</time></trkpt><trkpt lat="45.30243403714554" lon="9.111796544827715"><ele>91.6</ele><time>2026-04-18T08:56:54.839Z</time></trkpt><trkpt lat="45.30254283668978" lon="9.111771447581791"><ele>91.39999999999999</ele><time>2026-04-18T08:56:56.839Z</time></trkpt><trkpt lat="45.30261190950078" lon="9.111753944407319"><ele>91.19999999999999</ele><time>2026-04-18T08:56:57.839Z</time></trkpt><trkpt lat="45.30267713990222" lon="9.11172190959022"><ele>91.0</ele><time>2026-04-18T08:56:58.839Z</time></trkpt><trkpt lat="45.30279034664329" lon="9.111676846558005"><ele>91.0</ele><time>2026-04-18T08:57:00.839Z</time></trkpt><trkpt lat="45.302895672307066" lon="9.111633763003185"><ele>91.0</ele><time>2026-04-18T08:57:02.839Z</time></trkpt><trkpt lat="45.30302335862323" lon="9.111590280742442"><ele>91.0</ele><time>2026-04-18T08:57:04.839Z</time></trkpt><trkpt lat="45.30308477548905" lon="9.111568590380164"><ele>91.0</ele><time>2026-04-18T08:57:05.839Z</time></trkpt><trkpt lat="45.30319846218711" lon="9.111529010034229"><ele>91.0</ele><time>2026-04-18T08:57:07.839Z</time></trkpt><trkpt lat="45.30330485038946" lon="9.111493659140374"><ele>91.19999999999999</ele><time>2026-04-18T08:57:09.839Z</time></trkpt><trkpt lat="45.303388725064934" lon="9.111441728746373"><ele>91.39999999999999</ele><time>2026-04-18T08:57:11.839Z</time></trkpt><trkpt lat="45.30351073547193" lon="9.111402445178468"><ele>91.6</ele><time>2026-04-18T08:57:13.839Z</time></trkpt><trkpt lat="45.30357373957501" lon="9.111379532279177"><ele>91.8</ele><time>2026-04-18T08:57:14.839Z</time></trkpt><trkpt lat="45.30364038679508" lon="9.111364211041046"><ele>92.0</ele><time>2026-04-18T08:57:15.839Z</time></trkpt><trkpt lat="45.30374124290103" lon="9.111306597396805"><ele>92.0</ele><time>2026-04-18T08:57:17.838Z</time></trkpt><trkpt lat="45.30385698508115" lon="9.111272259606956"><ele>92.0</ele><time>2026-04-18T08:57:19.838Z</time></trkpt><trkpt lat="45.303974897723386" lon="9.111238719670046"><ele>92.0</ele><time>2026-04-18T08:57:21.838Z</time></trkpt><trkpt lat="45.304038507246915" lon="9.111215441020255"><ele>92.0</ele><time>2026-04-18T08:57:22.838Z</time></trkpt><trkpt lat="45.30415662088276" lon="9.111172828600308"><ele>92.0</ele><time>2026-04-18T08:57:24.838Z</time></trkpt><trkpt lat="45.30425629014668" lon="9.111136391534815"><ele>92.19999999999999</ele><time>2026-04-18T08:57:26.838Z</time></trkpt><trkpt lat="45.30435967529025" lon="9.11108872396674"><ele>92.4</ele><time>2026-04-18T08:57:28.838Z</time></trkpt><trkpt lat="45.304462456775724" lon="9.111055824733347"><ele>92.6</ele><time>2026-04-18T08:57:30.838Z</time></trkpt><trkpt lat="45.304574085469284" lon="9.111015705826508"><ele>92.80000000000001</ele><time>2026-04-18T08:57:32.838Z</time></trkpt><trkpt lat="45.30463799188815" lon="9.110999227157553"><ele>93.0</ele><time>2026-04-18T08:57:33.837Z</time></trkpt><trkpt lat="45.304739997815666" lon="9.110950850094593"><ele>93.0</ele><time>2026-04-18T08:57:35.837Z</time></trkpt><trkpt lat="45.304811284187814" lon="9.110902070037532"><ele>93.0</ele><time>2026-04-18T08:57:37.837Z</time></trkpt><trkpt lat="45.304890867246" lon="9.1108707273911"><ele>93.0</ele><time>2026-04-18T08:57:39.837Z</time></trkpt><trkpt lat="45.30496127383565" lon="9.110839676209311"><ele>93.0</ele><time>2026-04-18T08:57:41.837Z</time></trkpt><trkpt lat="45.305052892401754" lon="9.110807848833055"><ele>93.0</ele><time>2026-04-18T08:57:43.837Z</time></trkpt><trkpt lat="45.30515794098965" lon="9.11077767760694"><ele>93.0</ele><time>2026-04-18T08:57:45.837Z</time></trkpt><trkpt lat="45.30526157595918" lon="9.110746206592028"><ele>93.60000000000001</ele><time>2026-04-18T08:57:47.837Z</time></trkpt><trkpt lat="45.305369315094644" lon="9.110700320509382"><ele>94.2</ele><time>2026-04-18T08:57:49.838Z</time></trkpt><trkpt lat="45.30547410694847" lon="9.110659999419601"><ele>94.8</ele><time>2026-04-18T08:57:51.837Z</time></trkpt><trkpt lat="45.30555104679916" lon="9.110631140988193"><ele>95.4</ele><time>2026-04-18T08:57:53.838Z</time></trkpt><trkpt lat="45.3056638002397" lon="9.110607411930127"><ele>96.0</ele><time>2026-04-18T08:57:55.838Z</time></trkpt><trkpt lat="45.30578922292805" lon="9.110565162529278"><ele>96.0</ele><time>2026-04-18T08:57:57.838Z</time></trkpt><trkpt lat="45.30585455163517" lon="9.11053963107998"><ele>96.0</ele><time>2026-04-18T08:57:58.838Z</time></trkpt><trkpt lat="45.30596681587694" lon="9.110495602719304"><ele>96.0</ele><time>2026-04-18T08:58:00.837Z</time></trkpt><trkpt lat="45.306028958151735" lon="9.110474658332254"><ele>96.0</ele><time>2026-04-18T08:58:01.838Z</time></trkpt><trkpt lat="45.306144269796015" lon="9.110425871498665"><ele>96.0</ele><time>2026-04-18T08:58:03.838Z</time></trkpt><trkpt lat="45.30625434950499" lon="9.110390423854914"><ele>96.0</ele><time>2026-04-18T08:58:05.837Z</time></trkpt><trkpt lat="45.30637496760288" lon="9.110348613013919"><ele>96.0</ele><time>2026-04-18T08:58:07.837Z</time></trkpt><trkpt lat="45.30648108694319" lon="9.110301964484579"><ele>96.0</ele><time>2026-04-18T08:58:09.837Z</time></trkpt><trkpt lat="45.30659280209157" lon="9.110262814051937"><ele>96.0</ele><time>2026-04-18T08:58:11.837Z</time></trkpt><trkpt lat="45.30670871890304" lon="9.110223066484329"><ele>95.5</ele><time>2026-04-18T08:58:13.837Z</time></trkpt><trkpt lat="45.306829172787154" lon="9.110178481594808"><ele>95.0</ele><time>2026-04-18T08:58:15.837Z</time></trkpt><trkpt lat="45.306939984709835" lon="9.110138762398945"><ele>94.5</ele><time>2026-04-18T08:58:17.837Z</time></trkpt><trkpt lat="45.30705079753417" lon="9.110096375279367"><ele>94.0</ele><time>2026-04-18T08:58:19.837Z</time></trkpt><trkpt lat="45.30715700519753" lon="9.110056343215971"><ele>94.0</ele><time>2026-04-18T08:58:21.837Z</time></trkpt><trkpt lat="45.30723737238721" lon="9.11002368544939"><ele>94.0</ele><time>2026-04-18T08:58:23.837Z</time></trkpt><trkpt lat="45.307305969435745" lon="9.110014503752437"><ele>94.0</ele><time>2026-04-18T08:58:24.837Z</time></trkpt><trkpt lat="45.30736807907252" lon="9.109992537532756"><ele>94.0</ele><time>2026-04-18T08:58:25.837Z</time></trkpt><trkpt lat="45.307483722165976" lon="9.109946007647467"><ele>94.0</ele><time>2026-04-18T08:58:27.837Z</time></trkpt><trkpt lat="45.307599331882685" lon="9.109905581091512"><ele>93.5</ele><time>2026-04-18T08:58:29.836Z</time></trkpt><trkpt lat="45.307712259017194" lon="9.109867546971783"><ele>93.0</ele><time>2026-04-18T08:58:31.836Z</time></trkpt><trkpt lat="45.307826625138844" lon="9.109824512290857"><ele>92.5</ele><time>2026-04-18T08:58:33.836Z</time></trkpt><trkpt lat="45.307938697353336" lon="9.109782636479741"><ele>92.0</ele><time>2026-04-18T08:58:35.836Z</time></trkpt><trkpt lat="45.308049353405245" lon="9.109739138270276"><ele>92.5</ele><time>2026-04-18T08:58:37.836Z</time></trkpt><trkpt lat="45.30816412934314" lon="9.109700104455381"><ele>93.0</ele><time>2026-04-18T08:58:39.836Z</time></trkpt><trkpt lat="45.30827276181693" lon="9.109658888779613"><ele>93.5</ele><time>2026-04-18T08:58:41.836Z</time></trkpt><trkpt lat="45.308383314077446" lon="9.109616079423562"><ele>94.0</ele><time>2026-04-18T08:58:43.836Z</time></trkpt><trkpt lat="45.30848626779218" lon="9.109577890888524"><ele>94.0</ele><time>2026-04-18T08:58:45.836Z</time></trkpt><trkpt lat="45.308590558211" lon="9.109541353233274"><ele>94.0</ele><time>2026-04-18T08:58:47.836Z</time></trkpt><trkpt lat="45.30869194709966" lon="9.109501729703831"><ele>94.0</ele><time>2026-04-18T08:58:49.836Z</time></trkpt><trkpt lat="45.30879897809339" lon="9.109463457948745"><ele>94.0</ele><time>2026-04-18T08:58:51.836Z</time></trkpt><trkpt lat="45.30890344461631" lon="9.109423873175379"><ele>94.0</ele><time>2026-04-18T08:58:53.836Z</time></trkpt><trkpt lat="45.30900929867276" lon="9.109386044680075"><ele>93.80000000000001</ele><time>2026-04-18T08:58:55.835Z</time></trkpt><trkpt lat="45.309115139518326" lon="9.109346473816863"><ele>93.60000000000001</ele><time>2026-04-18T08:58:57.835Z</time></trkpt><trkpt lat="45.30921831191312" lon="9.109308702953935"><ele>93.4</ele><time>2026-04-18T08:58:59.835Z</time></trkpt><trkpt lat="45.30932332532919" lon="9.10926896502322"><ele>93.2</ele><time>2026-04-18T08:59:01.835Z</time></trkpt><trkpt lat="45.309424476119226" lon="9.109228390090099"><ele>93.0</ele><time>2026-04-18T08:59:03.835Z</time></trkpt><trkpt lat="45.309531895576114" lon="9.109190928878181"><ele>93.0</ele><time>2026-04-18T08:59:05.835Z</time></trkpt><trkpt lat="45.309628961582895" lon="9.10915182480807"><ele>93.0</ele><time>2026-04-18T08:59:07.835Z</time></trkpt><trkpt lat="45.30972705184728" lon="9.109111745348017"><ele>93.0</ele><time>2026-04-18T08:59:09.835Z</time></trkpt><trkpt lat="45.3098235534575" lon="9.10907320053316"><ele>93.0</ele><time>2026-04-18T08:59:11.835Z</time></trkpt><trkpt lat="45.30992688148262" lon="9.10903895932917"><ele>93.0</ele><time>2026-04-18T08:59:13.835Z</time></trkpt><trkpt lat="45.310040506314806" lon="9.108993940454233"><ele>93.4</ele><time>2026-04-18T08:59:15.835Z</time></trkpt><trkpt lat="45.31014460632668" lon="9.108955265503534"><ele>93.80000000000001</ele><time>2026-04-18T08:59:17.835Z</time></trkpt><trkpt lat="45.31024210456861" lon="9.108910343384224"><ele>94.2</ele><time>2026-04-18T08:59:19.835Z</time></trkpt><trkpt lat="45.310352812282666" lon="9.10887123955972"><ele>94.6</ele><time>2026-04-18T08:59:21.834Z</time></trkpt><trkpt lat="45.31046004419178" lon="9.108829375803897"><ele>95.0</ele><time>2026-04-18T08:59:23.834Z</time></trkpt><trkpt lat="45.3105554002657" lon="9.10879109007507"><ele>94.8</ele><time>2026-04-18T08:59:25.834Z</time></trkpt><trkpt lat="45.31066514489506" lon="9.10875394356466"><ele>94.6</ele><time>2026-04-18T08:59:27.834Z</time></trkpt><trkpt lat="45.3107733877014" lon="9.108712554702967"><ele>94.4</ele><time>2026-04-18T08:59:29.834Z</time></trkpt><trkpt lat="45.310877930836085" lon="9.108672848223982"><ele>94.2</ele><time>2026-04-18T08:59:31.834Z</time></trkpt><trkpt lat="45.310980957263844" lon="9.108632778978322"><ele>94.0</ele><time>2026-04-18T08:59:33.834Z</time></trkpt><trkpt lat="45.31107728582152" lon="9.108592598773129"><ele>94.0</ele><time>2026-04-18T08:59:35.834Z</time></trkpt><trkpt lat="45.311173909992824" lon="9.108559681974311"><ele>94.0</ele><time>2026-04-18T08:59:37.834Z</time></trkpt><trkpt lat="45.3112775094893" lon="9.10851456038671"><ele>94.0</ele><time>2026-04-18T08:59:39.834Z</time></trkpt><trkpt lat="45.31138592495729" lon="9.108472510808971"><ele>94.0</ele><time>2026-04-18T08:59:41.834Z</time></trkpt><trkpt lat="45.31148629496648" lon="9.108440165879248"><ele>94.0</ele><time>2026-04-18T08:59:43.834Z</time></trkpt><trkpt lat="45.31159449374787" lon="9.108401994611144"><ele>93.80000000000001</ele><time>2026-04-18T08:59:45.834Z</time></trkpt><trkpt lat="45.311695643683144" lon="9.108359696653947"><ele>93.60000000000001</ele><time>2026-04-18T08:59:47.833Z</time></trkpt><trkpt lat="45.31180244553623" lon="9.108325688575658"><ele>93.4</ele><time>2026-04-18T08:59:49.833Z</time></trkpt><trkpt lat="45.31190356328292" lon="9.108286524880324"><ele>93.2</ele><time>2026-04-18T08:59:51.833Z</time></trkpt><trkpt lat="45.31200302046268" lon="9.108244968467837"><ele>93.0</ele><time>2026-04-18T08:59:53.833Z</time></trkpt><trkpt lat="45.31209901841212" lon="9.108212900642618"><ele>93.0</ele><time>2026-04-18T08:59:55.834Z</time></trkpt><trkpt lat="45.31220604913342" lon="9.108174762364241"><ele>93.0</ele><time>2026-04-18T08:59:57.835Z</time></trkpt><trkpt lat="45.3123043316103" lon="9.108136959403902"><ele>93.0</ele><time>2026-04-18T08:59:59.834Z</time></trkpt><trkpt lat="45.312408999663724" lon="9.108100609758772"><ele>93.0</ele><time>2026-04-18T09:00:01.834Z</time></trkpt><trkpt lat="45.31250780762096" lon="9.108063887722494"><ele>93.0</ele><time>2026-04-18T09:00:03.834Z</time></trkpt><trkpt lat="45.31258782788889" lon="9.108028864766672"><ele>93.0</ele><time>2026-04-18T09:00:05.834Z</time></trkpt><trkpt lat="45.312682257378455" lon="9.107994201527642"><ele>93.0</ele><time>2026-04-18T09:00:07.834Z</time></trkpt><trkpt lat="45.31278396412276" lon="9.10796021191027"><ele>93.0</ele><time>2026-04-18T09:00:09.833Z</time></trkpt><trkpt lat="45.312880135628674" lon="9.107924625655912"><ele>93.0</ele><time>2026-04-18T09:00:11.833Z</time></trkpt><trkpt lat="45.3129803474306" lon="9.10788732819176"><ele>93.0</ele><time>2026-04-18T09:00:13.833Z</time></trkpt><trkpt lat="45.31308385467192" lon="9.107850792427325"><ele>93.2</ele><time>2026-04-18T09:00:15.833Z</time></trkpt><trkpt lat="45.313180220670525" lon="9.107818475678455"><ele>93.4</ele><time>2026-04-18T09:00:17.833Z</time></trkpt><trkpt lat="45.31327629193518" lon="9.107783794073717"><ele>93.60000000000001</ele><time>2026-04-18T09:00:19.833Z</time></trkpt><trkpt lat="45.31337556833198" lon="9.107745508018509"><ele>93.80000000000001</ele><time>2026-04-18T09:00:21.833Z</time></trkpt><trkpt lat="45.31347414629086" lon="9.107708251287683"><ele>94.0</ele><time>2026-04-18T09:00:23.833Z</time></trkpt><trkpt lat="45.31357295184939" lon="9.107667434144467"><ele>94.0</ele><time>2026-04-18T09:00:25.833Z</time></trkpt><trkpt lat="45.31367016284945" lon="9.107633442553855"><ele>94.0</ele><time>2026-04-18T09:00:27.833Z</time></trkpt><trkpt lat="45.31376493857016" lon="9.107603296526753"><ele>94.0</ele><time>2026-04-18T09:00:29.833Z</time></trkpt><trkpt lat="45.313862166901444" lon="9.107568071591263"><ele>94.0</ele><time>2026-04-18T09:00:31.833Z</time></trkpt><trkpt lat="45.31395297608378" lon="9.107533842634407"><ele>94.0</ele><time>2026-04-18T09:00:33.833Z</time></trkpt><trkpt lat="45.31405858354649" lon="9.107511140392935"><ele>93.80000000000001</ele><time>2026-04-18T09:00:35.832Z</time></trkpt><trkpt lat="45.314156166319066" lon="9.107484884491061"><ele>93.60000000000001</ele><time>2026-04-18T09:00:37.832Z</time></trkpt><trkpt lat="45.31426492732062" lon="9.107469757863292"><ele>93.4</ele><time>2026-04-18T09:00:39.832Z</time></trkpt><trkpt lat="45.31437238383369" lon="9.10746287152946"><ele>93.2</ele><time>2026-04-18T09:00:41.832Z</time></trkpt><trkpt lat="45.314474423012555" lon="9.107463266048029"><ele>93.0</ele><time>2026-04-18T09:00:43.832Z</time></trkpt><trkpt lat="45.31457716177334" lon="9.107466482427782"><ele>93.0</ele><time>2026-04-18T09:00:45.832Z</time></trkpt><trkpt lat="45.314680762482745" lon="9.107478458051697"><ele>93.0</ele><time>2026-04-18T09:00:47.832Z</time></trkpt><trkpt lat="45.314782358824566" lon="9.107491667995474"><ele>93.0</ele><time>2026-04-18T09:00:49.832Z</time></trkpt><trkpt lat="45.314865791891634" lon="9.107512051129323"><ele>93.0</ele><time>2026-04-18T09:00:51.832Z</time></trkpt><trkpt lat="45.31494475612484" lon="9.10752410125425"><ele>93.0</ele><time>2026-04-18T09:00:53.832Z</time></trkpt><trkpt lat="45.31502902674328" lon="9.107533585726454"><ele>93.33333333333333</ele><time>2026-04-18T09:00:55.832Z</time></trkpt><trkpt lat="45.3150990942499" lon="9.107547340999728"><ele>93.66666666666667</ele><time>2026-04-18T09:00:57.832Z</time></trkpt><trkpt lat="45.31517979850984" lon="9.107529693693937"><ele>94.0</ele><time>2026-04-18T09:00:59.832Z</time></trkpt><trkpt lat="45.315263435935975" lon="9.107526292137143"><ele>94.33333333333334</ele><time>2026-04-18T09:01:01.831Z</time></trkpt><trkpt lat="45.315349432400104" lon="9.107523976908208"><ele>94.66666666666667</ele><time>2026-04-18T09:01:03.831Z</time></trkpt><trkpt lat="45.315437936032524" lon="9.107517057544188"><ele>95.0</ele><time>2026-04-18T09:01:05.831Z</time></trkpt><trkpt lat="45.315534197477454" lon="9.107520324120896"><ele>95.2</ele><time>2026-04-18T09:01:07.831Z</time></trkpt><trkpt lat="45.315630805076836" lon="9.107511132405053"><ele>95.4</ele><time>2026-04-18T09:01:09.831Z</time></trkpt><trkpt lat="45.31571984666796" lon="9.107510951594936"><ele>95.6</ele><time>2026-04-18T09:01:11.831Z</time></trkpt><trkpt lat="45.315825800462285" lon="9.107509051195386"><ele>95.8</ele><time>2026-04-18T09:01:13.831Z</time></trkpt><trkpt lat="45.31592649242414" lon="9.10751025992247"><ele>96.0</ele><time>2026-04-18T09:01:15.831Z</time></trkpt><trkpt lat="45.316027347824836" lon="9.107508500092694"><ele>96.0</ele><time>2026-04-18T09:01:17.831Z</time></trkpt><trkpt lat="45.31612786881015" lon="9.107505107514122"><ele>96.0</ele><time>2026-04-18T09:01:19.831Z</time></trkpt><trkpt lat="45.31621520861736" lon="9.107502695292784"><ele>96.0</ele><time>2026-04-18T09:01:21.831Z</time></trkpt><trkpt lat="45.316313550107765" lon="9.10749862440036"><ele>96.0</ele><time>2026-04-18T09:01:23.831Z</time></trkpt><trkpt lat="45.31640702723251" lon="9.107487857492707"><ele>96.0</ele><time>2026-04-18T09:01:25.831Z</time></trkpt><trkpt lat="45.316495001926306" lon="9.107473618976163"><ele>96.0</ele><time>2026-04-18T09:01:27.83Z</time></trkpt><trkpt lat="45.31658838637091" lon="9.107453236663869"><ele>96.0</ele><time>2026-04-18T09:01:29.83Z</time></trkpt><trkpt lat="45.316676220093925" lon="9.107428711425428"><ele>96.0</ele><time>2026-04-18T09:01:31.83Z</time></trkpt><trkpt lat="45.31675679215682" lon="9.10739256330291"><ele>96.0</ele><time>2026-04-18T09:01:33.83Z</time></trkpt><trkpt lat="45.31681368715985" lon="9.107353252511572"><ele>96.0</ele><time>2026-04-18T09:01:35.83Z</time></trkpt><trkpt lat="45.31692544313123" lon="9.107338324992787"><ele>96.0</ele><time>2026-04-18T09:01:38.83Z</time></trkpt><trkpt lat="45.31700521154129" lon="9.107306546597254"><ele>95.99999999999999</ele><time>2026-04-18T09:01:40.83Z</time></trkpt><trkpt lat="45.31706514586436" lon="9.107275506620441"><ele>96.0</ele><time>2026-04-18T09:01:42.83Z</time></trkpt><trkpt lat="45.317130050964394" lon="9.107255587039749"><ele>96.0</ele><time>2026-04-18T09:01:44.83Z</time></trkpt><trkpt lat="45.31719399912893" lon="9.107216995597271"><ele>96.0</ele><time>2026-04-18T09:01:46.83Z</time></trkpt><trkpt lat="45.31724641818342" lon="9.107156847977867"><ele>96.0</ele><time>2026-04-18T09:01:49.83Z</time></trkpt><trkpt lat="45.31725403684789" lon="9.107060871081199"><ele>95.99999999999999</ele><time>2026-04-18T09:01:52.829Z</time></trkpt><trkpt lat="45.317244807084016" lon="9.10694511442475"><ele>96.0</ele><time>2026-04-18T09:01:55.829Z</time></trkpt><trkpt lat="45.31722662345945" lon="9.10682323902051"><ele>96.0</ele><time>2026-04-18T09:01:58.829Z</time></trkpt><trkpt lat="45.31721226255208" lon="9.106699944265984"><ele>96.0</ele><time>2026-04-18T09:02:00.831Z</time></trkpt><trkpt lat="45.31718267981778" lon="9.106550749954662"><ele>96.0</ele><time>2026-04-18T09:02:02.83Z</time></trkpt><trkpt lat="45.31717146343391" lon="9.106411261810448"><ele>96.0</ele><time>2026-04-18T09:02:04.83Z</time></trkpt><trkpt lat="45.31715368891014" lon="9.106299413688175"><ele>96.0</ele><time>2026-04-18T09:02:06.83Z</time></trkpt><trkpt lat="45.31715012750317" lon="9.10619426678763"><ele>96.0</ele><time>2026-04-18T09:02:08.83Z</time></trkpt><trkpt lat="45.31720942587435" lon="9.106128728008947"><ele>96.0</ele><time>2026-04-18T09:02:12.83Z</time></trkpt><trkpt lat="45.317290678408824" lon="9.106083367971335"><ele>96.0</ele><time>2026-04-18T09:02:14.83Z</time></trkpt><trkpt lat="45.31738184742062" lon="9.106050389594863"><ele>96.0</ele><time>2026-04-18T09:02:16.83Z</time></trkpt><trkpt lat="45.31747183695252" lon="9.10600856336611"><ele>96.0</ele><time>2026-04-18T09:02:18.83Z</time></trkpt><trkpt lat="45.317570468337316" lon="9.105956708586673"><ele>96.0</ele><time>2026-04-18T09:02:20.83Z</time></trkpt><trkpt lat="45.31768675438033" lon="9.105911588227354"><ele>96.0</ele><time>2026-04-18T09:02:22.83Z</time></trkpt><trkpt lat="45.31780315419141" lon="9.105863392666315"><ele>96.0</ele><time>2026-04-18T09:02:24.83Z</time></trkpt><trkpt lat="45.31786433717317" lon="9.105840324912187"><ele>96.0</ele><time>2026-04-18T09:02:25.83Z</time></trkpt><trkpt lat="45.31798002695598" lon="9.105799630992086"><ele>96.0</ele><time>2026-04-18T09:02:27.83Z</time></trkpt><trkpt lat="45.31808762528194" lon="9.105758356698239"><ele>96.19999999999999</ele><time>2026-04-18T09:02:29.83Z</time></trkpt><trkpt lat="45.31819060547856" lon="9.105718286143054"><ele>96.39999999999999</ele><time>2026-04-18T09:02:31.83Z</time></trkpt><trkpt lat="45.318289531291434" lon="9.105695889887185"><ele>96.6</ele><time>2026-04-18T09:02:33.83Z</time></trkpt><trkpt lat="45.318388803105975" lon="9.105664250120247"><ele>96.8</ele><time>2026-04-18T09:02:35.83Z</time></trkpt><trkpt lat="45.318494506821274" lon="9.105627870777049"><ele>97.0</ele><time>2026-04-18T09:02:37.83Z</time></trkpt><trkpt lat="45.3185963932024" lon="9.10558354072326"><ele>97.0</ele><time>2026-04-18T09:02:39.83Z</time></trkpt><trkpt lat="45.31870115630747" lon="9.105547644524643"><ele>97.0</ele><time>2026-04-18T09:02:41.829Z</time></trkpt><trkpt lat="45.31881065290689" lon="9.105520950340738"><ele>97.0</ele><time>2026-04-18T09:02:43.829Z</time></trkpt><trkpt lat="45.31892464711059" lon="9.105472976605697"><ele>97.0</ele><time>2026-04-18T09:02:45.829Z</time></trkpt><trkpt lat="45.319037960517285" lon="9.105425337208166"><ele>96.5</ele><time>2026-04-18T09:02:47.829Z</time></trkpt><trkpt lat="45.319158927702375" lon="9.105381222063581"><ele>96.0</ele><time>2026-04-18T09:02:49.829Z</time></trkpt><trkpt lat="45.31927645788069" lon="9.105335836833538"><ele>95.5</ele><time>2026-04-18T09:02:51.829Z</time></trkpt><trkpt lat="45.31939525829568" lon="9.105288180991252"><ele>95.0</ele><time>2026-04-18T09:02:53.829Z</time></trkpt><trkpt lat="45.319514150829676" lon="9.10524250412819"><ele>95.0</ele><time>2026-04-18T09:02:55.829Z</time></trkpt><trkpt lat="45.31957418913337" lon="9.10521530407535"><ele>95.0</ele><time>2026-04-18T09:02:56.829Z</time></trkpt><trkpt lat="45.31969750822755" lon="9.105171829239215"><ele>95.0</ele><time>2026-04-18T09:02:58.829Z</time></trkpt><trkpt lat="45.319758914643806" lon="9.10514645992274"><ele>95.0</ele><time>2026-04-18T09:02:59.829Z</time></trkpt><trkpt lat="45.3198194097918" lon="9.105116147937123"><ele>95.0</ele><time>2026-04-18T09:03:00.829Z</time></trkpt><trkpt lat="45.31993193351164" lon="9.105069955028611"><ele>95.0</ele><time>2026-04-18T09:03:02.829Z</time></trkpt><trkpt lat="45.32004568660925" lon="9.105026658319002"><ele>95.16666666666667</ele><time>2026-04-18T09:03:04.829Z</time></trkpt><trkpt lat="45.320169349155314" lon="9.104987078141587"><ele>95.33333333333334</ele><time>2026-04-18T09:03:06.828Z</time></trkpt><trkpt lat="45.32023123948521" lon="9.104959075117778"><ele>95.5</ele><time>2026-04-18T09:03:07.828Z</time></trkpt><trkpt lat="45.32029369700142" lon="9.104936739661465"><ele>95.66666666666667</ele><time>2026-04-18T09:03:08.828Z</time></trkpt><trkpt lat="45.32035701003997" lon="9.104914832533147"><ele>95.83333333333333</ele><time>2026-04-18T09:03:09.828Z</time></trkpt><trkpt lat="45.32047837964471" lon="9.104867333630184"><ele>96.0</ele><time>2026-04-18T09:03:11.828Z</time></trkpt><trkpt lat="45.3205964007158" lon="9.104822784091722"><ele>96.0</ele><time>2026-04-18T09:03:13.828Z</time></trkpt><trkpt lat="45.320657399443945" lon="9.104797129573052"><ele>96.0</ele><time>2026-04-18T09:03:14.828Z</time></trkpt><trkpt lat="45.320776832994255" lon="9.104749317448105"><ele>96.0</ele><time>2026-04-18T09:03:16.828Z</time></trkpt><trkpt lat="45.32084644709688" lon="9.104728941999166"><ele>96.0</ele><time>2026-04-18T09:03:17.828Z</time></trkpt><trkpt lat="45.320911461187286" lon="9.104704837332315"><ele>96.0</ele><time>2026-04-18T09:03:18.828Z</time></trkpt><trkpt lat="45.32097940599782" lon="9.104682785193072"><ele>96.0</ele><time>2026-04-18T09:03:19.828Z</time></trkpt><trkpt lat="45.32104494441112" lon="9.104658301200175"><ele>96.0</ele><time>2026-04-18T09:03:20.828Z</time></trkpt><trkpt lat="45.3211651937593" lon="9.104611904522566"><ele>96.0</ele><time>2026-04-18T09:03:22.828Z</time></trkpt><trkpt lat="45.32123162875711" lon="9.104586828254853"><ele>96.0</ele><time>2026-04-18T09:03:23.828Z</time></trkpt><trkpt lat="45.32129655818386" lon="9.104564553157"><ele>96.0</ele><time>2026-04-18T09:03:24.828Z</time></trkpt><trkpt lat="45.321363928505036" lon="9.104541653429392"><ele>96.0</ele><time>2026-04-18T09:03:25.828Z</time></trkpt><trkpt lat="45.32142966875861" lon="9.10452530476799"><ele>96.0</ele><time>2026-04-18T09:03:26.828Z</time></trkpt><trkpt lat="45.32149272085956" lon="9.104500285251719"><ele>96.14285714285714</ele><time>2026-04-18T09:03:27.828Z</time></trkpt><trkpt lat="45.321559340583136" lon="9.104472830953243"><ele>96.28571428571428</ele><time>2026-04-18T09:03:28.828Z</time></trkpt><trkpt lat="45.321624363179865" lon="9.104444605251317"><ele>96.42857142857142</ele><time>2026-04-18T09:03:29.828Z</time></trkpt><trkpt lat="45.32168960220806" lon="9.104421619785864"><ele>96.57142857142857</ele><time>2026-04-18T09:03:30.828Z</time></trkpt><trkpt lat="45.32175479383077" lon="9.104399142601004"><ele>96.71428571428572</ele><time>2026-04-18T09:03:31.827Z</time></trkpt><trkpt lat="45.321819737228815" lon="9.10437555325307"><ele>96.85714285714285</ele><time>2026-04-18T09:03:32.827Z</time></trkpt><trkpt lat="45.32188140598721" lon="9.104357241381056"><ele>97.0</ele><time>2026-04-18T09:03:33.827Z</time></trkpt><trkpt lat="45.32200165138624" lon="9.104315664155703"><ele>97.0</ele><time>2026-04-18T09:03:35.827Z</time></trkpt><trkpt lat="45.322122885511696" lon="9.104266277117631"><ele>97.0</ele><time>2026-04-18T09:03:37.827Z</time></trkpt><trkpt lat="45.32218469780809" lon="9.104244614863617"><ele>97.0</ele><time>2026-04-18T09:03:38.827Z</time></trkpt><trkpt lat="45.32229641297657" lon="9.104194137610216"><ele>97.0</ele><time>2026-04-18T09:03:40.827Z</time></trkpt><trkpt lat="45.32240085198029" lon="9.104138462542203"><ele>97.0</ele><time>2026-04-18T09:03:42.827Z</time></trkpt><trkpt lat="45.32246423793734" lon="9.104126172037207"><ele>96.83333333333334</ele><time>2026-04-18T09:03:43.827Z</time></trkpt><trkpt lat="45.32253470855505" lon="9.104099180127283"><ele>96.66666666666667</ele><time>2026-04-18T09:03:44.827Z</time></trkpt><trkpt lat="45.322610531002724" lon="9.104081682346036"><ele>96.5</ele><time>2026-04-18T09:03:45.827Z</time></trkpt><trkpt lat="45.32267247329785" lon="9.104050865524163"><ele>96.33333333333334</ele><time>2026-04-18T09:03:46.827Z</time></trkpt><trkpt lat="45.32273844851938" lon="9.104045019213324"><ele>96.16666666666667</ele><time>2026-04-18T09:03:47.827Z</time></trkpt><trkpt lat="45.32283769929623" lon="9.103973089927457"><ele>96.0</ele><time>2026-04-18T09:03:49.827Z</time></trkpt><trkpt lat="45.32291179355006" lon="9.103963483086243"><ele>96.4</ele><time>2026-04-18T09:03:50.827Z</time></trkpt><trkpt lat="45.32298711843388" lon="9.103945108183296"><ele>96.8</ele><time>2026-04-18T09:03:51.827Z</time></trkpt><trkpt lat="45.32305001911355" lon="9.10392218138629"><ele>97.2</ele><time>2026-04-18T09:03:52.827Z</time></trkpt><trkpt lat="45.32316768693139" lon="9.10387885500921"><ele>97.60000000000001</ele><time>2026-04-18T09:03:54.827Z</time></trkpt><trkpt lat="45.323289736562714" lon="9.103828417378438"><ele>98.0</ele><time>2026-04-18T09:03:56.827Z</time></trkpt><trkpt lat="45.323417069731995" lon="9.103794576501636"><ele>97.99999999999999</ele><time>2026-04-18T09:03:58.826Z</time></trkpt><trkpt lat="45.32353915938269" lon="9.103746080466632"><ele>98.0</ele><time>2026-04-18T09:04:00.826Z</time></trkpt><trkpt lat="45.32360919372669" lon="9.103721312990514"><ele>98.0</ele><time>2026-04-18T09:04:01.826Z</time></trkpt><trkpt lat="45.32367544817711" lon="9.103702673204726"><ele>98.0</ele><time>2026-04-18T09:04:02.826Z</time></trkpt><trkpt lat="45.323742857602646" lon="9.103677723650073"><ele>97.99999999999999</ele><time>2026-04-18T09:04:03.826Z</time></trkpt><trkpt lat="45.32384602232822" lon="9.103636610281345"><ele>98.0</ele><time>2026-04-18T09:04:05.826Z</time></trkpt><trkpt lat="45.32391520828027" lon="9.103608021191322"><ele>97.85714285714286</ele><time>2026-04-18T09:04:06.827Z</time></trkpt><trkpt lat="45.32398958196401" lon="9.103587749056484"><ele>97.71428571428572</ele><time>2026-04-18T09:04:07.827Z</time></trkpt><trkpt lat="45.3240614350947" lon="9.103564219681633"><ele>97.57142857142857</ele><time>2026-04-18T09:04:08.827Z</time></trkpt><trkpt lat="45.324130999773175" lon="9.103536814859451"><ele>97.42857142857143</ele><time>2026-04-18T09:04:09.827Z</time></trkpt><trkpt lat="45.32419571423551" lon="9.103508955681486"><ele>97.28571428571429</ele><time>2026-04-18T09:04:10.827Z</time></trkpt><trkpt lat="45.32426160168298" lon="9.103482679702653"><ele>97.14285714285714</ele><time>2026-04-18T09:04:11.827Z</time></trkpt><trkpt lat="45.32432830547566" lon="9.103457792330934"><ele>97.0</ele><time>2026-04-18T09:04:12.826Z</time></trkpt><trkpt lat="45.32445315026519" lon="9.10339988683174"><ele>97.0</ele><time>2026-04-18T09:04:14.826Z</time></trkpt><trkpt lat="45.32452848232118" lon="9.103373549139905"><ele>97.0</ele><time>2026-04-18T09:04:15.826Z</time></trkpt><trkpt lat="45.32459332565457" lon="9.103348579381583"><ele>97.0</ele><time>2026-04-18T09:04:16.827Z</time></trkpt><trkpt lat="45.324710712662096" lon="9.103312693372525"><ele>97.0</ele><time>2026-04-18T09:04:18.826Z</time></trkpt><trkpt lat="45.324831790504" lon="9.10326016853299"><ele>97.0</ele><time>2026-04-18T09:04:20.826Z</time></trkpt><trkpt lat="45.32490072594471" lon="9.103229957636852"><ele>96.83333333333334</ele><time>2026-04-18T09:04:21.826Z</time></trkpt><trkpt lat="45.324969563240586" lon="9.103210752171176"><ele>96.66666666666667</ele><time>2026-04-18T09:04:22.826Z</time></trkpt><trkpt lat="45.325033325729336" lon="9.10318595980367"><ele>96.5</ele><time>2026-04-18T09:04:23.826Z</time></trkpt><trkpt lat="45.32510063218139" lon="9.103161234699366"><ele>96.33333333333334</ele><time>2026-04-18T09:04:24.826Z</time></trkpt><trkpt lat="45.32516622464942" lon="9.103138858020351"><ele>96.16666666666667</ele><time>2026-04-18T09:04:25.826Z</time></trkpt><trkpt lat="45.325231278906514" lon="9.103117382865152"><ele>96.0</ele><time>2026-04-18T09:04:26.826Z</time></trkpt><trkpt lat="45.32535646234661" lon="9.103077180094381"><ele>96.0</ele><time>2026-04-18T09:04:28.826Z</time></trkpt><trkpt lat="45.32541674667583" lon="9.103047497271817"><ele>96.0</ele><time>2026-04-18T09:04:29.826Z</time></trkpt><trkpt lat="45.32553772989666" lon="9.10300848946795"><ele>96.0</ele><time>2026-04-18T09:04:31.826Z</time></trkpt><trkpt lat="45.325657955149914" lon="9.102980295667324"><ele>96.0</ele><time>2026-04-18T09:04:33.826Z</time></trkpt><trkpt lat="45.325775378717154" lon="9.102958894604786"><ele>96.0</ele><time>2026-04-18T09:04:35.825Z</time></trkpt><trkpt lat="45.32589069398657" lon="9.102929078412263"><ele>95.99999999999999</ele><time>2026-04-18T09:04:37.825Z</time></trkpt><trkpt lat="45.32595647387464" lon="9.102917647419329"><ele>96.0</ele><time>2026-04-18T09:04:38.825Z</time></trkpt><trkpt lat="45.32602095896828" lon="9.102902561666452"><ele>96.0</ele><time>2026-04-18T09:04:39.825Z</time></trkpt><trkpt lat="45.3260849850065" lon="9.102896401013913"><ele>96.0</ele><time>2026-04-18T09:04:40.825Z</time></trkpt><trkpt lat="45.32615319385743" lon="9.102898507485637"><ele>96.0</ele><time>2026-04-18T09:04:41.825Z</time></trkpt><trkpt lat="45.3262217339196" lon="9.10289950943726"><ele>95.99999999999999</ele><time>2026-04-18T09:04:42.825Z</time></trkpt><trkpt lat="45.3262887019041" lon="9.102902378756976"><ele>96.0</ele><time>2026-04-18T09:04:43.825Z</time></trkpt><trkpt lat="45.326355658423104" lon="9.102900573490993"><ele>96.5</ele><time>2026-04-18T09:04:44.825Z</time></trkpt><trkpt lat="45.32647798948499" lon="9.10290675221176"><ele>97.0</ele><time>2026-04-18T09:04:46.825Z</time></trkpt><trkpt lat="45.32659906749364" lon="9.102921095936924"><ele>97.5</ele><time>2026-04-18T09:04:48.825Z</time></trkpt><trkpt lat="45.32671330218441" lon="9.102940162588258"><ele>98.0</ele><time>2026-04-18T09:04:50.825Z</time></trkpt><trkpt lat="45.326839634609684" lon="9.102970592273246"><ele>97.99999999999999</ele><time>2026-04-18T09:04:52.825Z</time></trkpt><trkpt lat="45.32696392411787" lon="9.10298982078753"><ele>98.0</ele><time>2026-04-18T09:04:54.825Z</time></trkpt><trkpt lat="45.32703097746628" lon="9.10300629537597"><ele>98.0</ele><time>2026-04-18T09:04:55.825Z</time></trkpt><trkpt lat="45.327097727005494" lon="9.103019866434598"><ele>98.0</ele><time>2026-04-18T09:04:56.825Z</time></trkpt><trkpt lat="45.327164030932614" lon="9.103032525231608"><ele>97.99999999999999</ele><time>2026-04-18T09:04:57.825Z</time></trkpt><trkpt lat="45.32722796938446" lon="9.103045817333454"><ele>98.0</ele><time>2026-04-18T09:04:58.825Z</time></trkpt><trkpt lat="45.32735575457871" lon="9.103069479425395"><ele>98.0</ele><time>2026-04-18T09:05:00.825Z</time></trkpt><trkpt lat="45.32741885788953" lon="9.103083243559192"><ele>98.0</ele><time>2026-04-18T09:05:01.824Z</time></trkpt><trkpt lat="45.32748314975816" lon="9.103092988132127"><ele>98.0</ele><time>2026-04-18T09:05:02.824Z</time></trkpt><trkpt lat="45.327550980309084" lon="9.103104811780693"><ele>98.0</ele><time>2026-04-18T09:05:03.824Z</time></trkpt><trkpt lat="45.327619014551594" lon="9.103119492810338"><ele>98.0</ele><time>2026-04-18T09:05:04.824Z</time></trkpt><trkpt lat="45.327682301544755" lon="9.103133997120999"><ele>98.0</ele><time>2026-04-18T09:05:05.824Z</time></trkpt><trkpt lat="45.32774542393907" lon="9.103140501266994"><ele>98.0</ele><time>2026-04-18T09:05:06.824Z</time></trkpt><trkpt lat="45.32780850753589" lon="9.103153804853328"><ele>98.0</ele><time>2026-04-18T09:05:07.824Z</time></trkpt><trkpt lat="45.32793365881608" lon="9.10317580010751"><ele>98.0</ele><time>2026-04-18T09:05:09.824Z</time></trkpt><trkpt lat="45.32799695443327" lon="9.103187278365702"><ele>98.0</ele><time>2026-04-18T09:05:10.824Z</time></trkpt><trkpt lat="45.32805969703727" lon="9.103200306424867"><ele>98.0</ele><time>2026-04-18T09:05:11.824Z</time></trkpt><trkpt lat="45.32818109353959" lon="9.103223395345017"><ele>98.0</ele><time>2026-04-18T09:05:13.824Z</time></trkpt><trkpt lat="45.32830385190836" lon="9.10324179365876"><ele>98.2</ele><time>2026-04-18T09:05:15.824Z</time></trkpt><trkpt lat="45.32842295549545" lon="9.103266119438064"><ele>98.4</ele><time>2026-04-18T09:05:17.824Z</time></trkpt><trkpt lat="45.32852860945204" lon="9.103281664796098"><ele>98.60000000000001</ele><time>2026-04-18T09:05:19.824Z</time></trkpt><trkpt lat="45.32863347338365" lon="9.103305460062586"><ele>98.80000000000001</ele><time>2026-04-18T09:05:21.824Z</time></trkpt><trkpt lat="45.32873397605092" lon="9.103328361517562"><ele>99.0</ele><time>2026-04-18T09:05:23.824Z</time></trkpt><trkpt lat="45.32882778834572" lon="9.103348068623982"><ele>99.0</ele><time>2026-04-18T09:05:25.824Z</time></trkpt><trkpt lat="45.328923334583294" lon="9.103367127538583"><ele>99.0</ele><time>2026-04-18T09:05:27.823Z</time></trkpt><trkpt lat="45.329013724795445" lon="9.103384068909868"><ele>99.0</ele><time>2026-04-18T09:05:29.823Z</time></trkpt><trkpt lat="45.32909961392953" lon="9.103399227840956"><ele>99.0</ele><time>2026-04-18T09:05:31.823Z</time></trkpt><trkpt lat="45.32920543447994" lon="9.103423795996347"><ele>99.0</ele><time>2026-04-18T09:05:33.823Z</time></trkpt><trkpt lat="45.329313034266164" lon="9.103445744048864"><ele>99.0</ele><time>2026-04-18T09:05:35.823Z</time></trkpt><trkpt lat="45.329419809309464" lon="9.103459496888114"><ele>99.0</ele><time>2026-04-18T09:05:37.823Z</time></trkpt><trkpt lat="45.32953296722916" lon="9.103479096975198"><ele>99.0</ele><time>2026-04-18T09:05:39.823Z</time></trkpt><trkpt lat="45.32963895286632" lon="9.103499708681412"><ele>99.0</ele><time>2026-04-18T09:05:41.823Z</time></trkpt><trkpt lat="45.3297394803738" lon="9.103520793681085"><ele>99.0</ele><time>2026-04-18T09:05:43.823Z</time></trkpt><trkpt lat="45.329839589889936" lon="9.10353398016017"><ele>99.0</ele><time>2026-04-18T09:05:45.823Z</time></trkpt><trkpt lat="45.329947633977724" lon="9.103553305258638"><ele>99.0</ele><time>2026-04-18T09:05:47.823Z</time></trkpt><trkpt lat="45.33005528573758" lon="9.10357331965401"><ele>99.0</ele><time>2026-04-18T09:05:49.823Z</time></trkpt><trkpt lat="45.33016398073813" lon="9.103590565402023"><ele>99.0</ele><time>2026-04-18T09:05:51.823Z</time></trkpt><trkpt lat="45.33027271133426" lon="9.103614857942077"><ele>99.0</ele><time>2026-04-18T09:05:53.822Z</time></trkpt><trkpt lat="45.33037429529962" lon="9.103626483199097"><ele>99.0</ele><time>2026-04-18T09:05:55.822Z</time></trkpt><trkpt lat="45.330477334490496" lon="9.103646065282245"><ele>99.0</ele><time>2026-04-18T09:05:57.822Z</time></trkpt><trkpt lat="45.33059407169872" lon="9.103669269702834"><ele>99.0</ele><time>2026-04-18T09:05:59.822Z</time></trkpt><trkpt lat="45.33069674847526" lon="9.103691464562635"><ele>99.0</ele><time>2026-04-18T09:06:01.822Z</time></trkpt><trkpt lat="45.33079744627701" lon="9.103706393029293"><ele>99.0</ele><time>2026-04-18T09:06:03.822Z</time></trkpt><trkpt lat="45.33090599497705" lon="9.103729677385582"><ele>98.80000000000001</ele><time>2026-04-18T09:06:05.822Z</time></trkpt><trkpt lat="45.331019948500675" lon="9.103750728821973"><ele>98.60000000000001</ele><time>2026-04-18T09:06:07.822Z</time></trkpt><trkpt lat="45.331083087003506" lon="9.103769667571962"><ele>98.4</ele><time>2026-04-18T09:06:08.822Z</time></trkpt><trkpt lat="45.331197747961184" lon="9.103789614173854"><ele>98.2</ele><time>2026-04-18T09:06:10.822Z</time></trkpt><trkpt lat="45.33131429896414" lon="9.103821304957204"><ele>98.0</ele><time>2026-04-18T09:06:12.823Z</time></trkpt><trkpt lat="45.33143343332476" lon="9.10383476848724"><ele>98.0</ele><time>2026-04-18T09:06:14.823Z</time></trkpt><trkpt lat="45.33155294231428" lon="9.103859595595702"><ele>98.0</ele><time>2026-04-18T09:06:16.823Z</time></trkpt><trkpt lat="45.331671501939454" lon="9.103890604300782"><ele>98.0</ele><time>2026-04-18T09:06:18.823Z</time></trkpt><trkpt lat="45.331788502281206" lon="9.103907662704389"><ele>98.0</ele><time>2026-04-18T09:06:20.822Z</time></trkpt><trkpt lat="45.33190530987853" lon="9.103926508983989"><ele>98.0</ele><time>2026-04-18T09:06:22.823Z</time></trkpt><trkpt lat="45.33201585276632" lon="9.103949230933491"><ele>98.0</ele><time>2026-04-18T09:06:24.822Z</time></trkpt><trkpt lat="45.33213150122214" lon="9.103968110839983"><ele>98.0</ele><time>2026-04-18T09:06:26.822Z</time></trkpt><trkpt lat="45.33224336601517" lon="9.10398727962588"><ele>98.0</ele><time>2026-04-18T09:06:28.822Z</time></trkpt><trkpt lat="45.33235815917994" lon="9.10401144105836"><ele>98.5</ele><time>2026-04-18T09:06:30.822Z</time></trkpt><trkpt lat="45.33247136138315" lon="9.104035504799993"><ele>99.0</ele><time>2026-04-18T09:06:32.822Z</time></trkpt><trkpt lat="45.33258616874136" lon="9.104055700884645"><ele>99.5</ele><time>2026-04-18T09:06:34.822Z</time></trkpt><trkpt lat="45.332706056870315" lon="9.104082844651913"><ele>100.0</ele><time>2026-04-18T09:06:36.822Z</time></trkpt><trkpt lat="45.33282287647231" lon="9.104095921309336"><ele>100.0</ele><time>2026-04-18T09:06:38.822Z</time></trkpt><trkpt lat="45.33293466133644" lon="9.104109356901175"><ele>100.0</ele><time>2026-04-18T09:06:40.822Z</time></trkpt><trkpt lat="45.33305054366725" lon="9.104128838362971"><ele>100.0</ele><time>2026-04-18T09:06:42.822Z</time></trkpt><trkpt lat="45.3331639839104" lon="9.104153270867814"><ele>100.0</ele><time>2026-04-18T09:06:44.822Z</time></trkpt><trkpt lat="45.33328116512782" lon="9.104179782608306"><ele>100.2</ele><time>2026-04-18T09:06:46.822Z</time></trkpt><trkpt lat="45.33339122979288" lon="9.104203460790432"><ele>100.4</ele><time>2026-04-18T09:06:48.822Z</time></trkpt><trkpt lat="45.333502455158246" lon="9.104234406459927"><ele>100.6</ele><time>2026-04-18T09:06:50.821Z</time></trkpt><trkpt lat="45.33360907525955" lon="9.104276176353716"><ele>100.8</ele><time>2026-04-18T09:06:52.821Z</time></trkpt><trkpt lat="45.3337039831149" lon="9.104330111043312"><ele>101.0</ele><time>2026-04-18T09:06:54.821Z</time></trkpt><trkpt lat="45.3337862126164" lon="9.104393527540195"><ele>100.99999999999999</ele><time>2026-04-18T09:06:56.821Z</time></trkpt><trkpt lat="45.33385067586411" lon="9.104452574519469"><ele>101.0</ele><time>2026-04-18T09:06:58.821Z</time></trkpt><trkpt lat="45.33391514020361" lon="9.10452805401559"><ele>101.0</ele><time>2026-04-18T09:07:01.821Z</time></trkpt><trkpt lat="45.33394769705887" lon="9.104614105202357"><ele>101.0</ele><time>2026-04-18T09:07:04.821Z</time></trkpt><trkpt lat="45.33395379314178" lon="9.10472602353992"><ele>100.99999999999999</ele><time>2026-04-18T09:07:08.821Z</time></trkpt><trkpt lat="45.33391379951996" lon="9.104806273751818"><ele>101.0</ele><time>2026-04-18T09:07:11.821Z</time></trkpt><trkpt lat="45.33384174226369" lon="9.10483618185098"><ele>101.0</ele><time>2026-04-18T09:07:13.821Z</time></trkpt><trkpt lat="45.333755689881315" lon="9.104844404304673"><ele>101.0</ele><time>2026-04-18T09:07:15.82Z</time></trkpt><trkpt lat="45.33366412010599" lon="9.10483037405305"><ele>101.0</ele><time>2026-04-18T09:07:17.82Z</time></trkpt><trkpt lat="45.33356370801138" lon="9.104798365909227"><ele>101.0</ele><time>2026-04-18T09:07:19.82Z</time></trkpt><trkpt lat="45.33345969753959" lon="9.104779639831662"><ele>101.0</ele><time>2026-04-18T09:07:21.82Z</time></trkpt><trkpt lat="45.33335594108708" lon="9.104776432085018"><ele>101.0</ele><time>2026-04-18T09:07:23.82Z</time></trkpt><trkpt lat="45.3332517626251" lon="9.104758084001007"><ele>101.0</ele><time>2026-04-18T09:07:25.82Z</time></trkpt><trkpt lat="45.333148256820174" lon="9.104744534850054"><ele>101.0</ele><time>2026-04-18T09:07:27.82Z</time></trkpt><trkpt lat="45.33304880480158" lon="9.104719110755182"><ele>101.0</ele><time>2026-04-18T09:07:29.82Z</time></trkpt><trkpt lat="45.33296645015898" lon="9.104707723595778"><ele>101.0</ele><time>2026-04-18T09:07:31.82Z</time></trkpt><trkpt lat="45.33289297512941" lon="9.104735109694328"><ele>100.99999999999999</ele><time>2026-04-18T09:07:34.82Z</time></trkpt><trkpt lat="45.33297187026892" lon="9.104781211559814"><ele>101.0</ele><time>2026-04-18T09:07:39.82Z</time></trkpt><trkpt lat="45.333035205052745" lon="9.104803963021494"><ele>101.0</ele><time>2026-04-18T09:07:41.819Z</time></trkpt><trkpt lat="45.33312625822353" lon="9.104859935493103"><ele>101.0</ele><time>2026-04-18T09:07:44.819Z</time></trkpt><trkpt lat="45.33321541725815" lon="9.104883525858336"><ele>100.99999999999999</ele><time>2026-04-18T09:07:46.819Z</time></trkpt><trkpt lat="45.333303187677" lon="9.104900870975206"><ele>101.0</ele><time>2026-04-18T09:07:48.819Z</time></trkpt><trkpt lat="45.33339778499514" lon="9.104924451118666"><ele>100.19999999999999</ele><time>2026-04-18T09:07:50.819Z</time></trkpt><trkpt lat="45.33349520902996" lon="9.104952817301935"><ele>99.39999999999999</ele><time>2026-04-18T09:07:52.819Z</time></trkpt><trkpt lat="45.33359410637379" lon="9.104982424598992"><ele>98.6</ele><time>2026-04-18T09:07:54.819Z</time></trkpt><trkpt lat="45.333689563734936" lon="9.105003460718414"><ele>97.8</ele><time>2026-04-18T09:07:56.819Z</time></trkpt><trkpt lat="45.333781397214125" lon="9.105038091371961"><ele>97.0</ele><time>2026-04-18T09:07:58.819Z</time></trkpt><trkpt lat="45.33387688554376" lon="9.105054353376797"><ele>97.42857142857143</ele><time>2026-04-18T09:08:00.819Z</time></trkpt><trkpt lat="45.333952600250505" lon="9.105075483310893"><ele>97.85714285714286</ele><time>2026-04-18T09:08:03.819Z</time></trkpt><trkpt lat="45.334015249044334" lon="9.105100530196014"><ele>98.28571428571429</ele><time>2026-04-18T09:08:08.818Z</time></trkpt><trkpt lat="45.334074844045595" lon="9.105135087793956"><ele>98.71428571428572</ele><time>2026-04-18T09:08:18.82Z</time></trkpt><trkpt lat="45.33412284341524" lon="9.105196771712182"><ele>99.14285714285714</ele><time>2026-04-18T09:08:27.819Z</time></trkpt><trkpt lat="45.334194020551344" lon="9.105284003607599"><ele>99.57142857142858</ele><time>2026-04-18T09:08:30.818Z</time></trkpt><trkpt lat="45.3342501341121" lon="9.105354534638916"><ele>100.0</ele><time>2026-04-18T09:08:32.819Z</time></trkpt><trkpt lat="45.33430668467546" lon="9.105406329719791"><ele>100.00000000000001</ele><time>2026-04-18T09:08:34.819Z</time></trkpt><trkpt lat="45.33436954905204" lon="9.105371171228143"><ele>100.0</ele><time>2026-04-18T09:08:36.819Z</time></trkpt><trkpt lat="45.33442833386123" lon="9.105304208423465"><ele>100.0</ele><time>2026-04-18T09:08:38.818Z</time></trkpt><trkpt lat="45.334496684328236" lon="9.105247065415368"><ele>100.0</ele><time>2026-04-18T09:08:40.818Z</time></trkpt><trkpt lat="45.33455882495345" lon="9.105189389273935"><ele>100.0</ele><time>2026-04-18T09:08:42.818Z</time></trkpt><trkpt lat="45.33461172140769" lon="9.105114734664363"><ele>100.00000000000001</ele><time>2026-04-18T09:08:44.818Z</time></trkpt><trkpt lat="45.33467833342881" lon="9.105107877435968"><ele>100.0</ele><time>2026-04-18T09:08:46.818Z</time></trkpt><trkpt lat="45.334765064624094" lon="9.105120778654184"><ele>99.71428571428572</ele><time>2026-04-18T09:08:49.818Z</time></trkpt><trkpt lat="45.334852085482275" lon="9.105144693141229"><ele>99.42857142857143</ele><time>2026-04-18T09:08:52.818Z</time></trkpt><trkpt lat="45.33492291722792" lon="9.105197512656806"><ele>99.14285714285714</ele><time>2026-04-18T09:08:55.818Z</time></trkpt><trkpt lat="45.33498148814878" lon="9.105238445554503"><ele>98.85714285714286</ele><time>2026-04-18T09:08:57.818Z</time></trkpt><trkpt lat="45.3350401173138" lon="9.105278593561081"><ele>98.57142857142857</ele><time>2026-04-18T09:08:59.818Z</time></trkpt><trkpt lat="45.33510828360075" lon="9.105323268607405"><ele>98.28571428571429</ele><time>2026-04-18T09:09:01.818Z</time></trkpt><trkpt lat="45.33517641935865" lon="9.105365591105429"><ele>98.0</ele><time>2026-04-18T09:09:03.817Z</time></trkpt><trkpt lat="45.33523172896318" lon="9.105418665745331"><ele>97.99999999999999</ele><time>2026-04-18T09:09:05.817Z</time></trkpt><trkpt lat="45.33531662261864" lon="9.10547280974354"><ele>98.0</ele><time>2026-04-18T09:09:08.817Z</time></trkpt><trkpt lat="45.33538522595487" lon="9.105528082485629"><ele>98.0</ele><time>2026-04-18T09:09:10.817Z</time></trkpt><trkpt lat="45.335456555893" lon="9.105565027850911"><ele>98.0</ele><time>2026-04-18T09:09:12.817Z</time></trkpt><trkpt lat="45.335522518684414" lon="9.105610860938512"><ele>97.99999999999999</ele><time>2026-04-18T09:09:14.817Z</time></trkpt><trkpt lat="45.33560590935241" lon="9.105648357747764"><ele>98.0</ele><time>2026-04-18T09:09:16.817Z</time></trkpt><trkpt lat="45.33571222883381" lon="9.105695289998351"><ele>98.16666666666666</ele><time>2026-04-18T09:09:18.817Z</time></trkpt><trkpt lat="45.33580714234777" lon="9.105737098611732"><ele>98.33333333333333</ele><time>2026-04-18T09:09:20.817Z</time></trkpt><trkpt lat="45.33589385235803" lon="9.105770804115153"><ele>98.5</ele><time>2026-04-18T09:09:22.817Z</time></trkpt><trkpt lat="45.335979353070705" lon="9.105805105362544"><ele>98.66666666666666</ele><time>2026-04-18T09:09:24.817Z</time></trkpt><trkpt lat="45.33606704339918" lon="9.105844608003471"><ele>98.83333333333333</ele><time>2026-04-18T09:09:26.817Z</time></trkpt><trkpt lat="45.336127930353406" lon="9.105870025718554"><ele>99.0</ele><time>2026-04-18T09:09:27.817Z</time></trkpt><trkpt lat="45.33619860184451" lon="9.10592424512099"><ele>99.16666666666667</ele><time>2026-04-18T09:09:29.816Z</time></trkpt><trkpt lat="45.336266714616116" lon="9.105954810699023"><ele>99.33333333333334</ele><time>2026-04-18T09:09:31.816Z</time></trkpt><trkpt lat="45.33634824397844" lon="9.105995123624743"><ele>99.5</ele><time>2026-04-18T09:09:33.816Z</time></trkpt><trkpt lat="45.3364275749118" lon="9.10605375007548"><ele>99.66666666666667</ele><time>2026-04-18T09:09:35.816Z</time></trkpt><trkpt lat="45.33648753968986" lon="9.106130322491206"><ele>99.83333333333334</ele><time>2026-04-18T09:09:37.816Z</time></trkpt><trkpt lat="45.33653580717856" lon="9.106238831248286"><ele>100.0</ele><time>2026-04-18T09:09:39.816Z</time></trkpt><trkpt lat="45.33658236333539" lon="9.106355533661436"><ele>100.00000000000001</ele><time>2026-04-18T09:09:41.816Z</time></trkpt><trkpt lat="45.33661238232128" lon="9.106481417123678"><ele>100.0</ele><time>2026-04-18T09:09:43.816Z</time></trkpt><trkpt lat="45.336633195444364" lon="9.106601979782518"><ele>100.0</ele><time>2026-04-18T09:09:45.816Z</time></trkpt><trkpt lat="45.33667470633534" lon="9.106708853703777"><ele>100.0</ele><time>2026-04-18T09:09:47.816Z</time></trkpt><trkpt lat="45.3367228779154" lon="9.106791348620202"><ele>100.00000000000001</ele><time>2026-04-18T09:09:49.816Z</time></trkpt><trkpt lat="45.33677339022795" lon="9.106890462580713"><ele>100.0</ele><time>2026-04-18T09:09:51.816Z</time></trkpt><trkpt lat="45.33681192688698" lon="9.107006858467267"><ele>100.00000000000001</ele><time>2026-04-18T09:09:53.816Z</time></trkpt><trkpt lat="45.33683425442267" lon="9.10712869873768"><ele>100.0</ele><time>2026-04-18T09:09:55.815Z</time></trkpt><trkpt lat="45.336873347726694" lon="9.107242932347143"><ele>100.0</ele><time>2026-04-18T09:09:57.815Z</time></trkpt><trkpt lat="45.33692356226587" lon="9.107328037188616"><ele>100.0</ele><time>2026-04-18T09:09:59.815Z</time></trkpt><trkpt lat="45.33697610790286" lon="9.107408976434131"><ele>100.00000000000001</ele><time>2026-04-18T09:10:01.815Z</time></trkpt><trkpt lat="45.337018055857776" lon="9.107491546574485"><ele>100.0</ele><time>2026-04-18T09:10:03.815Z</time></trkpt><trkpt lat="45.337058273552934" lon="9.10757800323246"><ele>100.00000000000001</ele><time>2026-04-18T09:10:05.815Z</time></trkpt><trkpt lat="45.3370883655002" lon="9.107663411457365"><ele>100.0</ele><time>2026-04-18T09:10:07.815Z</time></trkpt><trkpt lat="45.33712834798633" lon="9.107773535147182"><ele>100.0</ele><time>2026-04-18T09:10:09.815Z</time></trkpt><trkpt lat="45.33717406599882" lon="9.107879956493177"><ele>100.0</ele><time>2026-04-18T09:10:11.815Z</time></trkpt><trkpt lat="45.33722874233975" lon="9.107979439108165"><ele>100.00000000000001</ele><time>2026-04-18T09:10:13.815Z</time></trkpt><trkpt lat="45.33729201788469" lon="9.108071341365244"><ele>100.0</ele><time>2026-04-18T09:10:15.815Z</time></trkpt><trkpt lat="45.33736468420563" lon="9.108178692065524"><ele>99.83333333333334</ele><time>2026-04-18T09:10:18.815Z</time></trkpt><trkpt lat="45.337433374326004" lon="9.108248221012971"><ele>99.66666666666667</ele><time>2026-04-18T09:10:20.814Z</time></trkpt><trkpt lat="45.33748437433981" lon="9.10833113403711"><ele>99.5</ele><time>2026-04-18T09:10:22.814Z</time></trkpt><trkpt lat="45.33755751243802" lon="9.108434100394591"><ele>99.33333333333334</ele><time>2026-04-18T09:10:24.815Z</time></trkpt><trkpt lat="45.33761026882765" lon="9.108505528769934"><ele>99.16666666666667</ele><time>2026-04-18T09:10:26.815Z</time></trkpt><trkpt lat="45.33766375330862" lon="9.108590036439384"><ele>99.0</ele><time>2026-04-18T09:10:28.816Z</time></trkpt><trkpt lat="45.33773502897014" lon="9.10870817404177"><ele>99.0</ele><time>2026-04-18T09:10:31.815Z</time></trkpt><trkpt lat="45.33778704788238" lon="9.10876301396591"><ele>99.0</ele><time>2026-04-18T09:10:32.815Z</time></trkpt><trkpt lat="45.33783927669261" lon="9.108819102538192"><ele>99.0</ele><time>2026-04-18T09:10:33.815Z</time></trkpt><trkpt lat="45.33792788276652" lon="9.108914026774935"><ele>99.0</ele><time>2026-04-18T09:10:35.815Z</time></trkpt><trkpt lat="45.33802677930397" lon="9.109008068559275"><ele>99.0</ele><time>2026-04-18T09:10:37.815Z</time></trkpt><trkpt lat="45.33808237255752" lon="9.109057206480205"><ele>99.0</ele><time>2026-04-18T09:10:38.814Z</time></trkpt><trkpt lat="45.338135005354246" lon="9.109110168993876"><ele>98.4</ele><time>2026-04-18T09:10:39.814Z</time></trkpt><trkpt lat="45.33823395001035" lon="9.109210114073239"><ele>97.80000000000001</ele><time>2026-04-18T09:10:41.814Z</time></trkpt><trkpt lat="45.33828812022612" lon="9.109258750129746"><ele>97.19999999999999</ele><time>2026-04-18T09:10:42.814Z</time></trkpt><trkpt lat="45.33838388665678" lon="9.109363143901291"><ele>96.6</ele><time>2026-04-18T09:10:44.814Z</time></trkpt><trkpt lat="45.33846764430513" lon="9.10945913954888"><ele>96.0</ele><time>2026-04-18T09:10:46.814Z</time></trkpt><trkpt lat="45.33855972356445" lon="9.109566277740747"><ele>96.0</ele><time>2026-04-18T09:10:48.814Z</time></trkpt><trkpt lat="45.33864370943177" lon="9.10966214775742"><ele>96.0</ele><time>2026-04-18T09:10:50.814Z</time></trkpt><trkpt lat="45.33873360339492" lon="9.10976218261855"><ele>96.0</ele><time>2026-04-18T09:10:52.814Z</time></trkpt><trkpt lat="45.338816464606225" lon="9.109850153584826"><ele>96.0</ele><time>2026-04-18T09:10:54.814Z</time></trkpt><trkpt lat="45.3388954690623" lon="9.10992422652753"><ele>96.0</ele><time>2026-04-18T09:10:56.814Z</time></trkpt><trkpt lat="45.33897698524397" lon="9.110016918174422"><ele>96.0</ele><time>2026-04-18T09:10:58.814Z</time></trkpt><trkpt lat="45.33905521433016" lon="9.110099696725545"><ele>96.0</ele><time>2026-04-18T09:11:00.814Z</time></trkpt><trkpt lat="45.339129476344425" lon="9.110180086069214"><ele>96.0</ele><time>2026-04-18T09:11:02.814Z</time></trkpt><trkpt lat="45.33921073026513" lon="9.110274859015174"><ele>96.0</ele><time>2026-04-18T09:11:04.813Z</time></trkpt><trkpt lat="45.339292758797875" lon="9.110367451185573"><ele>96.0</ele><time>2026-04-18T09:11:06.813Z</time></trkpt><trkpt lat="45.33937477603604" lon="9.110459269959996"><ele>96.0</ele><time>2026-04-18T09:11:08.813Z</time></trkpt><trkpt lat="45.339456675442975" lon="9.110554527271505"><ele>96.0</ele><time>2026-04-18T09:11:10.813Z</time></trkpt><trkpt lat="45.33953179685759" lon="9.110656942786507"><ele>96.0</ele><time>2026-04-18T09:11:12.813Z</time></trkpt><trkpt lat="45.33961049548119" lon="9.11074104467623"><ele>96.0</ele><time>2026-04-18T09:11:14.813Z</time></trkpt><trkpt lat="45.3396906721747" lon="9.110813805857498"><ele>96.0</ele><time>2026-04-18T09:11:16.813Z</time></trkpt><trkpt lat="45.339765748925984" lon="9.110873970372339"><ele>96.0</ele><time>2026-04-18T09:11:18.813Z</time></trkpt><trkpt lat="45.33984518843441" lon="9.110975979084712"><ele>96.0</ele><time>2026-04-18T09:11:20.813Z</time></trkpt><trkpt lat="45.339921524143406" lon="9.11104093504155"><ele>96.0</ele><time>2026-04-18T09:11:22.813Z</time></trkpt><trkpt lat="45.3399873528918" lon="9.111124598341327"><ele>96.0</ele><time>2026-04-18T09:11:24.813Z</time></trkpt><trkpt lat="45.3400584511821" lon="9.111202059546004"><ele>96.0</ele><time>2026-04-18T09:11:26.813Z</time></trkpt><trkpt lat="45.340135025866616" lon="9.111285716006634"><ele>96.0</ele><time>2026-04-18T09:11:28.813Z</time></trkpt><trkpt lat="45.34021471979435" lon="9.111393843959837"><ele>96.0</ele><time>2026-04-18T09:11:30.812Z</time></trkpt><trkpt lat="45.34029400670296" lon="9.111487296885795"><ele>96.0</ele><time>2026-04-18T09:11:32.812Z</time></trkpt><trkpt lat="45.34038430422702" lon="9.111582611409812"><ele>96.0</ele><time>2026-04-18T09:11:34.812Z</time></trkpt><trkpt lat="45.340459539783986" lon="9.111655940466477"><ele>96.0</ele><time>2026-04-18T09:11:36.812Z</time></trkpt><trkpt lat="45.34052346094159" lon="9.111743176215661"><ele>96.19999999999999</ele><time>2026-04-18T09:11:38.812Z</time></trkpt><trkpt lat="45.3405810966755" lon="9.111815412367479"><ele>96.39999999999999</ele><time>2026-04-18T09:11:40.812Z</time></trkpt><trkpt lat="45.34065960769564" lon="9.111906328671996"><ele>96.6</ele><time>2026-04-18T09:11:42.812Z</time></trkpt><trkpt lat="45.3407440545683" lon="9.112019564901024"><ele>96.8</ele><time>2026-04-18T09:11:44.812Z</time></trkpt><trkpt lat="45.34081529659029" lon="9.112101099965225"><ele>97.0</ele><time>2026-04-18T09:11:46.812Z</time></trkpt><trkpt lat="45.34086382006896" lon="9.112166954459846"><ele>97.0</ele><time>2026-04-18T09:11:47.812Z</time></trkpt><trkpt lat="45.34095492697122" lon="9.112276130451175"><ele>97.0</ele><time>2026-04-18T09:11:49.812Z</time></trkpt><trkpt lat="45.34103534944507" lon="9.112372887859522"><ele>97.0</ele><time>2026-04-18T09:11:51.812Z</time></trkpt><trkpt lat="45.34111781469747" lon="9.112465533873612"><ele>97.0</ele><time>2026-04-18T09:11:53.812Z</time></trkpt><trkpt lat="45.34119553399021" lon="9.112557486299345"><ele>97.0</ele><time>2026-04-18T09:11:55.812Z</time></trkpt><trkpt lat="45.34128894752257" lon="9.11266667636004"><ele>97.0</ele><time>2026-04-18T09:11:57.811Z</time></trkpt><trkpt lat="45.34138109347753" lon="9.112765963144795"><ele>97.0</ele><time>2026-04-18T09:11:59.811Z</time></trkpt><trkpt lat="45.341451442719695" lon="9.11285071409717"><ele>97.0</ele><time>2026-04-18T09:12:01.811Z</time></trkpt><trkpt lat="45.3415253627677" lon="9.112938661265092"><ele>97.0</ele><time>2026-04-18T09:12:03.811Z</time></trkpt><trkpt lat="45.34159980803575" lon="9.113029059371293"><ele>97.0</ele><time>2026-04-18T09:12:05.811Z</time></trkpt><trkpt lat="45.341693247273575" lon="9.113140493656125"><ele>97.19999999999999</ele><time>2026-04-18T09:12:07.811Z</time></trkpt><trkpt lat="45.341780640657326" lon="9.113232347651058"><ele>97.4</ele><time>2026-04-18T09:12:09.811Z</time></trkpt><trkpt lat="45.34185943686263" lon="9.11332938519356"><ele>97.6</ele><time>2026-04-18T09:12:11.811Z</time></trkpt><trkpt lat="45.34194687735999" lon="9.113434736193668"><ele>97.80000000000001</ele><time>2026-04-18T09:12:13.811Z</time></trkpt><trkpt lat="45.34204004696905" lon="9.113538480704268"><ele>98.0</ele><time>2026-04-18T09:12:15.811Z</time></trkpt><trkpt lat="45.34212247694056" lon="9.113635087134318"><ele>98.0</ele><time>2026-04-18T09:12:17.811Z</time></trkpt><trkpt lat="45.34220921092251" lon="9.113734298820697"><ele>98.0</ele><time>2026-04-18T09:12:19.811Z</time></trkpt><trkpt lat="45.342296206836004" lon="9.113830503413185"><ele>98.0</ele><time>2026-04-18T09:12:21.811Z</time></trkpt><trkpt lat="45.342382445879636" lon="9.113922806983918"><ele>98.0</ele><time>2026-04-18T09:12:23.81Z</time></trkpt><trkpt lat="45.34245970523849" lon="9.114015685273287"><ele>98.0</ele><time>2026-04-18T09:12:25.81Z</time></trkpt><trkpt lat="45.34253826800969" lon="9.11411803985263"><ele>97.80000000000001</ele><time>2026-04-18T09:12:27.81Z</time></trkpt><trkpt lat="45.34261181478901" lon="9.114187598242601"><ele>97.6</ele><time>2026-04-18T09:12:29.81Z</time></trkpt><trkpt lat="45.34267770565336" lon="9.114268685689098"><ele>97.4</ele><time>2026-04-18T09:12:31.812Z</time></trkpt><trkpt lat="45.34276258312674" lon="9.114361966860768"><ele>97.19999999999999</ele><time>2026-04-18T09:12:33.811Z</time></trkpt><trkpt lat="45.342844331028836" lon="9.1144553191465"><ele>97.0</ele><time>2026-04-18T09:12:35.812Z</time></trkpt><trkpt lat="45.34293604567676" lon="9.114569140241374"><ele>97.0</ele><time>2026-04-18T09:12:37.811Z</time></trkpt><trkpt lat="45.34301877751971" lon="9.114653456895025"><ele>97.0</ele><time>2026-04-18T09:12:39.811Z</time></trkpt><trkpt lat="45.34310230274053" lon="9.114752208298553"><ele>97.0</ele><time>2026-04-18T09:12:41.811Z</time></trkpt><trkpt lat="45.3431872053714" lon="9.11485020650074"><ele>97.0</ele><time>2026-04-18T09:12:43.811Z</time></trkpt><trkpt lat="45.34328465952186" lon="9.11494700664061"><ele>97.0</ele><time>2026-04-18T09:12:45.811Z</time></trkpt><trkpt lat="45.343361089798506" lon="9.115043972271417"><ele>97.0</ele><time>2026-04-18T09:12:47.811Z</time></trkpt><trkpt lat="45.34344254625556" lon="9.115145407507601"><ele>97.0</ele><time>2026-04-18T09:12:49.811Z</time></trkpt><trkpt lat="45.34352962349828" lon="9.11521423321905"><ele>97.0</ele><time>2026-04-18T09:12:51.811Z</time></trkpt><trkpt lat="45.343629676878365" lon="9.115332182792837"><ele>97.0</ele><time>2026-04-18T09:12:53.811Z</time></trkpt><trkpt lat="45.343684487952565" lon="9.115383155089951"><ele>97.0</ele><time>2026-04-18T09:12:54.811Z</time></trkpt><trkpt lat="45.343728993663944" lon="9.115450820374209"><ele>97.0</ele><time>2026-04-18T09:12:55.811Z</time></trkpt><trkpt lat="45.34382030035406" lon="9.115562668559713"><ele>97.0</ele><time>2026-04-18T09:12:57.811Z</time></trkpt><trkpt lat="45.343906743280826" lon="9.115647971638605"><ele>97.0</ele><time>2026-04-18T09:12:59.811Z</time></trkpt><trkpt lat="45.343957788710156" lon="9.115726127746646"><ele>97.0</ele><time>2026-04-18T09:13:00.811Z</time></trkpt><trkpt lat="45.344050160404095" lon="9.115830357805608"><ele>97.0</ele><time>2026-04-18T09:13:02.811Z</time></trkpt><trkpt lat="45.34413649181218" lon="9.115927608554554"><ele>97.0</ele><time>2026-04-18T09:13:04.811Z</time></trkpt><trkpt lat="45.34421939811481" lon="9.116024560261442"><ele>97.0</ele><time>2026-04-18T09:13:06.811Z</time></trkpt><trkpt lat="45.34426785107966" lon="9.116084174319464"><ele>97.0</ele><time>2026-04-18T09:13:07.811Z</time></trkpt><trkpt lat="45.344319310610494" lon="9.116146070296093"><ele>97.0</ele><time>2026-04-18T09:13:08.81Z</time></trkpt><trkpt lat="45.34440692160015" lon="9.116240895371554"><ele>97.0</ele><time>2026-04-18T09:13:10.81Z</time></trkpt><trkpt lat="45.3444913877394" lon="9.11633510137473"><ele>97.00000000000001</ele><time>2026-04-18T09:13:12.81Z</time></trkpt><trkpt lat="45.344545015962325" lon="9.116393254116348"><ele>97.0</ele><time>2026-04-18T09:13:13.81Z</time></trkpt><trkpt lat="45.34464140539907" lon="9.1165027320052"><ele>97.0</ele><time>2026-04-18T09:13:15.81Z</time></trkpt><trkpt lat="45.34469325260173" lon="9.116557846599575"><ele>97.0</ele><time>2026-04-18T09:13:16.81Z</time></trkpt><trkpt lat="45.344745453427166" lon="9.11661287950043"><ele>97.00000000000001</ele><time>2026-04-18T09:13:17.81Z</time></trkpt><trkpt lat="45.344831572045024" lon="9.116718770468074"><ele>97.0</ele><time>2026-04-18T09:13:19.81Z</time></trkpt><trkpt lat="45.34491788599638" lon="9.116812513326634"><ele>97.0</ele><time>2026-04-18T09:13:21.81Z</time></trkpt><trkpt lat="45.34499011070367" lon="9.116907374065105"><ele>97.0</ele><time>2026-04-18T09:13:23.81Z</time></trkpt><trkpt lat="45.34507370192466" lon="9.116994779218402"><ele>97.0</ele><time>2026-04-18T09:13:25.81Z</time></trkpt><trkpt lat="45.34515370281138" lon="9.117081548196458"><ele>97.0</ele><time>2026-04-18T09:13:27.81Z</time></trkpt><trkpt lat="45.345230973414324" lon="9.117179058415632"><ele>97.0</ele><time>2026-04-18T09:13:29.81Z</time></trkpt><trkpt lat="45.34528416371384" lon="9.117240115456966"><ele>97.0</ele><time>2026-04-18T09:13:30.81Z</time></trkpt><trkpt lat="45.345337642343345" lon="9.117301251930446"><ele>97.0</ele><time>2026-04-18T09:13:31.81Z</time></trkpt><trkpt lat="45.34538901406024" lon="9.11735677442999"><ele>97.0</ele><time>2026-04-18T09:13:32.81Z</time></trkpt><trkpt lat="45.34547453999532" lon="9.117454952783612"><ele>97.0</ele><time>2026-04-18T09:13:34.809Z</time></trkpt><trkpt lat="45.34556759414931" lon="9.117557596494285"><ele>97.0</ele><time>2026-04-18T09:13:36.809Z</time></trkpt><trkpt lat="45.345658187075266" lon="9.117657248136748"><ele>97.0</ele><time>2026-04-18T09:13:38.809Z</time></trkpt><trkpt lat="45.34573973440292" lon="9.117755672647954"><ele>97.0</ele><time>2026-04-18T09:13:40.809Z</time></trkpt><trkpt lat="45.34582103944841" lon="9.117858638957491"><ele>97.0</ele><time>2026-04-18T09:13:42.809Z</time></trkpt><trkpt lat="45.34591385715754" lon="9.117959699058678"><ele>97.0</ele><time>2026-04-18T09:13:44.809Z</time></trkpt><trkpt lat="45.34600140618546" lon="9.118059999353358"><ele>97.0</ele><time>2026-04-18T09:13:46.809Z</time></trkpt><trkpt lat="45.3460891515665" lon="9.118166624260429"><ele>96.8</ele><time>2026-04-18T09:13:48.809Z</time></trkpt><trkpt lat="45.346170170306436" lon="9.118263494888987"><ele>96.6</ele><time>2026-04-18T09:13:50.809Z</time></trkpt><trkpt lat="45.346265042658715" lon="9.118362938101415"><ele>96.39999999999999</ele><time>2026-04-18T09:13:52.809Z</time></trkpt><trkpt lat="45.34635223915538" lon="9.118460114078122"><ele>96.19999999999999</ele><time>2026-04-18T09:13:54.809Z</time></trkpt><trkpt lat="45.346434746789804" lon="9.11855372067287"><ele>96.0</ele><time>2026-04-18T09:13:56.809Z</time></trkpt><trkpt lat="45.346524410300574" lon="9.118653774870651"><ele>96.0</ele><time>2026-04-18T09:13:58.809Z</time></trkpt><trkpt lat="45.34660659826888" lon="9.118754002791738"><ele>96.0</ele><time>2026-04-18T09:14:00.808Z</time></trkpt><trkpt lat="45.34669156201285" lon="9.118845747382464"><ele>96.0</ele><time>2026-04-18T09:14:02.808Z</time></trkpt><trkpt lat="45.346778984940485" lon="9.118940886408566"><ele>96.0</ele><time>2026-04-18T09:14:04.808Z</time></trkpt><trkpt lat="45.346864673987795" lon="9.119028474232039"><ele>96.0</ele><time>2026-04-18T09:14:06.808Z</time></trkpt><trkpt lat="45.346949950257105" lon="9.119122043315434"><ele>96.19999999999999</ele><time>2026-04-18T09:14:08.808Z</time></trkpt><trkpt lat="45.34701909456637" lon="9.11918002261161"><ele>96.39999999999999</ele><time>2026-04-18T09:14:10.808Z</time></trkpt><trkpt lat="45.347094804364446" lon="9.119268953160633"><ele>96.6</ele><time>2026-04-18T09:14:12.808Z</time></trkpt><trkpt lat="45.34716837814821" lon="9.119349639660003"><ele>96.8</ele><time>2026-04-18T09:14:14.808Z</time></trkpt><trkpt lat="45.34724252659765" lon="9.119449873766431"><ele>97.0</ele><time>2026-04-18T09:14:16.808Z</time></trkpt><trkpt lat="45.34732290438864" lon="9.119542886410619"><ele>97.0</ele><time>2026-04-18T09:14:18.808Z</time></trkpt><trkpt lat="45.34739998030846" lon="9.119645876579089"><ele>97.0</ele><time>2026-04-18T09:14:20.808Z</time></trkpt><trkpt lat="45.347478611548745" lon="9.11974044074984"><ele>97.0</ele><time>2026-04-18T09:14:22.808Z</time></trkpt><trkpt lat="45.347561950267966" lon="9.119833498869165"><ele>97.0</ele><time>2026-04-18T09:14:24.808Z</time></trkpt><trkpt lat="45.34763645803851" lon="9.119911211721682"><ele>97.0</ele><time>2026-04-18T09:14:26.807Z</time></trkpt><trkpt lat="45.347725430023274" lon="9.120016032741338"><ele>97.19999999999999</ele><time>2026-04-18T09:14:28.807Z</time></trkpt><trkpt lat="45.347804404964414" lon="9.120102295353242"><ele>97.4</ele><time>2026-04-18T09:14:30.807Z</time></trkpt><trkpt lat="45.34786946619855" lon="9.120165724302211"><ele>97.6</ele><time>2026-04-18T09:14:32.807Z</time></trkpt><trkpt lat="45.34793633144867" lon="9.120241127420634"><ele>97.80000000000001</ele><time>2026-04-18T09:14:34.807Z</time></trkpt><trkpt lat="45.348020338867" lon="9.120347445994186"><ele>98.0</ele><time>2026-04-18T09:14:36.808Z</time></trkpt><trkpt lat="45.348103353843975" lon="9.12044379003175"><ele>98.0</ele><time>2026-04-18T09:14:38.807Z</time></trkpt><trkpt lat="45.348182993073195" lon="9.12054152280091"><ele>98.0</ele><time>2026-04-18T09:14:40.808Z</time></trkpt><trkpt lat="45.34825968314547" lon="9.120632400923133"><ele>98.0</ele><time>2026-04-18T09:14:42.808Z</time></trkpt><trkpt lat="45.348336337178004" lon="9.12071826150087"><ele>98.0</ele><time>2026-04-18T09:14:44.808Z</time></trkpt><trkpt lat="45.34841714175711" lon="9.120810348506437"><ele>98.0</ele><time>2026-04-18T09:14:46.807Z</time></trkpt><trkpt lat="45.3484922198919" lon="9.120906109848079"><ele>97.80000000000001</ele><time>2026-04-18T09:14:48.807Z</time></trkpt><trkpt lat="45.348558590247606" lon="9.120982609277837"><ele>97.6</ele><time>2026-04-18T09:14:50.808Z</time></trkpt><trkpt lat="45.34863021553412" lon="9.121061738423153"><ele>97.4</ele><time>2026-04-18T09:14:52.807Z</time></trkpt><trkpt lat="45.348706216376456" lon="9.121145177051732"><ele>97.19999999999999</ele><time>2026-04-18T09:14:54.807Z</time></trkpt><trkpt lat="45.34878994931401" lon="9.121247606337688"><ele>97.0</ele><time>2026-04-18T09:14:56.807Z</time></trkpt><trkpt lat="45.34887533283779" lon="9.121339503927373"><ele>97.0</ele><time>2026-04-18T09:14:58.807Z</time></trkpt><trkpt lat="45.3489609967576" lon="9.121435954259828"><ele>97.0</ele><time>2026-04-18T09:15:00.807Z</time></trkpt><trkpt lat="45.349042898833396" lon="9.121534166978716"><ele>97.0</ele><time>2026-04-18T09:15:02.807Z</time></trkpt><trkpt lat="45.349127469556734" lon="9.121634582150941"><ele>97.0</ele><time>2026-04-18T09:15:04.807Z</time></trkpt><trkpt lat="45.349206708737974" lon="9.121723910685008"><ele>97.0</ele><time>2026-04-18T09:15:06.807Z</time></trkpt><trkpt lat="45.34930048175075" lon="9.121821765827105"><ele>97.19999999999999</ele><time>2026-04-18T09:15:08.807Z</time></trkpt><trkpt lat="45.349383397261725" lon="9.121919298014415"><ele>97.4</ele><time>2026-04-18T09:15:10.807Z</time></trkpt><trkpt lat="45.34946613330326" lon="9.122010866610642"><ele>97.6</ele><time>2026-04-18T09:15:12.807Z</time></trkpt><trkpt lat="45.34954664557064" lon="9.122111334808103"><ele>97.80000000000001</ele><time>2026-04-18T09:15:14.807Z</time></trkpt><trkpt lat="45.34964022872857" lon="9.122212722090321"><ele>98.0</ele><time>2026-04-18T09:15:16.807Z</time></trkpt><trkpt lat="45.34971931560204" lon="9.122308855058742"><ele>97.80000000000001</ele><time>2026-04-18T09:15:18.806Z</time></trkpt><trkpt lat="45.34980826228094" lon="9.122408219989785"><ele>97.6</ele><time>2026-04-18T09:15:20.806Z</time></trkpt><trkpt lat="45.34989009267599" lon="9.122500117467998"><ele>97.4</ele><time>2026-04-18T09:15:22.806Z</time></trkpt><trkpt lat="45.34997324635335" lon="9.122595922299412"><ele>97.19999999999999</ele><time>2026-04-18T09:15:24.806Z</time></trkpt><trkpt lat="45.35006270637176" lon="9.122693748058927"><ele>97.0</ele><time>2026-04-18T09:15:26.806Z</time></trkpt><trkpt lat="45.350147188392114" lon="9.122791559206206"><ele>97.0</ele><time>2026-04-18T09:15:28.806Z</time></trkpt><trkpt lat="45.35022852122122" lon="9.12288636585513"><ele>97.0</ele><time>2026-04-18T09:15:30.806Z</time></trkpt><trkpt lat="45.35030431018311" lon="9.122970596083066"><ele>97.0</ele><time>2026-04-18T09:15:32.806Z</time></trkpt><trkpt lat="45.35039829838691" lon="9.123070976981277"><ele>97.0</ele><time>2026-04-18T09:15:34.806Z</time></trkpt><trkpt lat="45.35048207088676" lon="9.12316078238602"><ele>97.0</ele><time>2026-04-18T09:15:36.806Z</time></trkpt><trkpt lat="45.35056117111438" lon="9.123248127558611"><ele>97.0</ele><time>2026-04-18T09:15:38.806Z</time></trkpt><trkpt lat="45.35064959208277" lon="9.123342141703295"><ele>97.0</ele><time>2026-04-18T09:15:40.806Z</time></trkpt><trkpt lat="45.35073050513086" lon="9.123433246311592"><ele>97.0</ele><time>2026-04-18T09:15:42.806Z</time></trkpt><trkpt lat="45.350812636726566" lon="9.123537811623859"><ele>97.0</ele><time>2026-04-18T09:15:44.805Z</time></trkpt><trkpt lat="45.3508940695417" lon="9.123631051646433"><ele>97.0</ele><time>2026-04-18T09:15:46.805Z</time></trkpt><trkpt lat="45.35097481721229" lon="9.12370522241548"><ele>97.0</ele><time>2026-04-18T09:15:48.805Z</time></trkpt><trkpt lat="45.3510400827548" lon="9.12379022291301"><ele>97.0</ele><time>2026-04-18T09:15:50.805Z</time></trkpt><trkpt lat="45.35112236738912" lon="9.12388747916838"><ele>97.0</ele><time>2026-04-18T09:15:52.805Z</time></trkpt><trkpt lat="45.35121004497437" lon="9.123975966820371"><ele>97.0</ele><time>2026-04-18T09:15:54.805Z</time></trkpt><trkpt lat="45.35129300093959" lon="9.124076917097467"><ele>97.0</ele><time>2026-04-18T09:15:56.805Z</time></trkpt><trkpt lat="45.35137137930354" lon="9.124176553359217"><ele>97.39999999999999</ele><time>2026-04-18T09:15:58.805Z</time></trkpt><trkpt lat="45.35144684821327" lon="9.12424712343831"><ele>97.8</ele><time>2026-04-18T09:16:01.805Z</time></trkpt><trkpt lat="45.351524508659274" lon="9.124325782724313"><ele>98.2</ele><time>2026-04-18T09:16:03.805Z</time></trkpt><trkpt lat="45.35158487063676" lon="9.124395451540167"><ele>98.6</ele><time>2026-04-18T09:16:05.805Z</time></trkpt><trkpt lat="45.35167067815796" lon="9.124482703343947"><ele>99.0</ele><time>2026-04-18T09:16:07.805Z</time></trkpt><trkpt lat="45.351747451687736" lon="9.124565740584428"><ele>99.0</ele><time>2026-04-18T09:16:09.804Z</time></trkpt><trkpt lat="45.351798296671795" lon="9.124633168343067"><ele>99.0</ele><time>2026-04-18T09:16:10.804Z</time></trkpt><trkpt lat="45.35188782366126" lon="9.124739114476165"><ele>99.0</ele><time>2026-04-18T09:16:12.804Z</time></trkpt><trkpt lat="45.3519802832629" lon="9.124855127827795"><ele>99.0</ele><time>2026-04-18T09:16:14.804Z</time></trkpt><trkpt lat="45.35202837283141" lon="9.124916288617609"><ele>99.0</ele><time>2026-04-18T09:16:15.804Z</time></trkpt><trkpt lat="45.3521120794812" lon="9.125011055750278"><ele>99.0</ele><time>2026-04-18T09:16:17.804Z</time></trkpt><trkpt lat="45.352188365407336" lon="9.125091413532191"><ele>99.0</ele><time>2026-04-18T09:16:19.804Z</time></trkpt><trkpt lat="45.3522809337992" lon="9.125191845369415"><ele>99.0</ele><time>2026-04-18T09:16:21.804Z</time></trkpt><trkpt lat="45.352367938538414" lon="9.125296301413865"><ele>99.0</ele><time>2026-04-18T09:16:23.804Z</time></trkpt><trkpt lat="45.35245356354691" lon="9.125398949618098"><ele>99.0</ele><time>2026-04-18T09:16:25.804Z</time></trkpt><trkpt lat="45.35251798350851" lon="9.125480663940573"><ele>99.0</ele><time>2026-04-18T09:16:27.804Z</time></trkpt><trkpt lat="45.35260616078312" lon="9.125577345814632"><ele>99.0</ele><time>2026-04-18T09:16:29.804Z</time></trkpt><trkpt lat="45.3526785447647" lon="9.125660058615239"><ele>99.0</ele><time>2026-04-18T09:16:31.804Z</time></trkpt><trkpt lat="45.352753281145574" lon="9.125736775832852"><ele>99.0</ele><time>2026-04-18T09:16:33.804Z</time></trkpt><trkpt lat="45.35280598059551" lon="9.125795497309298"><ele>99.0</ele><time>2026-04-18T09:16:34.804Z</time></trkpt><trkpt lat="45.35288858079226" lon="9.125888233195637"><ele>99.2</ele><time>2026-04-18T09:16:36.803Z</time></trkpt><trkpt lat="45.35295588047205" lon="9.12596319007876"><ele>99.4</ele><time>2026-04-18T09:16:38.803Z</time></trkpt><trkpt lat="45.35302463293909" lon="9.126045430965556"><ele>99.6</ele><time>2026-04-18T09:16:40.803Z</time></trkpt><trkpt lat="45.35309752005151" lon="9.12613936876908"><ele>99.8</ele><time>2026-04-18T09:16:42.804Z</time></trkpt><trkpt lat="45.35316603736091" lon="9.126220538914248"><ele>100.0</ele><time>2026-04-18T09:16:44.804Z</time></trkpt><trkpt lat="45.353242539944446" lon="9.126310941963956"><ele>100.00000000000001</ele><time>2026-04-18T09:16:46.804Z</time></trkpt><trkpt lat="45.35331483139453" lon="9.126393414439887"><ele>100.0</ele><time>2026-04-18T09:16:48.803Z</time></trkpt><trkpt lat="45.35338359224867" lon="9.126462605735107"><ele>100.0</ele><time>2026-04-18T09:16:50.803Z</time></trkpt><trkpt lat="45.35345217149279" lon="9.126499652640403"><ele>100.0</ele><time>2026-04-18T09:16:52.803Z</time></trkpt><trkpt lat="45.3535188757089" lon="9.126471613617792"><ele>100.00000000000001</ele><time>2026-04-18T09:16:54.804Z</time></trkpt><trkpt lat="45.35355177191763" lon="9.126394173015193"><ele>100.0</ele><time>2026-04-18T09:16:56.804Z</time></trkpt><trkpt lat="45.35362679628882" lon="9.126378739334955"><ele>100.00000000000001</ele><time>2026-04-18T09:16:58.803Z</time></trkpt><trkpt lat="45.353666999977335" lon="9.126459875417742"><ele>100.0</ele><time>2026-04-18T09:17:00.803Z</time></trkpt><trkpt lat="45.35371798562848" lon="9.126529748181301"><ele>100.0</ele><time>2026-04-18T09:17:02.803Z</time></trkpt><trkpt lat="45.353781501815945" lon="9.126601582652338"><ele>100.0</ele><time>2026-04-18T09:17:04.803Z</time></trkpt><trkpt lat="45.35384754972126" lon="9.126673412081571"><ele>100.00000000000001</ele><time>2026-04-18T09:17:06.803Z</time></trkpt><trkpt lat="45.353920376234186" lon="9.12675321196521"><ele>100.0</ele><time>2026-04-18T09:17:08.803Z</time></trkpt><trkpt lat="45.35398752066513" lon="9.126827273425503"><ele>99.6</ele><time>2026-04-18T09:17:10.803Z</time></trkpt><trkpt lat="45.35404675066571" lon="9.12689714163055"><ele>99.2</ele><time>2026-04-18T09:17:12.803Z</time></trkpt><trkpt lat="45.354129632808956" lon="9.126987447455658"><ele>98.80000000000001</ele><time>2026-04-18T09:17:14.803Z</time></trkpt><trkpt lat="45.354204690463554" lon="9.127068108568926"><ele>98.4</ele><time>2026-04-18T09:17:16.803Z</time></trkpt><trkpt lat="45.354270070867784" lon="9.127154686556588"><ele>98.0</ele><time>2026-04-18T09:17:18.803Z</time></trkpt><trkpt lat="45.35435230578544" lon="9.12723661889256"><ele>98.0</ele><time>2026-04-18T09:17:20.803Z</time></trkpt><trkpt lat="45.35443809354154" lon="9.127325549220386"><ele>98.0</ele><time>2026-04-18T09:17:22.802Z</time></trkpt><trkpt lat="45.354517575561474" lon="9.127412111155712"><ele>98.0</ele><time>2026-04-18T09:17:24.802Z</time></trkpt><trkpt lat="45.354599594809194" lon="9.127486087631603"><ele>98.0</ele><time>2026-04-18T09:17:26.802Z</time></trkpt><trkpt lat="45.354696132472476" lon="9.1275380314136"><ele>98.0</ele><time>2026-04-18T09:17:28.802Z</time></trkpt><trkpt lat="45.3547974868748" lon="9.127573802971563"><ele>97.60000000000001</ele><time>2026-04-18T09:17:30.802Z</time></trkpt><trkpt lat="45.35490050322726" lon="9.12761227815578"><ele>97.2</ele><time>2026-04-18T09:17:32.802Z</time></trkpt><trkpt lat="45.35499537235409" lon="9.127667933834031"><ele>96.8</ele><time>2026-04-18T09:17:34.802Z</time></trkpt><trkpt lat="45.35508388640335" lon="9.127737158306664"><ele>96.4</ele><time>2026-04-18T09:17:36.802Z</time></trkpt><trkpt lat="45.355167575143106" lon="9.127822685484011"><ele>96.0</ele><time>2026-04-18T09:17:38.802Z</time></trkpt><trkpt lat="45.3552555846914" lon="9.127915451761"><ele>96.0</ele><time>2026-04-18T09:17:40.802Z</time></trkpt><trkpt lat="45.355340300678826" lon="9.127981637516472"><ele>96.0</ele><time>2026-04-18T09:17:42.802Z</time></trkpt><trkpt lat="45.35543420701106" lon="9.12803716516823"><ele>96.0</ele><time>2026-04-18T09:17:44.802Z</time></trkpt><trkpt lat="45.355528462740175" lon="9.128095580854971"><ele>96.0</ele><time>2026-04-18T09:17:46.802Z</time></trkpt><trkpt lat="45.35561980495301" lon="9.128153963597988"><ele>96.0</ele><time>2026-04-18T09:17:48.801Z</time></trkpt><trkpt lat="45.35571296367861" lon="9.128212585423878"><ele>96.4</ele><time>2026-04-18T09:17:50.801Z</time></trkpt><trkpt lat="45.35580841200707" lon="9.128276331212824"><ele>96.8</ele><time>2026-04-18T09:17:52.801Z</time></trkpt><trkpt lat="45.35590990512849" lon="9.12833730547528"><ele>97.2</ele><time>2026-04-18T09:17:54.801Z</time></trkpt><trkpt lat="45.356007049641605" lon="9.128390894706873"><ele>97.60000000000001</ele><time>2026-04-18T09:17:56.801Z</time></trkpt><trkpt lat="45.356112588164414" lon="9.12845238341817"><ele>98.0</ele><time>2026-04-18T09:17:58.801Z</time></trkpt><trkpt lat="45.35621181190898" lon="9.128517211835154"><ele>98.0</ele><time>2026-04-18T09:18:00.801Z</time></trkpt><trkpt lat="45.35630985585218" lon="9.128576235985662"><ele>98.0</ele><time>2026-04-18T09:18:02.801Z</time></trkpt><trkpt lat="45.35640359467677" lon="9.128631760627165"><ele>98.0</ele><time>2026-04-18T09:18:04.801Z</time></trkpt><trkpt lat="45.356497798579454" lon="9.128691254558234"><ele>98.0</ele><time>2026-04-18T09:18:06.801Z</time></trkpt><trkpt lat="45.35659675933109" lon="9.128750170878883"><ele>98.0</ele><time>2026-04-18T09:18:08.801Z</time></trkpt><trkpt lat="45.356689436568004" lon="9.12880680370276"><ele>98.4</ele><time>2026-04-18T09:18:10.801Z</time></trkpt><trkpt lat="45.35678918550759" lon="9.128869843667676"><ele>98.80000000000001</ele><time>2026-04-18T09:18:12.801Z</time></trkpt><trkpt lat="45.356881448538914" lon="9.128923485590365"><ele>99.2</ele><time>2026-04-18T09:18:14.8Z</time></trkpt><trkpt lat="45.35697713687365" lon="9.128983346702592"><ele>99.6</ele><time>2026-04-18T09:18:16.8Z</time></trkpt><trkpt lat="45.35707649340532" lon="9.129041436980998"><ele>100.0</ele><time>2026-04-18T09:18:18.8Z</time></trkpt><trkpt lat="45.35717339249862" lon="9.129102004248786"><ele>99.8</ele><time>2026-04-18T09:18:20.8Z</time></trkpt><trkpt lat="45.35726459165417" lon="9.129154793433372"><ele>99.6</ele><time>2026-04-18T09:18:22.8Z</time></trkpt><trkpt lat="45.35735252923246" lon="9.12920954149438"><ele>99.4</ele><time>2026-04-18T09:18:24.8Z</time></trkpt><trkpt lat="45.35744810788399" lon="9.129269309281685"><ele>99.2</ele><time>2026-04-18T09:18:26.8Z</time></trkpt><trkpt lat="45.357540362959426" lon="9.129324269779346"><ele>99.0</ele><time>2026-04-18T09:18:28.8Z</time></trkpt><trkpt lat="45.35763749247148" lon="9.129383819027039"><ele>99.0</ele><time>2026-04-18T09:18:30.8Z</time></trkpt><trkpt lat="45.357740618275194" lon="9.129442587542584"><ele>99.0</ele><time>2026-04-18T09:18:32.8Z</time></trkpt><trkpt lat="45.35784045532543" lon="9.129499720610063"><ele>99.0</ele><time>2026-04-18T09:18:34.8Z</time></trkpt><trkpt lat="45.35793211793425" lon="9.129566096867139"><ele>99.0</ele><time>2026-04-18T09:18:36.8Z</time></trkpt><trkpt lat="45.3580365093905" lon="9.129625358924878"><ele>99.0</ele><time>2026-04-18T09:18:38.8Z</time></trkpt><trkpt lat="45.35813573133002" lon="9.129679911550364"><ele>98.75</ele><time>2026-04-18T09:18:40.799Z</time></trkpt><trkpt lat="45.358232945238306" lon="9.129741092603897"><ele>98.5</ele><time>2026-04-18T09:18:42.799Z</time></trkpt><trkpt lat="45.358333404176484" lon="9.129797121726684"><ele>98.25</ele><time>2026-04-18T09:18:44.799Z</time></trkpt><trkpt lat="45.35843453050883" lon="9.129847837503748"><ele>98.0</ele><time>2026-04-18T09:18:46.799Z</time></trkpt><trkpt lat="45.35858816905513" lon="9.129935413829319"><ele>98.0</ele><time>2026-04-18T09:18:49.8Z</time></trkpt><trkpt lat="45.3586857005131" lon="9.129998869595978"><ele>98.0</ele><time>2026-04-18T09:18:51.8Z</time></trkpt><trkpt lat="45.358785036374556" lon="9.130065165555274"><ele>98.0</ele><time>2026-04-18T09:18:53.8Z</time></trkpt><trkpt lat="45.35888299926657" lon="9.13012899060086"><ele>98.0</ele><time>2026-04-18T09:18:55.8Z</time></trkpt><trkpt lat="45.3589817688786" lon="9.130187126585263"><ele>98.0</ele><time>2026-04-18T09:18:57.8Z</time></trkpt><trkpt lat="45.35907855208498" lon="9.130249403407456"><ele>97.80000000000001</ele><time>2026-04-18T09:18:59.8Z</time></trkpt><trkpt lat="45.35917143220853" lon="9.13030418695208"><ele>97.6</ele><time>2026-04-18T09:19:01.799Z</time></trkpt><trkpt lat="45.359270394497614" lon="9.13036524574271"><ele>97.4</ele><time>2026-04-18T09:19:03.799Z</time></trkpt><trkpt lat="45.359364347115175" lon="9.130424556384627"><ele>97.19999999999999</ele><time>2026-04-18T09:19:05.799Z</time></trkpt><trkpt lat="45.35946202708617" lon="9.1304819095378"><ele>97.0</ele><time>2026-04-18T09:19:07.799Z</time></trkpt><trkpt lat="45.35956207353796" lon="9.130538928500902"><ele>97.0</ele><time>2026-04-18T09:19:09.799Z</time></trkpt><trkpt lat="45.359659765416446" lon="9.130599860080801"><ele>97.0</ele><time>2026-04-18T09:19:11.799Z</time></trkpt><trkpt lat="45.35975301128319" lon="9.130656777446696"><ele>97.0</ele><time>2026-04-18T09:19:13.799Z</time></trkpt><trkpt lat="45.35984846335888" lon="9.130715066676549"><ele>97.0</ele><time>2026-04-18T09:19:15.799Z</time></trkpt><trkpt lat="45.35995331631105" lon="9.130777750934588"><ele>97.0</ele><time>2026-04-18T09:19:17.799Z</time></trkpt><trkpt lat="45.36005255685019" lon="9.130837394436377"><ele>97.0</ele><time>2026-04-18T09:19:19.799Z</time></trkpt><trkpt lat="45.360143003576006" lon="9.130895562550942"><ele>97.0</ele><time>2026-04-18T09:19:21.799Z</time></trkpt><trkpt lat="45.3602395763338" lon="9.130953632718612"><ele>97.0</ele><time>2026-04-18T09:19:23.799Z</time></trkpt><trkpt lat="45.36033467779963" lon="9.131010409098284"><ele>97.0</ele><time>2026-04-18T09:19:25.799Z</time></trkpt><trkpt lat="45.360422394314035" lon="9.131059915581668"><ele>97.0</ele><time>2026-04-18T09:19:27.798Z</time></trkpt><trkpt lat="45.36050878050648" lon="9.131113824078504"><ele>97.0</ele><time>2026-04-18T09:19:29.798Z</time></trkpt><trkpt lat="45.36060036742436" lon="9.131167779927647"><ele>97.0</ele><time>2026-04-18T09:19:31.798Z</time></trkpt><trkpt lat="45.36069299465363" lon="9.131223350154468"><ele>97.0</ele><time>2026-04-18T09:19:33.798Z</time></trkpt><trkpt lat="45.36078905241828" lon="9.131279207099665"><ele>97.0</ele><time>2026-04-18T09:19:35.798Z</time></trkpt><trkpt lat="45.36088823710867" lon="9.131333711416955"><ele>97.0</ele><time>2026-04-18T09:19:37.798Z</time></trkpt><trkpt lat="45.36098560732371" lon="9.131390214775728"><ele>97.0</ele><time>2026-04-18T09:19:39.798Z</time></trkpt><trkpt lat="45.36107671991172" lon="9.131447462224864"><ele>97.0</ele><time>2026-04-18T09:19:41.798Z</time></trkpt><trkpt lat="45.36117143677098" lon="9.131505178267355"><ele>97.0</ele><time>2026-04-18T09:19:43.798Z</time></trkpt><trkpt lat="45.36126742603899" lon="9.131561531466481"><ele>97.0</ele><time>2026-04-18T09:19:45.798Z</time></trkpt><trkpt lat="45.36136100838995" lon="9.13161928538272"><ele>97.0</ele><time>2026-04-18T09:19:47.798Z</time></trkpt><trkpt lat="45.36145329418829" lon="9.131675211239367"><ele>97.19999999999999</ele><time>2026-04-18T09:19:49.798Z</time></trkpt><trkpt lat="45.36154915704074" lon="9.131732124782978"><ele>97.4</ele><time>2026-04-18T09:19:51.797Z</time></trkpt><trkpt lat="45.36165038740511" lon="9.131782874040546"><ele>97.6</ele><time>2026-04-18T09:19:53.797Z</time></trkpt><trkpt lat="45.36173677395458" lon="9.131841088117843"><ele>97.80000000000001</ele><time>2026-04-18T09:19:55.797Z</time></trkpt><trkpt lat="45.36183248850637" lon="9.131898823664551"><ele>98.0</ele><time>2026-04-18T09:19:57.797Z</time></trkpt><trkpt lat="45.361926157058555" lon="9.13195493368597"><ele>98.0</ele><time>2026-04-18T09:19:59.797Z</time></trkpt><trkpt lat="45.3620255939253" lon="9.13201544046992"><ele>98.0</ele><time>2026-04-18T09:20:01.797Z</time></trkpt><trkpt lat="45.36212172238864" lon="9.132071640058896"><ele>98.0</ele><time>2026-04-18T09:20:03.797Z</time></trkpt><trkpt lat="45.36221502332691" lon="9.132127204080154"><ele>98.0</ele><time>2026-04-18T09:20:05.797Z</time></trkpt><trkpt lat="45.362314360120074" lon="9.13218967321118"><ele>98.0</ele><time>2026-04-18T09:20:07.797Z</time></trkpt><trkpt lat="45.36240900997476" lon="9.132245889541709"><ele>98.0</ele><time>2026-04-18T09:20:09.797Z</time></trkpt><trkpt lat="45.36251249229919" lon="9.132304972877709"><ele>98.0</ele><time>2026-04-18T09:20:11.797Z</time></trkpt><trkpt lat="45.36261218967422" lon="9.132360680488405"><ele>98.0</ele><time>2026-04-18T09:20:13.797Z</time></trkpt><trkpt lat="45.36270872738298" lon="9.132418569038748"><ele>98.0</ele><time>2026-04-18T09:20:15.797Z</time></trkpt><trkpt lat="45.36280386724405" lon="9.132488560883802"><ele>98.0</ele><time>2026-04-18T09:20:17.796Z</time></trkpt><trkpt lat="45.36290134389602" lon="9.132547074797595"><ele>97.80000000000001</ele><time>2026-04-18T09:20:19.796Z</time></trkpt><trkpt lat="45.36299997942978" lon="9.132605417655174"><ele>97.6</ele><time>2026-04-18T09:20:21.796Z</time></trkpt><trkpt lat="45.36309723406594" lon="9.132663634562034"><ele>97.4</ele><time>2026-04-18T09:20:23.796Z</time></trkpt><trkpt lat="45.363198234035416" lon="9.132718325585484"><ele>97.19999999999999</ele><time>2026-04-18T09:20:25.796Z</time></trkpt><trkpt lat="45.363300697832884" lon="9.132780593003439"><ele>97.0</ele><time>2026-04-18T09:20:27.796Z</time></trkpt><trkpt lat="45.363397524814275" lon="9.132840190108887"><ele>97.0</ele><time>2026-04-18T09:20:29.796Z</time></trkpt><trkpt lat="45.36349500983225" lon="9.1328937530678"><ele>97.0</ele><time>2026-04-18T09:20:31.796Z</time></trkpt><trkpt lat="45.36359647569634" lon="9.13294772672963"><ele>97.0</ele><time>2026-04-18T09:20:33.796Z</time></trkpt><trkpt lat="45.363698662918814" lon="9.133012142743535"><ele>97.0</ele><time>2026-04-18T09:20:35.796Z</time></trkpt><trkpt lat="45.363796909831485" lon="9.133080183679226"><ele>97.0</ele><time>2026-04-18T09:20:37.796Z</time></trkpt><trkpt lat="45.363897902770965" lon="9.133142674163645"><ele>97.0</ele><time>2026-04-18T09:20:39.796Z</time></trkpt><trkpt lat="45.36400347876709" lon="9.133207039878332"><ele>97.0</ele><time>2026-04-18T09:20:41.796Z</time></trkpt><trkpt lat="45.36411040113779" lon="9.133269714818555"><ele>97.0</ele><time>2026-04-18T09:20:43.795Z</time></trkpt><trkpt lat="45.36420696496513" lon="9.133331935655022"><ele>97.0</ele><time>2026-04-18T09:20:45.795Z</time></trkpt><trkpt lat="45.36429002921521" lon="9.133376970980716"><ele>97.0</ele><time>2026-04-18T09:20:47.795Z</time></trkpt><trkpt lat="45.364398836004305" lon="9.133452764745238"><ele>97.0</ele><time>2026-04-18T09:20:49.795Z</time></trkpt><trkpt lat="45.364499828164924" lon="9.133515000336862"><ele>97.0</ele><time>2026-04-18T09:20:51.795Z</time></trkpt><trkpt lat="45.36459886363272" lon="9.133575567848027"><ele>97.0</ele><time>2026-04-18T09:20:53.795Z</time></trkpt><trkpt lat="45.364697368253765" lon="9.133636011278327"><ele>97.0</ele><time>2026-04-18T09:20:55.796Z</time></trkpt><trkpt lat="45.36480038613138" lon="9.13369942105453"><ele>97.0</ele><time>2026-04-18T09:20:57.796Z</time></trkpt><trkpt lat="45.36489467238039" lon="9.13375376414932"><ele>97.0</ele><time>2026-04-18T09:20:59.796Z</time></trkpt><trkpt lat="45.36499811402225" lon="9.133815985403587"><ele>97.0</ele><time>2026-04-18T09:21:01.796Z</time></trkpt><trkpt lat="45.36509818037054" lon="9.13387746706648"><ele>97.0</ele><time>2026-04-18T09:21:03.796Z</time></trkpt><trkpt lat="45.3651962035095" lon="9.133938693782058"><ele>97.0</ele><time>2026-04-18T09:21:05.796Z</time></trkpt><trkpt lat="45.365292027104715" lon="9.133994010597593"><ele>97.0</ele><time>2026-04-18T09:21:07.796Z</time></trkpt><trkpt lat="45.3653897396079" lon="9.134054930301254"><ele>97.0</ele><time>2026-04-18T09:21:09.796Z</time></trkpt><trkpt lat="45.36548759505211" lon="9.134116388105923"><ele>97.0</ele><time>2026-04-18T09:21:11.796Z</time></trkpt><trkpt lat="45.36558568869765" lon="9.134174207596308"><ele>97.0</ele><time>2026-04-18T09:21:13.796Z</time></trkpt><trkpt lat="45.365684717688524" lon="9.134234354762187"><ele>97.0</ele><time>2026-04-18T09:21:15.796Z</time></trkpt><trkpt lat="45.36578248233268" lon="9.134295490195015"><ele>97.0</ele><time>2026-04-18T09:21:17.796Z</time></trkpt><trkpt lat="45.36588434230872" lon="9.134359261737334"><ele>97.0</ele><time>2026-04-18T09:21:19.796Z</time></trkpt><trkpt lat="45.36598628614007" lon="9.134421535749748"><ele>97.0</ele><time>2026-04-18T09:21:21.796Z</time></trkpt><trkpt lat="45.36608702063158" lon="9.134480854390821"><ele>97.0</ele><time>2026-04-18T09:21:23.796Z</time></trkpt><trkpt lat="45.366182759514935" lon="9.134544751742933"><ele>97.0</ele><time>2026-04-18T09:21:25.796Z</time></trkpt><trkpt lat="45.36627935012884" lon="9.134596198440557"><ele>97.0</ele><time>2026-04-18T09:21:27.795Z</time></trkpt><trkpt lat="45.366370835111105" lon="9.13465188205134"><ele>97.0</ele><time>2026-04-18T09:21:29.795Z</time></trkpt><trkpt lat="45.3664622285085" lon="9.134715326333223"><ele>97.0</ele><time>2026-04-18T09:21:31.795Z</time></trkpt><trkpt lat="45.36656514195232" lon="9.134776592883883"><ele>97.0</ele><time>2026-04-18T09:21:33.795Z</time></trkpt><trkpt lat="45.36666834273473" lon="9.134838802739791"><ele>97.0</ele><time>2026-04-18T09:21:35.795Z</time></trkpt><trkpt lat="45.366772155114596" lon="9.13489795242394"><ele>97.0</ele><time>2026-04-18T09:21:37.795Z</time></trkpt><trkpt lat="45.366869205868596" lon="9.134959369683852"><ele>97.0</ele><time>2026-04-18T09:21:39.795Z</time></trkpt><trkpt lat="45.36696027894487" lon="9.135008420276009"><ele>97.0</ele><time>2026-04-18T09:21:41.795Z</time></trkpt><trkpt lat="45.367057517632446" lon="9.135066796814504"><ele>97.0</ele><time>2026-04-18T09:21:43.795Z</time></trkpt><trkpt lat="45.367150697775315" lon="9.135124466207479"><ele>97.0</ele><time>2026-04-18T09:21:45.795Z</time></trkpt><trkpt lat="45.36724876827717" lon="9.135183171632514"><ele>97.0</ele><time>2026-04-18T09:21:47.795Z</time></trkpt><trkpt lat="45.367342665519466" lon="9.135238496166423"><ele>97.0</ele><time>2026-04-18T09:21:49.795Z</time></trkpt><trkpt lat="45.36743276219025" lon="9.13528532544836"><ele>97.0</ele><time>2026-04-18T09:21:51.795Z</time></trkpt><trkpt lat="45.36752975289014" lon="9.13534374788859"><ele>97.0</ele><time>2026-04-18T09:21:53.794Z</time></trkpt><trkpt lat="45.367626187333435" lon="9.135398743507208"><ele>97.0</ele><time>2026-04-18T09:21:55.794Z</time></trkpt><trkpt lat="45.36772199109016" lon="9.13545537640935"><ele>97.0</ele><time>2026-04-18T09:21:57.794Z</time></trkpt><trkpt lat="45.36781993791571" lon="9.135513824515913"><ele>97.0</ele><time>2026-04-18T09:21:59.794Z</time></trkpt><trkpt lat="45.36791411790679" lon="9.135570227090883"><ele>97.0</ele><time>2026-04-18T09:22:01.794Z</time></trkpt><trkpt lat="45.36801298297971" lon="9.135630741486217"><ele>97.0</ele><time>2026-04-18T09:22:03.794Z</time></trkpt><trkpt lat="45.36810920630931" lon="9.135684603087244"><ele>97.0</ele><time>2026-04-18T09:22:05.794Z</time></trkpt><trkpt lat="45.36819230761541" lon="9.135735353482513"><ele>97.0</ele><time>2026-04-18T09:22:07.794Z</time></trkpt><trkpt lat="45.36827171238376" lon="9.135778895520305"><ele>97.33333333333334</ele><time>2026-04-18T09:22:09.794Z</time></trkpt><trkpt lat="45.36834509899428" lon="9.135824100053133"><ele>97.66666666666667</ele><time>2026-04-18T09:22:11.794Z</time></trkpt><trkpt lat="45.36842178803066" lon="9.135862329489235"><ele>98.0</ele><time>2026-04-18T09:22:13.794Z</time></trkpt><trkpt lat="45.36848697015758" lon="9.135891734376887"><ele>98.33333333333334</ele><time>2026-04-18T09:22:15.794Z</time></trkpt><trkpt lat="45.368544717813066" lon="9.135927978785938"><ele>98.66666666666667</ele><time>2026-04-18T09:22:18.793Z</time></trkpt><trkpt lat="45.36862059854313" lon="9.135954081163385"><ele>99.0</ele><time>2026-04-18T09:22:23.793Z</time></trkpt><trkpt lat="45.36868499634156" lon="9.136024624824797"><ele>99.0</ele><time>2026-04-18T09:22:26.793Z</time></trkpt><trkpt lat="45.3687695870571" lon="9.136062361257313"><ele>99.0</ele><time>2026-04-18T09:22:28.793Z</time></trkpt><trkpt lat="45.36885658595554" lon="9.136098800600998"><ele>99.0</ele><time>2026-04-18T09:22:30.793Z</time></trkpt><trkpt lat="45.36893976689617" lon="9.136149826309094"><ele>99.0</ele><time>2026-04-18T09:22:32.793Z</time></trkpt><trkpt lat="45.36902053735654" lon="9.136188498786453"><ele>99.0</ele><time>2026-04-18T09:22:34.793Z</time></trkpt><trkpt lat="45.369099108482196" lon="9.13623006350637"><ele>99.0</ele><time>2026-04-18T09:22:36.793Z</time></trkpt><trkpt lat="45.36917742638908" lon="9.136262583175824"><ele>99.0</ele><time>2026-04-18T09:22:39.793Z</time></trkpt><trkpt lat="45.36923431984523" lon="9.136324391537535"><ele>99.0</ele><time>2026-04-18T09:29:07.78Z</time></trkpt><trkpt lat="45.36930010848647" lon="9.136359029172937"><ele>99.0</ele><time>2026-04-18T09:29:10.78Z</time></trkpt><trkpt lat="45.36937288227288" lon="9.136408162028978"><ele>99.0</ele><time>2026-04-18T09:29:13.78Z</time></trkpt><trkpt lat="45.369439339338236" lon="9.136442824633056"><ele>99.0</ele><time>2026-04-18T09:29:16.78Z</time></trkpt><trkpt lat="45.36951189399264" lon="9.136489532569355"><ele>99.0</ele><time>2026-04-18T09:29:19.781Z</time></trkpt><trkpt lat="45.36957754305686" lon="9.136526568405552"><ele>99.0</ele><time>2026-04-18T09:29:21.781Z</time></trkpt><trkpt lat="45.36965362820017" lon="9.13656178421858"><ele>99.33333333333333</ele><time>2026-04-18T09:29:23.781Z</time></trkpt><trkpt lat="45.369728253111994" lon="9.136606528612324"><ele>99.66666666666666</ele><time>2026-04-18T09:29:25.78Z</time></trkpt><trkpt lat="45.36980809540342" lon="9.136659565879416"><ele>100.0</ele><time>2026-04-18T09:29:27.78Z</time></trkpt><trkpt lat="45.36989384966674" lon="9.136698402000892"><ele>100.33333333333333</ele><time>2026-04-18T09:29:29.78Z</time></trkpt><trkpt lat="45.36997666906263" lon="9.136751660019073"><ele>100.66666666666666</ele><time>2026-04-18T09:29:31.781Z</time></trkpt><trkpt lat="45.370049622800416" lon="9.136796698435228"><ele>101.0</ele><time>2026-04-18T09:29:33.781Z</time></trkpt><trkpt lat="45.37013037622612" lon="9.136837378474526"><ele>101.0</ele><time>2026-04-18T09:29:35.781Z</time></trkpt><trkpt lat="45.370214396100884" lon="9.136876951944862"><ele>101.0</ele><time>2026-04-18T09:29:37.781Z</time></trkpt><trkpt lat="45.370302426179535" lon="9.13692447050187"><ele>101.0</ele><time>2026-04-18T09:29:39.78Z</time></trkpt><trkpt lat="45.37038552991842" lon="9.136970474752445"><ele>101.0</ele><time>2026-04-18T09:29:41.78Z</time></trkpt><trkpt lat="45.37047707974101" lon="9.137031091660162"><ele>101.0</ele><time>2026-04-18T09:29:43.78Z</time></trkpt><trkpt lat="45.37056818082373" lon="9.137073831673652"><ele>100.8</ele><time>2026-04-18T09:29:45.78Z</time></trkpt><trkpt lat="45.3706541033785" lon="9.137123229208704"><ele>100.6</ele><time>2026-04-18T09:29:47.78Z</time></trkpt><trkpt lat="45.370740140660196" lon="9.13717266357512"><ele>100.4</ele><time>2026-04-18T09:29:49.78Z</time></trkpt><trkpt lat="45.37082944006615" lon="9.137226073294503"><ele>100.2</ele><time>2026-04-18T09:29:51.78Z</time></trkpt><trkpt lat="45.37092314626366" lon="9.13727666810806"><ele>100.0</ele><time>2026-04-18T09:29:53.78Z</time></trkpt><trkpt lat="45.371015331494114" lon="9.137325722336382"><ele>100.0</ele><time>2026-04-18T09:29:55.78Z</time></trkpt><trkpt lat="45.37110744279554" lon="9.137379062625799"><ele>100.0</ele><time>2026-04-18T09:29:57.78Z</time></trkpt><trkpt lat="45.37120443758083" lon="9.13743428594648"><ele>100.0</ele><time>2026-04-18T09:29:59.78Z</time></trkpt><trkpt lat="45.371296616391895" lon="9.137478168008979"><ele>100.0</ele><time>2026-04-18T09:30:01.78Z</time></trkpt><trkpt lat="45.371398888579215" lon="9.13753767709991"><ele>100.0</ele><time>2026-04-18T09:30:03.78Z</time></trkpt><trkpt lat="45.37149361207277" lon="9.137590576047259"><ele>99.4</ele><time>2026-04-18T09:30:05.779Z</time></trkpt><trkpt lat="45.37158239678519" lon="9.137640978039656"><ele>98.8</ele><time>2026-04-18T09:30:07.779Z</time></trkpt><trkpt lat="45.371679287647105" lon="9.13769689029314"><ele>98.19999999999999</ele><time>2026-04-18T09:30:09.779Z</time></trkpt><trkpt lat="45.371774741313786" lon="9.137750342526894"><ele>97.6</ele><time>2026-04-18T09:30:11.779Z</time></trkpt><trkpt lat="45.37187369539099" lon="9.137798810078928"><ele>97.0</ele><time>2026-04-18T09:30:13.779Z</time></trkpt><trkpt lat="45.371972528128275" lon="9.137857755965948"><ele>97.0</ele><time>2026-04-18T09:30:15.779Z</time></trkpt><trkpt lat="45.37207381566272" lon="9.13791285878857"><ele>97.0</ele><time>2026-04-18T09:30:17.779Z</time></trkpt><trkpt lat="45.37216902084404" lon="9.137967337188817"><ele>97.0</ele><time>2026-04-18T09:30:19.779Z</time></trkpt><trkpt lat="45.372272411606566" lon="9.138017047475952"><ele>97.0</ele><time>2026-04-18T09:30:21.779Z</time></trkpt><trkpt lat="45.37237066952782" lon="9.13806659630061"><ele>97.0</ele><time>2026-04-18T09:30:23.779Z</time></trkpt><trkpt lat="45.372464319137386" lon="9.13811598501593"><ele>97.19999999999999</ele><time>2026-04-18T09:30:25.779Z</time></trkpt><trkpt lat="45.37256674498245" lon="9.138176028850152"><ele>97.4</ele><time>2026-04-18T09:30:27.779Z</time></trkpt><trkpt lat="45.37266609671419" lon="9.138231874161248"><ele>97.6</ele><time>2026-04-18T09:30:29.779Z</time></trkpt><trkpt lat="45.3727603726187" lon="9.13828681283529"><ele>97.80000000000001</ele><time>2026-04-18T09:30:31.778Z</time></trkpt><trkpt lat="45.372863780611866" lon="9.138346232586976"><ele>98.0</ele><time>2026-04-18T09:30:33.778Z</time></trkpt><trkpt lat="45.37297188517174" lon="9.138406448118703"><ele>98.0</ele><time>2026-04-18T09:30:35.778Z</time></trkpt><trkpt lat="45.37307996183092" lon="9.138472691738857"><ele>98.0</ele><time>2026-04-18T09:30:37.781Z</time></trkpt><trkpt lat="45.37318966168317" lon="9.138529600270004"><ele>98.0</ele><time>2026-04-18T09:30:39.783Z</time></trkpt><trkpt lat="45.373297268734476" lon="9.138586710043475"><ele>98.0</ele><time>2026-04-18T09:30:41.786Z</time></trkpt><trkpt lat="45.37341167659923" lon="9.13862246486162"><ele>98.0</ele><time>2026-04-18T09:30:43.788Z</time></trkpt><trkpt lat="45.373516213979876" lon="9.1386372344383"><ele>98.0</ele><time>2026-04-18T09:30:45.789Z</time></trkpt><trkpt lat="45.373617168157224" lon="9.138660455750086"><ele>98.0</ele><time>2026-04-18T09:30:47.791Z</time></trkpt><trkpt lat="45.373722467492264" lon="9.13869153659427"><ele>98.0</ele><time>2026-04-18T09:30:49.792Z</time></trkpt><trkpt lat="45.37382167524012" lon="9.138758250555904"><ele>98.0</ele><time>2026-04-18T09:30:51.794Z</time></trkpt><trkpt lat="45.373914782893465" lon="9.13883926560005"><ele>98.2</ele><time>2026-04-18T09:30:53.795Z</time></trkpt><trkpt lat="45.373999457848264" lon="9.138938590133565"><ele>98.4</ele><time>2026-04-18T09:30:55.795Z</time></trkpt><trkpt lat="45.37409317246205" lon="9.139027010990509"><ele>98.60000000000001</ele><time>2026-04-18T09:30:57.796Z</time></trkpt><trkpt lat="45.37419630647129" lon="9.139085984541204"><ele>98.80000000000001</ele><time>2026-04-18T09:30:59.797Z</time></trkpt><trkpt lat="45.374303266513515" lon="9.1391439629638"><ele>99.0</ele><time>2026-04-18T09:31:01.798Z</time></trkpt><trkpt lat="45.374412446611316" lon="9.139204609023636"><ele>99.2</ele><time>2026-04-18T09:31:03.798Z</time></trkpt><trkpt lat="45.37451625011927" lon="9.13925219326034"><ele>99.4</ele><time>2026-04-18T09:31:05.798Z</time></trkpt><trkpt lat="45.37461882856904" lon="9.13930913890844"><ele>99.6</ele><time>2026-04-18T09:31:07.799Z</time></trkpt><trkpt lat="45.37471785011071" lon="9.139370554339886"><ele>99.8</ele><time>2026-04-18T09:31:09.799Z</time></trkpt><trkpt lat="45.37481846218715" lon="9.139435324998695"><ele>100.0</ele><time>2026-04-18T09:31:11.799Z</time></trkpt><trkpt lat="45.37491731343437" lon="9.139492354859922"><ele>100.0</ele><time>2026-04-18T09:31:13.8Z</time></trkpt><trkpt lat="45.3750249964827" lon="9.139563608718111"><ele>100.0</ele><time>2026-04-18T09:31:15.8Z</time></trkpt><trkpt lat="45.37513348928441" lon="9.139631896523785"><ele>100.0</ele><time>2026-04-18T09:31:17.8Z</time></trkpt><trkpt lat="45.375242440855914" lon="9.1396923351647"><ele>100.0</ele><time>2026-04-18T09:31:19.8Z</time></trkpt><trkpt lat="45.37534929961095" lon="9.139761139281841"><ele>100.00000000000001</ele><time>2026-04-18T09:31:21.8Z</time></trkpt><trkpt lat="45.37541440804673" lon="9.139787687169568"><ele>100.0</ele><time>2026-04-18T09:31:22.8Z</time></trkpt><trkpt lat="45.37547410040427" lon="9.139820141446643"><ele>100.0</ele><time>2026-04-18T09:31:23.8Z</time></trkpt><trkpt lat="45.3755387569186" lon="9.1398533869433"><ele>100.0</ele><time>2026-04-18T09:31:24.8Z</time></trkpt><trkpt lat="45.37560832275188" lon="9.139879961950031"><ele>100.0</ele><time>2026-04-18T09:31:25.801Z</time></trkpt><trkpt lat="45.37567565018251" lon="9.139910795853615"><ele>100.00000000000001</ele><time>2026-04-18T09:31:26.801Z</time></trkpt><trkpt lat="45.3757444189418" lon="9.139937581512001"><ele>100.0</ele><time>2026-04-18T09:31:27.801Z</time></trkpt><trkpt lat="45.37581064625039" lon="9.139973814686538"><ele>100.28571428571429</ele><time>2026-04-18T09:31:28.801Z</time></trkpt><trkpt lat="45.375877224549015" lon="9.140006191194217"><ele>100.57142857142857</ele><time>2026-04-18T09:31:29.801Z</time></trkpt><trkpt lat="45.3759420552652" lon="9.140038696892567"><ele>100.85714285714286</ele><time>2026-04-18T09:31:30.8Z</time></trkpt><trkpt lat="45.37600879396049" lon="9.140077596741351"><ele>101.14285714285714</ele><time>2026-04-18T09:31:31.801Z</time></trkpt><trkpt lat="45.376071846037135" lon="9.140116599077384"><ele>101.42857142857143</ele><time>2026-04-18T09:31:32.801Z</time></trkpt><trkpt lat="45.376131828072396" lon="9.140157683576954"><ele>101.71428571428572</ele><time>2026-04-18T09:31:33.801Z</time></trkpt><trkpt lat="45.37619578898022" lon="9.140190660077405"><ele>102.0</ele><time>2026-04-18T09:31:34.801Z</time></trkpt><trkpt lat="45.37625500257537" lon="9.140224538714055"><ele>102.0</ele><time>2026-04-18T09:31:35.801Z</time></trkpt><trkpt lat="45.376320555380595" lon="9.140256971528597"><ele>102.0</ele><time>2026-04-18T09:31:36.801Z</time></trkpt><trkpt lat="45.37638601322727" lon="9.140287815832107"><ele>102.0</ele><time>2026-04-18T09:31:37.801Z</time></trkpt><trkpt lat="45.37645352545131" lon="9.14032138497625"><ele>102.0</ele><time>2026-04-18T09:31:38.801Z</time></trkpt><trkpt lat="45.376518637841286" lon="9.140355278154573"><ele>102.0</ele><time>2026-04-18T09:31:39.801Z</time></trkpt><trkpt lat="45.37658007255112" lon="9.140392917546265"><ele>102.0</ele><time>2026-04-18T09:31:40.801Z</time></trkpt><trkpt lat="45.37664071035733" lon="9.14043390570321"><ele>102.0</ele><time>2026-04-18T09:31:41.801Z</time></trkpt><trkpt lat="45.376702527890245" lon="9.140472156162817"><ele>101.5</ele><time>2026-04-18T09:31:42.801Z</time></trkpt><trkpt lat="45.37676878673474" lon="9.140509884113435"><ele>101.0</ele><time>2026-04-18T09:31:43.801Z</time></trkpt><trkpt lat="45.37683238914413" lon="9.14054418453296"><ele>100.5</ele><time>2026-04-18T09:31:44.801Z</time></trkpt><trkpt lat="45.37689356056206" lon="9.140573173639048"><ele>100.0</ele><time>2026-04-18T09:31:45.8Z</time></trkpt><trkpt lat="45.37695081983452" lon="9.140611704535194"><ele>99.5</ele><time>2026-04-18T09:31:46.8Z</time></trkpt><trkpt lat="45.37701002913684" lon="9.140642967113301"><ele>99.0</ele><time>2026-04-18T09:31:47.8Z</time></trkpt><trkpt lat="45.37713209595409" lon="9.140707253252868"><ele>99.0</ele><time>2026-04-18T09:31:49.8Z</time></trkpt><trkpt lat="45.37719390476301" lon="9.140740240659682"><ele>99.0</ele><time>2026-04-18T09:31:50.8Z</time></trkpt><trkpt lat="45.377252359279446" lon="9.140776054082753"><ele>99.0</ele><time>2026-04-18T09:31:51.8Z</time></trkpt><trkpt lat="45.377311106607756" lon="9.140816094145908"><ele>99.0</ele><time>2026-04-18T09:31:52.8Z</time></trkpt><trkpt lat="45.377373065468674" lon="9.140849767970579"><ele>99.0</ele><time>2026-04-18T09:31:53.8Z</time></trkpt><trkpt lat="45.37743676087477" lon="9.140882931937492"><ele>99.0</ele><time>2026-04-18T09:31:54.8Z</time></trkpt><trkpt lat="45.37749681309977" lon="9.140915923174402"><ele>99.0</ele><time>2026-04-18T09:31:55.8Z</time></trkpt><trkpt lat="45.37755555662935" lon="9.140948504558509"><ele>99.0</ele><time>2026-04-18T09:31:56.8Z</time></trkpt><trkpt lat="45.377618655394286" lon="9.140981986001185"><ele>99.0</ele><time>2026-04-18T09:31:57.8Z</time></trkpt><trkpt lat="45.377681587234626" lon="9.14101375707945"><ele>99.0</ele><time>2026-04-18T09:31:58.8Z</time></trkpt><trkpt lat="45.377744499494064" lon="9.141046800543135"><ele>99.0</ele><time>2026-04-18T09:31:59.8Z</time></trkpt><trkpt lat="45.377803591184936" lon="9.141081640052294"><ele>99.0</ele><time>2026-04-18T09:32:00.8Z</time></trkpt><trkpt lat="45.37792452071212" lon="9.141145303994664"><ele>99.0</ele><time>2026-04-18T09:32:02.8Z</time></trkpt><trkpt lat="45.37798490743946" lon="9.141179165415979"><ele>98.83333333333333</ele><time>2026-04-18T09:32:03.8Z</time></trkpt><trkpt lat="45.378046647589855" lon="9.141216407701055"><ele>98.66666666666666</ele><time>2026-04-18T09:32:04.8Z</time></trkpt><trkpt lat="45.37810729822602" lon="9.141254067755023"><ele>98.5</ele><time>2026-04-18T09:32:05.8Z</time></trkpt><trkpt lat="45.37822313680697" lon="9.141326990219877"><ele>98.33333333333333</ele><time>2026-04-18T09:32:07.8Z</time></trkpt><trkpt lat="45.37828393241882" lon="9.141363034711658"><ele>98.16666666666666</ele><time>2026-04-18T09:32:08.8Z</time></trkpt><trkpt lat="45.37834636209505" lon="9.14139635606637"><ele>98.0</ele><time>2026-04-18T09:32:09.8Z</time></trkpt><trkpt lat="45.37840855698371" lon="9.141427259089927"><ele>98.0</ele><time>2026-04-18T09:32:10.8Z</time></trkpt><trkpt lat="45.37847047189703" lon="9.14145934718183"><ele>98.0</ele><time>2026-04-18T09:32:11.8Z</time></trkpt><trkpt lat="45.37853125484275" lon="9.141492232416425"><ele>98.0</ele><time>2026-04-18T09:32:12.8Z</time></trkpt><trkpt lat="45.37859212197606" lon="9.141529262869884"><ele>98.0</ele><time>2026-04-18T09:32:13.8Z</time></trkpt><trkpt lat="45.37865286082026" lon="9.141561606230342"><ele>98.0</ele><time>2026-04-18T09:32:14.8Z</time></trkpt><trkpt lat="45.37871415502435" lon="9.141597274918368"><ele>98.0</ele><time>2026-04-18T09:32:15.8Z</time></trkpt><trkpt lat="45.37877770878029" lon="9.141629541073948"><ele>98.0</ele><time>2026-04-18T09:32:16.8Z</time></trkpt><trkpt lat="45.37883945274657" lon="9.141662191459163"><ele>98.33333333333333</ele><time>2026-04-18T09:32:17.8Z</time></trkpt><trkpt lat="45.378900823817226" lon="9.14169398719545"><ele>98.66666666666666</ele><time>2026-04-18T09:32:18.8Z</time></trkpt><trkpt lat="45.37896206756117" lon="9.141726653256217"><ele>99.0</ele><time>2026-04-18T09:32:19.8Z</time></trkpt><trkpt lat="45.37902126928335" lon="9.141760510603683"><ele>99.33333333333334</ele><time>2026-04-18T09:32:20.8Z</time></trkpt><trkpt lat="45.37908316750145" lon="9.141796331889813"><ele>99.66666666666667</ele><time>2026-04-18T09:32:21.8Z</time></trkpt><trkpt lat="45.3792029427856" lon="9.141865197589834"><ele>100.0</ele><time>2026-04-18T09:32:23.799Z</time></trkpt><trkpt lat="45.37926338664787" lon="9.141902274112946"><ele>100.00000000000001</ele><time>2026-04-18T09:32:24.799Z</time></trkpt><trkpt lat="45.37932116580781" lon="9.141937915968631"><ele>100.0</ele><time>2026-04-18T09:32:25.799Z</time></trkpt><trkpt lat="45.37938977590021" lon="9.141976780340759"><ele>100.0</ele><time>2026-04-18T09:32:26.799Z</time></trkpt><trkpt lat="45.37945559118392" lon="9.142010304727973"><ele>100.0</ele><time>2026-04-18T09:32:27.799Z</time></trkpt><trkpt lat="45.37952403070019" lon="9.14205658264938"><ele>100.0</ele><time>2026-04-18T09:32:28.799Z</time></trkpt><trkpt lat="45.37958960808231" lon="9.142093021119486"><ele>100.00000000000001</ele><time>2026-04-18T09:32:29.799Z</time></trkpt><trkpt lat="45.379655557190155" lon="9.142130601747395"><ele>100.0</ele><time>2026-04-18T09:32:30.799Z</time></trkpt><trkpt lat="45.379722794575166" lon="9.142163067652325"><ele>100.33333333333334</ele><time>2026-04-18T09:32:31.799Z</time></trkpt><trkpt lat="45.379784563397244" lon="9.142206867898915"><ele>100.66666666666667</ele><time>2026-04-18T09:32:32.799Z</time></trkpt><trkpt lat="45.37986804842873" lon="9.142231085056455"><ele>101.0</ele><time>2026-04-18T09:32:34.799Z</time></trkpt><trkpt lat="45.379947407471" lon="9.14228547973141"><ele>101.33333333333334</ele><time>2026-04-18T09:32:35.799Z</time></trkpt><trkpt lat="45.38001623084259" lon="9.14231622293887"><ele>101.66666666666667</ele><time>2026-04-18T09:32:36.799Z</time></trkpt><trkpt lat="45.38008375486563" lon="9.142348147545114"><ele>102.0</ele><time>2026-04-18T09:32:37.799Z</time></trkpt><trkpt lat="45.380143979881844" lon="9.142386218588939"><ele>102.33333333333333</ele><time>2026-04-18T09:32:38.799Z</time></trkpt><trkpt lat="45.38020465845859" lon="9.142420765031298"><ele>102.66666666666666</ele><time>2026-04-18T09:32:39.799Z</time></trkpt><trkpt lat="45.38031427699923" lon="9.142488242577315"><ele>103.0</ele><time>2026-04-18T09:32:41.799Z</time></trkpt><trkpt lat="45.380404996113555" lon="9.14253652223696"><ele>103.33333333333333</ele><time>2026-04-18T09:32:43.799Z</time></trkpt><trkpt lat="45.38048028676506" lon="9.142570805036664"><ele>103.66666666666666</ele><time>2026-04-18T09:32:45.799Z</time></trkpt><trkpt lat="45.38056066118245" lon="9.142607837669935"><ele>104.0</ele><time>2026-04-18T09:32:47.799Z</time></trkpt><trkpt lat="45.38063369971841" lon="9.14265214735203"><ele>104.2</ele><time>2026-04-18T09:32:49.799Z</time></trkpt><trkpt lat="45.38071014789874" lon="9.142697972361496"><ele>104.4</ele><time>2026-04-18T09:32:51.799Z</time></trkpt><trkpt lat="45.3808024429664" lon="9.142751990558434"><ele>104.6</ele><time>2026-04-18T09:32:53.798Z</time></trkpt><trkpt lat="45.380909907807656" lon="9.142812699031898"><ele>104.8</ele><time>2026-04-18T09:32:55.798Z</time></trkpt><trkpt lat="45.3810198263881" lon="9.14287733410123"><ele>105.0</ele><time>2026-04-18T09:32:57.798Z</time></trkpt><trkpt lat="45.38112172723362" lon="9.142943049228883"><ele>105.0</ele><time>2026-04-18T09:32:59.798Z</time></trkpt><trkpt lat="45.381222285739724" lon="9.142990597415839"><ele>105.0</ele><time>2026-04-18T09:33:01.798Z</time></trkpt><trkpt lat="45.38133754240307" lon="9.143053804224303"><ele>105.0</ele><time>2026-04-18T09:33:03.798Z</time></trkpt><trkpt lat="45.38144852779152" lon="9.143108273376452"><ele>105.0</ele><time>2026-04-18T09:33:05.798Z</time></trkpt><trkpt lat="45.381558307295634" lon="9.1431706610434"><ele>105.0</ele><time>2026-04-18T09:33:07.798Z</time></trkpt><trkpt lat="45.3816631711706" lon="9.143223878404617"><ele>105.0</ele><time>2026-04-18T09:33:09.798Z</time></trkpt><trkpt lat="45.38177649677932" lon="9.143287824209954"><ele>105.0</ele><time>2026-04-18T09:33:11.798Z</time></trkpt><trkpt lat="45.38188338414962" lon="9.14334854373444"><ele>105.0</ele><time>2026-04-18T09:33:13.798Z</time></trkpt><trkpt lat="45.3819906843394" lon="9.143404840663118"><ele>105.0</ele><time>2026-04-18T09:33:15.798Z</time></trkpt><trkpt lat="45.38210059254903" lon="9.143458606246678"><ele>105.0</ele><time>2026-04-18T09:33:17.798Z</time></trkpt><trkpt lat="45.382205525174406" lon="9.143516213632944"><ele>105.0</ele><time>2026-04-18T09:33:19.798Z</time></trkpt><trkpt lat="45.38231506807539" lon="9.143577424327374"><ele>105.0</ele><time>2026-04-18T09:33:21.798Z</time></trkpt><trkpt lat="45.38242304542939" lon="9.143637769187052"><ele>104.4</ele><time>2026-04-18T09:33:23.797Z</time></trkpt><trkpt lat="45.38252749271841" lon="9.143703163180753"><ele>103.8</ele><time>2026-04-18T09:33:25.797Z</time></trkpt><trkpt lat="45.382637889891" lon="9.14376033333594"><ele>103.19999999999999</ele><time>2026-04-18T09:33:27.797Z</time></trkpt><trkpt lat="45.3827466942282" lon="9.143817277268797"><ele>102.6</ele><time>2026-04-18T09:33:29.797Z</time></trkpt><trkpt lat="45.38280643767179" lon="9.143850234342043"><ele>102.0</ele><time>2026-04-18T09:33:30.798Z</time></trkpt><trkpt lat="45.38291574559599" lon="9.143915171432255"><ele>101.75</ele><time>2026-04-18T09:33:32.798Z</time></trkpt><trkpt lat="45.38303099271157" lon="9.1439752640652"><ele>101.5</ele><time>2026-04-18T09:33:34.798Z</time></trkpt><trkpt lat="45.38313871034148" lon="9.144034679545076"><ele>101.25</ele><time>2026-04-18T09:33:36.798Z</time></trkpt><trkpt lat="45.3832457028714" lon="9.144099512099345"><ele>101.0</ele><time>2026-04-18T09:33:38.798Z</time></trkpt><trkpt lat="45.383360710463386" lon="9.144155934872584"><ele>101.0</ele><time>2026-04-18T09:33:40.799Z</time></trkpt><trkpt lat="45.383469221618824" lon="9.14421193395258"><ele>101.0</ele><time>2026-04-18T09:33:42.799Z</time></trkpt><trkpt lat="45.38357316465647" lon="9.14426262187509"><ele>101.0</ele><time>2026-04-18T09:33:44.798Z</time></trkpt><trkpt lat="45.38367806699625" lon="9.144321879854637"><ele>101.0</ele><time>2026-04-18T09:33:46.798Z</time></trkpt><trkpt lat="45.38377673316486" lon="9.144375774870765"><ele>101.0</ele><time>2026-04-18T09:33:48.798Z</time></trkpt><trkpt lat="45.383891482471526" lon="9.14444846896192"><ele>100.8</ele><time>2026-04-18T09:33:50.798Z</time></trkpt><trkpt lat="45.38400216329394" lon="9.144513741210458"><ele>100.6</ele><time>2026-04-18T09:33:52.798Z</time></trkpt><trkpt lat="45.38411380702331" lon="9.144575527458931"><ele>100.4</ele><time>2026-04-18T09:33:54.798Z</time></trkpt><trkpt lat="45.38423213953187" lon="9.144627469942835"><ele>100.2</ele><time>2026-04-18T09:33:56.798Z</time></trkpt><trkpt lat="45.3842923964539" lon="9.144662278249367"><ele>100.0</ele><time>2026-04-18T09:33:57.798Z</time></trkpt><trkpt lat="45.38440193398429" lon="9.144738022666987"><ele>100.00000000000001</ele><time>2026-04-18T09:33:59.798Z</time></trkpt><trkpt lat="45.3845160914661" lon="9.14480575943064"><ele>100.0</ele><time>2026-04-18T09:34:01.797Z</time></trkpt><trkpt lat="45.38463142868175" lon="9.144868887992404"><ele>100.0</ele><time>2026-04-18T09:34:03.797Z</time></trkpt><trkpt lat="45.38469175497592" lon="9.144903620110009"><ele>100.0</ele><time>2026-04-18T09:34:04.797Z</time></trkpt><trkpt lat="45.38475116366398" lon="9.144939534028355"><ele>100.00000000000001</ele><time>2026-04-18T09:34:05.797Z</time></trkpt><trkpt lat="45.384811733038866" lon="9.144972316649602"><ele>100.0</ele><time>2026-04-18T09:34:06.797Z</time></trkpt><trkpt lat="45.384873847537" lon="9.14500328353212"><ele>100.6</ele><time>2026-04-18T09:34:07.797Z</time></trkpt><trkpt lat="45.38498542767748" lon="9.145060008603375"><ele>101.2</ele><time>2026-04-18T09:34:09.797Z</time></trkpt><trkpt lat="45.38509460197012" lon="9.145122814218103"><ele>101.80000000000001</ele><time>2026-04-18T09:34:11.797Z</time></trkpt><trkpt lat="45.385208417857115" lon="9.14518489609614"><ele>102.4</ele><time>2026-04-18T09:34:13.797Z</time></trkpt><trkpt lat="45.38526794711954" lon="9.145223420116182"><ele>103.0</ele><time>2026-04-18T09:34:14.797Z</time></trkpt><trkpt lat="45.38537330055647" lon="9.145279135706298"><ele>103.00000000000001</ele><time>2026-04-18T09:34:16.797Z</time></trkpt><trkpt lat="45.385433852698206" lon="9.14531986283626"><ele>103.0</ele><time>2026-04-18T09:34:17.797Z</time></trkpt><trkpt lat="45.38554257045634" lon="9.145383645881756"><ele>103.0</ele><time>2026-04-18T09:34:19.797Z</time></trkpt><trkpt lat="45.38563278254291" lon="9.145434085045386"><ele>103.0</ele><time>2026-04-18T09:34:21.797Z</time></trkpt><trkpt lat="45.38569350753097" lon="9.145460236887306"><ele>103.00000000000001</ele><time>2026-04-18T09:34:22.797Z</time></trkpt><trkpt lat="45.38575390762324" lon="9.14548819200329"><ele>103.0</ele><time>2026-04-18T09:34:23.797Z</time></trkpt><trkpt lat="45.38586759088323" lon="9.14555192374266"><ele>103.00000000000001</ele><time>2026-04-18T09:34:25.797Z</time></trkpt><trkpt lat="45.385972601058086" lon="9.14561184718599"><ele>103.0</ele><time>2026-04-18T09:34:27.797Z</time></trkpt><trkpt lat="45.386031734052466" lon="9.145645401973418"><ele>103.0</ele><time>2026-04-18T09:34:28.797Z</time></trkpt><trkpt lat="45.38609090011056" lon="9.145681416666742"><ele>103.0</ele><time>2026-04-18T09:34:29.797Z</time></trkpt><trkpt lat="45.386149960176866" lon="9.14571555157892"><ele>103.00000000000001</ele><time>2026-04-18T09:34:30.797Z</time></trkpt><trkpt lat="45.386208939085016" lon="9.145748434065146"><ele>103.0</ele><time>2026-04-18T09:34:31.796Z</time></trkpt><trkpt lat="45.386307339405946" lon="9.145813443193584"><ele>103.60000000000001</ele><time>2026-04-18T09:34:33.796Z</time></trkpt><trkpt lat="45.38641399463798" lon="9.14586941381547"><ele>104.2</ele><time>2026-04-18T09:34:35.796Z</time></trkpt><trkpt lat="45.38647948817673" lon="9.145899751677083"><ele>104.8</ele><time>2026-04-18T09:34:36.796Z</time></trkpt><trkpt lat="45.38654298280952" lon="9.145929676590344"><ele>105.4</ele><time>2026-04-18T09:34:37.796Z</time></trkpt><trkpt lat="45.38665707073802" lon="9.145994230643982"><ele>106.0</ele><time>2026-04-18T09:34:39.796Z</time></trkpt><trkpt lat="45.38677672107248" lon="9.14604684203746"><ele>106.0</ele><time>2026-04-18T09:34:41.796Z</time></trkpt><trkpt lat="45.386842624153665" lon="9.14608084710757"><ele>106.0</ele><time>2026-04-18T09:34:42.796Z</time></trkpt><trkpt lat="45.386960059675594" lon="9.146130146897613"><ele>106.0</ele><time>2026-04-18T09:34:44.796Z</time></trkpt><trkpt lat="45.387021934906244" lon="9.146151730317394"><ele>106.0</ele><time>2026-04-18T09:34:45.796Z</time></trkpt><trkpt lat="45.38713864098369" lon="9.146190594351005"><ele>106.0</ele><time>2026-04-18T09:34:47.796Z</time></trkpt><trkpt lat="45.38725344354347" lon="9.146258095817469"><ele>105.6</ele><time>2026-04-18T09:34:49.796Z</time></trkpt><trkpt lat="45.387311540866065" lon="9.146303655730174"><ele>105.19999999999999</ele><time>2026-04-18T09:34:50.796Z</time></trkpt><trkpt lat="45.387367075952575" lon="9.14634901881752"><ele>104.80000000000001</ele><time>2026-04-18T09:34:51.796Z</time></trkpt><trkpt lat="45.38747475446486" lon="9.146432712672517"><ele>104.4</ele><time>2026-04-18T09:34:53.796Z</time></trkpt><trkpt lat="45.387590447326296" lon="9.146501882357551"><ele>104.0</ele><time>2026-04-18T09:34:55.796Z</time></trkpt><trkpt lat="45.38770372404253" lon="9.146566151415175"><ele>103.75</ele><time>2026-04-18T09:34:57.796Z</time></trkpt><trkpt lat="45.38781221979578" lon="9.146623387606553"><ele>103.5</ele><time>2026-04-18T09:34:59.796Z</time></trkpt><trkpt lat="45.3879208767755" lon="9.146692733320736"><ele>103.25</ele><time>2026-04-18T09:35:01.795Z</time></trkpt><trkpt lat="45.38802818825633" lon="9.146754663871699"><ele>103.0</ele><time>2026-04-18T09:35:03.795Z</time></trkpt><trkpt lat="45.388137489004755" lon="9.146818692161492"><ele>102.75</ele><time>2026-04-18T09:35:05.795Z</time></trkpt><trkpt lat="45.388251149016966" lon="9.146883483078794"><ele>102.5</ele><time>2026-04-18T09:35:07.795Z</time></trkpt><trkpt lat="45.38836121915637" lon="9.14694079464371"><ele>102.25</ele><time>2026-04-18T09:35:09.795Z</time></trkpt><trkpt lat="45.3884710947321" lon="9.14699847531189"><ele>102.0</ele><time>2026-04-18T09:35:11.795Z</time></trkpt><trkpt lat="45.38858145392349" lon="9.147057200725252"><ele>102.0</ele><time>2026-04-18T09:35:13.795Z</time></trkpt><trkpt lat="45.38869444499262" lon="9.147113009082256"><ele>102.0</ele><time>2026-04-18T09:35:15.795Z</time></trkpt><trkpt lat="45.38879983258729" lon="9.147175710085348"><ele>102.0</ele><time>2026-04-18T09:35:17.795Z</time></trkpt><trkpt lat="45.38885858544186" lon="9.147209179373961"><ele>102.0</ele><time>2026-04-18T09:35:18.795Z</time></trkpt><trkpt lat="45.388967971362284" lon="9.147268200460786"><ele>102.0</ele><time>2026-04-18T09:35:20.795Z</time></trkpt><trkpt lat="45.389077100568905" lon="9.147332912383414"><ele>102.0</ele><time>2026-04-18T09:35:22.795Z</time></trkpt><trkpt lat="45.38919182009038" lon="9.147396851130242"><ele>102.0</ele><time>2026-04-18T09:35:24.795Z</time></trkpt><trkpt lat="45.38930360358147" lon="9.14745722628655"><ele>102.0</ele><time>2026-04-18T09:35:26.795Z</time></trkpt><trkpt lat="45.38936368457946" lon="9.147491441437433"><ele>102.0</ele><time>2026-04-18T09:35:27.795Z</time></trkpt><trkpt lat="45.38947580114523" lon="9.147554512093315"><ele>102.0</ele><time>2026-04-18T09:35:29.795Z</time></trkpt><trkpt lat="45.389587651276955" lon="9.147619918686422"><ele>101.75</ele><time>2026-04-18T09:35:31.794Z</time></trkpt><trkpt lat="45.389702195259346" lon="9.147690690472341"><ele>101.5</ele><time>2026-04-18T09:35:33.794Z</time></trkpt><trkpt lat="45.38981624859297" lon="9.147753366922753"><ele>101.25</ele><time>2026-04-18T09:35:35.794Z</time></trkpt><trkpt lat="45.38992680574104" lon="9.147813864813763"><ele>101.0</ele><time>2026-04-18T09:35:37.795Z</time></trkpt><trkpt lat="45.39003989893376" lon="9.147876553713877"><ele>101.0</ele><time>2026-04-18T09:35:39.795Z</time></trkpt><trkpt lat="45.390147605804614" lon="9.147929734866612"><ele>101.0</ele><time>2026-04-18T09:35:41.795Z</time></trkpt><trkpt lat="45.39024542569785" lon="9.147986049997394"><ele>101.0</ele><time>2026-04-18T09:35:43.794Z</time></trkpt><trkpt lat="45.39034053330211" lon="9.148029202102402"><ele>101.0</ele><time>2026-04-18T09:35:45.795Z</time></trkpt><trkpt lat="45.39043239358634" lon="9.148072038446994"><ele>101.0</ele><time>2026-04-18T09:35:47.794Z</time></trkpt><trkpt lat="45.39051705302555" lon="9.148115706977283"><ele>101.49999999999999</ele><time>2026-04-18T09:35:49.795Z</time></trkpt><trkpt lat="45.39059845156729" lon="9.148150057296153"><ele>102.0</ele><time>2026-04-18T09:35:51.795Z</time></trkpt><trkpt lat="45.39067165689868" lon="9.148184618233028"><ele>102.5</ele><time>2026-04-18T09:35:53.795Z</time></trkpt><trkpt lat="45.390757832021336" lon="9.14822764851451"><ele>103.0</ele><time>2026-04-18T09:35:56.795Z</time></trkpt><trkpt lat="45.39083759927313" lon="9.148276202450145"><ele>103.49999999999999</ele><time>2026-04-18T09:35:58.795Z</time></trkpt><trkpt lat="45.39092285951117" lon="9.148323647790589"><ele>104.0</ele><time>2026-04-18T09:36:00.795Z</time></trkpt><trkpt lat="45.39102200554374" lon="9.148394270364639"><ele>104.0</ele><time>2026-04-18T09:36:02.795Z</time></trkpt><trkpt lat="45.3911352157769" lon="9.148461809403816"><ele>104.0</ele><time>2026-04-18T09:36:04.794Z</time></trkpt><trkpt lat="45.391240871822646" lon="9.148529260140778"><ele>104.0</ele><time>2026-04-18T09:36:06.794Z</time></trkpt><trkpt lat="45.391298138299135" lon="9.148567832420559"><ele>104.0</ele><time>2026-04-18T09:36:07.794Z</time></trkpt><trkpt lat="45.39141047988076" lon="9.148644825522922"><ele>104.0</ele><time>2026-04-18T09:36:09.794Z</time></trkpt><trkpt lat="45.39146919050025" lon="9.148683497818146"><ele>104.0</ele><time>2026-04-18T09:36:10.794Z</time></trkpt><trkpt lat="45.391581483957154" lon="9.1487478934234"><ele>104.0</ele><time>2026-04-18T09:36:12.794Z</time></trkpt><trkpt lat="45.39168168545985" lon="9.148812973933998"><ele>104.0</ele><time>2026-04-18T09:36:14.794Z</time></trkpt><trkpt lat="45.39178688614148" lon="9.148877862015743"><ele>104.0</ele><time>2026-04-18T09:36:16.794Z</time></trkpt><trkpt lat="45.391886070326144" lon="9.148941836093302"><ele>104.0</ele><time>2026-04-18T09:36:18.794Z</time></trkpt><trkpt lat="45.391986383202045" lon="9.148995721125466"><ele>104.0</ele><time>2026-04-18T09:36:20.794Z</time></trkpt><trkpt lat="45.39208869063347" lon="9.149057840757166"><ele>104.0</ele><time>2026-04-18T09:36:22.794Z</time></trkpt><trkpt lat="45.392188100793824" lon="9.149126170179501"><ele>104.0</ele><time>2026-04-18T09:36:24.794Z</time></trkpt><trkpt lat="45.3922889046602" lon="9.14918122794967"><ele>104.0</ele><time>2026-04-18T09:36:26.794Z</time></trkpt><trkpt lat="45.39238679876118" lon="9.149242992790665"><ele>104.4</ele><time>2026-04-18T09:36:28.794Z</time></trkpt><trkpt lat="45.39248368217591" lon="9.14930581448008"><ele>104.80000000000001</ele><time>2026-04-18T09:36:30.794Z</time></trkpt><trkpt lat="45.39255513370709" lon="9.149368167374563"><ele>105.19999999999999</ele><time>2026-04-18T09:36:32.794Z</time></trkpt><trkpt lat="45.392627490573325" lon="9.14939876885336"><ele>105.6</ele><time>2026-04-18T09:36:34.793Z</time></trkpt><trkpt lat="45.39270457714426" lon="9.149444130870565"><ele>106.0</ele><time>2026-04-18T09:36:36.793Z</time></trkpt><trkpt lat="45.3928126555827" lon="9.149502869803793"><ele>106.0</ele><time>2026-04-18T09:36:38.793Z</time></trkpt><trkpt lat="45.392874345362095" lon="9.149534266314394"><ele>106.0</ele><time>2026-04-18T09:36:39.793Z</time></trkpt><trkpt lat="45.39293343327385" lon="9.149577062825388"><ele>106.0</ele><time>2026-04-18T09:36:40.793Z</time></trkpt><trkpt lat="45.39303120078164" lon="9.14964120605423"><ele>106.0</ele><time>2026-04-18T09:36:42.793Z</time></trkpt><trkpt lat="45.393131417416114" lon="9.149698618486376"><ele>106.0</ele><time>2026-04-18T09:36:44.793Z</time></trkpt><trkpt lat="45.39322579587983" lon="9.149755420114897"><ele>106.19999999999999</ele><time>2026-04-18T09:36:46.793Z</time></trkpt><trkpt lat="45.39332129451528" lon="9.149819609443451"><ele>106.39999999999999</ele><time>2026-04-18T09:36:48.793Z</time></trkpt><trkpt lat="45.39341822847253" lon="9.149884090296341"><ele>106.6</ele><time>2026-04-18T09:36:50.793Z</time></trkpt><trkpt lat="45.393520667159756" lon="9.149943584036198"><ele>106.8</ele><time>2026-04-18T09:36:52.793Z</time></trkpt><trkpt lat="45.39361960750953" lon="9.149998954544595"><ele>107.0</ele><time>2026-04-18T09:36:54.793Z</time></trkpt><trkpt lat="45.39371508199439" lon="9.15005735050822"><ele>107.0</ele><time>2026-04-18T09:36:56.793Z</time></trkpt><trkpt lat="45.393813334893586" lon="9.150116914120575"><ele>106.99999999999999</ele><time>2026-04-18T09:36:58.793Z</time></trkpt><trkpt lat="45.39391346217759" lon="9.15017727449067"><ele>106.99999999999999</ele><time>2026-04-18T09:37:00.793Z</time></trkpt><trkpt lat="45.39400988194795" lon="9.150233676238743"><ele>107.0</ele><time>2026-04-18T09:37:02.793Z</time></trkpt><trkpt lat="45.39410717973224" lon="9.150290832404863"><ele>107.0</ele><time>2026-04-18T09:37:04.792Z</time></trkpt><trkpt lat="45.39419840269794" lon="9.150343750049512"><ele>107.19999999999999</ele><time>2026-04-18T09:37:06.792Z</time></trkpt><trkpt lat="45.394298532353424" lon="9.150399304803022"><ele>107.39999999999999</ele><time>2026-04-18T09:37:08.792Z</time></trkpt><trkpt lat="45.39440190185112" lon="9.150457313160368"><ele>107.60000000000001</ele><time>2026-04-18T09:37:10.792Z</time></trkpt><trkpt lat="45.39449876570717" lon="9.150508895901412"><ele>107.80000000000001</ele><time>2026-04-18T09:37:12.792Z</time></trkpt><trkpt lat="45.394600162168864" lon="9.150566481630477"><ele>108.0</ele><time>2026-04-18T09:37:14.792Z</time></trkpt><trkpt lat="45.394694614722866" lon="9.150628369803549"><ele>107.80000000000001</ele><time>2026-04-18T09:37:16.792Z</time></trkpt><trkpt lat="45.394796661874175" lon="9.150698293560248"><ele>107.60000000000001</ele><time>2026-04-18T09:37:18.792Z</time></trkpt><trkpt lat="45.394892823501586" lon="9.150760381597122"><ele>107.39999999999999</ele><time>2026-04-18T09:37:20.792Z</time></trkpt><trkpt lat="45.394990124819955" lon="9.150812862920993"><ele>107.19999999999999</ele><time>2026-04-18T09:37:22.792Z</time></trkpt><trkpt lat="45.39508863813092" lon="9.150873857378102"><ele>107.0</ele><time>2026-04-18T09:37:24.792Z</time></trkpt><trkpt lat="45.39518215627437" lon="9.15093062264249"><ele>106.99999999999999</ele><time>2026-04-18T09:37:26.792Z</time></trkpt><trkpt lat="45.39526899987902" lon="9.15098671713705"><ele>107.0</ele><time>2026-04-18T09:37:28.792Z</time></trkpt><trkpt lat="45.39535682795485" lon="9.15103995136502"><ele>107.0</ele><time>2026-04-18T09:37:30.792Z</time></trkpt><trkpt lat="45.395435173432624" lon="9.151096987416407"><ele>107.0</ele><time>2026-04-18T09:37:32.792Z</time></trkpt><trkpt lat="45.395495386813046" lon="9.151132553438984"><ele>106.99999999999999</ele><time>2026-04-18T09:37:34.791Z</time></trkpt><trkpt lat="45.395566194096915" lon="9.151173280067372"><ele>107.0</ele><time>2026-04-18T09:37:39.791Z</time></trkpt><trkpt lat="45.39564112946284" lon="9.151212931412136"><ele>106.83333333333333</ele><time>2026-04-18T09:37:42.792Z</time></trkpt><trkpt lat="45.395698465540725" lon="9.151250604002804"><ele>106.66666666666666</ele><time>2026-04-18T09:37:44.791Z</time></trkpt><trkpt lat="45.39576618312491" lon="9.151297352172474"><ele>106.5</ele><time>2026-04-18T09:37:46.792Z</time></trkpt><trkpt lat="45.39585252577056" lon="9.151347799281147"><ele>106.33333333333334</ele><time>2026-04-18T09:37:48.791Z</time></trkpt><trkpt lat="45.39593595119441" lon="9.151398540938633"><ele>106.16666666666667</ele><time>2026-04-18T09:37:50.791Z</time></trkpt><trkpt lat="45.39604021777755" lon="9.151459358172565"><ele>106.0</ele><time>2026-04-18T09:37:52.791Z</time></trkpt><trkpt lat="45.396131799699965" lon="9.151523141710841"><ele>106.19999999999999</ele><time>2026-04-18T09:37:54.792Z</time></trkpt><trkpt lat="45.396234143300084" lon="9.151585914839107"><ele>106.39999999999999</ele><time>2026-04-18T09:37:56.791Z</time></trkpt><trkpt lat="45.39633629153314" lon="9.151640252461053"><ele>106.6</ele><time>2026-04-18T09:37:58.791Z</time></trkpt><trkpt lat="45.396432176101094" lon="9.151700242741033"><ele>106.8</ele><time>2026-04-18T09:38:00.791Z</time></trkpt><trkpt lat="45.39653320922707" lon="9.15175447221045"><ele>107.0</ele><time>2026-04-18T09:38:02.791Z</time></trkpt><trkpt lat="45.39663638549171" lon="9.151818585366609"><ele>107.0</ele><time>2026-04-18T09:38:04.791Z</time></trkpt><trkpt lat="45.39673886792499" lon="9.151878449473708"><ele>106.99999999999999</ele><time>2026-04-18T09:38:06.791Z</time></trkpt><trkpt lat="45.39683282252629" lon="9.15194528123944"><ele>106.99999999999999</ele><time>2026-04-18T09:38:08.791Z</time></trkpt><trkpt lat="45.39693328647839" lon="9.152003427401185"><ele>107.0</ele><time>2026-04-18T09:38:10.791Z</time></trkpt><trkpt lat="45.39703651581655" lon="9.152061821571241"><ele>107.0</ele><time>2026-04-18T09:38:12.791Z</time></trkpt><trkpt lat="45.39713642893536" lon="9.152124932902122"><ele>107.19999999999999</ele><time>2026-04-18T09:38:14.79Z</time></trkpt><trkpt lat="45.39723776476452" lon="9.152186914398543"><ele>107.39999999999999</ele><time>2026-04-18T09:38:16.79Z</time></trkpt><trkpt lat="45.39733175772413" lon="9.15224857130127"><ele>107.60000000000001</ele><time>2026-04-18T09:38:18.79Z</time></trkpt><trkpt lat="45.39743241305423" lon="9.152308540223686"><ele>107.80000000000001</ele><time>2026-04-18T09:38:20.79Z</time></trkpt><trkpt lat="45.39754111109205" lon="9.152373146616954"><ele>108.0</ele><time>2026-04-18T09:38:22.79Z</time></trkpt><trkpt lat="45.39764371152711" lon="9.152437758645048"><ele>108.5</ele><time>2026-04-18T09:38:24.79Z</time></trkpt><trkpt lat="45.39774547292675" lon="9.152496951040854"><ele>109.0</ele><time>2026-04-18T09:38:26.79Z</time></trkpt><trkpt lat="45.39785294167058" lon="9.152565142774334"><ele>109.5</ele><time>2026-04-18T09:38:28.79Z</time></trkpt><trkpt lat="45.39795966146495" lon="9.152631356305506"><ele>110.0</ele><time>2026-04-18T09:38:30.79Z</time></trkpt><trkpt lat="45.39806941060293" lon="9.152699906870595"><ele>109.0</ele><time>2026-04-18T09:38:32.79Z</time></trkpt><trkpt lat="45.398184218908476" lon="9.152768815446443"><ele>108.0</ele><time>2026-04-18T09:38:34.79Z</time></trkpt><trkpt lat="45.39829667433597" lon="9.152831111661975"><ele>107.0</ele><time>2026-04-18T09:38:36.79Z</time></trkpt><trkpt lat="45.39841150485782" lon="9.15290172898306"><ele>106.0</ele><time>2026-04-18T09:38:38.79Z</time></trkpt><trkpt lat="45.39852288826026" lon="9.152967063655923"><ele>106.0</ele><time>2026-04-18T09:38:40.79Z</time></trkpt><trkpt lat="45.39858419951927" lon="9.153004285262593"><ele>106.0</ele><time>2026-04-18T09:38:41.79Z</time></trkpt><trkpt lat="45.398681957048915" lon="9.153077265714359"><ele>106.0</ele><time>2026-04-18T09:38:43.79Z</time></trkpt><trkpt lat="45.39878251601884" lon="9.153140745529964"><ele>106.0</ele><time>2026-04-18T09:38:45.789Z</time></trkpt><trkpt lat="45.39888651837449" lon="9.153200465286533"><ele>106.0</ele><time>2026-04-18T09:38:47.789Z</time></trkpt><trkpt lat="45.39899665592318" lon="9.153267933958457"><ele>106.6</ele><time>2026-04-18T09:38:49.789Z</time></trkpt><trkpt lat="45.39909630449326" lon="9.153331172844341"><ele>107.19999999999999</ele><time>2026-04-18T09:38:51.789Z</time></trkpt><trkpt lat="45.39919244963575" lon="9.153390500153156"><ele>107.80000000000001</ele><time>2026-04-18T09:38:53.789Z</time></trkpt><trkpt lat="45.39928890516774" lon="9.153441046378571"><ele>108.4</ele><time>2026-04-18T09:38:55.789Z</time></trkpt><trkpt lat="45.39938489289125" lon="9.153499837215717"><ele>109.0</ele><time>2026-04-18T09:38:57.789Z</time></trkpt><trkpt lat="45.39948920023345" lon="9.153567430758102"><ele>109.0</ele><time>2026-04-18T09:38:59.789Z</time></trkpt><trkpt lat="45.3995950655963" lon="9.153634732232373"><ele>109.0</ele><time>2026-04-18T09:39:01.789Z</time></trkpt><trkpt lat="45.39970190445468" lon="9.153693777507202"><ele>109.0</ele><time>2026-04-18T09:39:03.789Z</time></trkpt><trkpt lat="45.39980586288149" lon="9.153758331806163"><ele>109.0</ele><time>2026-04-18T09:39:05.789Z</time></trkpt><trkpt lat="45.3999083006117" lon="9.153813033615114"><ele>108.4</ele><time>2026-04-18T09:39:07.789Z</time></trkpt><trkpt lat="45.40001136285984" lon="9.153872106904643"><ele>107.80000000000001</ele><time>2026-04-18T09:39:09.789Z</time></trkpt><trkpt lat="45.4001139660363" lon="9.15394057205214"><ele>107.19999999999999</ele><time>2026-04-18T09:39:11.789Z</time></trkpt><trkpt lat="45.40021469738237" lon="9.154004752907706"><ele>106.6</ele><time>2026-04-18T09:39:13.789Z</time></trkpt><trkpt lat="45.40032058071711" lon="9.154066594475614"><ele>106.0</ele><time>2026-04-18T09:39:15.788Z</time></trkpt><trkpt lat="45.40042144196464" lon="9.154124687598493"><ele>105.5</ele><time>2026-04-18T09:39:17.788Z</time></trkpt><trkpt lat="45.40052735926816" lon="9.154184514931329"><ele>105.0</ele><time>2026-04-18T09:39:19.788Z</time></trkpt><trkpt lat="45.400635560026274" lon="9.154248679228672"><ele>104.5</ele><time>2026-04-18T09:39:21.788Z</time></trkpt><trkpt lat="45.400743972862514" lon="9.15431353692918"><ele>104.0</ele><time>2026-04-18T09:39:23.788Z</time></trkpt><trkpt lat="45.40084037306975" lon="9.154376165544637"><ele>104.0</ele><time>2026-04-18T09:39:25.788Z</time></trkpt><trkpt lat="45.4009493159877" lon="9.154440825745509"><ele>104.0</ele><time>2026-04-18T09:39:27.788Z</time></trkpt><trkpt lat="45.40105197183477" lon="9.154498453196359"><ele>104.0</ele><time>2026-04-18T09:39:29.788Z</time></trkpt><trkpt lat="45.40115253549805" lon="9.154565757580086"><ele>104.0</ele><time>2026-04-18T09:39:31.788Z</time></trkpt><trkpt lat="45.40125494675681" lon="9.154633859366449"><ele>104.6</ele><time>2026-04-18T09:39:33.788Z</time></trkpt><trkpt lat="45.40135349626164" lon="9.154695037703616"><ele>105.2</ele><time>2026-04-18T09:39:35.788Z</time></trkpt><trkpt lat="45.401451436917974" lon="9.154753779207295"><ele>105.79999999999998</ele><time>2026-04-18T09:39:37.788Z</time></trkpt><trkpt lat="45.40154932798205" lon="9.154817845506795"><ele>106.39999999999999</ele><time>2026-04-18T09:39:39.788Z</time></trkpt><trkpt lat="45.401653335488255" lon="9.154875349256155"><ele>107.0</ele><time>2026-04-18T09:39:41.788Z</time></trkpt><trkpt lat="45.40175603147417" lon="9.154929785370708"><ele>107.0</ele><time>2026-04-18T09:39:43.787Z</time></trkpt><trkpt lat="45.401852627929344" lon="9.15498538823928"><ele>106.99999999999999</ele><time>2026-04-18T09:39:45.787Z</time></trkpt><trkpt lat="45.40194201466234" lon="9.155051635858245"><ele>106.99999999999999</ele><time>2026-04-18T09:39:47.787Z</time></trkpt><trkpt lat="45.40203528194821" lon="9.15510793880485"><ele>107.0</ele><time>2026-04-18T09:39:49.788Z</time></trkpt><trkpt lat="45.402130241647335" lon="9.155172119055933"><ele>107.0</ele><time>2026-04-18T09:39:51.788Z</time></trkpt><trkpt lat="45.402232127463954" lon="9.155228631351756"><ele>106.6</ele><time>2026-04-18T09:39:53.788Z</time></trkpt><trkpt lat="45.40233091956092" lon="9.155286224223138"><ele>106.19999999999999</ele><time>2026-04-18T09:39:55.788Z</time></trkpt><trkpt lat="45.4024236526703" lon="9.155332309681226"><ele>105.8</ele><time>2026-04-18T09:39:57.788Z</time></trkpt><trkpt lat="45.40252286821688" lon="9.15539800948202"><ele>105.4</ele><time>2026-04-18T09:39:59.788Z</time></trkpt><trkpt lat="45.40262290166153" lon="9.155456057582446"><ele>105.0</ele><time>2026-04-18T09:40:01.788Z</time></trkpt><trkpt lat="45.40270933541647" lon="9.155507977712084"><ele>105.0</ele><time>2026-04-18T09:40:03.788Z</time></trkpt><trkpt lat="45.40281947770759" lon="9.155580661768319"><ele>105.0</ele><time>2026-04-18T09:40:05.787Z</time></trkpt><trkpt lat="45.40292649138281" lon="9.155641179322313"><ele>105.0</ele><time>2026-04-18T09:40:07.787Z</time></trkpt><trkpt lat="45.40302667460797" lon="9.155701432902772"><ele>105.0</ele><time>2026-04-18T09:40:09.787Z</time></trkpt><trkpt lat="45.40313113697566" lon="9.15576550453363"><ele>105.4</ele><time>2026-04-18T09:40:11.787Z</time></trkpt><trkpt lat="45.403236806500544" lon="9.155829218709721"><ele>105.8</ele><time>2026-04-18T09:40:13.787Z</time></trkpt><trkpt lat="45.40333612383766" lon="9.155889164228293"><ele>106.19999999999999</ele><time>2026-04-18T09:40:15.787Z</time></trkpt><trkpt lat="45.40344719639937" lon="9.155946947293446"><ele>106.6</ele><time>2026-04-18T09:40:17.787Z</time></trkpt><trkpt lat="45.403536902623316" lon="9.156011904490974"><ele>107.0</ele><time>2026-04-18T09:40:19.787Z</time></trkpt><trkpt lat="45.4036348649937" lon="9.156066270860645"><ele>107.0</ele><time>2026-04-18T09:40:21.787Z</time></trkpt><trkpt lat="45.40374823288697" lon="9.156137549047775"><ele>107.0</ele><time>2026-04-18T09:40:23.787Z</time></trkpt><trkpt lat="45.40385506383412" lon="9.156201911488253"><ele>107.0</ele><time>2026-04-18T09:40:25.787Z</time></trkpt><trkpt lat="45.40395730911937" lon="9.156261511659585"><ele>107.0</ele><time>2026-04-18T09:40:27.787Z</time></trkpt><trkpt lat="45.40405603364671" lon="9.15631813191697"><ele>106.8</ele><time>2026-04-18T09:40:29.787Z</time></trkpt><trkpt lat="45.404155016313844" lon="9.156371624122581"><ele>106.6</ele><time>2026-04-18T09:40:31.787Z</time></trkpt><trkpt lat="45.40424558697319" lon="9.156426094570074"><ele>106.39999999999999</ele><time>2026-04-18T09:40:33.787Z</time></trkpt><trkpt lat="45.40433149333905" lon="9.156481063611523"><ele>106.19999999999999</ele><time>2026-04-18T09:40:35.786Z</time></trkpt><trkpt lat="45.40441916366996" lon="9.156537563875345"><ele>106.0</ele><time>2026-04-18T09:40:37.786Z</time></trkpt><trkpt lat="45.404521989000926" lon="9.156600311907539"><ele>106.0</ele><time>2026-04-18T09:40:39.786Z</time></trkpt><trkpt lat="45.40461836595606" lon="9.156655304177436"><ele>106.0</ele><time>2026-04-18T09:40:41.786Z</time></trkpt><trkpt lat="45.40471180770115" lon="9.156713197503562"><ele>106.0</ele><time>2026-04-18T09:40:43.786Z</time></trkpt><trkpt lat="45.404809723295934" lon="9.156775519332038"><ele>106.0</ele><time>2026-04-18T09:40:45.786Z</time></trkpt><trkpt lat="45.40491104259423" lon="9.156839250373881"><ele>106.0</ele><time>2026-04-18T09:40:47.786Z</time></trkpt><trkpt lat="45.40500865520596" lon="9.156901203196384"><ele>106.0</ele><time>2026-04-18T09:40:49.786Z</time></trkpt><trkpt lat="45.40510627442586" lon="9.156962847565795"><ele>106.0</ele><time>2026-04-18T09:40:51.786Z</time></trkpt><trkpt lat="45.40521002342919" lon="9.157028955514088"><ele>106.0</ele><time>2026-04-18T09:40:53.786Z</time></trkpt><trkpt lat="45.40530933233485" lon="9.157089487109182"><ele>106.0</ele><time>2026-04-18T09:40:55.786Z</time></trkpt><trkpt lat="45.405409620082644" lon="9.157152356569869"><ele>106.0</ele><time>2026-04-18T09:40:57.786Z</time></trkpt><trkpt lat="45.405511733689494" lon="9.157214153177065"><ele>106.0</ele><time>2026-04-18T09:40:59.786Z</time></trkpt><trkpt lat="45.405619018695624" lon="9.157275479975512"><ele>106.0</ele><time>2026-04-18T09:41:01.786Z</time></trkpt><trkpt lat="45.40572012360179" lon="9.15733328326026"><ele>106.0</ele><time>2026-04-18T09:41:03.786Z</time></trkpt><trkpt lat="45.40581948745843" lon="9.157398332817918"><ele>106.0</ele><time>2026-04-18T09:41:05.785Z</time></trkpt><trkpt lat="45.40592223664045" lon="9.157462383759128"><ele>106.0</ele><time>2026-04-18T09:41:07.785Z</time></trkpt><trkpt lat="45.406017556541656" lon="9.157513959227934"><ele>106.25</ele><time>2026-04-18T09:41:09.785Z</time></trkpt><trkpt lat="45.40612126310918" lon="9.15758214744826"><ele>106.5</ele><time>2026-04-18T09:41:11.785Z</time></trkpt><trkpt lat="45.406229563194444" lon="9.157649183624102"><ele>106.75</ele><time>2026-04-18T09:41:13.785Z</time></trkpt><trkpt lat="45.40633212334442" lon="9.157702316974415"><ele>107.0</ele><time>2026-04-18T09:41:15.785Z</time></trkpt><trkpt lat="45.40644147861632" lon="9.157763202410527"><ele>107.0</ele><time>2026-04-18T09:41:17.785Z</time></trkpt><trkpt lat="45.40654633207402" lon="9.157835447750458"><ele>106.99999999999999</ele><time>2026-04-18T09:41:19.785Z</time></trkpt><trkpt lat="45.40660822018129" lon="9.157862892841056"><ele>106.99999999999999</ele><time>2026-04-18T09:41:20.785Z</time></trkpt><trkpt lat="45.40671113165894" lon="9.157921276698685"><ele>107.0</ele><time>2026-04-18T09:41:22.785Z</time></trkpt><trkpt lat="45.406806599425536" lon="9.157981306565796"><ele>107.0</ele><time>2026-04-18T09:41:24.785Z</time></trkpt><trkpt lat="45.406904358118226" lon="9.158034335006652"><ele>107.0</ele><time>2026-04-18T09:41:26.785Z</time></trkpt><trkpt lat="45.40699261972891" lon="9.158094158358788"><ele>106.99999999999999</ele><time>2026-04-18T09:41:28.785Z</time></trkpt><trkpt lat="45.40708851504871" lon="9.15815197849083"><ele>106.99999999999999</ele><time>2026-04-18T09:41:30.785Z</time></trkpt><trkpt lat="45.40719555983884" lon="9.158209706884513"><ele>107.0</ele><time>2026-04-18T09:41:32.785Z</time></trkpt><trkpt lat="45.40730457807762" lon="9.158268066249596"><ele>107.0</ele><time>2026-04-18T09:41:34.784Z</time></trkpt><trkpt lat="45.4074133881227" lon="9.158312005088225"><ele>106.5</ele><time>2026-04-18T09:41:36.784Z</time></trkpt><trkpt lat="45.40752610969811" lon="9.158343269508388"><ele>106.0</ele><time>2026-04-18T09:41:38.784Z</time></trkpt><trkpt lat="45.40763529174931" lon="9.158390734035367"><ele>105.5</ele><time>2026-04-18T09:41:40.784Z</time></trkpt><trkpt lat="45.407737297796906" lon="9.158458984497562"><ele>105.0</ele><time>2026-04-18T09:41:42.784Z</time></trkpt><trkpt lat="45.40783109839337" lon="9.158557933018844"><ele>105.0</ele><time>2026-04-18T09:41:44.784Z</time></trkpt><trkpt lat="45.40792899590276" lon="9.158645842299174"><ele>105.0</ele><time>2026-04-18T09:41:46.784Z</time></trkpt><trkpt lat="45.40803152796166" lon="9.15870548851439"><ele>105.0</ele><time>2026-04-18T09:41:48.784Z</time></trkpt><trkpt lat="45.408122849741375" lon="9.158761602429324"><ele>105.0</ele><time>2026-04-18T09:41:50.784Z</time></trkpt><trkpt lat="45.408220481810304" lon="9.158810867851322"><ele>105.0</ele><time>2026-04-18T09:41:52.784Z</time></trkpt><trkpt lat="45.408321285369766" lon="9.158869742207541"><ele>104.8</ele><time>2026-04-18T09:41:54.785Z</time></trkpt><trkpt lat="45.40842013336317" lon="9.158940157197016"><ele>104.6</ele><time>2026-04-18T09:41:56.785Z</time></trkpt><trkpt lat="45.4085154638127" lon="9.15899967330524"><ele>104.4</ele><time>2026-04-18T09:41:58.784Z</time></trkpt><trkpt lat="45.40861805015351" lon="9.159057551003565"><ele>104.2</ele><time>2026-04-18T09:42:00.785Z</time></trkpt><trkpt lat="45.408718417227675" lon="9.15911864715076"><ele>104.0</ele><time>2026-04-18T09:42:02.785Z</time></trkpt><trkpt lat="45.40881790372361" lon="9.159180194637125"><ele>104.25</ele><time>2026-04-18T09:42:04.784Z</time></trkpt><trkpt lat="45.408930114546365" lon="9.159246565333337"><ele>104.5</ele><time>2026-04-18T09:42:06.784Z</time></trkpt><trkpt lat="45.409040676626965" lon="9.15931925428588"><ele>104.75</ele><time>2026-04-18T09:42:08.785Z</time></trkpt><trkpt lat="45.40915005062033" lon="9.15938526795965"><ele>105.0</ele><time>2026-04-18T09:42:10.785Z</time></trkpt><trkpt lat="45.4092608940374" lon="9.159453256507396"><ele>105.0</ele><time>2026-04-18T09:42:12.784Z</time></trkpt><trkpt lat="45.40936956667547" lon="9.159520823432024"><ele>105.0</ele><time>2026-04-18T09:42:14.784Z</time></trkpt><trkpt lat="45.40948016999067" lon="9.159590652943573"><ele>105.0</ele><time>2026-04-18T09:42:16.784Z</time></trkpt><trkpt lat="45.40958426878156" lon="9.159651703687445"><ele>105.0</ele><time>2026-04-18T09:42:18.784Z</time></trkpt><trkpt lat="45.40968931852139" lon="9.159717361477277"><ele>104.75</ele><time>2026-04-18T09:42:20.784Z</time></trkpt><trkpt lat="45.40979791594204" lon="9.159778540356896"><ele>104.5</ele><time>2026-04-18T09:42:22.784Z</time></trkpt><trkpt lat="45.40990758596989" lon="9.159847885122897"><ele>104.25</ele><time>2026-04-18T09:42:24.784Z</time></trkpt><trkpt lat="45.4100160493836" lon="9.15990836448627"><ele>104.0</ele><time>2026-04-18T09:42:26.784Z</time></trkpt><trkpt lat="45.41012873191386" lon="9.159978241489561"><ele>104.0</ele><time>2026-04-18T09:42:28.784Z</time></trkpt><trkpt lat="45.41023908872016" lon="9.160041061157024"><ele>104.0</ele><time>2026-04-18T09:42:30.784Z</time></trkpt><trkpt lat="45.41035004518936" lon="9.16011109990395"><ele>104.0</ele><time>2026-04-18T09:42:32.784Z</time></trkpt><trkpt lat="45.41040813219101" lon="9.160146511204308"><ele>104.0</ele><time>2026-04-18T09:42:33.784Z</time></trkpt><trkpt lat="45.41051879555423" lon="9.16020916675127"><ele>104.0</ele><time>2026-04-18T09:42:35.784Z</time></trkpt><trkpt lat="45.41057752893218" lon="9.160247708170305"><ele>103.5</ele><time>2026-04-18T09:42:36.784Z</time></trkpt><trkpt lat="45.41068650194317" lon="9.160311465632985"><ele>103.0</ele><time>2026-04-18T09:42:38.784Z</time></trkpt><trkpt lat="45.4107985914721" lon="9.160378295056628"><ele>102.5</ele><time>2026-04-18T09:42:40.784Z</time></trkpt><trkpt lat="45.410902051149385" lon="9.160433990059566"><ele>102.0</ele><time>2026-04-18T09:42:42.783Z</time></trkpt><trkpt lat="45.411009145729814" lon="9.160498788713323"><ele>102.0</ele><time>2026-04-18T09:42:44.783Z</time></trkpt><trkpt lat="45.41112167079139" lon="9.160556140431297"><ele>102.0</ele><time>2026-04-18T09:42:46.783Z</time></trkpt><trkpt lat="45.41122855085832" lon="9.160625477694687"><ele>102.0</ele><time>2026-04-18T09:42:48.783Z</time></trkpt><trkpt lat="45.41133660973942" lon="9.160698784350906"><ele>102.0</ele><time>2026-04-18T09:42:50.783Z</time></trkpt><trkpt lat="45.411436693754325" lon="9.160768862293018"><ele>102.6</ele><time>2026-04-18T09:42:52.783Z</time></trkpt><trkpt lat="45.41153916575919" lon="9.160837043852897"><ele>103.19999999999999</ele><time>2026-04-18T09:42:54.783Z</time></trkpt><trkpt lat="45.411597314060884" lon="9.16087157013367"><ele>103.8</ele><time>2026-04-18T09:42:55.783Z</time></trkpt><trkpt lat="45.411702051631096" lon="9.160933742760367"><ele>104.4</ele><time>2026-04-18T09:42:57.783Z</time></trkpt><trkpt lat="45.41180414099531" lon="9.16099838473488"><ele>105.0</ele><time>2026-04-18T09:42:59.783Z</time></trkpt><trkpt lat="45.41191582790603" lon="9.161068497909906"><ele>105.0</ele><time>2026-04-18T09:43:01.783Z</time></trkpt><trkpt lat="45.41202415595444" lon="9.161139104221197"><ele>105.0</ele><time>2026-04-18T09:43:03.783Z</time></trkpt><trkpt lat="45.412124685269475" lon="9.161196537952266"><ele>105.0</ele><time>2026-04-18T09:43:05.783Z</time></trkpt><trkpt lat="45.41222452372881" lon="9.16126049270122"><ele>105.0</ele><time>2026-04-18T09:43:07.783Z</time></trkpt><trkpt lat="45.41233622597898" lon="9.1613301486983"><ele>105.25</ele><time>2026-04-18T09:43:09.783Z</time></trkpt><trkpt lat="45.412448875565374" lon="9.161399072584839"><ele>105.5</ele><time>2026-04-18T09:43:11.783Z</time></trkpt><trkpt lat="45.412559143640635" lon="9.161462097132052"><ele>105.75</ele><time>2026-04-18T09:43:13.782Z</time></trkpt><trkpt lat="45.41266900092294" lon="9.16152870367954"><ele>106.0</ele><time>2026-04-18T09:43:15.782Z</time></trkpt><trkpt lat="45.4127798187784" lon="9.161585226833006"><ele>106.0</ele><time>2026-04-18T09:43:17.782Z</time></trkpt><trkpt lat="45.41288541725649" lon="9.161648901486043"><ele>106.0</ele><time>2026-04-18T09:43:19.782Z</time></trkpt><trkpt lat="45.412968252489364" lon="9.161706267127663"><ele>106.0</ele><time>2026-04-18T09:43:21.782Z</time></trkpt><trkpt lat="45.41307620260129" lon="9.161781327485068"><ele>106.0</ele><time>2026-04-18T09:43:23.782Z</time></trkpt><trkpt lat="45.41318353390715" lon="9.161845823615144"><ele>106.0</ele><time>2026-04-18T09:43:25.782Z</time></trkpt><trkpt lat="45.41328811606576" lon="9.161905854865838"><ele>105.8</ele><time>2026-04-18T09:43:27.782Z</time></trkpt><trkpt lat="45.41338591213775" lon="9.161968512143336"><ele>105.6</ele><time>2026-04-18T09:43:29.782Z</time></trkpt><trkpt lat="45.41348746214191" lon="9.162038002925872"><ele>105.4</ele><time>2026-04-18T09:43:31.782Z</time></trkpt><trkpt lat="45.41359118113433" lon="9.162092404818113"><ele>105.2</ele><time>2026-04-18T09:43:33.782Z</time></trkpt><trkpt lat="45.41369585385262" lon="9.162154366879243"><ele>105.0</ele><time>2026-04-18T09:43:35.782Z</time></trkpt><trkpt lat="45.41379857877212" lon="9.162215818728916"><ele>105.2</ele><time>2026-04-18T09:43:37.782Z</time></trkpt><trkpt lat="45.4138974512594" lon="9.16227748306867"><ele>105.4</ele><time>2026-04-18T09:43:39.782Z</time></trkpt><trkpt lat="45.41399707010147" lon="9.162331704943428"><ele>105.6</ele><time>2026-04-18T09:43:41.782Z</time></trkpt><trkpt lat="45.41408848982477" lon="9.16238251404041"><ele>105.8</ele><time>2026-04-18T09:43:43.781Z</time></trkpt><trkpt lat="45.41418109784615" lon="9.162435526503366"><ele>106.0</ele><time>2026-04-18T09:43:45.781Z</time></trkpt><trkpt lat="45.41425851616111" lon="9.162488325389878"><ele>106.19999999999999</ele><time>2026-04-18T09:43:47.781Z</time></trkpt><trkpt lat="45.41435892666713" lon="9.162538783762564"><ele>106.39999999999999</ele><time>2026-04-18T09:43:49.781Z</time></trkpt><trkpt lat="45.4144560842644" lon="9.162598981550609"><ele>106.6</ele><time>2026-04-18T09:43:51.781Z</time></trkpt><trkpt lat="45.41455347554914" lon="9.162656253733209"><ele>106.8</ele><time>2026-04-18T09:43:53.781Z</time></trkpt><trkpt lat="45.41465265318908" lon="9.162709643739317"><ele>107.0</ele><time>2026-04-18T09:43:55.781Z</time></trkpt><trkpt lat="45.41475195262367" lon="9.162768254315885"><ele>107.0</ele><time>2026-04-18T09:43:57.781Z</time></trkpt><trkpt lat="45.41484777885318" lon="9.162822279559524"><ele>106.99999999999999</ele><time>2026-04-18T09:43:59.781Z</time></trkpt><trkpt lat="45.414950636973344" lon="9.162884729460604"><ele>106.99999999999999</ele><time>2026-04-18T09:44:01.781Z</time></trkpt><trkpt lat="45.41505321746037" lon="9.162943828107126"><ele>107.0</ele><time>2026-04-18T09:44:03.781Z</time></trkpt><trkpt lat="45.415159492173295" lon="9.163000659205956"><ele>107.0</ele><time>2026-04-18T09:44:05.781Z</time></trkpt><trkpt lat="45.41526446157142" lon="9.163059602996437"><ele>107.0</ele><time>2026-04-18T09:44:07.781Z</time></trkpt><trkpt lat="45.41537013500364" lon="9.163126016190292"><ele>107.0</ele><time>2026-04-18T09:44:09.781Z</time></trkpt><trkpt lat="45.41548270362694" lon="9.163187576655236"><ele>107.0</ele><time>2026-04-18T09:44:11.781Z</time></trkpt><trkpt lat="45.41558306390374" lon="9.163252511751116"><ele>107.0</ele><time>2026-04-18T09:44:13.781Z</time></trkpt><trkpt lat="45.41569364462482" lon="9.163314654735624"><ele>106.75</ele><time>2026-04-18T09:44:15.781Z</time></trkpt><trkpt lat="45.415800486583706" lon="9.163381039009167"><ele>106.5</ele><time>2026-04-18T09:44:17.781Z</time></trkpt><trkpt lat="45.41590764698488" lon="9.163441456273006"><ele>106.25</ele><time>2026-04-18T09:44:19.781Z</time></trkpt><trkpt lat="45.416011770559265" lon="9.163503580746156"><ele>106.0</ele><time>2026-04-18T09:44:21.781Z</time></trkpt><trkpt lat="45.416118428572055" lon="9.163561068416813"><ele>106.0</ele><time>2026-04-18T09:44:23.781Z</time></trkpt><trkpt lat="45.416218842744" lon="9.163610145642535"><ele>106.0</ele><time>2026-04-18T09:44:25.781Z</time></trkpt><trkpt lat="45.4163256118558" lon="9.163669275398503"><ele>106.0</ele><time>2026-04-18T09:44:27.781Z</time></trkpt><trkpt lat="45.41643328522018" lon="9.163743664834916"><ele>106.0</ele><time>2026-04-18T09:44:29.781Z</time></trkpt><trkpt lat="45.41653877964783" lon="9.163799185226365"><ele>105.5</ele><time>2026-04-18T09:44:31.78Z</time></trkpt><trkpt lat="45.4166465723823" lon="9.163855364149121"><ele>105.0</ele><time>2026-04-18T09:44:33.78Z</time></trkpt><trkpt lat="45.416752920898574" lon="9.163918799373697"><ele>104.5</ele><time>2026-04-18T09:44:35.78Z</time></trkpt><trkpt lat="45.4168553402403" lon="9.163984286977184"><ele>104.0</ele><time>2026-04-18T09:44:37.78Z</time></trkpt><trkpt lat="45.41696668211988" lon="9.164044451874432"><ele>104.0</ele><time>2026-04-18T09:44:39.78Z</time></trkpt><trkpt lat="45.417071009332645" lon="9.164105251126003"><ele>104.0</ele><time>2026-04-18T09:44:41.78Z</time></trkpt><trkpt lat="45.41717178450421" lon="9.164166352655732"><ele>104.0</ele><time>2026-04-18T09:44:43.78Z</time></trkpt><trkpt lat="45.41728098889743" lon="9.164222765056854"><ele>104.0</ele><time>2026-04-18T09:44:45.78Z</time></trkpt><trkpt lat="45.417389581169004" lon="9.164282148662226"><ele>104.4</ele><time>2026-04-18T09:44:47.78Z</time></trkpt><trkpt lat="45.41749645971189" lon="9.164336479158813"><ele>104.80000000000001</ele><time>2026-04-18T09:44:49.78Z</time></trkpt><trkpt lat="45.417604064179685" lon="9.164402113328496"><ele>105.19999999999999</ele><time>2026-04-18T09:44:51.78Z</time></trkpt><trkpt lat="45.41771632076834" lon="9.164467091619928"><ele>105.6</ele><time>2026-04-18T09:44:53.78Z</time></trkpt><trkpt lat="45.417775983532486" lon="9.164496090545828"><ele>106.0</ele><time>2026-04-18T09:44:54.78Z</time></trkpt><trkpt lat="45.417886809718105" lon="9.164563330053163"><ele>106.5</ele><time>2026-04-18T09:44:56.78Z</time></trkpt><trkpt lat="45.417998299004076" lon="9.164625628821595"><ele>107.0</ele><time>2026-04-18T09:44:58.78Z</time></trkpt><trkpt lat="45.4181101109281" lon="9.164686709059863"><ele>107.5</ele><time>2026-04-18T09:45:00.779Z</time></trkpt><trkpt lat="45.41821691653164" lon="9.164755981213474"><ele>108.0</ele><time>2026-04-18T09:45:02.779Z</time></trkpt><trkpt lat="45.41832714565727" lon="9.164817558681866"><ele>108.16666666666667</ele><time>2026-04-18T09:45:04.779Z</time></trkpt><trkpt lat="45.4184358279671" lon="9.164876317072876"><ele>108.33333333333334</ele><time>2026-04-18T09:45:06.779Z</time></trkpt><trkpt lat="45.41854933948291" lon="9.164943341770833"><ele>108.5</ele><time>2026-04-18T09:45:08.779Z</time></trkpt><trkpt lat="45.41861094533828" lon="9.16497109810581"><ele>108.66666666666667</ele><time>2026-04-18T09:45:09.779Z</time></trkpt><trkpt lat="45.41867320017382" lon="9.16500358411277"><ele>108.83333333333334</ele><time>2026-04-18T09:45:10.779Z</time></trkpt><trkpt lat="45.418732922378695" lon="9.165035201752245"><ele>109.0</ele><time>2026-04-18T09:45:11.779Z</time></trkpt><trkpt lat="45.41882867038822" lon="9.16510332643756"><ele>108.2</ele><time>2026-04-18T09:45:13.779Z</time></trkpt><trkpt lat="45.418936573593506" lon="9.165157699778984"><ele>107.4</ele><time>2026-04-18T09:45:15.779Z</time></trkpt><trkpt lat="45.41903849436147" lon="9.165221649286503"><ele>106.6</ele><time>2026-04-18T09:45:17.779Z</time></trkpt><trkpt lat="45.41914388988668" lon="9.16527564578365"><ele>105.8</ele><time>2026-04-18T09:45:19.779Z</time></trkpt><trkpt lat="45.41924471678739" lon="9.165335929415297"><ele>105.0</ele><time>2026-04-18T09:45:21.779Z</time></trkpt><trkpt lat="45.41935787239088" lon="9.165401632901622"><ele>105.0</ele><time>2026-04-18T09:45:23.779Z</time></trkpt><trkpt lat="45.41941506823479" lon="9.165439420248623"><ele>105.0</ele><time>2026-04-18T09:45:24.779Z</time></trkpt><trkpt lat="45.41952477354571" lon="9.165509703734557"><ele>105.0</ele><time>2026-04-18T09:45:26.779Z</time></trkpt><trkpt lat="45.419584086702784" lon="9.165543421352249"><ele>105.0</ele><time>2026-04-18T09:45:27.779Z</time></trkpt><trkpt lat="45.41969821082033" lon="9.165610640423482"><ele>105.0</ele><time>2026-04-18T09:45:29.779Z</time></trkpt><trkpt lat="45.4198092746167" lon="9.165685649333724"><ele>105.25</ele><time>2026-04-18T09:45:31.778Z</time></trkpt><trkpt lat="45.41991918843449" lon="9.165745639408156"><ele>105.5</ele><time>2026-04-18T09:45:33.778Z</time></trkpt><trkpt lat="45.42001686495229" lon="9.165801272147533"><ele>105.75</ele><time>2026-04-18T09:45:35.778Z</time></trkpt><trkpt lat="45.42012318700335" lon="9.165863972234895"><ele>106.0</ele><time>2026-04-18T09:45:37.778Z</time></trkpt><trkpt lat="45.420239782521186" lon="9.165932802167966"><ele>106.00000000000001</ele><time>2026-04-18T09:45:39.778Z</time></trkpt><trkpt lat="45.42035486030295" lon="9.166003309853592"><ele>106.0</ele><time>2026-04-18T09:45:41.778Z</time></trkpt><trkpt lat="45.420418207510835" lon="9.16603429716119"><ele>106.0</ele><time>2026-04-18T09:45:42.778Z</time></trkpt><trkpt lat="45.42052613701365" lon="9.166094888238813"><ele>106.0</ele><time>2026-04-18T09:45:44.778Z</time></trkpt><trkpt lat="45.42058852380605" lon="9.16613265811621"><ele>106.00000000000001</ele><time>2026-04-18T09:45:45.778Z</time></trkpt><trkpt lat="45.4206494782399" lon="9.166168733458356"><ele>106.0</ele><time>2026-04-18T09:45:46.778Z</time></trkpt><trkpt lat="45.42071269500626" lon="9.16620256247811"><ele>106.00000000000001</ele><time>2026-04-18T09:45:47.778Z</time></trkpt><trkpt lat="45.42077233218809" lon="9.166240969747413"><ele>106.0</ele><time>2026-04-18T09:45:48.778Z</time></trkpt><trkpt lat="45.42083255318417" lon="9.166281430908889"><ele>106.0</ele><time>2026-04-18T09:45:49.778Z</time></trkpt><trkpt lat="45.42089214988443" lon="9.166318279556997"><ele>106.0</ele><time>2026-04-18T09:45:50.778Z</time></trkpt><trkpt lat="45.42095228347151" lon="9.166350287424153"><ele>106.00000000000001</ele><time>2026-04-18T09:45:51.857Z</time></trkpt><trkpt lat="45.42101395485095" lon="9.166385526759825"><ele>106.0</ele><time>2026-04-18T09:45:52.857Z</time></trkpt><trkpt lat="45.42113459394142" lon="9.166451736392702"><ele>106.00000000000001</ele><time>2026-04-18T09:45:54.857Z</time></trkpt><trkpt lat="45.421193278232124" lon="9.166484751560354"><ele>106.0</ele><time>2026-04-18T09:45:55.858Z</time></trkpt><trkpt lat="45.42125495058472" lon="9.166518116889222"><ele>106.0</ele><time>2026-04-18T09:45:56.858Z</time></trkpt><trkpt lat="45.421317599472665" lon="9.166550298212819"><ele>106.0</ele><time>2026-04-18T09:45:57.858Z</time></trkpt><trkpt lat="45.42143420478721" lon="9.166609644203776"><ele>106.00000000000001</ele><time>2026-04-18T09:45:59.858Z</time></trkpt><trkpt lat="45.4214976103371" lon="9.166645452432496"><ele>106.0</ele><time>2026-04-18T09:46:00.858Z</time></trkpt><trkpt lat="45.42155890955745" lon="9.166683481638383"><ele>106.5</ele><time>2026-04-18T09:46:01.858Z</time></trkpt><trkpt lat="45.42167043073682" lon="9.16675699650687"><ele>107.0</ele><time>2026-04-18T09:46:03.858Z</time></trkpt><trkpt lat="45.42178333963507" lon="9.166822068398263"><ele>107.5</ele><time>2026-04-18T09:46:05.858Z</time></trkpt><trkpt lat="45.42188515748625" lon="9.1668809058293"><ele>108.0</ele><time>2026-04-18T09:46:07.859Z</time></trkpt><trkpt lat="45.42197495388977" lon="9.166936612719866"><ele>108.0</ele><time>2026-04-18T09:46:09.859Z</time></trkpt><trkpt lat="45.422074208279255" lon="9.166993339125938"><ele>108.00000000000001</ele><time>2026-04-18T09:46:11.858Z</time></trkpt><trkpt lat="45.422166095539026" lon="9.167045816004839"><ele>108.00000000000001</ele><time>2026-04-18T09:46:13.859Z</time></trkpt><trkpt lat="45.4222597827217" lon="9.167111772577757"><ele>108.0</ele><time>2026-04-18T09:46:15.859Z</time></trkpt><trkpt lat="45.42232167232093" lon="9.167143108182325"><ele>108.0</ele><time>2026-04-18T09:46:16.859Z</time></trkpt><trkpt lat="45.422433216880556" lon="9.167201097117536"><ele>107.75</ele><time>2026-04-18T09:46:18.859Z</time></trkpt><trkpt lat="45.42255068111097" lon="9.167257657227186"><ele>107.5</ele><time>2026-04-18T09:46:20.859Z</time></trkpt><trkpt lat="45.422658640273525" lon="9.167328990888272"><ele>107.25</ele><time>2026-04-18T09:46:22.859Z</time></trkpt><trkpt lat="45.42277234872642" lon="9.16739990939771"><ele>107.0</ele><time>2026-04-18T09:46:24.859Z</time></trkpt><trkpt lat="45.422881377555356" lon="9.167459840623795"><ele>107.19999999999999</ele><time>2026-04-18T09:46:26.859Z</time></trkpt><trkpt lat="45.42299495781447" lon="9.167521710785579"><ele>107.39999999999999</ele><time>2026-04-18T09:46:28.859Z</time></trkpt><trkpt lat="45.42310439759092" lon="9.16758935137878"><ele>107.60000000000001</ele><time>2026-04-18T09:46:30.859Z</time></trkpt><trkpt lat="45.423162185783276" lon="9.167625716073417"><ele>107.80000000000001</ele><time>2026-04-18T09:46:31.859Z</time></trkpt><trkpt lat="45.423273965605496" lon="9.167685115379856"><ele>108.0</ele><time>2026-04-18T09:46:33.859Z</time></trkpt><trkpt lat="45.4233836205041" lon="9.167755532465216"><ele>108.0</ele><time>2026-04-18T09:46:35.859Z</time></trkpt><trkpt lat="45.423490809720285" lon="9.167814481723024"><ele>108.0</ele><time>2026-04-18T09:46:37.859Z</time></trkpt><trkpt lat="45.423599350064755" lon="9.167875958289912"><ele>108.0</ele><time>2026-04-18T09:46:39.859Z</time></trkpt><trkpt lat="45.42370593752001" lon="9.167936674669015"><ele>108.0</ele><time>2026-04-18T09:46:41.859Z</time></trkpt><trkpt lat="45.42381860964169" lon="9.168004320532667"><ele>108.2</ele><time>2026-04-18T09:46:43.859Z</time></trkpt><trkpt lat="45.42387843793609" lon="9.168039115153762"><ele>108.4</ele><time>2026-04-18T09:46:44.859Z</time></trkpt><trkpt lat="45.42400145012206" lon="9.16809718993012"><ele>108.60000000000001</ele><time>2026-04-18T09:46:46.859Z</time></trkpt><trkpt lat="45.42412138093638" lon="9.168164037506227"><ele>108.80000000000001</ele><time>2026-04-18T09:46:48.859Z</time></trkpt><trkpt lat="45.424183161455474" lon="9.168199438452802"><ele>109.0</ele><time>2026-04-18T09:46:49.859Z</time></trkpt><trkpt lat="45.42429883092447" lon="9.16825623482972"><ele>109.0</ele><time>2026-04-18T09:46:51.859Z</time></trkpt><trkpt lat="45.4243886832506" lon="9.168312658610057"><ele>109.0</ele><time>2026-04-18T09:46:53.859Z</time></trkpt><trkpt lat="45.424495174744784" lon="9.168387885712988"><ele>109.0</ele><time>2026-04-18T09:46:55.859Z</time></trkpt><trkpt lat="45.42459838140419" lon="9.168444946850022"><ele>109.0</ele><time>2026-04-18T09:46:57.859Z</time></trkpt><trkpt lat="45.424698812690444" lon="9.168509406071436"><ele>109.0</ele><time>2026-04-18T09:46:59.859Z</time></trkpt><trkpt lat="45.4248034758563" lon="9.168572127949503"><ele>109.0</ele><time>2026-04-18T09:47:01.859Z</time></trkpt><trkpt lat="45.4249035834389" lon="9.16861976765085"><ele>109.0</ele><time>2026-04-18T09:47:03.859Z</time></trkpt><trkpt lat="45.42499598030733" lon="9.16867452267662"><ele>109.0</ele><time>2026-04-18T09:47:05.859Z</time></trkpt><trkpt lat="45.42509483399219" lon="9.16873022347102"><ele>109.0</ele><time>2026-04-18T09:47:07.859Z</time></trkpt><trkpt lat="45.42519754169317" lon="9.168789626615386"><ele>109.0</ele><time>2026-04-18T09:47:09.859Z</time></trkpt><trkpt lat="45.42530684852577" lon="9.168855462687711"><ele>109.0</ele><time>2026-04-18T09:47:11.859Z</time></trkpt><trkpt lat="45.425414003798515" lon="9.168915241972588"><ele>109.0</ele><time>2026-04-18T09:47:13.859Z</time></trkpt><trkpt lat="45.42551423910076" lon="9.16897803275213"><ele>109.0</ele><time>2026-04-18T09:47:15.859Z</time></trkpt><trkpt lat="45.42562563461738" lon="9.169036832791395"><ele>109.0</ele><time>2026-04-18T09:47:17.859Z</time></trkpt><trkpt lat="45.42573428830569" lon="9.169094736364894"><ele>109.4</ele><time>2026-04-18T09:47:19.859Z</time></trkpt><trkpt lat="45.42583700309467" lon="9.169141987851061"><ele>109.80000000000001</ele><time>2026-04-18T09:47:21.859Z</time></trkpt><trkpt lat="45.425939986014114" lon="9.169199217554128"><ele>110.19999999999999</ele><time>2026-04-18T09:47:23.859Z</time></trkpt><trkpt lat="45.4260448742109" lon="9.169247777465158"><ele>110.6</ele><time>2026-04-18T09:47:25.859Z</time></trkpt><trkpt lat="45.42615179604986" lon="9.169297782786455"><ele>111.0</ele><time>2026-04-18T09:47:27.858Z</time></trkpt><trkpt lat="45.42625265523674" lon="9.169354119504494"><ele>111.4</ele><time>2026-04-18T09:47:29.858Z</time></trkpt><trkpt lat="45.42635116074103" lon="9.169419549633803"><ele>111.8</ele><time>2026-04-18T09:47:31.858Z</time></trkpt><trkpt lat="45.426443103888985" lon="9.169481375550632"><ele>112.20000000000002</ele><time>2026-04-18T09:47:33.858Z</time></trkpt><trkpt lat="45.426542239937454" lon="9.169542114745173"><ele>112.60000000000001</ele><time>2026-04-18T09:47:35.858Z</time></trkpt><trkpt lat="45.426636642388516" lon="9.169602861571832"><ele>113.0</ele><time>2026-04-18T09:47:37.858Z</time></trkpt><trkpt lat="45.42672383562979" lon="9.169662979265585"><ele>113.0</ele><time>2026-04-18T09:47:39.858Z</time></trkpt><trkpt lat="45.42681512203289" lon="9.169720964378136"><ele>113.00000000000001</ele><time>2026-04-18T09:47:41.858Z</time></trkpt><trkpt lat="45.42691540938204" lon="9.169776226928477"><ele>113.00000000000001</ele><time>2026-04-18T09:47:43.858Z</time></trkpt><trkpt lat="45.42701119693471" lon="9.169852093593107"><ele>113.0</ele><time>2026-04-18T09:47:45.858Z</time></trkpt><trkpt lat="45.42710049775477" lon="9.169905920850317"><ele>113.0</ele><time>2026-04-18T09:47:47.858Z</time></trkpt><trkpt lat="45.42720730479519" lon="9.169969344019627"><ele>112.80000000000001</ele><time>2026-04-18T09:47:49.858Z</time></trkpt><trkpt lat="45.427265887376635" lon="9.170004043653059"><ele>112.60000000000001</ele><time>2026-04-18T09:47:50.858Z</time></trkpt><trkpt lat="45.42737244358056" lon="9.170067159023747"><ele>112.39999999999999</ele><time>2026-04-18T09:47:52.858Z</time></trkpt><trkpt lat="45.42747044846928" lon="9.170125165058623"><ele>112.19999999999999</ele><time>2026-04-18T09:47:54.858Z</time></trkpt><trkpt lat="45.427562935401106" lon="9.17017985004276"><ele>112.0</ele><time>2026-04-18T09:47:56.858Z</time></trkpt><trkpt lat="45.42765395869903" lon="9.170233669621394"><ele>112.0</ele><time>2026-04-18T09:47:58.858Z</time></trkpt><trkpt lat="45.42775139312019" lon="9.170291279924605"><ele>111.99999999999999</ele><time>2026-04-18T09:48:00.858Z</time></trkpt><trkpt lat="45.42785250802734" lon="9.170351066392815"><ele>111.99999999999999</ele><time>2026-04-18T09:48:02.858Z</time></trkpt><trkpt lat="45.427956308739056" lon="9.1704118586536"><ele>112.0</ele><time>2026-04-18T09:48:04.858Z</time></trkpt><trkpt lat="45.428059125628025" lon="9.170471989145819"><ele>112.0</ele><time>2026-04-18T09:48:06.858Z</time></trkpt><trkpt lat="45.42815985471628" lon="9.170530898625241"><ele>112.0</ele><time>2026-04-18T09:48:08.858Z</time></trkpt><trkpt lat="45.42826192530112" lon="9.17059059561636"><ele>111.99999999999999</ele><time>2026-04-18T09:48:10.858Z</time></trkpt><trkpt lat="45.42836694691955" lon="9.170652033178914"><ele>111.99999999999999</ele><time>2026-04-18T09:48:12.858Z</time></trkpt><trkpt lat="45.428468278138745" lon="9.17071131185958"><ele>112.0</ele><time>2026-04-18T09:48:14.858Z</time></trkpt><trkpt lat="45.42857492980954" lon="9.170773702998984"><ele>112.0</ele><time>2026-04-18T09:48:16.858Z</time></trkpt><trkpt lat="45.4286818075626" lon="9.17083622639446"><ele>112.0</ele><time>2026-04-18T09:48:18.858Z</time></trkpt><trkpt lat="45.428786321302184" lon="9.170897366835604"><ele>112.0</ele><time>2026-04-18T09:48:20.858Z</time></trkpt><trkpt lat="45.428890260114926" lon="9.170957862738634"><ele>112.0</ele><time>2026-04-18T09:48:22.858Z</time></trkpt><trkpt lat="45.429002196011915" lon="9.171022496447206"><ele>112.0</ele><time>2026-04-18T09:48:24.858Z</time></trkpt><trkpt lat="45.429111598473035" lon="9.17108566747463"><ele>111.75</ele><time>2026-04-18T09:48:26.858Z</time></trkpt><trkpt lat="45.42922563542966" lon="9.171151514460275"><ele>111.5</ele><time>2026-04-18T09:48:28.858Z</time></trkpt><trkpt lat="45.42933529766821" lon="9.17121466809807"><ele>111.25</ele><time>2026-04-18T09:48:30.858Z</time></trkpt><trkpt lat="45.42944904392581" lon="9.171279801603475"><ele>111.0</ele><time>2026-04-18T09:48:32.858Z</time></trkpt><trkpt lat="45.42956213913663" lon="9.171344562749454"><ele>111.0</ele><time>2026-04-18T09:48:34.858Z</time></trkpt><trkpt lat="45.42962062181866" lon="9.17137805139006"><ele>111.0</ele><time>2026-04-18T09:48:35.858Z</time></trkpt><trkpt lat="45.4296793731443" lon="9.171411693882972"><ele>111.0</ele><time>2026-04-18T09:48:36.858Z</time></trkpt><trkpt lat="45.42979523157176" lon="9.171478037316028"><ele>111.0</ele><time>2026-04-18T09:48:38.858Z</time></trkpt><trkpt lat="45.429912481295545" lon="9.171544607730906"><ele>111.0</ele><time>2026-04-18T09:48:40.858Z</time></trkpt><trkpt lat="45.42997334681015" lon="9.171579497816087"><ele>111.0</ele><time>2026-04-18T09:48:41.858Z</time></trkpt><trkpt lat="45.43003192239119" lon="9.17161307522385"><ele>111.33333333333333</ele><time>2026-04-18T09:48:42.858Z</time></trkpt><trkpt lat="45.43009182217054" lon="9.171647411702033"><ele>111.66666666666666</ele><time>2026-04-18T09:48:43.858Z</time></trkpt><trkpt lat="45.43015480559434" lon="9.171683515841332"><ele>112.0</ele><time>2026-04-18T09:48:44.858Z</time></trkpt><trkpt lat="45.43026606772778" lon="9.171751042301578"><ele>112.33333333333333</ele><time>2026-04-18T09:48:46.858Z</time></trkpt><trkpt lat="45.4303267936505" lon="9.171786858318743"><ele>112.66666666666666</ele><time>2026-04-18T09:48:47.858Z</time></trkpt><trkpt lat="45.43038683194662" lon="9.171820817934908"><ele>113.0</ele><time>2026-04-18T09:48:48.858Z</time></trkpt><trkpt lat="45.4304508738246" lon="9.171853479510649"><ele>112.16666666666666</ele><time>2026-04-18T09:48:49.858Z</time></trkpt><trkpt lat="45.430510887725745" lon="9.171889152939007"><ele>111.33333333333333</ele><time>2026-04-18T09:48:50.858Z</time></trkpt><trkpt lat="45.43057051815639" lon="9.171921506697787"><ele>110.5</ele><time>2026-04-18T09:48:51.858Z</time></trkpt><trkpt lat="45.43067327317057" lon="9.171980277628272"><ele>109.66666666666666</ele><time>2026-04-18T09:48:53.858Z</time></trkpt><trkpt lat="45.430774863959975" lon="9.17203845901976"><ele>108.83333333333333</ele><time>2026-04-18T09:48:55.858Z</time></trkpt><trkpt lat="45.430833740993585" lon="9.172072204652048"><ele>108.0</ele><time>2026-04-18T09:48:56.858Z</time></trkpt><trkpt lat="45.430944303165916" lon="9.172135573875348"><ele>108.0</ele><time>2026-04-18T09:48:58.858Z</time></trkpt><trkpt lat="45.43105638343023" lon="9.172199813185646"><ele>108.00000000000001</ele><time>2026-04-18T09:49:00.857Z</time></trkpt><trkpt lat="45.43117019886268" lon="9.172265047014195"><ele>108.00000000000001</ele><time>2026-04-18T09:49:02.857Z</time></trkpt><trkpt lat="45.431229054515455" lon="9.172298780408001"><ele>108.0</ele><time>2026-04-18T09:49:03.857Z</time></trkpt><trkpt lat="45.43128770382358" lon="9.172332395525729"><ele>108.0</ele><time>2026-04-18T09:49:04.857Z</time></trkpt><trkpt lat="45.43139233534507" lon="9.172392375815102"><ele>108.60000000000001</ele><time>2026-04-18T09:49:06.857Z</time></trkpt><trkpt lat="45.43149971015939" lon="9.172454408755636"><ele>109.20000000000002</ele><time>2026-04-18T09:49:08.857Z</time></trkpt><trkpt lat="45.431603296361885" lon="9.172514252940518"><ele>109.8</ele><time>2026-04-18T09:49:10.857Z</time></trkpt><trkpt lat="45.431663783666686" lon="9.172549197863805"><ele>110.4</ele><time>2026-04-18T09:49:11.857Z</time></trkpt><trkpt lat="45.43177522373625" lon="9.172613579390704"><ele>111.0</ele><time>2026-04-18T09:49:13.857Z</time></trkpt><trkpt lat="45.431880343730846" lon="9.172672496859368"><ele>111.0</ele><time>2026-04-18T09:49:15.857Z</time></trkpt><trkpt lat="45.4319760571942" lon="9.172725670862683"><ele>111.0</ele><time>2026-04-18T09:49:17.857Z</time></trkpt><trkpt lat="45.432071254978084" lon="9.17277042429815"><ele>111.0</ele><time>2026-04-18T09:49:19.857Z</time></trkpt><trkpt lat="45.43216402623055" lon="9.1728164256281"><ele>111.0</ele><time>2026-04-18T09:49:21.857Z</time></trkpt><trkpt lat="45.43224358285513" lon="9.172867082176138"><ele>111.0</ele><time>2026-04-18T09:49:23.857Z</time></trkpt><trkpt lat="45.432337463941245" lon="9.172910137212952"><ele>111.5</ele><time>2026-04-18T09:49:25.857Z</time></trkpt><trkpt lat="45.432430326294465" lon="9.172955034499148"><ele>112.0</ele><time>2026-04-18T09:49:27.857Z</time></trkpt><trkpt lat="45.43253821470653" lon="9.17301894644565"><ele>112.5</ele><time>2026-04-18T09:49:29.857Z</time></trkpt><trkpt lat="45.432656166390025" lon="9.17306019115727"><ele>113.0</ele><time>2026-04-18T09:49:31.857Z</time></trkpt><trkpt lat="45.43277107213497" lon="9.17309887078411"><ele>113.0</ele><time>2026-04-18T09:49:33.857Z</time></trkpt><trkpt lat="45.43285248203292" lon="9.173139371368382"><ele>113.00000000000001</ele><time>2026-04-18T09:49:35.857Z</time></trkpt><trkpt lat="45.43294995068802" lon="9.173203952633617"><ele>113.00000000000001</ele><time>2026-04-18T09:49:37.857Z</time></trkpt><trkpt lat="45.433005338835905" lon="9.173247319025347"><ele>113.0</ele><time>2026-04-18T09:49:38.857Z</time></trkpt><trkpt lat="45.433106704268745" lon="9.173331994741178"><ele>113.0</ele><time>2026-04-18T09:49:40.857Z</time></trkpt><trkpt lat="45.43321188240071" lon="9.17339297606272"><ele>113.4</ele><time>2026-04-18T09:49:42.857Z</time></trkpt><trkpt lat="45.43331360433509" lon="9.173449050687728"><ele>113.80000000000001</ele><time>2026-04-18T09:49:44.857Z</time></trkpt><trkpt lat="45.4334104116294" lon="9.173489656802118"><ele>114.2</ele><time>2026-04-18T09:49:46.857Z</time></trkpt><trkpt lat="45.43350340966447" lon="9.173534862920238"><ele>114.6</ele><time>2026-04-18T09:49:48.857Z</time></trkpt><trkpt lat="45.433612777030184" lon="9.173566629448827"><ele>115.0</ele><time>2026-04-18T09:49:50.857Z</time></trkpt><trkpt lat="45.433725350677264" lon="9.173603904191197"><ele>116.0</ele><time>2026-04-18T09:49:52.857Z</time></trkpt><trkpt lat="45.433833120189796" lon="9.173629752601988"><ele>117.0</ele><time>2026-04-18T09:49:54.857Z</time></trkpt><trkpt lat="45.4339526528337" lon="9.173645762829524"><ele>118.0</ele><time>2026-04-18T09:49:56.857Z</time></trkpt><trkpt lat="45.43406997324047" lon="9.17366969104371"><ele>119.0</ele><time>2026-04-18T09:49:58.857Z</time></trkpt><trkpt lat="45.4341887545367" lon="9.173686699969675"><ele>119.0</ele><time>2026-04-18T09:50:00.857Z</time></trkpt><trkpt lat="45.434303038318724" lon="9.173725883971441"><ele>119.0</ele><time>2026-04-18T09:50:02.856Z</time></trkpt><trkpt lat="45.43442252042069" lon="9.173753781743727"><ele>119.0</ele><time>2026-04-18T09:50:04.856Z</time></trkpt><trkpt lat="45.43454080744187" lon="9.173779479502917"><ele>119.0</ele><time>2026-04-18T09:50:06.856Z</time></trkpt><trkpt lat="45.434658294739215" lon="9.1738137089275"><ele>119.0</ele><time>2026-04-18T09:50:08.856Z</time></trkpt><trkpt lat="45.43477838457654" lon="9.17383806539587"><ele>119.0</ele><time>2026-04-18T09:50:10.856Z</time></trkpt><trkpt lat="45.43489834903848" lon="9.173863133364197"><ele>119.0</ele><time>2026-04-18T09:50:12.856Z</time></trkpt><trkpt lat="45.4350199446314" lon="9.173892614393843"><ele>119.0</ele><time>2026-04-18T09:50:14.856Z</time></trkpt><trkpt lat="45.435136056950896" lon="9.173918112363586"><ele>118.99999999999999</ele><time>2026-04-18T09:50:16.856Z</time></trkpt><trkpt lat="45.435255401802344" lon="9.173943481445558"><ele>119.0</ele><time>2026-04-18T09:50:18.857Z</time></trkpt><trkpt lat="45.43531961831303" lon="9.173957417526827"><ele>119.0</ele><time>2026-04-18T09:50:19.857Z</time></trkpt><trkpt lat="45.43544835384487" lon="9.17399007185423"><ele>119.0</ele><time>2026-04-18T09:50:21.856Z</time></trkpt><trkpt lat="45.43551408693225" lon="9.174000399270302"><ele>118.99999999999999</ele><time>2026-04-18T09:50:22.856Z</time></trkpt><trkpt lat="45.43557672431249" lon="9.17401687981506"><ele>119.0</ele><time>2026-04-18T09:50:23.856Z</time></trkpt><trkpt lat="45.43570070679137" lon="9.174044774027752"><ele>118.0</ele><time>2026-04-18T09:50:25.857Z</time></trkpt><trkpt lat="45.43581517648194" lon="9.174069114146935"><ele>117.0</ele><time>2026-04-18T09:50:27.857Z</time></trkpt><trkpt lat="45.43592719088144" lon="9.174098050307341"><ele>116.0</ele><time>2026-04-18T09:50:29.857Z</time></trkpt><trkpt lat="45.43603389240062" lon="9.174122609834834"><ele>115.0</ele><time>2026-04-18T09:50:31.856Z</time></trkpt><trkpt lat="45.43614795360114" lon="9.174150858752723"><ele>115.0</ele><time>2026-04-18T09:50:33.856Z</time></trkpt><trkpt lat="45.43621098509392" lon="9.174158799467763"><ele>115.0</ele><time>2026-04-18T09:50:34.856Z</time></trkpt><trkpt lat="45.43632809023214" lon="9.174190489498521"><ele>115.0</ele><time>2026-04-18T09:50:36.856Z</time></trkpt><trkpt lat="45.43644623648386" lon="9.174219191522356"><ele>115.0</ele><time>2026-04-18T09:50:38.856Z</time></trkpt><trkpt lat="45.43656950523231" lon="9.1742542453185"><ele>115.0</ele><time>2026-04-18T09:50:40.856Z</time></trkpt><trkpt lat="45.4366853988074" lon="9.174292680180889"><ele>114.75</ele><time>2026-04-18T09:50:42.856Z</time></trkpt><trkpt lat="45.4368077417608" lon="9.17431503945527"><ele>114.5</ele><time>2026-04-18T09:50:44.856Z</time></trkpt><trkpt lat="45.43692581905616" lon="9.174351679994855"><ele>114.25</ele><time>2026-04-18T09:50:46.856Z</time></trkpt><trkpt lat="45.437037066556556" lon="9.174379012691741"><ele>114.0</ele><time>2026-04-18T09:50:48.856Z</time></trkpt><trkpt lat="45.43713495043218" lon="9.174393268658834"><ele>114.6</ele><time>2026-04-18T09:50:50.856Z</time></trkpt><trkpt lat="45.437249011923434" lon="9.17442723695239"><ele>115.2</ele><time>2026-04-18T09:50:52.856Z</time></trkpt><trkpt lat="45.43735334545809" lon="9.174450934926089"><ele>115.79999999999998</ele><time>2026-04-18T09:50:54.856Z</time></trkpt><trkpt lat="45.43745917482195" lon="9.174475966584225"><ele>116.39999999999999</ele><time>2026-04-18T09:50:56.856Z</time></trkpt><trkpt lat="45.43756356709623" lon="9.17450119436746"><ele>117.0</ele><time>2026-04-18T09:50:58.856Z</time></trkpt><trkpt lat="45.437669802573936" lon="9.174528900227184"><ele>117.0</ele><time>2026-04-18T09:51:00.856Z</time></trkpt><trkpt lat="45.43779785090185" lon="9.17455328046658"><ele>116.99999999999999</ele><time>2026-04-18T09:51:02.856Z</time></trkpt><trkpt lat="45.4378635200306" lon="9.174546248179103"><ele>116.99999999999999</ele><time>2026-04-18T09:51:03.856Z</time></trkpt><trkpt lat="45.43797182304618" lon="9.174568475229213"><ele>117.0</ele><time>2026-04-18T09:51:05.856Z</time></trkpt><trkpt lat="45.438087439041375" lon="9.17461383356026"><ele>117.0</ele><time>2026-04-18T09:51:07.856Z</time></trkpt><trkpt lat="45.438199791061315" lon="9.174649265261156"><ele>117.0</ele><time>2026-04-18T09:51:09.856Z</time></trkpt><trkpt lat="45.43830093475866" lon="9.174673871464242"><ele>117.0</ele><time>2026-04-18T09:51:11.856Z</time></trkpt><trkpt lat="45.4384070781534" lon="9.174700264316355"><ele>117.0</ele><time>2026-04-18T09:51:13.856Z</time></trkpt><trkpt lat="45.438526910811326" lon="9.174726412250203"><ele>117.0</ele><time>2026-04-18T09:51:15.856Z</time></trkpt><trkpt lat="45.43864828462401" lon="9.174758564187664"><ele>117.0</ele><time>2026-04-18T09:51:17.856Z</time></trkpt><trkpt lat="45.43876936028556" lon="9.174784888750544"><ele>117.0</ele><time>2026-04-18T09:51:19.856Z</time></trkpt><trkpt lat="45.43889292629317" lon="9.174820633160468"><ele>117.0</ele><time>2026-04-18T09:51:21.856Z</time></trkpt><trkpt lat="45.43901303119923" lon="9.174844385366244"><ele>117.0</ele><time>2026-04-18T09:51:23.856Z</time></trkpt><trkpt lat="45.439127761082624" lon="9.174865562259296"><ele>116.42857142857143</ele><time>2026-04-18T09:51:25.856Z</time></trkpt><trkpt lat="45.439198366977195" lon="9.174884450292673"><ele>115.85714285714286</ele><time>2026-04-18T09:51:26.856Z</time></trkpt><trkpt lat="45.439261437185806" lon="9.174894189582565"><ele>115.28571428571429</ele><time>2026-04-18T09:51:27.856Z</time></trkpt><trkpt lat="45.439324942619635" lon="9.174909916861967"><ele>114.71428571428572</ele><time>2026-04-18T09:51:28.855Z</time></trkpt><trkpt lat="45.439388428524985" lon="9.174922176705534"><ele>114.14285714285714</ele><time>2026-04-18T09:51:29.855Z</time></trkpt><trkpt lat="45.43945085962087" lon="9.174943184703773"><ele>113.57142857142858</ele><time>2026-04-18T09:51:30.855Z</time></trkpt><trkpt lat="45.43951377591587" lon="9.174968329759704"><ele>113.0</ele><time>2026-04-18T09:51:31.855Z</time></trkpt><trkpt lat="45.43958280878827" lon="9.174994288098928"><ele>113.28571428571429</ele><time>2026-04-18T09:51:32.855Z</time></trkpt><trkpt lat="45.43965099091302" lon="9.175020888578505"><ele>113.57142857142856</ele><time>2026-04-18T09:51:33.855Z</time></trkpt><trkpt lat="45.43971673291124" lon="9.17505059067182"><ele>113.85714285714285</ele><time>2026-04-18T09:51:34.855Z</time></trkpt><trkpt lat="45.4397805792183" lon="9.175077571388046"><ele>114.14285714285714</ele><time>2026-04-18T09:51:35.855Z</time></trkpt><trkpt lat="45.439847971905714" lon="9.175104639961525"><ele>114.42857142857142</ele><time>2026-04-18T09:51:36.855Z</time></trkpt><trkpt lat="45.43991654604138" lon="9.175131529571066"><ele>114.7142857142857</ele><time>2026-04-18T09:51:37.855Z</time></trkpt><trkpt lat="45.43998795966884" lon="9.175158004224102"><ele>114.99999999999999</ele><time>2026-04-18T09:51:38.855Z</time></trkpt><trkpt lat="45.44006009522226" lon="9.17518598581067"><ele>114.99999999999999</ele><time>2026-04-18T09:51:39.855Z</time></trkpt><trkpt lat="45.4401340704476" lon="9.175203061396216"><ele>115.0</ele><time>2026-04-18T09:51:40.855Z</time></trkpt><trkpt lat="45.44020649408624" lon="9.175219778846463"><ele>114.99999999999999</ele><time>2026-04-18T09:51:41.855Z</time></trkpt><trkpt lat="45.440276346263325" lon="9.175235902718551"><ele>114.99999999999999</ele><time>2026-04-18T09:51:42.855Z</time></trkpt><trkpt lat="45.44034321801769" lon="9.175251338694185"><ele>115.0</ele><time>2026-04-18T09:51:43.855Z</time></trkpt><trkpt lat="45.44041177473579" lon="9.175267163515729"><ele>114.99999999999999</ele><time>2026-04-18T09:51:44.855Z</time></trkpt><trkpt lat="45.440481262062775" lon="9.17528320318014"><ele>114.99999999999999</ele><time>2026-04-18T09:51:45.855Z</time></trkpt><trkpt lat="45.44055761243615" lon="9.175300827037939"><ele>115.16666666666667</ele><time>2026-04-18T09:51:46.855Z</time></trkpt><trkpt lat="45.440629784211644" lon="9.175317486344285"><ele>115.33333333333334</ele><time>2026-04-18T09:51:47.855Z</time></trkpt><trkpt lat="45.44070888321108" lon="9.175335744677229"><ele>115.5</ele><time>2026-04-18T09:51:48.855Z</time></trkpt><trkpt lat="45.440784927112695" lon="9.175354129422885"><ele>115.66666666666666</ele><time>2026-04-18T09:51:49.855Z</time></trkpt><trkpt lat="45.44086386011239" lon="9.175373114466977"><ele>115.83333333333333</ele><time>2026-04-18T09:51:50.855Z</time></trkpt><trkpt lat="45.44093780291549" lon="9.175390899241474"><ele>116.0</ele><time>2026-04-18T09:51:51.855Z</time></trkpt><trkpt lat="45.44101332608585" lon="9.175409064152909"><ele>115.99999999999999</ele><time>2026-04-18T09:51:52.855Z</time></trkpt><trkpt lat="45.441161614603914" lon="9.175444730658308"><ele>116.0</ele><time>2026-04-18T09:51:54.855Z</time></trkpt><trkpt lat="45.441234452643684" lon="9.17546224972671"><ele>116.0</ele><time>2026-04-18T09:51:55.855Z</time></trkpt><trkpt lat="45.441305039026844" lon="9.175479227220947"><ele>116.0</ele><time>2026-04-18T09:51:56.855Z</time></trkpt><trkpt lat="45.4413739479908" lon="9.175495801287333"><ele>115.99999999999999</ele><time>2026-04-18T09:51:57.855Z</time></trkpt><trkpt lat="45.4414369309147" lon="9.175510949998863"><ele>116.0</ele><time>2026-04-18T09:51:58.855Z</time></trkpt><trkpt lat="45.44150281188096" lon="9.175526795764144"><ele>115.85714285714288</ele><time>2026-04-18T09:51:59.855Z</time></trkpt><trkpt lat="45.44156527874024" lon="9.175541820359"><ele>115.71428571428572</ele><time>2026-04-18T09:52:00.855Z</time></trkpt><trkpt lat="45.44163461650565" lon="9.175558497546703"><ele>115.57142857142857</ele><time>2026-04-18T09:52:01.855Z</time></trkpt><trkpt lat="45.44170052932601" lon="9.175574350975289"><ele>115.42857142857143</ele><time>2026-04-18T09:52:02.855Z</time></trkpt><trkpt lat="45.4417685871828" lon="9.175590720323974"><ele>115.28571428571428</ele><time>2026-04-18T09:52:03.855Z</time></trkpt><trkpt lat="45.44183205160851" lon="9.175605939860516"><ele>115.14285714285712</ele><time>2026-04-18T09:52:04.855Z</time></trkpt><trkpt lat="45.44189835626257" lon="9.17562136514508"><ele>114.99999999999999</ele><time>2026-04-18T09:52:05.855Z</time></trkpt><trkpt lat="45.4419631474383" lon="9.175636311911527"><ele>114.99999999999999</ele><time>2026-04-18T09:52:06.855Z</time></trkpt><trkpt lat="45.44202664942508" lon="9.1756509612847"><ele>115.0</ele><time>2026-04-18T09:52:07.855Z</time></trkpt><trkpt lat="45.44209221488536" lon="9.175666086665888"><ele>114.99999999999999</ele><time>2026-04-18T09:52:08.855Z</time></trkpt><trkpt lat="45.442155562840526" lon="9.17568066672827"><ele>114.99999999999999</ele><time>2026-04-18T09:52:09.855Z</time></trkpt><trkpt lat="45.442217758970344" lon="9.175694665482235"><ele>115.0</ele><time>2026-04-18T09:52:10.855Z</time></trkpt><trkpt lat="45.442282239199976" lon="9.175709178280934"><ele>114.99999999999999</ele><time>2026-04-18T09:52:11.855Z</time></trkpt><trkpt lat="45.442401365705805" lon="9.175735990566949"><ele>114.99999999999999</ele><time>2026-04-18T09:52:13.855Z</time></trkpt><trkpt lat="45.442522070855084" lon="9.175762929542268"><ele>115.16666666666667</ele><time>2026-04-18T09:52:15.855Z</time></trkpt><trkpt lat="45.44263384400611" lon="9.175787716779677"><ele>115.33333333333334</ele><time>2026-04-18T09:52:17.855Z</time></trkpt><trkpt lat="45.44269805355813" lon="9.175802563806592"><ele>115.5</ele><time>2026-04-18T09:52:18.855Z</time></trkpt><trkpt lat="45.44276293238736" lon="9.175817728847793"><ele>115.66666666666666</ele><time>2026-04-18T09:52:19.855Z</time></trkpt><trkpt lat="45.44282709581661" lon="9.175832726684812"><ele>115.83333333333333</ele><time>2026-04-18T09:52:20.855Z</time></trkpt><trkpt lat="45.442889952224725" lon="9.17584741896889"><ele>116.0</ele><time>2026-04-18T09:52:21.855Z</time></trkpt><trkpt lat="45.44296593801971" lon="9.175865418230343"><ele>116.0</ele><time>2026-04-18T09:52:23.855Z</time></trkpt><trkpt lat="45.44308660266411" lon="9.175894952942791"><ele>116.0</ele><time>2026-04-18T09:52:25.855Z</time></trkpt><trkpt lat="45.443197738174916" lon="9.175922045497881"><ele>116.0</ele><time>2026-04-18T09:52:27.855Z</time></trkpt><trkpt lat="45.44328674210957" lon="9.175943730103343"><ele>116.0</ele><time>2026-04-18T09:52:29.855Z</time></trkpt><trkpt lat="45.44335403570433" lon="9.175960013706375"><ele>116.0</ele><time>2026-04-18T09:52:31.855Z</time></trkpt><trkpt lat="45.443418967013315" lon="9.175974758790147"><ele>116.00000000000001</ele><time>2026-04-18T09:52:33.855Z</time></trkpt><trkpt lat="45.44349041138229" lon="9.175990982960586"><ele>116.0</ele><time>2026-04-18T09:52:37.855Z</time></trkpt><trkpt lat="45.44356988180063" lon="9.17600726278501"><ele>116.00000000000001</ele><time>2026-04-18T09:53:14.854Z</time></trkpt><trkpt lat="45.44363676918332" lon="9.176020695722267"><ele>116.00000000000001</ele><time>2026-04-18T09:53:20.854Z</time></trkpt><trkpt lat="45.44371716422166" lon="9.17599276381341"><ele>116.0</ele><time>2026-04-18T09:53:25.854Z</time></trkpt><trkpt lat="45.44378184788444" lon="9.175958368338469"><ele>116.00000000000001</ele><time>2026-04-18T09:53:28.854Z</time></trkpt><trkpt lat="45.44382182447631" lon="9.175871285516411"><ele>116.00000000000001</ele><time>2026-04-18T09:53:30.854Z</time></trkpt><trkpt lat="45.443823450183366" lon="9.17576567285932"><ele>115.99999999999999</ele><time>2026-04-18T09:53:32.854Z</time></trkpt><trkpt lat="45.443838559013436" lon="9.175656850099546"><ele>116.0</ele><time>2026-04-18T09:53:35.854Z</time></trkpt><trkpt lat="45.44386467863199" lon="9.17557468179609"><ele>116.0</ele><time>2026-04-18T09:53:38.854Z</time></trkpt><trkpt lat="45.443892423712256" lon="9.175480472686354"><ele>116.0</ele><time>2026-04-18T09:53:42.854Z</time></trkpt><trkpt lat="45.443916157585704" lon="9.175391195170658"><ele>115.99999999999999</ele><time>2026-04-18T09:53:44.854Z</time></trkpt><trkpt lat="45.44392417831322" lon="9.17524263247986"><ele>116.0</ele><time>2026-04-18T09:53:47.854Z</time></trkpt><trkpt lat="45.443921032721676" lon="9.175109827658149"><ele>116.0</ele><time>2026-04-18T09:53:49.854Z</time></trkpt><trkpt lat="45.443927800709744" lon="9.174975900801048"><ele>116.0</ele><time>2026-04-18T09:53:51.854Z</time></trkpt><trkpt lat="45.44392222917159" lon="9.174814337887355"><ele>116.0</ele><time>2026-04-18T09:53:53.854Z</time></trkpt><trkpt lat="45.443924711779154" lon="9.17466307086916"><ele>116.0</ele><time>2026-04-18T09:53:55.854Z</time></trkpt><trkpt lat="45.44393349942091" lon="9.174509219367701"><ele>116.0</ele><time>2026-04-18T09:53:57.854Z</time></trkpt><trkpt lat="45.44393617388974" lon="9.174367397703788"><ele>116.0</ele><time>2026-04-18T09:53:59.853Z</time></trkpt><trkpt lat="45.44393991126069" lon="9.17424598946199"><ele>116.0</ele><time>2026-04-18T09:54:01.853Z</time></trkpt><trkpt lat="45.44393612872796" lon="9.17411799599612"><ele>116.0</ele><time>2026-04-18T09:54:03.853Z</time></trkpt><trkpt lat="45.44395586201785" lon="9.173975038368013"><ele>116.0</ele><time>2026-04-18T09:54:05.853Z</time></trkpt><trkpt lat="45.44396987041707" lon="9.173849549887661"><ele>116.0</ele><time>2026-04-18T09:54:07.853Z</time></trkpt><trkpt lat="45.44396646578921" lon="9.173720198934214"><ele>115.99999999999999</ele><time>2026-04-18T09:54:09.853Z</time></trkpt><trkpt lat="45.443981101187255" lon="9.173603488366105"><ele>116.0</ele><time>2026-04-18T09:54:11.853Z</time></trkpt><trkpt lat="45.443992332751485" lon="9.173511676868946"><ele>116.0</ele><time>2026-04-18T09:54:13.853Z</time></trkpt><trkpt lat="45.44400734656407" lon="9.173417717805263"><ele>116.0</ele><time>2026-04-18T09:54:15.853Z</time></trkpt><trkpt lat="45.44401066752196" lon="9.173325983400442"><ele>115.99999999999999</ele><time>2026-04-18T09:54:18.853Z</time></trkpt><trkpt lat="45.44405598205774" lon="9.173248406159733"><ele>116.0</ele><time>2026-04-18T09:54:41.853Z</time></trkpt><trkpt lat="45.444079533701085" lon="9.17311169428671"><ele>116.16666666666666</ele><time>2026-04-18T09:54:45.853Z</time></trkpt><trkpt lat="45.4440788506037" lon="9.173018548902904"><ele>116.33333333333333</ele><time>2026-04-18T09:54:47.853Z</time></trkpt><trkpt lat="45.44409944046411" lon="9.172927208777402"><ele>116.5</ele><time>2026-04-18T09:54:50.853Z</time></trkpt><trkpt lat="45.44412202102566" lon="9.172798343657771"><ele>116.66666666666666</ele><time>2026-04-18T09:54:53.853Z</time></trkpt><trkpt lat="45.44411393316037" lon="9.172632477615624"><ele>116.83333333333333</ele><time>2026-04-18T09:54:55.853Z</time></trkpt><trkpt lat="45.44410717108225" lon="9.172538768388135"><ele>117.0</ele><time>2026-04-18T09:54:56.853Z</time></trkpt><trkpt lat="45.44411115099518" lon="9.17236635872524"><ele>116.33333333333333</ele><time>2026-04-18T09:54:58.853Z</time></trkpt><trkpt lat="45.44411670037251" lon="9.172270758844647"><ele>115.66666666666666</ele><time>2026-04-18T09:54:59.853Z</time></trkpt><trkpt lat="45.44412233464713" lon="9.172093881768074"><ele>115.0</ele><time>2026-04-18T09:55:01.853Z</time></trkpt><trkpt lat="45.44411734263145" lon="9.171979978625716"><ele>114.33333333333333</ele><time>2026-04-18T09:55:02.853Z</time></trkpt><trkpt lat="45.444107332047466" lon="9.171861184250359"><ele>113.66666666666666</ele><time>2026-04-18T09:55:03.853Z</time></trkpt><trkpt lat="45.44410307667809" lon="9.171753551331918"><ele>113.0</ele><time>2026-04-18T09:55:04.853Z</time></trkpt><trkpt lat="45.44410013991338" lon="9.17163368657094"><ele>112.83333333333333</ele><time>2026-04-18T09:55:05.853Z</time></trkpt><trkpt lat="45.444102565957934" lon="9.17151960304893"><ele>112.66666666666666</ele><time>2026-04-18T09:55:06.853Z</time></trkpt><trkpt lat="45.444105215808015" lon="9.171414146948443"><ele>112.5</ele><time>2026-04-18T09:55:07.853Z</time></trkpt><trkpt lat="45.444119611491146" lon="9.171321594867914"><ele>112.33333333333334</ele><time>2026-04-18T09:55:08.853Z</time></trkpt><trkpt lat="45.444135030779776" lon="9.171230063353974"><ele>112.16666666666667</ele><time>2026-04-18T09:55:09.853Z</time></trkpt><trkpt lat="45.44416616826058" lon="9.17104296721424"><ele>112.0</ele><time>2026-04-18T09:55:11.853Z</time></trkpt><trkpt lat="45.44417588308725" lon="9.170948155620897"><ele>112.00000000000001</ele><time>2026-04-18T09:55:12.853Z</time></trkpt><trkpt lat="45.44420061495206" lon="9.17085641017359"><ele>112.0</ele><time>2026-04-18T09:55:13.853Z</time></trkpt><trkpt lat="45.44420773843476" lon="9.17076226106732"><ele>112.0</ele><time>2026-04-18T09:55:14.853Z</time></trkpt><trkpt lat="45.44421953091496" lon="9.170664031580493"><ele>112.0</ele><time>2026-04-18T09:55:15.853Z</time></trkpt><trkpt lat="45.44423356898147" lon="9.17056793828735"><ele>112.00000000000001</ele><time>2026-04-18T09:55:16.853Z</time></trkpt><trkpt lat="45.44424218786509" lon="9.170381058161782"><ele>112.0</ele><time>2026-04-18T09:55:18.853Z</time></trkpt><trkpt lat="45.44424656782693" lon="9.17028132786831"><ele>112.42857142857143</ele><time>2026-04-18T09:55:19.853Z</time></trkpt><trkpt lat="45.44423352498084" lon="9.170177628141255"><ele>112.85714285714286</ele><time>2026-04-18T09:55:20.853Z</time></trkpt><trkpt lat="45.44423344064859" lon="9.170065608244355"><ele>113.28571428571428</ele><time>2026-04-18T09:55:21.853Z</time></trkpt><trkpt lat="45.4442301701328" lon="9.16996728423663"><ele>113.71428571428571</ele><time>2026-04-18T09:55:22.853Z</time></trkpt><trkpt lat="45.44422843066886" lon="9.169873997284737"><ele>114.14285714285714</ele><time>2026-04-18T09:55:23.853Z</time></trkpt><trkpt lat="45.44422376076998" lon="9.169779198589806"><ele>114.57142857142856</ele><time>2026-04-18T09:55:24.853Z</time></trkpt><trkpt lat="45.44421976463185" lon="9.169678734638927"><ele>114.99999999999999</ele><time>2026-04-18T09:55:25.853Z</time></trkpt><trkpt lat="45.44421321473005" lon="9.169583848043242"><ele>115.0</ele><time>2026-04-18T09:55:26.853Z</time></trkpt><trkpt lat="45.44420995147246" lon="9.169411658624917"><ele>115.0</ele><time>2026-04-18T09:55:28.853Z</time></trkpt><trkpt lat="45.44420479072489" lon="9.169236206840935"><ele>115.0</ele><time>2026-04-18T09:55:30.853Z</time></trkpt><trkpt lat="45.44421528166164" lon="9.169074264320301"><ele>115.0</ele><time>2026-04-18T09:55:32.853Z</time></trkpt><trkpt lat="45.44422022533695" lon="9.168977439325802"><ele>115.0</ele><time>2026-04-18T09:55:33.853Z</time></trkpt><trkpt lat="45.44422168950428" lon="9.168798892912033"><ele>115.2</ele><time>2026-04-18T09:55:35.853Z</time></trkpt><trkpt lat="45.44422723893666" lon="9.168615961819725"><ele>115.4</ele><time>2026-04-18T09:55:37.852Z</time></trkpt><trkpt lat="45.44422988241168" lon="9.168522550826887"><ele>115.6</ele><time>2026-04-18T09:55:38.852Z</time></trkpt><trkpt lat="45.44424152392487" lon="9.168353805493956"><ele>115.8</ele><time>2026-04-18T09:55:40.852Z</time></trkpt><trkpt lat="45.44425077255497" lon="9.168206822356856"><ele>116.0</ele><time>2026-04-18T09:55:42.852Z</time></trkpt><trkpt lat="45.44426496649772" lon="9.168043847367535"><ele>115.99999999999999</ele><time>2026-04-18T09:55:44.852Z</time></trkpt><trkpt lat="45.44426002124361" lon="9.167886002472098"><ele>116.0</ele><time>2026-04-18T09:55:46.852Z</time></trkpt><trkpt lat="45.44427205473559" lon="9.167795823972304"><ele>116.0</ele><time>2026-04-18T09:55:47.852Z</time></trkpt><trkpt lat="45.4442835164328" lon="9.16764065996823"><ele>116.0</ele><time>2026-04-18T09:55:49.852Z</time></trkpt><trkpt lat="45.44428600063253" lon="9.16754328177808"><ele>115.99999999999999</ele><time>2026-04-18T09:55:50.852Z</time></trkpt><trkpt lat="45.44428734513544" lon="9.167453500749163"><ele>116.0</ele><time>2026-04-18T09:55:51.852Z</time></trkpt><trkpt lat="45.44429191048306" lon="9.167284961593003"><ele>116.19999999999999</ele><time>2026-04-18T09:55:53.852Z</time></trkpt><trkpt lat="45.44428934790668" lon="9.167126502085882"><ele>116.39999999999999</ele><time>2026-04-18T09:55:55.852Z</time></trkpt><trkpt lat="45.44431420893066" lon="9.166976605779599"><ele>116.6</ele><time>2026-04-18T09:55:57.852Z</time></trkpt><trkpt lat="45.44433224576281" lon="9.1668430155904"><ele>116.8</ele><time>2026-04-18T09:55:59.852Z</time></trkpt><trkpt lat="45.4443525953672" lon="9.166679340179329"><ele>117.0</ele><time>2026-04-18T09:56:01.852Z</time></trkpt><trkpt lat="45.44438012983538" lon="9.166544307495295"><ele>117.0</ele><time>2026-04-18T09:56:03.852Z</time></trkpt><trkpt lat="45.44441687850307" lon="9.166396321059894"><ele>117.0</ele><time>2026-04-18T09:56:05.852Z</time></trkpt><trkpt lat="45.444433187560314" lon="9.166266732984184"><ele>117.0</ele><time>2026-04-18T09:56:07.852Z</time></trkpt><trkpt lat="45.4444555986193" lon="9.166167895820609"><ele>117.0</ele><time>2026-04-18T09:56:10.852Z</time></trkpt><trkpt lat="45.44446728412423" lon="9.166079417777135"><ele>117.0</ele><time>2026-04-18T09:56:14.852Z</time></trkpt><trkpt lat="45.44448351920549" lon="9.165947193452867"><ele>117.0</ele><time>2026-04-18T09:56:17.852Z</time></trkpt><trkpt lat="45.44450843237359" lon="9.165832806184628"><ele>117.0</ele><time>2026-04-18T09:56:19.852Z</time></trkpt><trkpt lat="45.44451916733851" lon="9.16569613449321"><ele>116.99999999999999</ele><time>2026-04-18T09:56:21.852Z</time></trkpt><trkpt lat="45.44454029842584" lon="9.16555450653824"><ele>116.99999999999999</ele><time>2026-04-18T09:56:23.852Z</time></trkpt><trkpt lat="45.444564599810846" lon="9.165389223648942"><ele>117.0</ele><time>2026-04-18T09:56:25.852Z</time></trkpt><trkpt lat="45.4445892225645" lon="9.165285368541104"><ele>117.0</ele><time>2026-04-18T09:56:27.852Z</time></trkpt><trkpt lat="45.44459693155106" lon="9.165165617017418"><ele>117.0</ele><time>2026-04-18T09:56:30.852Z</time></trkpt><trkpt lat="45.444614442753625" lon="9.165038676537305"><ele>117.0</ele><time>2026-04-18T09:56:32.852Z</time></trkpt><trkpt lat="45.44465463918285" lon="9.164922911098794"><ele>117.0</ele><time>2026-04-18T09:56:34.852Z</time></trkpt><trkpt lat="45.4446617385848" lon="9.164827749327554"><ele>117.0</ele><time>2026-04-18T09:56:35.852Z</time></trkpt><trkpt lat="45.44469458347814" lon="9.16466989868638"><ele>117.0</ele><time>2026-04-18T09:56:37.852Z</time></trkpt><trkpt lat="45.444708183869224" lon="9.164576636741666"><ele>117.0</ele><time>2026-04-18T09:56:38.852Z</time></trkpt><trkpt lat="45.44472731811432" lon="9.164415334664183"><ele>117.0</ele><time>2026-04-18T09:56:40.852Z</time></trkpt><trkpt lat="45.44476615796216" lon="9.164260692062847"><ele>117.0</ele><time>2026-04-18T09:56:42.851Z</time></trkpt><trkpt lat="45.444802839681856" lon="9.164096004010178"><ele>117.0</ele><time>2026-04-18T09:56:44.851Z</time></trkpt><trkpt lat="45.44482122859686" lon="9.163941360647996"><ele>117.0</ele><time>2026-04-18T09:56:46.852Z</time></trkpt><trkpt lat="45.44485235040203" lon="9.16378406567746"><ele>117.0</ele><time>2026-04-18T09:56:48.852Z</time></trkpt><trkpt lat="45.44489369665143" lon="9.163651105458433"><ele>117.0</ele><time>2026-04-18T09:56:50.851Z</time></trkpt><trkpt lat="45.44491689815229" lon="9.163561744328579"><ele>117.0</ele><time>2026-04-18T09:56:52.851Z</time></trkpt><trkpt lat="45.444948261647" lon="9.163468685369997"><ele>117.0</ele><time>2026-04-18T09:56:56.851Z</time></trkpt><trkpt lat="45.444972299563666" lon="9.163378480092192"><ele>117.0</ele><time>2026-04-18T09:56:58.851Z</time></trkpt><trkpt lat="45.44499129920256" lon="9.163239984215146"><ele>117.0</ele><time>2026-04-18T09:57:00.851Z</time></trkpt><trkpt lat="45.44502747687433" lon="9.163125949507144"><ele>117.0</ele><time>2026-04-18T09:57:02.851Z</time></trkpt><trkpt lat="45.44505671828324" lon="9.163031070585577"><ele>117.0</ele><time>2026-04-18T09:57:04.851Z</time></trkpt><trkpt lat="45.44508249602081" lon="9.162945093810448"><ele>117.0</ele><time>2026-04-18T09:57:09.851Z</time></trkpt><trkpt lat="45.445088827146954" lon="9.162836934567663"><ele>117.0</ele><time>2026-04-18T09:57:23.851Z</time></trkpt><trkpt lat="45.44512487760989" lon="9.162705998682458"><ele>117.0</ele><time>2026-04-18T09:57:26.851Z</time></trkpt><trkpt lat="45.445157660436" lon="9.162574534568051"><ele>117.0</ele><time>2026-04-18T09:57:28.851Z</time></trkpt><trkpt lat="45.44520545129819" lon="9.162435684512355"><ele>116.6</ele><time>2026-04-18T09:57:30.851Z</time></trkpt><trkpt lat="45.445260945493445" lon="9.162318123706461"><ele>116.19999999999999</ele><time>2026-04-18T09:57:32.851Z</time></trkpt><trkpt lat="45.44531816387677" lon="9.162154777142574"><ele>115.8</ele><time>2026-04-18T09:57:34.851Z</time></trkpt><trkpt lat="45.44535528616739" lon="9.162055016472214"><ele>115.4</ele><time>2026-04-18T09:57:35.851Z</time></trkpt><trkpt lat="45.44541120102939" lon="9.161898169527975"><ele>115.0</ele><time>2026-04-18T09:57:37.85Z</time></trkpt><trkpt lat="45.445441388489215" lon="9.161814096901736"><ele>115.16666666666667</ele><time>2026-04-18T09:57:38.85Z</time></trkpt><trkpt lat="45.44547705862041" lon="9.161730765142458"><ele>115.33333333333334</ele><time>2026-04-18T09:57:39.85Z</time></trkpt><trkpt lat="45.445501333698225" lon="9.161646738168955"><ele>115.5</ele><time>2026-04-18T09:57:40.85Z</time></trkpt><trkpt lat="45.445529133096926" lon="9.161565654363404"><ele>115.66666666666666</ele><time>2026-04-18T09:57:41.85Z</time></trkpt><trkpt lat="45.44555735178632" lon="9.161482131349183"><ele>115.83333333333333</ele><time>2026-04-18T09:57:42.85Z</time></trkpt><trkpt lat="45.44560990364982" lon="9.16132602409773"><ele>116.0</ele><time>2026-04-18T09:57:44.85Z</time></trkpt><trkpt lat="45.44564455502961" lon="9.161242754398483"><ele>116.25</ele><time>2026-04-18T09:57:45.85Z</time></trkpt><trkpt lat="45.445708586440944" lon="9.16112381013328"><ele>116.5</ele><time>2026-04-18T09:57:47.85Z</time></trkpt><trkpt lat="45.44578223900482" lon="9.16099544219038"><ele>116.75</ele><time>2026-04-18T09:57:49.85Z</time></trkpt><trkpt lat="45.445853494859364" lon="9.160845333717184"><ele>117.0</ele><time>2026-04-18T09:57:51.85Z</time></trkpt><trkpt lat="45.445924440558485" lon="9.160718828045514"><ele>116.39999999999999</ele><time>2026-04-18T09:57:53.85Z</time></trkpt><trkpt lat="45.44600026417258" lon="9.160575430064995"><ele>115.79999999999998</ele><time>2026-04-18T09:57:55.85Z</time></trkpt><trkpt lat="45.446069084609206" lon="9.16046575080732"><ele>115.2</ele><time>2026-04-18T09:57:57.85Z</time></trkpt><trkpt lat="45.44613789149123" lon="9.160399047784994"><ele>114.6</ele><time>2026-04-18T09:57:59.85Z</time></trkpt><trkpt lat="45.44620127689427" lon="9.160278548737189"><ele>114.0</ele><time>2026-04-18T09:58:01.85Z</time></trkpt><trkpt lat="45.446261751104025" lon="9.160183846019004"><ele>114.0</ele><time>2026-04-18T09:58:03.85Z</time></trkpt><trkpt lat="45.446293686631165" lon="9.160071070965161"><ele>114.0</ele><time>2026-04-18T09:58:05.85Z</time></trkpt><trkpt lat="45.44632609948266" lon="9.159946630804011"><ele>114.0</ele><time>2026-04-18T09:58:07.85Z</time></trkpt><trkpt lat="45.446364630027794" lon="9.159807092507178"><ele>114.0</ele><time>2026-04-18T09:58:09.85Z</time></trkpt><trkpt lat="45.44641644369791" lon="9.159668814301712"><ele>114.0</ele><time>2026-04-18T09:58:11.85Z</time></trkpt><trkpt lat="45.44648191165698" lon="9.159526279838898"><ele>114.33333333333333</ele><time>2026-04-18T09:58:13.85Z</time></trkpt><trkpt lat="45.446528110461614" lon="9.159456271852953"><ele>114.66666666666666</ele><time>2026-04-18T09:58:14.85Z</time></trkpt><trkpt lat="45.446568613300585" lon="9.15938756374826"><ele>115.0</ele><time>2026-04-18T09:58:15.85Z</time></trkpt><trkpt lat="45.44663773503989" lon="9.159243522504061"><ele>115.33333333333333</ele><time>2026-04-18T09:58:17.85Z</time></trkpt><trkpt lat="45.44667722574074" lon="9.159169957630219"><ele>115.66666666666666</ele><time>2026-04-18T09:58:18.85Z</time></trkpt><trkpt lat="45.44671899506611" lon="9.159101549757889"><ele>116.0</ele><time>2026-04-18T09:58:19.85Z</time></trkpt><trkpt lat="45.446805166187275" lon="9.158975268664113"><ele>116.0</ele><time>2026-04-18T09:58:21.85Z</time></trkpt><trkpt lat="45.44689296910761" lon="9.15886055061678"><ele>116.0</ele><time>2026-04-18T09:58:23.85Z</time></trkpt><trkpt lat="45.44698095716452" lon="9.158753115833289"><ele>116.0</ele><time>2026-04-18T09:58:25.85Z</time></trkpt><trkpt lat="45.44707156779462" lon="9.158672692417769"><ele>116.0</ele><time>2026-04-18T09:58:27.85Z</time></trkpt><trkpt lat="45.44716193248903" lon="9.158591153520698"><ele>116.0</ele><time>2026-04-18T09:58:29.85Z</time></trkpt><trkpt lat="45.44727046263945" lon="9.15850859682917"><ele>116.19999999999999</ele><time>2026-04-18T09:58:31.85Z</time></trkpt><trkpt lat="45.447378493561786" lon="9.158446559440465"><ele>116.39999999999999</ele><time>2026-04-18T09:58:33.85Z</time></trkpt><trkpt lat="45.44748076131685" lon="9.15838721949317"><ele>116.6</ele><time>2026-04-18T09:58:35.85Z</time></trkpt><trkpt lat="45.4475872772222" lon="9.158334661265659"><ele>116.8</ele><time>2026-04-18T09:58:37.849Z</time></trkpt><trkpt lat="45.447686075055934" lon="9.158281006148739"><ele>117.0</ele><time>2026-04-18T09:58:39.849Z</time></trkpt><trkpt lat="45.44778851568612" lon="9.15823990549909"><ele>117.19999999999999</ele><time>2026-04-18T09:58:41.849Z</time></trkpt><trkpt lat="45.447889135499835" lon="9.158198254798748"><ele>117.39999999999999</ele><time>2026-04-18T09:58:43.85Z</time></trkpt><trkpt lat="45.447982955997894" lon="9.158158785367824"><ele>117.60000000000001</ele><time>2026-04-18T09:58:45.85Z</time></trkpt><trkpt lat="45.448070668036586" lon="9.158120049126994"><ele>117.80000000000001</ele><time>2026-04-18T09:58:47.85Z</time></trkpt><trkpt lat="45.448156326270215" lon="9.158093871821336"><ele>118.0</ele><time>2026-04-18T09:58:49.85Z</time></trkpt><trkpt lat="45.44822490289396" lon="9.15807282535521"><ele>118.0</ele><time>2026-04-18T09:58:51.85Z</time></trkpt><trkpt lat="45.44829848999693" lon="9.158034979829234"><ele>118.00000000000001</ele><time>2026-04-18T09:58:53.85Z</time></trkpt><trkpt lat="45.44838067466061" lon="9.157990569527552"><ele>118.00000000000001</ele><time>2026-04-18T09:58:55.85Z</time></trkpt><trkpt lat="45.4484597609379" lon="9.157938287062194"><ele>118.0</ele><time>2026-04-18T09:58:57.85Z</time></trkpt><trkpt lat="45.44855501489452" lon="9.157877752060607"><ele>118.0</ele><time>2026-04-18T09:58:59.85Z</time></trkpt><trkpt lat="45.4486508912629" lon="9.157813321329552"><ele>118.0</ele><time>2026-04-18T09:59:01.85Z</time></trkpt><trkpt lat="45.448751956226786" lon="9.157751458433935"><ele>118.00000000000001</ele><time>2026-04-18T09:59:03.85Z</time></trkpt><trkpt lat="45.448839734969184" lon="9.157683603636649"><ele>118.00000000000001</ele><time>2026-04-18T09:59:05.85Z</time></trkpt><trkpt lat="45.448909987494275" lon="9.157614346482045"><ele>118.0</ele><time>2026-04-18T09:59:07.85Z</time></trkpt><trkpt lat="45.44900197650046" lon="9.157547032329152"><ele>118.0</ele><time>2026-04-18T09:59:09.85Z</time></trkpt><trkpt lat="45.44910057309846" lon="9.157482434175394"><ele>117.83333333333334</ele><time>2026-04-18T09:59:11.85Z</time></trkpt><trkpt lat="45.449195358399116" lon="9.157405060856489"><ele>117.66666666666667</ele><time>2026-04-18T09:59:13.85Z</time></trkpt><trkpt lat="45.4492746983058" lon="9.157319461862901"><ele>117.5</ele><time>2026-04-18T09:59:15.85Z</time></trkpt><trkpt lat="45.4493518035989" lon="9.157228217099359"><ele>117.33333333333334</ele><time>2026-04-18T09:59:17.85Z</time></trkpt><trkpt lat="45.44940320138086" lon="9.157173952496054"><ele>117.16666666666667</ele><time>2026-04-18T09:59:18.85Z</time></trkpt><trkpt lat="45.44945478335391" lon="9.15711620976451"><ele>117.0</ele><time>2026-04-18T09:59:19.849Z</time></trkpt><trkpt lat="45.449503497454145" lon="9.15704789442913"><ele>117.0</ele><time>2026-04-18T09:59:20.849Z</time></trkpt><trkpt lat="45.44955570327015" lon="9.156974656997035"><ele>117.0</ele><time>2026-04-18T09:59:21.849Z</time></trkpt><trkpt lat="45.44960362385123" lon="9.156894184988182"><ele>117.0</ele><time>2026-04-18T09:59:22.849Z</time></trkpt><trkpt lat="45.44965576773896" lon="9.156811797890422"><ele>117.0</ele><time>2026-04-18T09:59:23.849Z</time></trkpt><trkpt lat="45.449707968650905" lon="9.156724269846114"><ele>117.0</ele><time>2026-04-18T09:59:24.849Z</time></trkpt><trkpt lat="45.44975615205264" lon="9.156631141759737"><ele>117.0</ele><time>2026-04-18T09:59:25.849Z</time></trkpt><trkpt lat="45.44981043169369" lon="9.15653890005984"><ele>117.33333333333333</ele><time>2026-04-18T09:59:26.849Z</time></trkpt><trkpt lat="45.449861609407144" lon="9.156446909433885"><ele>117.66666666666666</ele><time>2026-04-18T09:59:27.849Z</time></trkpt><trkpt lat="45.449903905723744" lon="9.156364681502893"><ele>118.0</ele><time>2026-04-18T09:59:28.849Z</time></trkpt><trkpt lat="45.44995658934303" lon="9.15629606910086"><ele>118.33333333333333</ele><time>2026-04-18T09:59:29.849Z</time></trkpt><trkpt lat="45.4499918360664" lon="9.156218020173817"><ele>118.66666666666666</ele><time>2026-04-18T09:59:30.849Z</time></trkpt><trkpt lat="45.45015009570251" lon="9.156202686546221"><ele>119.0</ele><time>2026-04-18T09:59:32.849Z</time></trkpt><trkpt lat="45.45022350833771" lon="9.156221273325926"><ele>118.99999999999999</ele><time>2026-04-18T09:59:33.849Z</time></trkpt><trkpt lat="45.45029753812543" lon="9.156242706776379"><ele>119.0</ele><time>2026-04-18T09:59:34.849Z</time></trkpt><trkpt lat="45.45037236057915" lon="9.156295980435852"><ele>119.0</ele><time>2026-04-18T09:59:35.849Z</time></trkpt><trkpt lat="45.450429403614" lon="9.156369201242084"><ele>119.0</ele><time>2026-04-18T09:59:36.849Z</time></trkpt><trkpt lat="45.45047762894763" lon="9.156458786301366"><ele>118.99999999999999</ele><time>2026-04-18T09:59:37.849Z</time></trkpt><trkpt lat="45.45050295678308" lon="9.156550449965287"><ele>119.0</ele><time>2026-04-18T09:59:38.849Z</time></trkpt><trkpt lat="45.45052064455468" lon="9.15666600310704"><ele>119.33333333333333</ele><time>2026-04-18T09:59:40.849Z</time></trkpt><trkpt lat="45.45052287072286" lon="9.156790015539688"><ele>119.66666666666666</ele><time>2026-04-18T09:59:44.849Z</time></trkpt><trkpt lat="45.450536974827" lon="9.156914021814977"><ele>120.0</ele><time>2026-04-18T09:59:47.849Z</time></trkpt><trkpt lat="45.45055426604173" lon="9.157039750753706"><ele>120.33333333333334</ele><time>2026-04-18T09:59:49.849Z</time></trkpt><trkpt lat="45.450578026775396" lon="9.157153803268756"><ele>120.66666666666667</ele><time>2026-04-18T09:59:51.849Z</time></trkpt><trkpt lat="45.45060270584552" lon="9.157265896499707"><ele>121.0</ele><time>2026-04-18T09:59:53.849Z</time></trkpt><trkpt lat="45.45063017769023" lon="9.157419854264173"><ele>121.4</ele><time>2026-04-18T09:59:55.849Z</time></trkpt><trkpt lat="45.45065043014461" lon="9.157570099893796"><ele>121.8</ele><time>2026-04-18T09:59:57.849Z</time></trkpt><trkpt lat="45.45067578472953" lon="9.15771241539463"><ele>122.20000000000002</ele><time>2026-04-18T09:59:59.849Z</time></trkpt><trkpt lat="45.45071442407884" lon="9.157856416466705"><ele>122.60000000000001</ele><time>2026-04-18T10:00:01.849Z</time></trkpt><trkpt lat="45.450742552031116" lon="9.158005130532542"><ele>123.0</ele><time>2026-04-18T10:00:03.849Z</time></trkpt><trkpt lat="45.450772732719884" lon="9.15811311614225"><ele>122.80000000000001</ele><time>2026-04-18T10:00:05.849Z</time></trkpt><trkpt lat="45.45079070607933" lon="9.158273813567442"><ele>122.60000000000001</ele><time>2026-04-18T10:00:08.849Z</time></trkpt><trkpt lat="45.450802341025515" lon="9.158438403366745"><ele>122.39999999999999</ele><time>2026-04-18T10:00:10.849Z</time></trkpt><trkpt lat="45.45083026690858" lon="9.158609505386506"><ele>122.19999999999999</ele><time>2026-04-18T10:00:12.849Z</time></trkpt><trkpt lat="45.450850338898526" lon="9.15873484546907"><ele>122.0</ele><time>2026-04-18T10:00:14.849Z</time></trkpt><trkpt lat="45.45086771525556" lon="9.15884177751339"><ele>121.99999999999999</ele><time>2026-04-18T10:00:15.849Z</time></trkpt><trkpt lat="45.450882947337064" lon="9.158937991883358"><ele>122.0</ele><time>2026-04-18T10:00:16.849Z</time></trkpt><trkpt lat="45.450903238035075" lon="9.159037295182891"><ele>121.99999999999999</ele><time>2026-04-18T10:00:17.849Z</time></trkpt><trkpt lat="45.45092399182788" lon="9.159136615633246"><ele>121.99999999999999</ele><time>2026-04-18T10:00:18.849Z</time></trkpt><trkpt lat="45.45093546885312" lon="9.15922528905568"><ele>122.0</ele><time>2026-04-18T10:00:19.849Z</time></trkpt><trkpt lat="45.45094811526082" lon="9.159313202949578"><ele>121.99999999999999</ele><time>2026-04-18T10:00:20.848Z</time></trkpt><trkpt lat="45.45096814448724" lon="9.159408314575499"><ele>121.99999999999999</ele><time>2026-04-18T10:00:21.848Z</time></trkpt><trkpt lat="45.45098563760681" lon="9.159497427080995"><ele>122.0</ele><time>2026-04-18T10:00:22.848Z</time></trkpt><trkpt lat="45.451019690948655" lon="9.159669379084045"><ele>122.0</ele><time>2026-04-18T10:00:24.848Z</time></trkpt><trkpt lat="45.45105057459531" lon="9.159840812360668"><ele>122.0</ele><time>2026-04-18T10:00:26.848Z</time></trkpt><trkpt lat="45.45108257876087" lon="9.159990424407399"><ele>122.0</ele><time>2026-04-18T10:00:28.848Z</time></trkpt><trkpt lat="45.451105238600704" lon="9.160165759143656"><ele>122.39999999999999</ele><time>2026-04-18T10:00:30.848Z</time></trkpt><trkpt lat="45.45112952980866" lon="9.160341518386328"><ele>122.79999999999998</ele><time>2026-04-18T10:00:32.848Z</time></trkpt><trkpt lat="45.451148180898386" lon="9.160433261540389"><ele>123.2</ele><time>2026-04-18T10:00:33.848Z</time></trkpt><trkpt lat="45.451179222540205" lon="9.160587654013405"><ele>123.6</ele><time>2026-04-18T10:00:35.848Z</time></trkpt><trkpt lat="45.451226414334315" lon="9.160684558012926"><ele>124.0</ele><time>2026-04-18T10:00:37.848Z</time></trkpt><trkpt lat="45.45133632129206" lon="9.160689718012302"><ele>124.16666666666667</ele><time>2026-04-18T10:00:39.848Z</time></trkpt><trkpt lat="45.45140310297966" lon="9.160632816251127"><ele>124.33333333333334</ele><time>2026-04-18T10:00:41.848Z</time></trkpt><trkpt lat="45.45147420259311" lon="9.160581217121445"><ele>124.5</ele><time>2026-04-18T10:00:43.848Z</time></trkpt><trkpt lat="45.45152981725484" lon="9.160511024089153"><ele>124.66666666666666</ele><time>2026-04-18T10:00:45.848Z</time></trkpt><trkpt lat="45.451594836488" lon="9.160445443630199"><ele>124.83333333333333</ele><time>2026-04-18T10:00:47.848Z</time></trkpt><trkpt lat="45.45167310191404" lon="9.160395300503994"><ele>125.0</ele><time>2026-04-18T10:00:49.848Z</time></trkpt><trkpt lat="45.45176266001695" lon="9.160361893711121"><ele>125.0</ele><time>2026-04-18T10:00:51.848Z</time></trkpt><trkpt lat="45.451866797502916" lon="9.160310838588355"><ele>125.0</ele><time>2026-04-18T10:00:53.848Z</time></trkpt><trkpt lat="45.45196696818952" lon="9.160239524242236"><ele>125.0</ele><time>2026-04-18T10:00:55.848Z</time></trkpt><trkpt lat="45.45206627724283" lon="9.160197746643458"><ele>125.0</ele><time>2026-04-18T10:00:57.848Z</time></trkpt><trkpt lat="45.45215635317485" lon="9.160160905814067"><ele>125.0</ele><time>2026-04-18T10:00:59.848Z</time></trkpt><trkpt lat="45.452241980282075" lon="9.160094661775704"><ele>124.6</ele><time>2026-04-18T10:01:01.848Z</time></trkpt><trkpt lat="45.45232372268935" lon="9.16002600793556"><ele>124.2</ele><time>2026-04-18T10:01:03.848Z</time></trkpt><trkpt lat="45.452429227463" lon="9.159963049913802"><ele>123.80000000000001</ele><time>2026-04-18T10:01:05.848Z</time></trkpt><trkpt lat="45.45255041893622" lon="9.15989936221978"><ele>123.4</ele><time>2026-04-18T10:01:07.848Z</time></trkpt><trkpt lat="45.45261686883758" lon="9.159869706647873"><ele>123.0</ele><time>2026-04-18T10:01:08.848Z</time></trkpt><trkpt lat="45.45271676415651" lon="9.159806718311316"><ele>123.0</ele><time>2026-04-18T10:01:10.848Z</time></trkpt><trkpt lat="45.452811770509" lon="9.15973739560691"><ele>123.00000000000001</ele><time>2026-04-18T10:01:12.848Z</time></trkpt><trkpt lat="45.45290418379742" lon="9.15965537254151"><ele>123.00000000000001</ele><time>2026-04-18T10:01:14.848Z</time></trkpt><trkpt lat="45.45301114196627" lon="9.159592845132241"><ele>123.0</ele><time>2026-04-18T10:01:16.848Z</time></trkpt><trkpt lat="45.45311902541547" lon="9.159542841547864"><ele>123.0</ele><time>2026-04-18T10:01:18.848Z</time></trkpt><trkpt lat="45.45320720812655" lon="9.159503342739697"><ele>122.5</ele><time>2026-04-18T10:01:20.848Z</time></trkpt><trkpt lat="45.45327361005312" lon="9.15946715837392"><ele>122.0</ele><time>2026-04-18T10:01:22.848Z</time></trkpt><trkpt lat="45.45334352888341" lon="9.159403078106173"><ele>121.5</ele><time>2026-04-18T10:01:25.848Z</time></trkpt><trkpt lat="45.45340848110844" lon="9.159375112236319"><ele>121.0</ele><time>2026-04-18T10:01:27.848Z</time></trkpt><trkpt lat="45.45349936521375" lon="9.159322503559025"><ele>120.5</ele><time>2026-04-18T10:01:29.848Z</time></trkpt><trkpt lat="45.45358729990688" lon="9.159277408520113"><ele>120.0</ele><time>2026-04-18T10:01:31.848Z</time></trkpt><trkpt lat="45.45366049805043" lon="9.159233202320273"><ele>120.0</ele><time>2026-04-18T10:01:33.848Z</time></trkpt><trkpt lat="45.4537335608414" lon="9.159188112854006"><ele>120.0</ele><time>2026-04-18T10:01:35.848Z</time></trkpt><trkpt lat="45.453813814686484" lon="9.159123097632259"><ele>120.0</ele><time>2026-04-18T10:01:38.848Z</time></trkpt><trkpt lat="45.45388709697858" lon="9.159099411924242"><ele>120.0</ele><time>2026-04-18T10:02:29.847Z</time></trkpt><trkpt lat="45.453953947163036" lon="9.15904048855073"><ele>120.0</ele><time>2026-04-18T10:02:32.847Z</time></trkpt><trkpt lat="45.45402489540847" lon="9.15899645028296"><ele>120.0</ele><time>2026-04-18T10:02:34.847Z</time></trkpt><trkpt lat="45.45408065876413" lon="9.158938829724974"><ele>120.5</ele><time>2026-04-18T10:02:36.847Z</time></trkpt><trkpt lat="45.45414552287738" lon="9.158883418896965"><ele>121.0</ele><time>2026-04-18T10:02:38.847Z</time></trkpt><trkpt lat="45.45421880148335" lon="9.158821160722928"><ele>121.5</ele><time>2026-04-18T10:02:40.847Z</time></trkpt><trkpt lat="45.45428336488947" lon="9.15879075446638"><ele>122.0</ele><time>2026-04-18T10:02:42.846Z</time></trkpt><trkpt lat="45.45438998815381" lon="9.158725969893043"><ele>122.5</ele><time>2026-04-18T10:02:44.846Z</time></trkpt><trkpt lat="45.45446674981441" lon="9.158664675924374"><ele>123.0</ele><time>2026-04-18T10:02:46.846Z</time></trkpt><trkpt lat="45.45455113586297" lon="9.158590234570177"><ele>122.80000000000001</ele><time>2026-04-18T10:02:48.846Z</time></trkpt><trkpt lat="45.45462997455654" lon="9.158529176992182"><ele>122.60000000000001</ele><time>2026-04-18T10:02:50.846Z</time></trkpt><trkpt lat="45.45471320722542" lon="9.15846399290985"><ele>122.39999999999999</ele><time>2026-04-18T10:02:52.846Z</time></trkpt><trkpt lat="45.454805906554306" lon="9.158421555835899"><ele>122.19999999999999</ele><time>2026-04-18T10:02:54.846Z</time></trkpt><trkpt lat="45.45490383296719" lon="9.158344198579668"><ele>122.0</ele><time>2026-04-18T10:02:56.846Z</time></trkpt><trkpt lat="45.4549909676751" lon="9.158303693165246"><ele>122.0</ele><time>2026-04-18T10:02:58.846Z</time></trkpt><trkpt lat="45.45510008123728" lon="9.158236754076329"><ele>121.99999999999999</ele><time>2026-04-18T10:03:00.846Z</time></trkpt><trkpt lat="45.45515479349888" lon="9.158189838905495"><ele>121.99999999999999</ele><time>2026-04-18T10:03:01.846Z</time></trkpt><trkpt lat="45.45524074207404" lon="9.158141470407962"><ele>122.0</ele><time>2026-04-18T10:03:03.846Z</time></trkpt><trkpt lat="45.4553287874225" lon="9.158077186801227"><ele>122.0</ele><time>2026-04-18T10:03:05.846Z</time></trkpt><trkpt lat="45.45539680696048" lon="9.15802338180714"><ele>123.0</ele><time>2026-04-18T10:03:07.846Z</time></trkpt><trkpt lat="45.455500764026276" lon="9.15798606557081"><ele>123.99999999999999</ele><time>2026-04-18T10:03:10.846Z</time></trkpt><trkpt lat="45.455582461856615" lon="9.157955048067743"><ele>124.99999999999999</ele><time>2026-04-18T10:03:12.845Z</time></trkpt><trkpt lat="45.45566720218471" lon="9.1578895824703"><ele>126.0</ele><time>2026-04-18T10:03:14.845Z</time></trkpt><trkpt lat="45.45574765656285" lon="9.157818041203175"><ele>127.0</ele><time>2026-04-18T10:03:16.845Z</time></trkpt><trkpt lat="45.45582540286831" lon="9.157745629356697"><ele>127.00000000000001</ele><time>2026-04-18T10:03:18.845Z</time></trkpt><trkpt lat="45.455896428556784" lon="9.157692316041569"><ele>127.0</ele><time>2026-04-18T10:03:20.845Z</time></trkpt><trkpt lat="45.45599688219147" lon="9.157627599091096"><ele>127.0</ele><time>2026-04-18T10:03:22.845Z</time></trkpt><trkpt lat="45.456067090381914" lon="9.157574664126464"><ele>127.0</ele><time>2026-04-18T10:03:24.845Z</time></trkpt><trkpt lat="45.45615218024646" lon="9.157523745838299"><ele>127.00000000000001</ele><time>2026-04-18T10:03:26.845Z</time></trkpt><trkpt lat="45.45621733197986" lon="9.157462633649727"><ele>127.0</ele><time>2026-04-18T10:03:28.845Z</time></trkpt><trkpt lat="45.4562985996001" lon="9.157380434851456"><ele>127.33333333333334</ele><time>2026-04-18T10:03:30.845Z</time></trkpt><trkpt lat="45.456376498218866" lon="9.157353966997617"><ele>127.66666666666667</ele><time>2026-04-18T10:03:32.845Z</time></trkpt><trkpt lat="45.456444256623584" lon="9.157319977169582"><ele>128.0</ele><time>2026-04-18T10:03:34.845Z</time></trkpt><trkpt lat="45.45652077014431" lon="9.157297608689362"><ele>128.33333333333334</ele><time>2026-04-18T10:03:36.845Z</time></trkpt><trkpt lat="45.45658636911277" lon="9.157265137848386"><ele>128.66666666666666</ele><time>2026-04-18T10:03:38.845Z</time></trkpt><trkpt lat="45.45666943173284" lon="9.15722348636032"><ele>129.0</ele><time>2026-04-18T10:03:40.845Z</time></trkpt><trkpt lat="45.456738331964715" lon="9.157163860201793"><ele>129.0</ele><time>2026-04-18T10:03:42.845Z</time></trkpt><trkpt lat="45.45682186534629" lon="9.157102326799585"><ele>129.0</ele><time>2026-04-18T10:03:44.845Z</time></trkpt><trkpt lat="45.45690452802773" lon="9.157062963705519"><ele>129.0</ele><time>2026-04-18T10:03:46.845Z</time></trkpt><trkpt lat="45.456969321305564" lon="9.157015625339255"><ele>129.0</ele><time>2026-04-18T10:03:48.845Z</time></trkpt><trkpt lat="45.45704708825909" lon="9.15697677731813"><ele>129.0</ele><time>2026-04-18T10:03:50.845Z</time></trkpt><trkpt lat="45.45712685001664" lon="9.156915384610924"><ele>129.0</ele><time>2026-04-18T10:03:52.845Z</time></trkpt><trkpt lat="45.457201909056565" lon="9.156880869823855"><ele>129.2</ele><time>2026-04-18T10:03:54.845Z</time></trkpt><trkpt lat="45.45728528284383" lon="9.15682378116554"><ele>129.4</ele><time>2026-04-18T10:03:56.845Z</time></trkpt><trkpt lat="45.45738026189733" lon="9.156760438788845"><ele>129.6</ele><time>2026-04-18T10:03:58.845Z</time></trkpt><trkpt lat="45.45748190766059" lon="9.15668150366331"><ele>129.8</ele><time>2026-04-18T10:04:00.845Z</time></trkpt><trkpt lat="45.45757978980006" lon="9.156625564964738"><ele>130.0</ele><time>2026-04-18T10:04:02.845Z</time></trkpt><trkpt lat="45.45768226249229" lon="9.156563664914081"><ele>129.8</ele><time>2026-04-18T10:04:04.845Z</time></trkpt><trkpt lat="45.45777211986457" lon="9.156501038778446"><ele>129.6</ele><time>2026-04-18T10:04:06.845Z</time></trkpt><trkpt lat="45.457862321598924" lon="9.156444620925623"><ele>129.4</ele><time>2026-04-18T10:04:08.845Z</time></trkpt><trkpt lat="45.45796324002373" lon="9.156439096705956"><ele>129.2</ele><time>2026-04-18T10:04:10.845Z</time></trkpt><trkpt lat="45.45808619906246" lon="9.15647624845731"><ele>129.0</ele><time>2026-04-18T10:04:12.845Z</time></trkpt><trkpt lat="45.458152970281226" lon="9.156486305793331"><ele>129.0</ele><time>2026-04-18T10:04:13.845Z</time></trkpt><trkpt lat="45.45827450140779" lon="9.156470716445027"><ele>129.0</ele><time>2026-04-18T10:04:15.844Z</time></trkpt><trkpt lat="45.45837470237212" lon="9.156390758460956"><ele>129.0</ele><time>2026-04-18T10:04:17.844Z</time></trkpt><trkpt lat="45.45842311295509" lon="9.156304771264889"><ele>129.0</ele><time>2026-04-18T10:04:19.844Z</time></trkpt><trkpt lat="45.45850658328237" lon="9.156341683448183"><ele>129.0</ele><time>2026-04-18T10:04:20.844Z</time></trkpt><trkpt lat="45.45861052608073" lon="9.156376224217414"><ele>129.0</ele><time>2026-04-18T10:04:22.844Z</time></trkpt><trkpt lat="45.45871330968611" lon="9.156427899413435"><ele>129.0</ele><time>2026-04-18T10:04:24.844Z</time></trkpt><trkpt lat="45.45880777985675" lon="9.156495456051116"><ele>129.0</ele><time>2026-04-18T10:04:26.844Z</time></trkpt><trkpt lat="45.45892640087044" lon="9.156535843306724"><ele>129.0</ele><time>2026-04-18T10:04:28.844Z</time></trkpt><trkpt lat="45.459050335051586" lon="9.156574067208377"><ele>129.0</ele><time>2026-04-18T10:04:30.844Z</time></trkpt><trkpt lat="45.45912325388266" lon="9.156600221687498"><ele>129.0</ele><time>2026-04-18T10:04:31.844Z</time></trkpt><trkpt lat="45.45924083712697" lon="9.156622201243563"><ele>129.0</ele><time>2026-04-18T10:04:33.844Z</time></trkpt><trkpt lat="45.45931463577781" lon="9.156649122907472"><ele>129.0</ele><time>2026-04-18T10:04:34.844Z</time></trkpt><trkpt lat="45.45937753259482" lon="9.156697957532046"><ele>129.0</ele><time>2026-04-18T10:04:35.844Z</time></trkpt><trkpt lat="45.459437433562094" lon="9.156727584739155"><ele>129.0</ele><time>2026-04-18T10:04:36.844Z</time></trkpt><trkpt lat="45.45950448755521" lon="9.156753696828071"><ele>129.0</ele><time>2026-04-18T10:04:37.844Z</time></trkpt><trkpt lat="45.45962328822716" lon="9.156788122305079"><ele>129.0</ele><time>2026-04-18T10:04:39.844Z</time></trkpt><trkpt lat="45.45968354714272" lon="9.156826743060634"><ele>129.0</ele><time>2026-04-18T10:04:40.844Z</time></trkpt><trkpt lat="45.45979266687572" lon="9.156847324935113"><ele>129.0</ele><time>2026-04-18T10:04:42.844Z</time></trkpt><trkpt lat="45.45985607158945" lon="9.1568623988583"><ele>129.0</ele><time>2026-04-18T10:04:43.844Z</time></trkpt><trkpt lat="45.4599688859139" lon="9.156904440379563"><ele>129.0</ele><time>2026-04-18T10:04:45.844Z</time></trkpt><trkpt lat="45.46007670008261" lon="9.156935241369053"><ele>129.0</ele><time>2026-04-18T10:04:47.844Z</time></trkpt><trkpt lat="45.46017888458342" lon="9.156970255131801"><ele>129.0</ele><time>2026-04-18T10:04:49.844Z</time></trkpt><trkpt lat="45.4602657324625" lon="9.157006959300995"><ele>129.0</ele><time>2026-04-18T10:04:51.844Z</time></trkpt><trkpt lat="45.46035286068713" lon="9.157046204952541"><ele>129.0</ele><time>2026-04-18T10:04:53.844Z</time></trkpt><trkpt lat="45.46042740789519" lon="9.15704286534176"><ele>128.5</ele><time>2026-04-18T10:04:55.844Z</time></trkpt><trkpt lat="45.460506904529076" lon="9.157079369666295"><ele>128.0</ele><time>2026-04-18T10:04:57.844Z</time></trkpt><trkpt lat="45.46059848552062" lon="9.157107839154177"><ele>127.5</ele><time>2026-04-18T10:04:59.844Z</time></trkpt><trkpt lat="45.46066900180154" lon="9.157098475015943"><ele>127.0</ele><time>2026-04-18T10:05:01.844Z</time></trkpt><trkpt lat="45.46074690080473" lon="9.157139799791628"><ele>126.5</ele><time>2026-04-18T10:05:03.845Z</time></trkpt><trkpt lat="45.460804225463825" lon="9.157184894186077"><ele>126.0</ele><time>2026-04-18T10:05:05.845Z</time></trkpt><trkpt lat="45.46090521799086" lon="9.157233605897552"><ele>126.0</ele><time>2026-04-18T10:05:07.844Z</time></trkpt><trkpt lat="45.46100664962138" lon="9.157283268734345"><ele>126.0</ele><time>2026-04-18T10:05:09.844Z</time></trkpt><trkpt lat="45.46111497641253" lon="9.157325300321679"><ele>126.0</ele><time>2026-04-18T10:05:11.844Z</time></trkpt><trkpt lat="45.461220582056285" lon="9.157365599584924"><ele>126.0</ele><time>2026-04-18T10:05:13.844Z</time></trkpt><trkpt lat="45.46132097347722" lon="9.157415901684624"><ele>126.0</ele><time>2026-04-18T10:05:15.844Z</time></trkpt><trkpt lat="45.461411221521175" lon="9.157471033865857"><ele>125.6</ele><time>2026-04-18T10:05:17.844Z</time></trkpt><trkpt lat="45.46147367007555" lon="9.157559954732548"><ele>125.19999999999999</ele><time>2026-04-18T10:05:19.844Z</time></trkpt><trkpt lat="45.4615260572999" lon="9.157711017603837"><ele>124.80000000000001</ele><time>2026-04-18T10:05:21.844Z</time></trkpt><trkpt lat="45.461574833923216" lon="9.157868967193512"><ele>124.4</ele><time>2026-04-18T10:05:23.844Z</time></trkpt><trkpt lat="45.46162757587695" lon="9.15800701308056"><ele>124.0</ele><time>2026-04-18T10:05:25.844Z</time></trkpt><trkpt lat="45.46167750905711" lon="9.15815291078855"><ele>123.6</ele><time>2026-04-18T10:05:27.844Z</time></trkpt><trkpt lat="45.46171072128809" lon="9.158272740138646"><ele>123.2</ele><time>2026-04-18T10:05:29.844Z</time></trkpt><trkpt lat="45.46172041523117" lon="9.158375698266955"><ele>122.79999999999998</ele><time>2026-04-18T10:05:31.844Z</time></trkpt><trkpt lat="45.46173689159087" lon="9.158528244702214"><ele>122.39999999999999</ele><time>2026-04-18T10:05:33.844Z</time></trkpt><trkpt lat="45.46179765099083" lon="9.158622597626492"><ele>122.0</ele><time>2026-04-18T10:05:35.844Z</time></trkpt><trkpt lat="45.461893749535015" lon="9.158610042236747"><ele>122.0</ele><time>2026-04-18T10:05:37.844Z</time></trkpt><trkpt lat="45.46194022682575" lon="9.158542328106885"><ele>121.99999999999999</ele><time>2026-04-18T10:05:38.844Z</time></trkpt><trkpt lat="45.46202920357917" lon="9.158443533781908"><ele>121.99999999999999</ele><time>2026-04-18T10:05:40.843Z</time></trkpt><trkpt lat="45.46211734103558" lon="9.158399975683984"><ele>122.0</ele><time>2026-04-18T10:05:42.843Z</time></trkpt><trkpt lat="45.46219785031056" lon="9.158339695164862"><ele>122.0</ele><time>2026-04-18T10:05:44.843Z</time></trkpt><trkpt lat="45.462277956324094" lon="9.158292294011398"><ele>121.99999999999999</ele><time>2026-04-18T10:05:46.843Z</time></trkpt><trkpt lat="45.46235585187012" lon="9.158248060301686"><ele>122.0</ele><time>2026-04-18T10:05:48.843Z</time></trkpt><trkpt lat="45.46242297367331" lon="9.15819912137116"><ele>122.0</ele><time>2026-04-18T10:05:50.843Z</time></trkpt><trkpt lat="45.462499606035266" lon="9.158155684199343"><ele>122.0</ele><time>2026-04-18T10:05:52.843Z</time></trkpt><trkpt lat="45.46256789477872" lon="9.15811529394102"><ele>121.99999999999999</ele><time>2026-04-18T10:05:54.843Z</time></trkpt><trkpt lat="45.46264563171263" lon="9.15807963946454"><ele>122.0</ele><time>2026-04-18T10:05:56.843Z</time></trkpt><trkpt lat="45.46273412971592" lon="9.158013881885744"><ele>122.25</ele><time>2026-04-18T10:05:58.843Z</time></trkpt><trkpt lat="45.46282426074369" lon="9.157981476896447"><ele>122.5</ele><time>2026-04-18T10:06:00.843Z</time></trkpt><trkpt lat="45.46301133641671" lon="9.158010877480027"><ele>122.75</ele><time>2026-04-18T10:06:04.843Z</time></trkpt><trkpt lat="45.46312202489461" lon="9.158050904293958"><ele>123.0</ele><time>2026-04-18T10:06:06.843Z</time></trkpt><trkpt lat="45.46322005767899" lon="9.158080732850063"><ele>123.0</ele><time>2026-04-18T10:06:08.843Z</time></trkpt><trkpt lat="45.46334226287677" lon="9.158129110072752"><ele>123.0</ele><time>2026-04-18T10:06:10.843Z</time></trkpt><trkpt lat="45.46345669669602" lon="9.158177260037627"><ele>123.0</ele><time>2026-04-18T10:06:12.843Z</time></trkpt><trkpt lat="45.4635660506215" lon="9.158223526298954"><ele>123.0</ele><time>2026-04-18T10:06:14.843Z</time></trkpt><trkpt lat="45.4636795232225" lon="9.158252144099952"><ele>123.60000000000001</ele><time>2026-04-18T10:06:16.843Z</time></trkpt><trkpt lat="45.46378718120865" lon="9.158300499142415"><ele>124.20000000000002</ele><time>2026-04-18T10:06:18.843Z</time></trkpt><trkpt lat="45.46385149253968" lon="9.158323008728585"><ele>124.8</ele><time>2026-04-18T10:06:19.843Z</time></trkpt><trkpt lat="45.463964672475804" lon="9.158348992852872"><ele>125.4</ele><time>2026-04-18T10:06:21.843Z</time></trkpt><trkpt lat="45.46407779803196" lon="9.158400390363221"><ele>126.0</ele><time>2026-04-18T10:06:23.843Z</time></trkpt><trkpt lat="45.464199981395765" lon="9.158448354007932"><ele>126.0</ele><time>2026-04-18T10:06:25.843Z</time></trkpt><trkpt lat="45.46426392861037" lon="9.158471116187322"><ele>126.0</ele><time>2026-04-18T10:06:26.843Z</time></trkpt><trkpt lat="45.46432933720979" lon="9.158504952178479"><ele>126.0</ele><time>2026-04-18T10:06:27.843Z</time></trkpt><trkpt lat="45.46439509940447" lon="9.158532572290866"><ele>126.0</ele><time>2026-04-18T10:06:28.843Z</time></trkpt><trkpt lat="45.46446414471493" lon="9.158561562338264"><ele>126.0</ele><time>2026-04-18T10:06:29.843Z</time></trkpt><trkpt lat="45.46458867550884" lon="9.158609329652693"><ele>126.0</ele><time>2026-04-18T10:06:31.843Z</time></trkpt><trkpt lat="45.4646551755351" lon="9.158642166324205"><ele>126.0</ele><time>2026-04-18T10:06:32.843Z</time></trkpt><trkpt lat="45.46477495973651" lon="9.158686291807774"><ele>126.0</ele><time>2026-04-18T10:06:34.843Z</time></trkpt><trkpt lat="45.464887883971116" lon="9.158745289501828"><ele>126.0</ele><time>2026-04-18T10:06:36.843Z</time></trkpt><trkpt lat="45.46495192711857" lon="9.158768939896389"><ele>126.0</ele><time>2026-04-18T10:06:37.843Z</time></trkpt><trkpt lat="45.46501108950558" lon="9.158799984171266"><ele>126.0</ele><time>2026-04-18T10:06:38.843Z</time></trkpt><trkpt lat="45.465074167743076" lon="9.158833927014877"><ele>126.0</ele><time>2026-04-18T10:06:39.843Z</time></trkpt><trkpt lat="45.46519093303094" lon="9.158886176896491"><ele>126.0</ele><time>2026-04-18T10:06:41.843Z</time></trkpt><trkpt lat="45.46530658668024" lon="9.15894576585126"><ele>126.0</ele><time>2026-04-18T10:06:43.842Z</time></trkpt><trkpt lat="45.46539624206892" lon="9.158962956600456"><ele>126.0</ele><time>2026-04-18T10:06:45.842Z</time></trkpt><trkpt lat="45.4654874684496" lon="9.158973732193498"><ele>126.0</ele><time>2026-04-18T10:06:47.842Z</time></trkpt><trkpt lat="45.46558509708801" lon="9.159012099288404"><ele>126.0</ele><time>2026-04-18T10:06:49.842Z</time></trkpt><trkpt lat="45.465675241842945" lon="9.159071101044121"><ele>126.66666666666667</ele><time>2026-04-18T10:06:51.842Z</time></trkpt><trkpt lat="45.46574462984177" lon="9.159126751012598"><ele>127.33333333333334</ele><time>2026-04-18T10:06:53.842Z</time></trkpt><trkpt lat="45.46584380861375" lon="9.159178818184134"><ele>128.0</ele><time>2026-04-18T10:06:55.842Z</time></trkpt><trkpt lat="45.46593052777458" lon="9.159200147182817"><ele>128.66666666666669</ele><time>2026-04-18T10:06:57.842Z</time></trkpt><trkpt lat="45.46601735315509" lon="9.159219274268787"><ele>129.33333333333334</ele><time>2026-04-18T10:06:59.842Z</time></trkpt><trkpt lat="45.466092272340084" lon="9.159245954038466"><ele>130.0</ele><time>2026-04-18T10:07:01.842Z</time></trkpt><trkpt lat="45.46631456146486" lon="9.159348882526688"><ele>130.0</ele><time>2026-04-18T10:07:06.999Z</time></trkpt><trkpt lat="45.46642543367598" lon="9.159389480863988"><ele>130.0</ele><time>2026-04-18T10:07:08.999Z</time></trkpt><trkpt lat="45.466526271317576" lon="9.159420785062553"><ele>130.0</ele><time>2026-04-18T10:07:10.999Z</time></trkpt><trkpt lat="45.46662856333275" lon="9.15942623228373"><ele>130.0</ele><time>2026-04-18T10:07:12.999Z</time></trkpt><trkpt lat="45.466745116497854" lon="9.159472876001596"><ele>130.0</ele><time>2026-04-18T10:07:14.999Z</time></trkpt><trkpt lat="45.466844809778706" lon="9.159503902487486"><ele>130.0</ele><time>2026-04-18T10:07:17Z</time></trkpt><trkpt lat="45.46692417467963" lon="9.15953486528824"><ele>130.0</ele><time>2026-04-18T10:07:19Z</time></trkpt><trkpt lat="45.46699690813712" lon="9.159576437058949"><ele>130.0</ele><time>2026-04-18T10:07:21Z</time></trkpt><trkpt lat="45.46705924368578" lon="9.159612943581175"><ele>130.0</ele><time>2026-04-18T10:07:24Z</time></trkpt><trkpt lat="45.467080170090256" lon="9.15971258946361"><ele>130.0</ele><time>2026-04-18T10:07:32Z</time></trkpt><trkpt lat="45.467211186416584" lon="9.159777197570305"><ele>130.0</ele><time>2026-04-18T10:07:37Z</time></trkpt><trkpt lat="45.467277479402725" lon="9.159813860047587"><ele>130.00000000000003</ele><time>2026-04-18T10:07:39.001Z</time></trkpt><trkpt lat="45.46733885347077" lon="9.159850575528768"><ele>130.0</ele><time>2026-04-18T10:07:42.001Z</time></trkpt><trkpt lat="45.46743048414006" lon="9.159921187115478"><ele>130.0</ele><time>2026-04-18T10:07:44.001Z</time></trkpt><trkpt lat="45.4674828328741" lon="9.159976947147415"><ele>130.0</ele><time>2026-04-18T10:07:48.001Z</time></trkpt><trkpt lat="45.46751058825834" lon="9.160058322732624"><ele>130.0</ele><time>2026-04-18T10:07:50.001Z</time></trkpt><trkpt lat="45.46755452224577" lon="9.160131696459004"><ele>130.00000000000003</ele><time>2026-04-18T10:07:53.001Z</time></trkpt><trkpt lat="45.46755024559507" lon="9.160241479526965"><ele>130.0</ele><time>2026-04-18T10:08:06.001Z</time></trkpt><trkpt lat="45.46736905284364" lon="9.16047938073978"><ele>130.0</ele><time>2026-04-18T10:08:07.001Z</time></trkpt></trkseg></trk></gpx>